<?xml version="1.0" encoding="UTF-8" standalone="no" ?>
<gpx xmlns="http://www.topografix.com/GPX/1/1" xmlns:xsi="http://www.w3.org/2001/XMLSchema-instance" xsi:schemaLocation="http://www.topografix.com/GPX/1/1 http://www.topografix.com/GPX/1/1/gpx.xsd" version="1.1" creator="VisuGPX - https://www.visugpx.com">
  <metadata>
    <name>Aiguille de l'Epaisseur, Col des Sarrasins</name>
    <desc><![CDATA[Depuis le refuge des Aiguilles d'Arves, montée à l'Aiguille de l’Épaisseur. Descente jusque vers 2700 pour passer la zone rocheuse et remonter au Col des Sarrasins. Descente dans la vallée.]]></desc>
  </metadata>
  <trk>
    <name><![CDATA[2017-04-16 07-49]]></name>
    <trkseg>
      <trkpt lat="45.11818" lon="6.37533">
        <ele>2240.2</ele>
        <time>2017-04-16T05:49:51Z</time>
      </trkpt>
      <trkpt lat="45.11819" lon="6.37534">
        <ele>2240.8</ele>
        <time>2017-04-16T05:49:56Z</time>
      </trkpt>
      <trkpt lat="45.11824" lon="6.37536">
        <ele>2245.8</ele>
        <time>2017-04-16T05:50:16Z</time>
      </trkpt>
      <trkpt lat="45.11824" lon="6.37536">
        <ele>2248.8</ele>
        <time>2017-04-16T05:50:46Z</time>
      </trkpt>
      <trkpt lat="45.11825" lon="6.37535">
        <ele>2249</ele>
        <time>2017-04-16T05:50:56Z</time>
      </trkpt>
      <trkpt lat="45.11826" lon="6.37535">
        <ele>2250.4</ele>
        <time>2017-04-16T05:51:52Z</time>
      </trkpt>
      <trkpt lat="45.11827" lon="6.37534">
        <ele>2250.6</ele>
        <time>2017-04-16T05:52:02Z</time>
      </trkpt>
      <trkpt lat="45.11829" lon="6.37533">
        <ele>2250</ele>
        <time>2017-04-16T05:52:07Z</time>
      </trkpt>
      <trkpt lat="45.11832" lon="6.37529">
        <ele>2251.4</ele>
        <time>2017-04-16T05:52:12Z</time>
      </trkpt>
      <trkpt lat="45.11833" lon="6.37525">
        <ele>2254.8</ele>
        <time>2017-04-16T05:52:17Z</time>
      </trkpt>
      <trkpt lat="45.11833" lon="6.37522">
        <ele>2254.6</ele>
        <time>2017-04-16T05:52:22Z</time>
      </trkpt>
      <trkpt lat="45.11833" lon="6.3752">
        <ele>2261</ele>
        <time>2017-04-16T05:52:27Z</time>
      </trkpt>
      <trkpt lat="45.11834" lon="6.37519">
        <ele>2260.8</ele>
        <time>2017-04-16T05:52:32Z</time>
      </trkpt>
      <trkpt lat="45.11834" lon="6.37518">
        <ele>2259.6</ele>
        <time>2017-04-16T05:52:37Z</time>
      </trkpt>
      <trkpt lat="45.11837" lon="6.37518">
        <ele>2258.2</ele>
        <time>2017-04-16T05:52:42Z</time>
      </trkpt>
      <trkpt lat="45.11839" lon="6.37518">
        <ele>2261</ele>
        <time>2017-04-16T05:52:47Z</time>
      </trkpt>
      <trkpt lat="45.11841" lon="6.37519">
        <ele>2259</ele>
        <time>2017-04-16T05:52:52Z</time>
      </trkpt>
      <trkpt lat="45.11843" lon="6.3752">
        <ele>2262.6</ele>
        <time>2017-04-16T05:52:57Z</time>
      </trkpt>
      <trkpt lat="45.11845" lon="6.37519">
        <ele>2261</ele>
        <time>2017-04-16T05:53:02Z</time>
      </trkpt>
      <trkpt lat="45.11846" lon="6.37517">
        <ele>2259</ele>
        <time>2017-04-16T05:53:07Z</time>
      </trkpt>
      <trkpt lat="45.11848" lon="6.37519">
        <ele>2259.6</ele>
        <time>2017-04-16T05:53:12Z</time>
      </trkpt>
      <trkpt lat="45.11851" lon="6.37519">
        <ele>2258</ele>
        <time>2017-04-16T05:53:17Z</time>
      </trkpt>
      <trkpt lat="45.11854" lon="6.37521">
        <ele>2261.4</ele>
        <time>2017-04-16T05:53:27Z</time>
      </trkpt>
      <trkpt lat="45.11856" lon="6.37522">
        <ele>2257.8</ele>
        <time>2017-04-16T05:53:32Z</time>
      </trkpt>
      <trkpt lat="45.11858" lon="6.37524">
        <ele>2256.8</ele>
        <time>2017-04-16T05:53:37Z</time>
      </trkpt>
      <trkpt lat="45.11859" lon="6.37525">
        <ele>2257</ele>
        <time>2017-04-16T05:53:42Z</time>
      </trkpt>
      <trkpt lat="45.1186" lon="6.37525">
        <ele>2255.4</ele>
        <time>2017-04-16T05:53:47Z</time>
      </trkpt>
      <trkpt lat="45.11862" lon="6.37524">
        <ele>2258.8</ele>
        <time>2017-04-16T05:53:52Z</time>
      </trkpt>
      <trkpt lat="45.11865" lon="6.37525">
        <ele>2259.2</ele>
        <time>2017-04-16T05:53:57Z</time>
      </trkpt>
      <trkpt lat="45.11868" lon="6.37528">
        <ele>2262.6</ele>
        <time>2017-04-16T05:54:02Z</time>
      </trkpt>
      <trkpt lat="45.1187" lon="6.37529">
        <ele>2265.6</ele>
        <time>2017-04-16T05:54:07Z</time>
      </trkpt>
      <trkpt lat="45.11872" lon="6.37527">
        <ele>2265.8</ele>
        <time>2017-04-16T05:54:12Z</time>
      </trkpt>
      <trkpt lat="45.11873" lon="6.37527">
        <ele>2267</ele>
        <time>2017-04-16T05:54:17Z</time>
      </trkpt>
      <trkpt lat="45.11874" lon="6.37524">
        <ele>2268.8</ele>
        <time>2017-04-16T05:54:22Z</time>
      </trkpt>
      <trkpt lat="45.11875" lon="6.37523">
        <ele>2267.6</ele>
        <time>2017-04-16T05:54:27Z</time>
      </trkpt>
      <trkpt lat="45.11877" lon="6.37524">
        <ele>2269</ele>
        <time>2017-04-16T05:54:32Z</time>
      </trkpt>
      <trkpt lat="45.11879" lon="6.37521">
        <ele>2270.8</ele>
        <time>2017-04-16T05:54:37Z</time>
      </trkpt>
      <trkpt lat="45.11881" lon="6.37521">
        <ele>2273.8</ele>
        <time>2017-04-16T05:54:42Z</time>
      </trkpt>
      <trkpt lat="45.11883" lon="6.37521">
        <ele>2273.8</ele>
        <time>2017-04-16T05:54:47Z</time>
      </trkpt>
      <trkpt lat="45.11884" lon="6.37521">
        <ele>2271</ele>
        <time>2017-04-16T05:54:52Z</time>
      </trkpt>
      <trkpt lat="45.11887" lon="6.37522">
        <ele>2269.8</ele>
        <time>2017-04-16T05:54:57Z</time>
      </trkpt>
      <trkpt lat="45.11888" lon="6.37522">
        <ele>2273</ele>
        <time>2017-04-16T05:55:02Z</time>
      </trkpt>
      <trkpt lat="45.1189" lon="6.37522">
        <ele>2271.4</ele>
        <time>2017-04-16T05:55:07Z</time>
      </trkpt>
      <trkpt lat="45.11892" lon="6.37523">
        <ele>2272.8</ele>
        <time>2017-04-16T05:55:12Z</time>
      </trkpt>
      <trkpt lat="45.11894" lon="6.37523">
        <ele>2272</ele>
        <time>2017-04-16T05:55:17Z</time>
      </trkpt>
      <trkpt lat="45.11896" lon="6.37525">
        <ele>2274.8</ele>
        <time>2017-04-16T05:55:22Z</time>
      </trkpt>
      <trkpt lat="45.11898" lon="6.37526">
        <ele>2275</ele>
        <time>2017-04-16T05:55:27Z</time>
      </trkpt>
      <trkpt lat="45.11901" lon="6.37527">
        <ele>2279.2</ele>
        <time>2017-04-16T05:55:32Z</time>
      </trkpt>
      <trkpt lat="45.11903" lon="6.3753">
        <ele>2280.2</ele>
        <time>2017-04-16T05:55:37Z</time>
      </trkpt>
      <trkpt lat="45.11905" lon="6.37532">
        <ele>2280.2</ele>
        <time>2017-04-16T05:55:42Z</time>
      </trkpt>
      <trkpt lat="45.11906" lon="6.37534">
        <ele>2280.8</ele>
        <time>2017-04-16T05:55:47Z</time>
      </trkpt>
      <trkpt lat="45.11908" lon="6.37536">
        <ele>2280.2</ele>
        <time>2017-04-16T05:55:52Z</time>
      </trkpt>
      <trkpt lat="45.1191" lon="6.37537">
        <ele>2281.8</ele>
        <time>2017-04-16T05:55:57Z</time>
      </trkpt>
      <trkpt lat="45.11911" lon="6.37538">
        <ele>2281.6</ele>
        <time>2017-04-16T05:56:02Z</time>
      </trkpt>
      <trkpt lat="45.11913" lon="6.37539">
        <ele>2282.2</ele>
        <time>2017-04-16T05:56:07Z</time>
      </trkpt>
      <trkpt lat="45.11915" lon="6.37541">
        <ele>2282.2</ele>
        <time>2017-04-16T05:56:12Z</time>
      </trkpt>
      <trkpt lat="45.11917" lon="6.37542">
        <ele>2284.8</ele>
        <time>2017-04-16T05:56:17Z</time>
      </trkpt>
      <trkpt lat="45.1192" lon="6.37544">
        <ele>2285.8</ele>
        <time>2017-04-16T05:56:22Z</time>
      </trkpt>
      <trkpt lat="45.11922" lon="6.37545">
        <ele>2285.8</ele>
        <time>2017-04-16T05:56:27Z</time>
      </trkpt>
      <trkpt lat="45.11923" lon="6.37545">
        <ele>2283</ele>
        <time>2017-04-16T05:56:32Z</time>
      </trkpt>
      <trkpt lat="45.11923" lon="6.37545">
        <ele>2284</ele>
        <time>2017-04-16T05:56:37Z</time>
      </trkpt>
      <trkpt lat="45.11923" lon="6.37544">
        <ele>2284.8</ele>
        <time>2017-04-16T05:56:43Z</time>
      </trkpt>
      <trkpt lat="45.11923" lon="6.3754">
        <ele>2289.6</ele>
        <time>2017-04-16T05:56:48Z</time>
      </trkpt>
      <trkpt lat="45.11923" lon="6.37538">
        <ele>2290.2</ele>
        <time>2017-04-16T05:56:53Z</time>
      </trkpt>
      <trkpt lat="45.11923" lon="6.37536">
        <ele>2292.6</ele>
        <time>2017-04-16T05:56:58Z</time>
      </trkpt>
      <trkpt lat="45.11923" lon="6.37535">
        <ele>2291.4</ele>
        <time>2017-04-16T05:57:03Z</time>
      </trkpt>
      <trkpt lat="45.11924" lon="6.37534">
        <ele>2292</ele>
        <time>2017-04-16T05:57:08Z</time>
      </trkpt>
      <trkpt lat="45.11924" lon="6.37532">
        <ele>2292.8</ele>
        <time>2017-04-16T05:57:13Z</time>
      </trkpt>
      <trkpt lat="45.11923" lon="6.3753">
        <ele>2295.8</ele>
        <time>2017-04-16T05:57:43Z</time>
      </trkpt>
      <trkpt lat="45.11923" lon="6.37528">
        <ele>2298.2</ele>
        <time>2017-04-16T05:57:48Z</time>
      </trkpt>
      <trkpt lat="45.11923" lon="6.37523">
        <ele>2297.4</ele>
        <time>2017-04-16T05:57:53Z</time>
      </trkpt>
      <trkpt lat="45.11924" lon="6.37519">
        <ele>2293.4</ele>
        <time>2017-04-16T05:57:58Z</time>
      </trkpt>
      <trkpt lat="45.11924" lon="6.37515">
        <ele>2294.4</ele>
        <time>2017-04-16T05:58:03Z</time>
      </trkpt>
      <trkpt lat="45.11924" lon="6.37512">
        <ele>2295.2</ele>
        <time>2017-04-16T05:58:08Z</time>
      </trkpt>
      <trkpt lat="45.11923" lon="6.37507">
        <ele>2298.4</ele>
        <time>2017-04-16T05:58:13Z</time>
      </trkpt>
      <trkpt lat="45.11922" lon="6.37503">
        <ele>2298.2</ele>
        <time>2017-04-16T05:58:18Z</time>
      </trkpt>
      <trkpt lat="45.11922" lon="6.375">
        <ele>2300.4</ele>
        <time>2017-04-16T05:58:23Z</time>
      </trkpt>
      <trkpt lat="45.11922" lon="6.37496">
        <ele>2300</ele>
        <time>2017-04-16T05:58:28Z</time>
      </trkpt>
      <trkpt lat="45.11922" lon="6.37493">
        <ele>2299.6</ele>
        <time>2017-04-16T05:58:33Z</time>
      </trkpt>
      <trkpt lat="45.11923" lon="6.37489">
        <ele>2299.4</ele>
        <time>2017-04-16T05:58:38Z</time>
      </trkpt>
      <trkpt lat="45.11923" lon="6.37486">
        <ele>2302.4</ele>
        <time>2017-04-16T05:58:43Z</time>
      </trkpt>
      <trkpt lat="45.11922" lon="6.37483">
        <ele>2304.4</ele>
        <time>2017-04-16T05:58:48Z</time>
      </trkpt>
      <trkpt lat="45.1192" lon="6.37479">
        <ele>2302.2</ele>
        <time>2017-04-16T05:58:53Z</time>
      </trkpt>
      <trkpt lat="45.1192" lon="6.37475">
        <ele>2304.4</ele>
        <time>2017-04-16T05:58:58Z</time>
      </trkpt>
      <trkpt lat="45.11919" lon="6.37472">
        <ele>2304.6</ele>
        <time>2017-04-16T05:59:03Z</time>
      </trkpt>
      <trkpt lat="45.11918" lon="6.37469">
        <ele>2303.8</ele>
        <time>2017-04-16T05:59:08Z</time>
      </trkpt>
      <trkpt lat="45.11917" lon="6.37467">
        <ele>2306.6</ele>
        <time>2017-04-16T05:59:13Z</time>
      </trkpt>
      <trkpt lat="45.11916" lon="6.37464">
        <ele>2302.4</ele>
        <time>2017-04-16T05:59:18Z</time>
      </trkpt>
      <trkpt lat="45.11915" lon="6.3746">
        <ele>2305.2</ele>
        <time>2017-04-16T05:59:23Z</time>
      </trkpt>
      <trkpt lat="45.11914" lon="6.37457">
        <ele>2305.6</ele>
        <time>2017-04-16T05:59:28Z</time>
      </trkpt>
      <trkpt lat="45.11914" lon="6.37453">
        <ele>2307.4</ele>
        <time>2017-04-16T05:59:33Z</time>
      </trkpt>
      <trkpt lat="45.11914" lon="6.37449">
        <ele>2308.2</ele>
        <time>2017-04-16T05:59:38Z</time>
      </trkpt>
      <trkpt lat="45.11914" lon="6.37446">
        <ele>2309.6</ele>
        <time>2017-04-16T05:59:43Z</time>
      </trkpt>
      <trkpt lat="45.11913" lon="6.37443">
        <ele>2310.6</ele>
        <time>2017-04-16T05:59:48Z</time>
      </trkpt>
      <trkpt lat="45.11913" lon="6.37441">
        <ele>2308.6</ele>
        <time>2017-04-16T05:59:53Z</time>
      </trkpt>
      <trkpt lat="45.11913" lon="6.3744">
        <ele>2308.8</ele>
        <time>2017-04-16T05:59:58Z</time>
      </trkpt>
      <trkpt lat="45.11913" lon="6.37438">
        <ele>2311.2</ele>
        <time>2017-04-16T06:00:03Z</time>
      </trkpt>
      <trkpt lat="45.11914" lon="6.37435">
        <ele>2311</ele>
        <time>2017-04-16T06:00:08Z</time>
      </trkpt>
      <trkpt lat="45.11914" lon="6.37432">
        <ele>2312.2</ele>
        <time>2017-04-16T06:00:13Z</time>
      </trkpt>
      <trkpt lat="45.11914" lon="6.37428">
        <ele>2314.2</ele>
        <time>2017-04-16T06:00:18Z</time>
      </trkpt>
      <trkpt lat="45.11914" lon="6.37425">
        <ele>2317.4</ele>
        <time>2017-04-16T06:00:23Z</time>
      </trkpt>
      <trkpt lat="45.11914" lon="6.37421">
        <ele>2318.2</ele>
        <time>2017-04-16T06:00:28Z</time>
      </trkpt>
      <trkpt lat="45.11915" lon="6.37419">
        <ele>2316.6</ele>
        <time>2017-04-16T06:00:33Z</time>
      </trkpt>
      <trkpt lat="45.11915" lon="6.37415">
        <ele>2318</ele>
        <time>2017-04-16T06:00:38Z</time>
      </trkpt>
      <trkpt lat="45.11915" lon="6.37412">
        <ele>2318.6</ele>
        <time>2017-04-16T06:00:43Z</time>
      </trkpt>
      <trkpt lat="45.11915" lon="6.37408">
        <ele>2318</ele>
        <time>2017-04-16T06:00:48Z</time>
      </trkpt>
      <trkpt lat="45.11915" lon="6.37404">
        <ele>2318.6</ele>
        <time>2017-04-16T06:00:53Z</time>
      </trkpt>
      <trkpt lat="45.11915" lon="6.37401">
        <ele>2320.4</ele>
        <time>2017-04-16T06:00:58Z</time>
      </trkpt>
      <trkpt lat="45.11916" lon="6.37399">
        <ele>2320.8</ele>
        <time>2017-04-16T06:01:03Z</time>
      </trkpt>
      <trkpt lat="45.11917" lon="6.37397">
        <ele>2319.4</ele>
        <time>2017-04-16T06:01:08Z</time>
      </trkpt>
      <trkpt lat="45.11918" lon="6.37394">
        <ele>2320.2</ele>
        <time>2017-04-16T06:01:13Z</time>
      </trkpt>
      <trkpt lat="45.11919" lon="6.37393">
        <ele>2321</ele>
        <time>2017-04-16T06:01:18Z</time>
      </trkpt>
      <trkpt lat="45.1192" lon="6.37391">
        <ele>2323.4</ele>
        <time>2017-04-16T06:01:23Z</time>
      </trkpt>
      <trkpt lat="45.11922" lon="6.3739">
        <ele>2321.6</ele>
        <time>2017-04-16T06:01:28Z</time>
      </trkpt>
      <trkpt lat="45.11923" lon="6.37389">
        <ele>2322.6</ele>
        <time>2017-04-16T06:01:33Z</time>
      </trkpt>
      <trkpt lat="45.11923" lon="6.37387">
        <ele>2325.4</ele>
        <time>2017-04-16T06:01:38Z</time>
      </trkpt>
      <trkpt lat="45.11924" lon="6.37385">
        <ele>2325</ele>
        <time>2017-04-16T06:01:43Z</time>
      </trkpt>
      <trkpt lat="45.11926" lon="6.37384">
        <ele>2324.2</ele>
        <time>2017-04-16T06:01:48Z</time>
      </trkpt>
      <trkpt lat="45.11928" lon="6.37383">
        <ele>2325</ele>
        <time>2017-04-16T06:01:53Z</time>
      </trkpt>
      <trkpt lat="45.11928" lon="6.3738">
        <ele>2326.4</ele>
        <time>2017-04-16T06:01:58Z</time>
      </trkpt>
      <trkpt lat="45.11928" lon="6.3738">
        <ele>2326.4</ele>
        <time>2017-04-16T06:02:03Z</time>
      </trkpt>
      <trkpt lat="45.11929" lon="6.37378">
        <ele>2327.8</ele>
        <time>2017-04-16T06:02:08Z</time>
      </trkpt>
      <trkpt lat="45.1193" lon="6.37376">
        <ele>2330.4</ele>
        <time>2017-04-16T06:02:13Z</time>
      </trkpt>
      <trkpt lat="45.1193" lon="6.37376">
        <ele>2332.4</ele>
        <time>2017-04-16T06:02:28Z</time>
      </trkpt>
      <trkpt lat="45.11929" lon="6.37375">
        <ele>2332.4</ele>
        <time>2017-04-16T06:02:33Z</time>
      </trkpt>
      <trkpt lat="45.1193" lon="6.37373">
        <ele>2336.6</ele>
        <time>2017-04-16T06:02:38Z</time>
      </trkpt>
      <trkpt lat="45.11931" lon="6.37372">
        <ele>2337.2</ele>
        <time>2017-04-16T06:02:43Z</time>
      </trkpt>
      <trkpt lat="45.11934" lon="6.37369">
        <ele>2335.8</ele>
        <time>2017-04-16T06:02:53Z</time>
      </trkpt>
      <trkpt lat="45.11934" lon="6.37366">
        <ele>2336.8</ele>
        <time>2017-04-16T06:02:58Z</time>
      </trkpt>
      <trkpt lat="45.11934" lon="6.37366">
        <ele>2337.2</ele>
        <time>2017-04-16T06:03:08Z</time>
      </trkpt>
      <trkpt lat="45.11935" lon="6.37363">
        <ele>2339.4</ele>
        <time>2017-04-16T06:03:13Z</time>
      </trkpt>
      <trkpt lat="45.11936" lon="6.3736">
        <ele>2341.2</ele>
        <time>2017-04-16T06:03:18Z</time>
      </trkpt>
      <trkpt lat="45.11936" lon="6.37357">
        <ele>2342</ele>
        <time>2017-04-16T06:03:23Z</time>
      </trkpt>
      <trkpt lat="45.11936" lon="6.37353">
        <ele>2340.2</ele>
        <time>2017-04-16T06:03:28Z</time>
      </trkpt>
      <trkpt lat="45.11937" lon="6.3735">
        <ele>2341.6</ele>
        <time>2017-04-16T06:03:33Z</time>
      </trkpt>
      <trkpt lat="45.11938" lon="6.37346">
        <ele>2343.6</ele>
        <time>2017-04-16T06:03:38Z</time>
      </trkpt>
      <trkpt lat="45.11938" lon="6.37344">
        <ele>2345.6</ele>
        <time>2017-04-16T06:03:43Z</time>
      </trkpt>
      <trkpt lat="45.11939" lon="6.3734">
        <ele>2345.4</ele>
        <time>2017-04-16T06:03:48Z</time>
      </trkpt>
      <trkpt lat="45.11938" lon="6.37337">
        <ele>2344.4</ele>
        <time>2017-04-16T06:03:53Z</time>
      </trkpt>
      <trkpt lat="45.11939" lon="6.37334">
        <ele>2344.6</ele>
        <time>2017-04-16T06:03:58Z</time>
      </trkpt>
      <trkpt lat="45.11939" lon="6.37332">
        <ele>2344</ele>
        <time>2017-04-16T06:04:03Z</time>
      </trkpt>
      <trkpt lat="45.11938" lon="6.37329">
        <ele>2344.2</ele>
        <time>2017-04-16T06:04:08Z</time>
      </trkpt>
      <trkpt lat="45.11938" lon="6.37326">
        <ele>2347.4</ele>
        <time>2017-04-16T06:04:13Z</time>
      </trkpt>
      <trkpt lat="45.11938" lon="6.37324">
        <ele>2350</ele>
        <time>2017-04-16T06:04:18Z</time>
      </trkpt>
      <trkpt lat="45.1194" lon="6.37322">
        <ele>2346.6</ele>
        <time>2017-04-16T06:04:23Z</time>
      </trkpt>
      <trkpt lat="45.11942" lon="6.37323">
        <ele>2348.4</ele>
        <time>2017-04-16T06:04:28Z</time>
      </trkpt>
      <trkpt lat="45.11942" lon="6.37323">
        <ele>2348</ele>
        <time>2017-04-16T06:04:38Z</time>
      </trkpt>
      <trkpt lat="45.11944" lon="6.37325">
        <ele>2350.6</ele>
        <time>2017-04-16T06:04:43Z</time>
      </trkpt>
      <trkpt lat="45.11946" lon="6.37327">
        <ele>2352.8</ele>
        <time>2017-04-16T06:04:48Z</time>
      </trkpt>
      <trkpt lat="45.11948" lon="6.37329">
        <ele>2352.6</ele>
        <time>2017-04-16T06:04:53Z</time>
      </trkpt>
      <trkpt lat="45.11951" lon="6.37332">
        <ele>2353.8</ele>
        <time>2017-04-16T06:04:58Z</time>
      </trkpt>
      <trkpt lat="45.11953" lon="6.37333">
        <ele>2351.8</ele>
        <time>2017-04-16T06:05:03Z</time>
      </trkpt>
      <trkpt lat="45.11955" lon="6.37333">
        <ele>2351</ele>
        <time>2017-04-16T06:05:08Z</time>
      </trkpt>
      <trkpt lat="45.11957" lon="6.37333">
        <ele>2352.8</ele>
        <time>2017-04-16T06:05:13Z</time>
      </trkpt>
      <trkpt lat="45.11957" lon="6.37333">
        <ele>2352.6</ele>
        <time>2017-04-16T06:05:18Z</time>
      </trkpt>
      <trkpt lat="45.11957" lon="6.37331">
        <ele>2351.8</ele>
        <time>2017-04-16T06:05:23Z</time>
      </trkpt>
      <trkpt lat="45.11955" lon="6.37326">
        <ele>2352.2</ele>
        <time>2017-04-16T06:05:28Z</time>
      </trkpt>
      <trkpt lat="45.11956" lon="6.37323">
        <ele>2352.4</ele>
        <time>2017-04-16T06:05:33Z</time>
      </trkpt>
      <trkpt lat="45.11957" lon="6.3732">
        <ele>2350.8</ele>
        <time>2017-04-16T06:05:38Z</time>
      </trkpt>
      <trkpt lat="45.11959" lon="6.37317">
        <ele>2352.2</ele>
        <time>2017-04-16T06:05:43Z</time>
      </trkpt>
      <trkpt lat="45.1196" lon="6.37315">
        <ele>2358.2</ele>
        <time>2017-04-16T06:05:48Z</time>
      </trkpt>
      <trkpt lat="45.1196" lon="6.37311">
        <ele>2357.8</ele>
        <time>2017-04-16T06:05:53Z</time>
      </trkpt>
      <trkpt lat="45.11961" lon="6.37308">
        <ele>2358</ele>
        <time>2017-04-16T06:05:58Z</time>
      </trkpt>
      <trkpt lat="45.11965" lon="6.37302">
        <ele>2362.2</ele>
        <time>2017-04-16T06:06:23Z</time>
      </trkpt>
      <trkpt lat="45.11965" lon="6.37301">
        <ele>2362</ele>
        <time>2017-04-16T06:06:28Z</time>
      </trkpt>
      <trkpt lat="45.11967" lon="6.37297">
        <ele>2362.4</ele>
        <time>2017-04-16T06:06:38Z</time>
      </trkpt>
      <trkpt lat="45.1197" lon="6.37295">
        <ele>2363.2</ele>
        <time>2017-04-16T06:06:53Z</time>
      </trkpt>
      <trkpt lat="45.11972" lon="6.37293">
        <ele>2363</ele>
        <time>2017-04-16T06:06:58Z</time>
      </trkpt>
      <trkpt lat="45.11973" lon="6.3729">
        <ele>2366.6</ele>
        <time>2017-04-16T06:07:04Z</time>
      </trkpt>
      <trkpt lat="45.11973" lon="6.37289">
        <ele>2366.4</ele>
        <time>2017-04-16T06:07:09Z</time>
      </trkpt>
      <trkpt lat="45.11973" lon="6.37287">
        <ele>2365</ele>
        <time>2017-04-16T06:07:14Z</time>
      </trkpt>
      <trkpt lat="45.11974" lon="6.37282">
        <ele>2366.4</ele>
        <time>2017-04-16T06:07:19Z</time>
      </trkpt>
      <trkpt lat="45.11974" lon="6.37279">
        <ele>2368.8</ele>
        <time>2017-04-16T06:07:24Z</time>
      </trkpt>
      <trkpt lat="45.11973" lon="6.37277">
        <ele>2370</ele>
        <time>2017-04-16T06:07:29Z</time>
      </trkpt>
      <trkpt lat="45.11973" lon="6.37274">
        <ele>2369.2</ele>
        <time>2017-04-16T06:07:34Z</time>
      </trkpt>
      <trkpt lat="45.11971" lon="6.3727">
        <ele>2368.6</ele>
        <time>2017-04-16T06:07:39Z</time>
      </trkpt>
      <trkpt lat="45.1197" lon="6.37266">
        <ele>2373.2</ele>
        <time>2017-04-16T06:07:44Z</time>
      </trkpt>
      <trkpt lat="45.11969" lon="6.37261">
        <ele>2371</ele>
        <time>2017-04-16T06:07:49Z</time>
      </trkpt>
      <trkpt lat="45.11968" lon="6.37256">
        <ele>2373.4</ele>
        <time>2017-04-16T06:07:54Z</time>
      </trkpt>
      <trkpt lat="45.11967" lon="6.37252">
        <ele>2374.2</ele>
        <time>2017-04-16T06:07:59Z</time>
      </trkpt>
      <trkpt lat="45.11968" lon="6.3725">
        <ele>2373.6</ele>
        <time>2017-04-16T06:08:04Z</time>
      </trkpt>
      <trkpt lat="45.11968" lon="6.37246">
        <ele>2374.2</ele>
        <time>2017-04-16T06:08:09Z</time>
      </trkpt>
      <trkpt lat="45.11968" lon="6.37243">
        <ele>2375</ele>
        <time>2017-04-16T06:08:14Z</time>
      </trkpt>
      <trkpt lat="45.11966" lon="6.37239">
        <ele>2373.8</ele>
        <time>2017-04-16T06:08:19Z</time>
      </trkpt>
      <trkpt lat="45.11966" lon="6.37236">
        <ele>2375.8</ele>
        <time>2017-04-16T06:08:24Z</time>
      </trkpt>
      <trkpt lat="45.11964" lon="6.37232">
        <ele>2375.4</ele>
        <time>2017-04-16T06:08:29Z</time>
      </trkpt>
      <trkpt lat="45.11964" lon="6.37229">
        <ele>2375.6</ele>
        <time>2017-04-16T06:08:34Z</time>
      </trkpt>
      <trkpt lat="45.11967" lon="6.37226">
        <ele>2378.4</ele>
        <time>2017-04-16T06:09:29Z</time>
      </trkpt>
      <trkpt lat="45.11967" lon="6.37225">
        <ele>2377.4</ele>
        <time>2017-04-16T06:09:39Z</time>
      </trkpt>
      <trkpt lat="45.11967" lon="6.37224">
        <ele>2378.4</ele>
        <time>2017-04-16T06:10:04Z</time>
      </trkpt>
      <trkpt lat="45.11968" lon="6.37226">
        <ele>2378.4</ele>
        <time>2017-04-16T06:10:44Z</time>
      </trkpt>
      <trkpt lat="45.11969" lon="6.37226">
        <ele>2377.6</ele>
        <time>2017-04-16T06:11:04Z</time>
      </trkpt>
      <trkpt lat="45.1197" lon="6.37226">
        <ele>2377.4</ele>
        <time>2017-04-16T06:11:54Z</time>
      </trkpt>
      <trkpt lat="45.11971" lon="6.37225">
        <ele>2376.4</ele>
        <time>2017-04-16T06:11:59Z</time>
      </trkpt>
      <trkpt lat="45.11975" lon="6.37225">
        <ele>2380</ele>
        <time>2017-04-16T06:12:04Z</time>
      </trkpt>
      <trkpt lat="45.11978" lon="6.37225">
        <ele>2381.6</ele>
        <time>2017-04-16T06:12:09Z</time>
      </trkpt>
      <trkpt lat="45.11981" lon="6.37226">
        <ele>2378.6</ele>
        <time>2017-04-16T06:12:14Z</time>
      </trkpt>
      <trkpt lat="45.11981" lon="6.37226">
        <ele>2379</ele>
        <time>2017-04-16T06:12:34Z</time>
      </trkpt>
      <trkpt lat="45.11983" lon="6.37224">
        <ele>2380.8</ele>
        <time>2017-04-16T06:12:39Z</time>
      </trkpt>
      <trkpt lat="45.11985" lon="6.37222">
        <ele>2381.4</ele>
        <time>2017-04-16T06:12:44Z</time>
      </trkpt>
      <trkpt lat="45.11987" lon="6.3722">
        <ele>2382.8</ele>
        <time>2017-04-16T06:12:49Z</time>
      </trkpt>
      <trkpt lat="45.11989" lon="6.37216">
        <ele>2381.6</ele>
        <time>2017-04-16T06:12:54Z</time>
      </trkpt>
      <trkpt lat="45.11989" lon="6.37212">
        <ele>2382.6</ele>
        <time>2017-04-16T06:12:59Z</time>
      </trkpt>
      <trkpt lat="45.1199" lon="6.37207">
        <ele>2381.8</ele>
        <time>2017-04-16T06:13:04Z</time>
      </trkpt>
      <trkpt lat="45.11992" lon="6.37206">
        <ele>2381.8</ele>
        <time>2017-04-16T06:13:09Z</time>
      </trkpt>
      <trkpt lat="45.11996" lon="6.37208">
        <ele>2384.8</ele>
        <time>2017-04-16T06:13:14Z</time>
      </trkpt>
      <trkpt lat="45.11999" lon="6.3721">
        <ele>2383.2</ele>
        <time>2017-04-16T06:13:19Z</time>
      </trkpt>
      <trkpt lat="45.12001" lon="6.37211">
        <ele>2387.8</ele>
        <time>2017-04-16T06:13:24Z</time>
      </trkpt>
      <trkpt lat="45.12004" lon="6.37213">
        <ele>2386.4</ele>
        <time>2017-04-16T06:13:29Z</time>
      </trkpt>
      <trkpt lat="45.12006" lon="6.37216">
        <ele>2385.8</ele>
        <time>2017-04-16T06:13:34Z</time>
      </trkpt>
      <trkpt lat="45.12008" lon="6.37218">
        <ele>2386.8</ele>
        <time>2017-04-16T06:13:39Z</time>
      </trkpt>
      <trkpt lat="45.12011" lon="6.37221">
        <ele>2388</ele>
        <time>2017-04-16T06:13:44Z</time>
      </trkpt>
      <trkpt lat="45.12012" lon="6.3722">
        <ele>2388.8</ele>
        <time>2017-04-16T06:13:54Z</time>
      </trkpt>
      <trkpt lat="45.12011" lon="6.37215">
        <ele>2389.6</ele>
        <time>2017-04-16T06:13:59Z</time>
      </trkpt>
      <trkpt lat="45.12011" lon="6.37211">
        <ele>2391.4</ele>
        <time>2017-04-16T06:14:04Z</time>
      </trkpt>
      <trkpt lat="45.12011" lon="6.37211">
        <ele>2391.4</ele>
        <time>2017-04-16T06:14:09Z</time>
      </trkpt>
      <trkpt lat="45.1201" lon="6.37207">
        <ele>2389</ele>
        <time>2017-04-16T06:14:14Z</time>
      </trkpt>
      <trkpt lat="45.12009" lon="6.37203">
        <ele>2390.2</ele>
        <time>2017-04-16T06:14:19Z</time>
      </trkpt>
      <trkpt lat="45.12008" lon="6.37201">
        <ele>2389.2</ele>
        <time>2017-04-16T06:14:24Z</time>
      </trkpt>
      <trkpt lat="45.12007" lon="6.37196">
        <ele>2388</ele>
        <time>2017-04-16T06:14:29Z</time>
      </trkpt>
      <trkpt lat="45.12006" lon="6.37191">
        <ele>2390.6</ele>
        <time>2017-04-16T06:14:34Z</time>
      </trkpt>
      <trkpt lat="45.12004" lon="6.37185">
        <ele>2390</ele>
        <time>2017-04-16T06:14:39Z</time>
      </trkpt>
      <trkpt lat="45.12003" lon="6.3718">
        <ele>2389.8</ele>
        <time>2017-04-16T06:14:44Z</time>
      </trkpt>
      <trkpt lat="45.12002" lon="6.37174">
        <ele>2392.2</ele>
        <time>2017-04-16T06:14:49Z</time>
      </trkpt>
      <trkpt lat="45.12004" lon="6.3717">
        <ele>2392.4</ele>
        <time>2017-04-16T06:14:54Z</time>
      </trkpt>
      <trkpt lat="45.12004" lon="6.3717">
        <ele>2391.6</ele>
        <time>2017-04-16T06:15:04Z</time>
      </trkpt>
      <trkpt lat="45.12006" lon="6.37169">
        <ele>2391.2</ele>
        <time>2017-04-16T06:15:09Z</time>
      </trkpt>
      <trkpt lat="45.1201" lon="6.37168">
        <ele>2391.8</ele>
        <time>2017-04-16T06:15:14Z</time>
      </trkpt>
      <trkpt lat="45.12012" lon="6.37172">
        <ele>2390.2</ele>
        <time>2017-04-16T06:15:19Z</time>
      </trkpt>
      <trkpt lat="45.12014" lon="6.37175">
        <ele>2394</ele>
        <time>2017-04-16T06:15:24Z</time>
      </trkpt>
      <trkpt lat="45.12017" lon="6.37174">
        <ele>2395.6</ele>
        <time>2017-04-16T06:15:29Z</time>
      </trkpt>
      <trkpt lat="45.12019" lon="6.37171">
        <ele>2394.4</ele>
        <time>2017-04-16T06:15:34Z</time>
      </trkpt>
      <trkpt lat="45.12021" lon="6.37167">
        <ele>2398</ele>
        <time>2017-04-16T06:15:39Z</time>
      </trkpt>
      <trkpt lat="45.12022" lon="6.37164">
        <ele>2393</ele>
        <time>2017-04-16T06:15:44Z</time>
      </trkpt>
      <trkpt lat="45.12025" lon="6.37163">
        <ele>2396.8</ele>
        <time>2017-04-16T06:15:49Z</time>
      </trkpt>
      <trkpt lat="45.12026" lon="6.37165">
        <ele>2398.8</ele>
        <time>2017-04-16T06:15:54Z</time>
      </trkpt>
      <trkpt lat="45.12028" lon="6.37168">
        <ele>2402.4</ele>
        <time>2017-04-16T06:15:59Z</time>
      </trkpt>
      <trkpt lat="45.1203" lon="6.3717">
        <ele>2399.2</ele>
        <time>2017-04-16T06:16:04Z</time>
      </trkpt>
      <trkpt lat="45.12031" lon="6.37173">
        <ele>2401.8</ele>
        <time>2017-04-16T06:16:09Z</time>
      </trkpt>
      <trkpt lat="45.12033" lon="6.37176">
        <ele>2400.6</ele>
        <time>2017-04-16T06:16:14Z</time>
      </trkpt>
      <trkpt lat="45.12034" lon="6.3718">
        <ele>2402.4</ele>
        <time>2017-04-16T06:16:19Z</time>
      </trkpt>
      <trkpt lat="45.12036" lon="6.37183">
        <ele>2401.2</ele>
        <time>2017-04-16T06:16:24Z</time>
      </trkpt>
      <trkpt lat="45.12037" lon="6.37186">
        <ele>2404</ele>
        <time>2017-04-16T06:16:29Z</time>
      </trkpt>
      <trkpt lat="45.12037" lon="6.37185">
        <ele>2403.8</ele>
        <time>2017-04-16T06:16:34Z</time>
      </trkpt>
      <trkpt lat="45.12038" lon="6.37181">
        <ele>2402.6</ele>
        <time>2017-04-16T06:16:39Z</time>
      </trkpt>
      <trkpt lat="45.12039" lon="6.37177">
        <ele>2404.4</ele>
        <time>2017-04-16T06:16:44Z</time>
      </trkpt>
      <trkpt lat="45.12039" lon="6.37177">
        <ele>2403.4</ele>
        <time>2017-04-16T06:16:59Z</time>
      </trkpt>
      <trkpt lat="45.1204" lon="6.37174">
        <ele>2403.2</ele>
        <time>2017-04-16T06:17:04Z</time>
      </trkpt>
      <trkpt lat="45.12041" lon="6.3717">
        <ele>2403.2</ele>
        <time>2017-04-16T06:17:09Z</time>
      </trkpt>
      <trkpt lat="45.12043" lon="6.37166">
        <ele>2403.2</ele>
        <time>2017-04-16T06:17:14Z</time>
      </trkpt>
      <trkpt lat="45.12045" lon="6.37163">
        <ele>2407.2</ele>
        <time>2017-04-16T06:17:19Z</time>
      </trkpt>
      <trkpt lat="45.12047" lon="6.3716">
        <ele>2406.8</ele>
        <time>2017-04-16T06:17:24Z</time>
      </trkpt>
      <trkpt lat="45.12049" lon="6.37157">
        <ele>2405.4</ele>
        <time>2017-04-16T06:17:29Z</time>
      </trkpt>
      <trkpt lat="45.1205" lon="6.37157">
        <ele>2402.8</ele>
        <time>2017-04-16T06:17:34Z</time>
      </trkpt>
      <trkpt lat="45.12051" lon="6.37162">
        <ele>2406.2</ele>
        <time>2017-04-16T06:17:39Z</time>
      </trkpt>
      <trkpt lat="45.12052" lon="6.37165">
        <ele>2409</ele>
        <time>2017-04-16T06:17:44Z</time>
      </trkpt>
      <trkpt lat="45.12052" lon="6.37169">
        <ele>2408.4</ele>
        <time>2017-04-16T06:17:49Z</time>
      </trkpt>
      <trkpt lat="45.12053" lon="6.37172">
        <ele>2410.6</ele>
        <time>2017-04-16T06:17:54Z</time>
      </trkpt>
      <trkpt lat="45.12053" lon="6.37173">
        <ele>2411</ele>
        <time>2017-04-16T06:17:59Z</time>
      </trkpt>
      <trkpt lat="45.12058" lon="6.3718">
        <ele>2410.6</ele>
        <time>2017-04-16T06:18:14Z</time>
      </trkpt>
      <trkpt lat="45.12058" lon="6.37179">
        <ele>2413.6</ele>
        <time>2017-04-16T06:18:49Z</time>
      </trkpt>
      <trkpt lat="45.12059" lon="6.37178">
        <ele>2414.8</ele>
        <time>2017-04-16T06:19:14Z</time>
      </trkpt>
      <trkpt lat="45.12061" lon="6.37176">
        <ele>2414.8</ele>
        <time>2017-04-16T06:19:19Z</time>
      </trkpt>
      <trkpt lat="45.12062" lon="6.37174">
        <ele>2411.6</ele>
        <time>2017-04-16T06:19:24Z</time>
      </trkpt>
      <trkpt lat="45.12063" lon="6.37171">
        <ele>2416.4</ele>
        <time>2017-04-16T06:19:29Z</time>
      </trkpt>
      <trkpt lat="45.12064" lon="6.37169">
        <ele>2415.4</ele>
        <time>2017-04-16T06:19:34Z</time>
      </trkpt>
      <trkpt lat="45.12066" lon="6.37166">
        <ele>2416.6</ele>
        <time>2017-04-16T06:19:39Z</time>
      </trkpt>
      <trkpt lat="45.12067" lon="6.37163">
        <ele>2416</ele>
        <time>2017-04-16T06:19:44Z</time>
      </trkpt>
      <trkpt lat="45.12069" lon="6.3716">
        <ele>2417</ele>
        <time>2017-04-16T06:19:49Z</time>
      </trkpt>
      <trkpt lat="45.12071" lon="6.37157">
        <ele>2418.2</ele>
        <time>2017-04-16T06:19:54Z</time>
      </trkpt>
      <trkpt lat="45.12072" lon="6.37154">
        <ele>2417.8</ele>
        <time>2017-04-16T06:19:59Z</time>
      </trkpt>
      <trkpt lat="45.12073" lon="6.37151">
        <ele>2419</ele>
        <time>2017-04-16T06:20:04Z</time>
      </trkpt>
      <trkpt lat="45.12074" lon="6.37148">
        <ele>2419</ele>
        <time>2017-04-16T06:20:09Z</time>
      </trkpt>
      <trkpt lat="45.12075" lon="6.37145">
        <ele>2422.2</ele>
        <time>2017-04-16T06:20:14Z</time>
      </trkpt>
      <trkpt lat="45.12077" lon="6.37143">
        <ele>2424</ele>
        <time>2017-04-16T06:20:19Z</time>
      </trkpt>
      <trkpt lat="45.12078" lon="6.3714">
        <ele>2423.2</ele>
        <time>2017-04-16T06:20:24Z</time>
      </trkpt>
      <trkpt lat="45.12079" lon="6.37137">
        <ele>2422.2</ele>
        <time>2017-04-16T06:20:29Z</time>
      </trkpt>
      <trkpt lat="45.12079" lon="6.37134">
        <ele>2424.4</ele>
        <time>2017-04-16T06:20:34Z</time>
      </trkpt>
      <trkpt lat="45.12079" lon="6.37131">
        <ele>2421.6</ele>
        <time>2017-04-16T06:20:39Z</time>
      </trkpt>
      <trkpt lat="45.12079" lon="6.37128">
        <ele>2421.4</ele>
        <time>2017-04-16T06:20:44Z</time>
      </trkpt>
      <trkpt lat="45.12079" lon="6.37125">
        <ele>2424.2</ele>
        <time>2017-04-16T06:20:49Z</time>
      </trkpt>
      <trkpt lat="45.12079" lon="6.37121">
        <ele>2423</ele>
        <time>2017-04-16T06:20:54Z</time>
      </trkpt>
      <trkpt lat="45.12078" lon="6.37117">
        <ele>2423.4</ele>
        <time>2017-04-16T06:20:59Z</time>
      </trkpt>
      <trkpt lat="45.12077" lon="6.37113">
        <ele>2427.2</ele>
        <time>2017-04-16T06:21:04Z</time>
      </trkpt>
      <trkpt lat="45.12076" lon="6.3711">
        <ele>2425.6</ele>
        <time>2017-04-16T06:21:09Z</time>
      </trkpt>
      <trkpt lat="45.12075" lon="6.37107">
        <ele>2428.4</ele>
        <time>2017-04-16T06:21:14Z</time>
      </trkpt>
      <trkpt lat="45.12074" lon="6.37103">
        <ele>2429.2</ele>
        <time>2017-04-16T06:21:19Z</time>
      </trkpt>
      <trkpt lat="45.12075" lon="6.37102">
        <ele>2430</ele>
        <time>2017-04-16T06:21:24Z</time>
      </trkpt>
      <trkpt lat="45.12078" lon="6.37102">
        <ele>2427.4</ele>
        <time>2017-04-16T06:21:29Z</time>
      </trkpt>
      <trkpt lat="45.12081" lon="6.37102">
        <ele>2428.6</ele>
        <time>2017-04-16T06:21:34Z</time>
      </trkpt>
      <trkpt lat="45.12083" lon="6.37103">
        <ele>2430.8</ele>
        <time>2017-04-16T06:21:39Z</time>
      </trkpt>
      <trkpt lat="45.12085" lon="6.37102">
        <ele>2431.8</ele>
        <time>2017-04-16T06:21:49Z</time>
      </trkpt>
      <trkpt lat="45.12086" lon="6.37099">
        <ele>2434.8</ele>
        <time>2017-04-16T06:21:54Z</time>
      </trkpt>
      <trkpt lat="45.12086" lon="6.37099">
        <ele>2434.6</ele>
        <time>2017-04-16T06:21:59Z</time>
      </trkpt>
      <trkpt lat="45.12086" lon="6.37095">
        <ele>2434</ele>
        <time>2017-04-16T06:22:04Z</time>
      </trkpt>
      <trkpt lat="45.12086" lon="6.37092">
        <ele>2431.4</ele>
        <time>2017-04-16T06:22:09Z</time>
      </trkpt>
      <trkpt lat="45.12086" lon="6.37088">
        <ele>2431.8</ele>
        <time>2017-04-16T06:22:14Z</time>
      </trkpt>
      <trkpt lat="45.12086" lon="6.37084">
        <ele>2436.4</ele>
        <time>2017-04-16T06:22:19Z</time>
      </trkpt>
      <trkpt lat="45.12085" lon="6.3708">
        <ele>2436</ele>
        <time>2017-04-16T06:22:24Z</time>
      </trkpt>
      <trkpt lat="45.12084" lon="6.37077">
        <ele>2437.2</ele>
        <time>2017-04-16T06:22:29Z</time>
      </trkpt>
      <trkpt lat="45.12083" lon="6.37073">
        <ele>2438.6</ele>
        <time>2017-04-16T06:22:34Z</time>
      </trkpt>
      <trkpt lat="45.12083" lon="6.3707">
        <ele>2439.2</ele>
        <time>2017-04-16T06:22:59Z</time>
      </trkpt>
      <trkpt lat="45.12084" lon="6.3707">
        <ele>2439.8</ele>
        <time>2017-04-16T06:23:04Z</time>
      </trkpt>
      <trkpt lat="45.12085" lon="6.37071">
        <ele>2443.4</ele>
        <time>2017-04-16T06:23:09Z</time>
      </trkpt>
      <trkpt lat="45.12086" lon="6.37071">
        <ele>2441.4</ele>
        <time>2017-04-16T06:23:19Z</time>
      </trkpt>
      <trkpt lat="45.12088" lon="6.37071">
        <ele>2441</ele>
        <time>2017-04-16T06:23:24Z</time>
      </trkpt>
      <trkpt lat="45.12091" lon="6.37072">
        <ele>2441</ele>
        <time>2017-04-16T06:23:29Z</time>
      </trkpt>
      <trkpt lat="45.12094" lon="6.37073">
        <ele>2442.4</ele>
        <time>2017-04-16T06:23:34Z</time>
      </trkpt>
      <trkpt lat="45.12097" lon="6.37074">
        <ele>2443.6</ele>
        <time>2017-04-16T06:23:39Z</time>
      </trkpt>
      <trkpt lat="45.121" lon="6.37075">
        <ele>2442.6</ele>
        <time>2017-04-16T06:23:44Z</time>
      </trkpt>
      <trkpt lat="45.12101" lon="6.37075">
        <ele>2443.2</ele>
        <time>2017-04-16T06:23:49Z</time>
      </trkpt>
      <trkpt lat="45.12103" lon="6.37077">
        <ele>2445</ele>
        <time>2017-04-16T06:23:54Z</time>
      </trkpt>
      <trkpt lat="45.12106" lon="6.37079">
        <ele>2446.2</ele>
        <time>2017-04-16T06:24:20Z</time>
      </trkpt>
      <trkpt lat="45.12106" lon="6.37078">
        <ele>2445.6</ele>
        <time>2017-04-16T06:24:25Z</time>
      </trkpt>
      <trkpt lat="45.12106" lon="6.37077">
        <ele>2445</ele>
        <time>2017-04-16T06:24:45Z</time>
      </trkpt>
      <trkpt lat="45.12106" lon="6.37074">
        <ele>2445.8</ele>
        <time>2017-04-16T06:24:50Z</time>
      </trkpt>
      <trkpt lat="45.12106" lon="6.3707">
        <ele>2445</ele>
        <time>2017-04-16T06:24:55Z</time>
      </trkpt>
      <trkpt lat="45.12105" lon="6.37067">
        <ele>2444</ele>
        <time>2017-04-16T06:25:00Z</time>
      </trkpt>
      <trkpt lat="45.12104" lon="6.37066">
        <ele>2445.2</ele>
        <time>2017-04-16T06:25:10Z</time>
      </trkpt>
      <trkpt lat="45.12103" lon="6.37064">
        <ele>2444.8</ele>
        <time>2017-04-16T06:25:15Z</time>
      </trkpt>
      <trkpt lat="45.12102" lon="6.37062">
        <ele>2448.4</ele>
        <time>2017-04-16T06:25:20Z</time>
      </trkpt>
      <trkpt lat="45.12102" lon="6.37062">
        <ele>2448.2</ele>
        <time>2017-04-16T06:25:25Z</time>
      </trkpt>
      <trkpt lat="45.12102" lon="6.37061">
        <ele>2448</ele>
        <time>2017-04-16T06:25:30Z</time>
      </trkpt>
      <trkpt lat="45.12103" lon="6.37062">
        <ele>2449.2</ele>
        <time>2017-04-16T06:25:35Z</time>
      </trkpt>
      <trkpt lat="45.12103" lon="6.37062">
        <ele>2448.4</ele>
        <time>2017-04-16T06:25:50Z</time>
      </trkpt>
      <trkpt lat="45.12105" lon="6.37062">
        <ele>2443.4</ele>
        <time>2017-04-16T06:25:55Z</time>
      </trkpt>
      <trkpt lat="45.12108" lon="6.37063">
        <ele>2446.8</ele>
        <time>2017-04-16T06:26:00Z</time>
      </trkpt>
      <trkpt lat="45.12111" lon="6.37065">
        <ele>2449.2</ele>
        <time>2017-04-16T06:26:05Z</time>
      </trkpt>
      <trkpt lat="45.12113" lon="6.37066">
        <ele>2450</ele>
        <time>2017-04-16T06:26:10Z</time>
      </trkpt>
      <trkpt lat="45.12114" lon="6.37064">
        <ele>2448.4</ele>
        <time>2017-04-16T06:26:20Z</time>
      </trkpt>
      <trkpt lat="45.12114" lon="6.37061">
        <ele>2451.4</ele>
        <time>2017-04-16T06:26:25Z</time>
      </trkpt>
      <trkpt lat="45.12114" lon="6.37061">
        <ele>2451.4</ele>
        <time>2017-04-16T06:26:30Z</time>
      </trkpt>
      <trkpt lat="45.12114" lon="6.3706">
        <ele>2452.8</ele>
        <time>2017-04-16T06:26:35Z</time>
      </trkpt>
      <trkpt lat="45.12113" lon="6.37056">
        <ele>2451.2</ele>
        <time>2017-04-16T06:26:40Z</time>
      </trkpt>
      <trkpt lat="45.12112" lon="6.37052">
        <ele>2453.6</ele>
        <time>2017-04-16T06:26:45Z</time>
      </trkpt>
      <trkpt lat="45.12111" lon="6.37049">
        <ele>2451.2</ele>
        <time>2017-04-16T06:26:50Z</time>
      </trkpt>
      <trkpt lat="45.12111" lon="6.37046">
        <ele>2452.4</ele>
        <time>2017-04-16T06:26:55Z</time>
      </trkpt>
      <trkpt lat="45.12111" lon="6.37042">
        <ele>2454.6</ele>
        <time>2017-04-16T06:27:00Z</time>
      </trkpt>
      <trkpt lat="45.12111" lon="6.37038">
        <ele>2456.2</ele>
        <time>2017-04-16T06:27:05Z</time>
      </trkpt>
      <trkpt lat="45.12113" lon="6.37034">
        <ele>2457.4</ele>
        <time>2017-04-16T06:27:10Z</time>
      </trkpt>
      <trkpt lat="45.12114" lon="6.3703">
        <ele>2459.2</ele>
        <time>2017-04-16T06:27:15Z</time>
      </trkpt>
      <trkpt lat="45.12114" lon="6.37026">
        <ele>2459.4</ele>
        <time>2017-04-16T06:27:20Z</time>
      </trkpt>
      <trkpt lat="45.12114" lon="6.37022">
        <ele>2461.6</ele>
        <time>2017-04-16T06:27:25Z</time>
      </trkpt>
      <trkpt lat="45.12114" lon="6.37018">
        <ele>2461</ele>
        <time>2017-04-16T06:27:30Z</time>
      </trkpt>
      <trkpt lat="45.12115" lon="6.37014">
        <ele>2458.8</ele>
        <time>2017-04-16T06:27:35Z</time>
      </trkpt>
      <trkpt lat="45.12117" lon="6.37011">
        <ele>2462.8</ele>
        <time>2017-04-16T06:27:40Z</time>
      </trkpt>
      <trkpt lat="45.12118" lon="6.37007">
        <ele>2460.6</ele>
        <time>2017-04-16T06:27:45Z</time>
      </trkpt>
      <trkpt lat="45.12121" lon="6.37006">
        <ele>2463.6</ele>
        <time>2017-04-16T06:27:50Z</time>
      </trkpt>
      <trkpt lat="45.12123" lon="6.37005">
        <ele>2465.2</ele>
        <time>2017-04-16T06:27:55Z</time>
      </trkpt>
      <trkpt lat="45.12126" lon="6.37005">
        <ele>2462.4</ele>
        <time>2017-04-16T06:28:00Z</time>
      </trkpt>
      <trkpt lat="45.12129" lon="6.37006">
        <ele>2466.8</ele>
        <time>2017-04-16T06:28:05Z</time>
      </trkpt>
      <trkpt lat="45.12132" lon="6.37007">
        <ele>2465.2</ele>
        <time>2017-04-16T06:28:10Z</time>
      </trkpt>
      <trkpt lat="45.12136" lon="6.37008">
        <ele>2465.6</ele>
        <time>2017-04-16T06:28:15Z</time>
      </trkpt>
      <trkpt lat="45.12138" lon="6.37009">
        <ele>2468.2</ele>
        <time>2017-04-16T06:28:20Z</time>
      </trkpt>
      <trkpt lat="45.1214" lon="6.37007">
        <ele>2466.2</ele>
        <time>2017-04-16T06:28:25Z</time>
      </trkpt>
      <trkpt lat="45.12141" lon="6.37004">
        <ele>2464.6</ele>
        <time>2017-04-16T06:28:30Z</time>
      </trkpt>
      <trkpt lat="45.12142" lon="6.37">
        <ele>2464.8</ele>
        <time>2017-04-16T06:28:35Z</time>
      </trkpt>
      <trkpt lat="45.12142" lon="6.36997">
        <ele>2469.8</ele>
        <time>2017-04-16T06:28:40Z</time>
      </trkpt>
      <trkpt lat="45.12143" lon="6.36993">
        <ele>2466.2</ele>
        <time>2017-04-16T06:28:45Z</time>
      </trkpt>
      <trkpt lat="45.12143" lon="6.3699">
        <ele>2466</ele>
        <time>2017-04-16T06:28:50Z</time>
      </trkpt>
      <trkpt lat="45.12144" lon="6.36987">
        <ele>2468.8</ele>
        <time>2017-04-16T06:28:55Z</time>
      </trkpt>
      <trkpt lat="45.12144" lon="6.36984">
        <ele>2470.6</ele>
        <time>2017-04-16T06:29:00Z</time>
      </trkpt>
      <trkpt lat="45.12145" lon="6.36981">
        <ele>2470.2</ele>
        <time>2017-04-16T06:29:05Z</time>
      </trkpt>
      <trkpt lat="45.12145" lon="6.36981">
        <ele>2470.6</ele>
        <time>2017-04-16T06:29:10Z</time>
      </trkpt>
      <trkpt lat="45.12145" lon="6.36979">
        <ele>2468</ele>
        <time>2017-04-16T06:29:15Z</time>
      </trkpt>
      <trkpt lat="45.12145" lon="6.36976">
        <ele>2474.8</ele>
        <time>2017-04-16T06:29:20Z</time>
      </trkpt>
      <trkpt lat="45.12146" lon="6.36974">
        <ele>2475.6</ele>
        <time>2017-04-16T06:29:25Z</time>
      </trkpt>
      <trkpt lat="45.12146" lon="6.36971">
        <ele>2474.8</ele>
        <time>2017-04-16T06:29:30Z</time>
      </trkpt>
      <trkpt lat="45.12147" lon="6.36967">
        <ele>2476.2</ele>
        <time>2017-04-16T06:29:35Z</time>
      </trkpt>
      <trkpt lat="45.12147" lon="6.36963">
        <ele>2476</ele>
        <time>2017-04-16T06:29:40Z</time>
      </trkpt>
      <trkpt lat="45.12148" lon="6.3696">
        <ele>2477.2</ele>
        <time>2017-04-16T06:29:45Z</time>
      </trkpt>
      <trkpt lat="45.12148" lon="6.36956">
        <ele>2478</ele>
        <time>2017-04-16T06:29:50Z</time>
      </trkpt>
      <trkpt lat="45.12149" lon="6.36952">
        <ele>2478.8</ele>
        <time>2017-04-16T06:29:55Z</time>
      </trkpt>
      <trkpt lat="45.12149" lon="6.36948">
        <ele>2477</ele>
        <time>2017-04-16T06:30:01Z</time>
      </trkpt>
      <trkpt lat="45.12149" lon="6.36944">
        <ele>2482.4</ele>
        <time>2017-04-16T06:30:06Z</time>
      </trkpt>
      <trkpt lat="45.12148" lon="6.3694">
        <ele>2480.2</ele>
        <time>2017-04-16T06:30:11Z</time>
      </trkpt>
      <trkpt lat="45.12148" lon="6.36935">
        <ele>2481.6</ele>
        <time>2017-04-16T06:30:16Z</time>
      </trkpt>
      <trkpt lat="45.12147" lon="6.36932">
        <ele>2480.2</ele>
        <time>2017-04-16T06:30:21Z</time>
      </trkpt>
      <trkpt lat="45.12146" lon="6.36928">
        <ele>2482</ele>
        <time>2017-04-16T06:30:26Z</time>
      </trkpt>
      <trkpt lat="45.12145" lon="6.36925">
        <ele>2485</ele>
        <time>2017-04-16T06:30:31Z</time>
      </trkpt>
      <trkpt lat="45.12145" lon="6.36924">
        <ele>2483</ele>
        <time>2017-04-16T06:30:41Z</time>
      </trkpt>
      <trkpt lat="45.12145" lon="6.36924">
        <ele>2482.6</ele>
        <time>2017-04-16T06:30:51Z</time>
      </trkpt>
      <trkpt lat="45.12146" lon="6.36924">
        <ele>2482.2</ele>
        <time>2017-04-16T06:30:56Z</time>
      </trkpt>
      <trkpt lat="45.12149" lon="6.36925">
        <ele>2479.6</ele>
        <time>2017-04-16T06:31:01Z</time>
      </trkpt>
      <trkpt lat="45.12151" lon="6.36926">
        <ele>2480.4</ele>
        <time>2017-04-16T06:31:06Z</time>
      </trkpt>
      <trkpt lat="45.12153" lon="6.36928">
        <ele>2483</ele>
        <time>2017-04-16T06:31:11Z</time>
      </trkpt>
      <trkpt lat="45.12155" lon="6.36931">
        <ele>2484.8</ele>
        <time>2017-04-16T06:31:16Z</time>
      </trkpt>
      <trkpt lat="45.12157" lon="6.36932">
        <ele>2486</ele>
        <time>2017-04-16T06:31:26Z</time>
      </trkpt>
      <trkpt lat="45.12157" lon="6.36929">
        <ele>2485.8</ele>
        <time>2017-04-16T06:31:31Z</time>
      </trkpt>
      <trkpt lat="45.12157" lon="6.36929">
        <ele>2486.4</ele>
        <time>2017-04-16T06:31:46Z</time>
      </trkpt>
      <trkpt lat="45.12156" lon="6.36927">
        <ele>2488.8</ele>
        <time>2017-04-16T06:31:51Z</time>
      </trkpt>
      <trkpt lat="45.12155" lon="6.36925">
        <ele>2490.8</ele>
        <time>2017-04-16T06:31:56Z</time>
      </trkpt>
      <trkpt lat="45.12155" lon="6.36922">
        <ele>2488.8</ele>
        <time>2017-04-16T06:32:01Z</time>
      </trkpt>
      <trkpt lat="45.12154" lon="6.3692">
        <ele>2486.8</ele>
        <time>2017-04-16T06:32:06Z</time>
      </trkpt>
      <trkpt lat="45.12153" lon="6.36917">
        <ele>2490.6</ele>
        <time>2017-04-16T06:32:11Z</time>
      </trkpt>
      <trkpt lat="45.12152" lon="6.36914">
        <ele>2492</ele>
        <time>2017-04-16T06:32:16Z</time>
      </trkpt>
      <trkpt lat="45.12152" lon="6.36913">
        <ele>2492</ele>
        <time>2017-04-16T06:32:46Z</time>
      </trkpt>
      <trkpt lat="45.12153" lon="6.36913">
        <ele>2490.6</ele>
        <time>2017-04-16T06:33:01Z</time>
      </trkpt>
      <trkpt lat="45.12153" lon="6.36913">
        <ele>2490.8</ele>
        <time>2017-04-16T06:33:31Z</time>
      </trkpt>
      <trkpt lat="45.12155" lon="6.36914">
        <ele>2485</ele>
        <time>2017-04-16T06:33:36Z</time>
      </trkpt>
      <trkpt lat="45.12157" lon="6.36915">
        <ele>2485.8</ele>
        <time>2017-04-16T06:33:41Z</time>
      </trkpt>
      <trkpt lat="45.12158" lon="6.36916">
        <ele>2490</ele>
        <time>2017-04-16T06:33:46Z</time>
      </trkpt>
      <trkpt lat="45.12161" lon="6.36917">
        <ele>2487</ele>
        <time>2017-04-16T06:34:11Z</time>
      </trkpt>
      <trkpt lat="45.12161" lon="6.36917">
        <ele>2491.4</ele>
        <time>2017-04-16T06:34:46Z</time>
      </trkpt>
      <trkpt lat="45.12161" lon="6.36915">
        <ele>2493</ele>
        <time>2017-04-16T06:34:51Z</time>
      </trkpt>
      <trkpt lat="45.1216" lon="6.36913">
        <ele>2490</ele>
        <time>2017-04-16T06:34:56Z</time>
      </trkpt>
      <trkpt lat="45.1216" lon="6.36911">
        <ele>2489.2</ele>
        <time>2017-04-16T06:35:01Z</time>
      </trkpt>
      <trkpt lat="45.12159" lon="6.36907">
        <ele>2493</ele>
        <time>2017-04-16T06:35:06Z</time>
      </trkpt>
      <trkpt lat="45.12159" lon="6.36905">
        <ele>2493.2</ele>
        <time>2017-04-16T06:35:11Z</time>
      </trkpt>
      <trkpt lat="45.12159" lon="6.36905">
        <ele>2493.8</ele>
        <time>2017-04-16T06:35:21Z</time>
      </trkpt>
      <trkpt lat="45.12157" lon="6.36902">
        <ele>2492.6</ele>
        <time>2017-04-16T06:35:26Z</time>
      </trkpt>
      <trkpt lat="45.12156" lon="6.36899">
        <ele>2493.6</ele>
        <time>2017-04-16T06:35:31Z</time>
      </trkpt>
      <trkpt lat="45.12154" lon="6.36896">
        <ele>2495.8</ele>
        <time>2017-04-16T06:35:36Z</time>
      </trkpt>
      <trkpt lat="45.12154" lon="6.36896">
        <ele>2496.8</ele>
        <time>2017-04-16T06:37:37Z</time>
      </trkpt>
      <trkpt lat="45.12153" lon="6.36893">
        <ele>2495.8</ele>
        <time>2017-04-16T06:37:42Z</time>
      </trkpt>
      <trkpt lat="45.12153" lon="6.36889">
        <ele>2495.4</ele>
        <time>2017-04-16T06:37:47Z</time>
      </trkpt>
      <trkpt lat="45.12153" lon="6.36885">
        <ele>2498</ele>
        <time>2017-04-16T06:37:52Z</time>
      </trkpt>
      <trkpt lat="45.12154" lon="6.36882">
        <ele>2501</ele>
        <time>2017-04-16T06:37:57Z</time>
      </trkpt>
      <trkpt lat="45.12157" lon="6.36881">
        <ele>2498.4</ele>
        <time>2017-04-16T06:38:02Z</time>
      </trkpt>
      <trkpt lat="45.1216" lon="6.36882">
        <ele>2499.6</ele>
        <time>2017-04-16T06:38:07Z</time>
      </trkpt>
      <trkpt lat="45.12161" lon="6.3688">
        <ele>2497.8</ele>
        <time>2017-04-16T06:38:12Z</time>
      </trkpt>
      <trkpt lat="45.12159" lon="6.36876">
        <ele>2500.2</ele>
        <time>2017-04-16T06:38:17Z</time>
      </trkpt>
      <trkpt lat="45.12158" lon="6.36872">
        <ele>2498.6</ele>
        <time>2017-04-16T06:38:22Z</time>
      </trkpt>
      <trkpt lat="45.12157" lon="6.36868">
        <ele>2501.4</ele>
        <time>2017-04-16T06:38:27Z</time>
      </trkpt>
      <trkpt lat="45.12155" lon="6.36864">
        <ele>2500.6</ele>
        <time>2017-04-16T06:38:32Z</time>
      </trkpt>
      <trkpt lat="45.12154" lon="6.3686">
        <ele>2502.6</ele>
        <time>2017-04-16T06:38:37Z</time>
      </trkpt>
      <trkpt lat="45.12152" lon="6.36856">
        <ele>2503.4</ele>
        <time>2017-04-16T06:38:42Z</time>
      </trkpt>
      <trkpt lat="45.12151" lon="6.36852">
        <ele>2502.8</ele>
        <time>2017-04-16T06:38:47Z</time>
      </trkpt>
      <trkpt lat="45.1215" lon="6.36849">
        <ele>2504.4</ele>
        <time>2017-04-16T06:38:52Z</time>
      </trkpt>
      <trkpt lat="45.12149" lon="6.36846">
        <ele>2506.4</ele>
        <time>2017-04-16T06:38:57Z</time>
      </trkpt>
      <trkpt lat="45.12148" lon="6.36842">
        <ele>2506.4</ele>
        <time>2017-04-16T06:39:02Z</time>
      </trkpt>
      <trkpt lat="45.12146" lon="6.36838">
        <ele>2505</ele>
        <time>2017-04-16T06:39:07Z</time>
      </trkpt>
      <trkpt lat="45.12145" lon="6.36835">
        <ele>2506.2</ele>
        <time>2017-04-16T06:39:12Z</time>
      </trkpt>
      <trkpt lat="45.12144" lon="6.36831">
        <ele>2505</ele>
        <time>2017-04-16T06:39:17Z</time>
      </trkpt>
      <trkpt lat="45.12142" lon="6.36827">
        <ele>2507.6</ele>
        <time>2017-04-16T06:39:22Z</time>
      </trkpt>
      <trkpt lat="45.12141" lon="6.36824">
        <ele>2509.8</ele>
        <time>2017-04-16T06:39:27Z</time>
      </trkpt>
      <trkpt lat="45.12139" lon="6.36821">
        <ele>2510.8</ele>
        <time>2017-04-16T06:39:32Z</time>
      </trkpt>
      <trkpt lat="45.12137" lon="6.36818">
        <ele>2511.4</ele>
        <time>2017-04-16T06:39:37Z</time>
      </trkpt>
      <trkpt lat="45.12136" lon="6.36815">
        <ele>2511</ele>
        <time>2017-04-16T06:39:42Z</time>
      </trkpt>
      <trkpt lat="45.12134" lon="6.36813">
        <ele>2512.6</ele>
        <time>2017-04-16T06:39:47Z</time>
      </trkpt>
      <trkpt lat="45.12134" lon="6.36811">
        <ele>2512</ele>
        <time>2017-04-16T06:39:52Z</time>
      </trkpt>
      <trkpt lat="45.12135" lon="6.3681">
        <ele>2513.6</ele>
        <time>2017-04-16T06:39:57Z</time>
      </trkpt>
      <trkpt lat="45.12138" lon="6.36811">
        <ele>2514.8</ele>
        <time>2017-04-16T06:40:02Z</time>
      </trkpt>
      <trkpt lat="45.1214" lon="6.36811">
        <ele>2516.4</ele>
        <time>2017-04-16T06:40:07Z</time>
      </trkpt>
      <trkpt lat="45.12142" lon="6.36812">
        <ele>2517</ele>
        <time>2017-04-16T06:40:12Z</time>
      </trkpt>
      <trkpt lat="45.12143" lon="6.36808">
        <ele>2515.2</ele>
        <time>2017-04-16T06:40:27Z</time>
      </trkpt>
      <trkpt lat="45.12142" lon="6.36805">
        <ele>2513.4</ele>
        <time>2017-04-16T06:40:32Z</time>
      </trkpt>
      <trkpt lat="45.12141" lon="6.36802">
        <ele>2516</ele>
        <time>2017-04-16T06:40:37Z</time>
      </trkpt>
      <trkpt lat="45.12139" lon="6.36799">
        <ele>2515.2</ele>
        <time>2017-04-16T06:40:42Z</time>
      </trkpt>
      <trkpt lat="45.12138" lon="6.36796">
        <ele>2517.8</ele>
        <time>2017-04-16T06:40:47Z</time>
      </trkpt>
      <trkpt lat="45.12137" lon="6.36792">
        <ele>2519.8</ele>
        <time>2017-04-16T06:40:52Z</time>
      </trkpt>
      <trkpt lat="45.12138" lon="6.3679">
        <ele>2516</ele>
        <time>2017-04-16T06:40:57Z</time>
      </trkpt>
      <trkpt lat="45.1214" lon="6.3679">
        <ele>2519</ele>
        <time>2017-04-16T06:41:02Z</time>
      </trkpt>
      <trkpt lat="45.12143" lon="6.3679">
        <ele>2517.2</ele>
        <time>2017-04-16T06:41:07Z</time>
      </trkpt>
      <trkpt lat="45.12146" lon="6.3679">
        <ele>2517.2</ele>
        <time>2017-04-16T06:41:12Z</time>
      </trkpt>
      <trkpt lat="45.12148" lon="6.36791">
        <ele>2519.4</ele>
        <time>2017-04-16T06:41:17Z</time>
      </trkpt>
      <trkpt lat="45.12151" lon="6.36791">
        <ele>2519.8</ele>
        <time>2017-04-16T06:41:22Z</time>
      </trkpt>
      <trkpt lat="45.12153" lon="6.3679">
        <ele>2520</ele>
        <time>2017-04-16T06:41:27Z</time>
      </trkpt>
      <trkpt lat="45.12153" lon="6.36785">
        <ele>2520.4</ele>
        <time>2017-04-16T06:41:33Z</time>
      </trkpt>
      <trkpt lat="45.12153" lon="6.36781">
        <ele>2521.2</ele>
        <time>2017-04-16T06:41:38Z</time>
      </trkpt>
      <trkpt lat="45.12153" lon="6.36779">
        <ele>2521.2</ele>
        <time>2017-04-16T06:41:43Z</time>
      </trkpt>
      <trkpt lat="45.12153" lon="6.36779">
        <ele>2521</ele>
        <time>2017-04-16T06:41:53Z</time>
      </trkpt>
      <trkpt lat="45.12153" lon="6.36777">
        <ele>2520.4</ele>
        <time>2017-04-16T06:41:58Z</time>
      </trkpt>
      <trkpt lat="45.12153" lon="6.36773">
        <ele>2521.8</ele>
        <time>2017-04-16T06:42:03Z</time>
      </trkpt>
      <trkpt lat="45.12153" lon="6.36769">
        <ele>2521.4</ele>
        <time>2017-04-16T06:42:08Z</time>
      </trkpt>
      <trkpt lat="45.12152" lon="6.36765">
        <ele>2523.4</ele>
        <time>2017-04-16T06:42:13Z</time>
      </trkpt>
      <trkpt lat="45.12151" lon="6.36761">
        <ele>2524.4</ele>
        <time>2017-04-16T06:42:18Z</time>
      </trkpt>
      <trkpt lat="45.1215" lon="6.36758">
        <ele>2524.4</ele>
        <time>2017-04-16T06:42:23Z</time>
      </trkpt>
      <trkpt lat="45.12149" lon="6.36754">
        <ele>2525.8</ele>
        <time>2017-04-16T06:42:28Z</time>
      </trkpt>
      <trkpt lat="45.12149" lon="6.3675">
        <ele>2525.4</ele>
        <time>2017-04-16T06:42:33Z</time>
      </trkpt>
      <trkpt lat="45.12149" lon="6.36746">
        <ele>2523.6</ele>
        <time>2017-04-16T06:42:38Z</time>
      </trkpt>
      <trkpt lat="45.12152" lon="6.36746">
        <ele>2526.2</ele>
        <time>2017-04-16T06:42:43Z</time>
      </trkpt>
      <trkpt lat="45.12155" lon="6.36747">
        <ele>2526.4</ele>
        <time>2017-04-16T06:42:48Z</time>
      </trkpt>
      <trkpt lat="45.12158" lon="6.36749">
        <ele>2527.6</ele>
        <time>2017-04-16T06:42:53Z</time>
      </trkpt>
      <trkpt lat="45.1216" lon="6.3675">
        <ele>2529.6</ele>
        <time>2017-04-16T06:42:58Z</time>
      </trkpt>
      <trkpt lat="45.12162" lon="6.36751">
        <ele>2528.8</ele>
        <time>2017-04-16T06:43:03Z</time>
      </trkpt>
      <trkpt lat="45.12165" lon="6.36752">
        <ele>2530.4</ele>
        <time>2017-04-16T06:43:08Z</time>
      </trkpt>
      <trkpt lat="45.12167" lon="6.36754">
        <ele>2529.2</ele>
        <time>2017-04-16T06:43:13Z</time>
      </trkpt>
      <trkpt lat="45.12169" lon="6.36756">
        <ele>2529.6</ele>
        <time>2017-04-16T06:43:18Z</time>
      </trkpt>
      <trkpt lat="45.12171" lon="6.36759">
        <ele>2534.4</ele>
        <time>2017-04-16T06:43:23Z</time>
      </trkpt>
      <trkpt lat="45.12174" lon="6.36762">
        <ele>2534.8</ele>
        <time>2017-04-16T06:43:28Z</time>
      </trkpt>
      <trkpt lat="45.12176" lon="6.36765">
        <ele>2536.4</ele>
        <time>2017-04-16T06:43:33Z</time>
      </trkpt>
      <trkpt lat="45.12179" lon="6.36765">
        <ele>2536.8</ele>
        <time>2017-04-16T06:43:38Z</time>
      </trkpt>
      <trkpt lat="45.1218" lon="6.36763">
        <ele>2535.2</ele>
        <time>2017-04-16T06:43:43Z</time>
      </trkpt>
      <trkpt lat="45.12181" lon="6.36759">
        <ele>2538.2</ele>
        <time>2017-04-16T06:43:48Z</time>
      </trkpt>
      <trkpt lat="45.12182" lon="6.36756">
        <ele>2536</ele>
        <time>2017-04-16T06:43:53Z</time>
      </trkpt>
      <trkpt lat="45.12182" lon="6.36752">
        <ele>2537.2</ele>
        <time>2017-04-16T06:43:58Z</time>
      </trkpt>
      <trkpt lat="45.12182" lon="6.36748">
        <ele>2537.8</ele>
        <time>2017-04-16T06:44:03Z</time>
      </trkpt>
      <trkpt lat="45.12182" lon="6.36746">
        <ele>2539.6</ele>
        <time>2017-04-16T06:44:08Z</time>
      </trkpt>
      <trkpt lat="45.12185" lon="6.36747">
        <ele>2537</ele>
        <time>2017-04-16T06:44:13Z</time>
      </trkpt>
      <trkpt lat="45.12188" lon="6.3675">
        <ele>2541</ele>
        <time>2017-04-16T06:44:18Z</time>
      </trkpt>
      <trkpt lat="45.1219" lon="6.36751">
        <ele>2541.6</ele>
        <time>2017-04-16T06:44:23Z</time>
      </trkpt>
      <trkpt lat="45.12193" lon="6.36753">
        <ele>2541.4</ele>
        <time>2017-04-16T06:44:28Z</time>
      </trkpt>
      <trkpt lat="45.12195" lon="6.36754">
        <ele>2541.6</ele>
        <time>2017-04-16T06:44:33Z</time>
      </trkpt>
      <trkpt lat="45.12198" lon="6.36756">
        <ele>2541.4</ele>
        <time>2017-04-16T06:44:38Z</time>
      </trkpt>
      <trkpt lat="45.12201" lon="6.36758">
        <ele>2544</ele>
        <time>2017-04-16T06:44:43Z</time>
      </trkpt>
      <trkpt lat="45.12204" lon="6.36759">
        <ele>2542.2</ele>
        <time>2017-04-16T06:44:48Z</time>
      </trkpt>
      <trkpt lat="45.12207" lon="6.3676">
        <ele>2543.4</ele>
        <time>2017-04-16T06:44:53Z</time>
      </trkpt>
      <trkpt lat="45.1221" lon="6.36761">
        <ele>2545.8</ele>
        <time>2017-04-16T06:44:58Z</time>
      </trkpt>
      <trkpt lat="45.12213" lon="6.36762">
        <ele>2546.4</ele>
        <time>2017-04-16T06:45:03Z</time>
      </trkpt>
      <trkpt lat="45.12216" lon="6.36763">
        <ele>2545.8</ele>
        <time>2017-04-16T06:45:08Z</time>
      </trkpt>
      <trkpt lat="45.12218" lon="6.36764">
        <ele>2546.8</ele>
        <time>2017-04-16T06:45:13Z</time>
      </trkpt>
      <trkpt lat="45.1222" lon="6.36763">
        <ele>2548</ele>
        <time>2017-04-16T06:45:18Z</time>
      </trkpt>
      <trkpt lat="45.1222" lon="6.3676">
        <ele>2552.8</ele>
        <time>2017-04-16T06:45:23Z</time>
      </trkpt>
      <trkpt lat="45.12222" lon="6.36756">
        <ele>2554.6</ele>
        <time>2017-04-16T06:45:38Z</time>
      </trkpt>
      <trkpt lat="45.12225" lon="6.36757">
        <ele>2555.2</ele>
        <time>2017-04-16T06:45:43Z</time>
      </trkpt>
      <trkpt lat="45.12226" lon="6.36758">
        <ele>2554</ele>
        <time>2017-04-16T06:45:48Z</time>
      </trkpt>
      <trkpt lat="45.12229" lon="6.36758">
        <ele>2553.6</ele>
        <time>2017-04-16T06:45:53Z</time>
      </trkpt>
      <trkpt lat="45.12232" lon="6.36759">
        <ele>2552.2</ele>
        <time>2017-04-16T06:45:58Z</time>
      </trkpt>
      <trkpt lat="45.12235" lon="6.36759">
        <ele>2554.6</ele>
        <time>2017-04-16T06:46:03Z</time>
      </trkpt>
      <trkpt lat="45.12238" lon="6.36758">
        <ele>2555.4</ele>
        <time>2017-04-16T06:46:08Z</time>
      </trkpt>
      <trkpt lat="45.12239" lon="6.36757">
        <ele>2552.2</ele>
        <time>2017-04-16T06:46:13Z</time>
      </trkpt>
      <trkpt lat="45.12238" lon="6.36755">
        <ele>2555.8</ele>
        <time>2017-04-16T06:46:18Z</time>
      </trkpt>
      <trkpt lat="45.12236" lon="6.36752">
        <ele>2556</ele>
        <time>2017-04-16T06:46:23Z</time>
      </trkpt>
      <trkpt lat="45.12235" lon="6.36749">
        <ele>2557.6</ele>
        <time>2017-04-16T06:46:28Z</time>
      </trkpt>
      <trkpt lat="45.12234" lon="6.36747">
        <ele>2555.2</ele>
        <time>2017-04-16T06:46:33Z</time>
      </trkpt>
      <trkpt lat="45.12233" lon="6.36744">
        <ele>2557</ele>
        <time>2017-04-16T06:46:38Z</time>
      </trkpt>
      <trkpt lat="45.12232" lon="6.36741">
        <ele>2558</ele>
        <time>2017-04-16T06:46:43Z</time>
      </trkpt>
      <trkpt lat="45.12231" lon="6.36739">
        <ele>2560</ele>
        <time>2017-04-16T06:46:48Z</time>
      </trkpt>
      <trkpt lat="45.12229" lon="6.36736">
        <ele>2558.8</ele>
        <time>2017-04-16T06:46:53Z</time>
      </trkpt>
      <trkpt lat="45.12228" lon="6.36733">
        <ele>2558.2</ele>
        <time>2017-04-16T06:46:58Z</time>
      </trkpt>
      <trkpt lat="45.12228" lon="6.36731">
        <ele>2561</ele>
        <time>2017-04-16T06:47:03Z</time>
      </trkpt>
      <trkpt lat="45.12227" lon="6.36729">
        <ele>2562.2</ele>
        <time>2017-04-16T06:47:08Z</time>
      </trkpt>
      <trkpt lat="45.12225" lon="6.36726">
        <ele>2563.4</ele>
        <time>2017-04-16T06:47:13Z</time>
      </trkpt>
      <trkpt lat="45.12224" lon="6.36723">
        <ele>2564.2</ele>
        <time>2017-04-16T06:47:18Z</time>
      </trkpt>
      <trkpt lat="45.12223" lon="6.36721">
        <ele>2565.2</ele>
        <time>2017-04-16T06:47:23Z</time>
      </trkpt>
      <trkpt lat="45.12223" lon="6.36718">
        <ele>2561.8</ele>
        <time>2017-04-16T06:47:28Z</time>
      </trkpt>
      <trkpt lat="45.12224" lon="6.36717">
        <ele>2564</ele>
        <time>2017-04-16T06:47:38Z</time>
      </trkpt>
      <trkpt lat="45.12226" lon="6.36717">
        <ele>2568.4</ele>
        <time>2017-04-16T06:47:44Z</time>
      </trkpt>
      <trkpt lat="45.12228" lon="6.36716">
        <ele>2569</ele>
        <time>2017-04-16T06:47:49Z</time>
      </trkpt>
      <trkpt lat="45.12228" lon="6.36716">
        <ele>2568.2</ele>
        <time>2017-04-16T06:47:54Z</time>
      </trkpt>
      <trkpt lat="45.1223" lon="6.36717">
        <ele>2567.2</ele>
        <time>2017-04-16T06:47:59Z</time>
      </trkpt>
      <trkpt lat="45.12232" lon="6.36717">
        <ele>2568.2</ele>
        <time>2017-04-16T06:48:04Z</time>
      </trkpt>
      <trkpt lat="45.12232" lon="6.36717">
        <ele>2568</ele>
        <time>2017-04-16T06:48:09Z</time>
      </trkpt>
      <trkpt lat="45.12234" lon="6.36717">
        <ele>2566.6</ele>
        <time>2017-04-16T06:48:14Z</time>
      </trkpt>
      <trkpt lat="45.12237" lon="6.36717">
        <ele>2568.8</ele>
        <time>2017-04-16T06:48:19Z</time>
      </trkpt>
      <trkpt lat="45.12239" lon="6.36718">
        <ele>2570</ele>
        <time>2017-04-16T06:48:24Z</time>
      </trkpt>
      <trkpt lat="45.12242" lon="6.36718">
        <ele>2572</ele>
        <time>2017-04-16T06:48:29Z</time>
      </trkpt>
      <trkpt lat="45.12245" lon="6.36718">
        <ele>2571.6</ele>
        <time>2017-04-16T06:48:34Z</time>
      </trkpt>
      <trkpt lat="45.12248" lon="6.36718">
        <ele>2569.6</ele>
        <time>2017-04-16T06:48:39Z</time>
      </trkpt>
      <trkpt lat="45.1225" lon="6.36716">
        <ele>2569</ele>
        <time>2017-04-16T06:48:49Z</time>
      </trkpt>
      <trkpt lat="45.12253" lon="6.36713">
        <ele>2572</ele>
        <time>2017-04-16T06:49:04Z</time>
      </trkpt>
      <trkpt lat="45.12256" lon="6.36713">
        <ele>2576</ele>
        <time>2017-04-16T06:49:09Z</time>
      </trkpt>
      <trkpt lat="45.12257" lon="6.36711">
        <ele>2576</ele>
        <time>2017-04-16T06:49:59Z</time>
      </trkpt>
      <trkpt lat="45.12259" lon="6.3671">
        <ele>2576.6</ele>
        <time>2017-04-16T06:51:34Z</time>
      </trkpt>
      <trkpt lat="45.12263" lon="6.36708">
        <ele>2573.8</ele>
        <time>2017-04-16T06:51:39Z</time>
      </trkpt>
      <trkpt lat="45.12265" lon="6.36702">
        <ele>2577.2</ele>
        <time>2017-04-16T06:51:49Z</time>
      </trkpt>
      <trkpt lat="45.12264" lon="6.36699">
        <ele>2578.8</ele>
        <time>2017-04-16T06:51:54Z</time>
      </trkpt>
      <trkpt lat="45.12262" lon="6.36695">
        <ele>2580.6</ele>
        <time>2017-04-16T06:51:59Z</time>
      </trkpt>
      <trkpt lat="45.12261" lon="6.36691">
        <ele>2579.8</ele>
        <time>2017-04-16T06:52:04Z</time>
      </trkpt>
      <trkpt lat="45.12259" lon="6.36687">
        <ele>2582.2</ele>
        <time>2017-04-16T06:52:09Z</time>
      </trkpt>
      <trkpt lat="45.12258" lon="6.36684">
        <ele>2582</ele>
        <time>2017-04-16T06:52:14Z</time>
      </trkpt>
      <trkpt lat="45.12257" lon="6.3668">
        <ele>2580.6</ele>
        <time>2017-04-16T06:52:19Z</time>
      </trkpt>
      <trkpt lat="45.12256" lon="6.36676">
        <ele>2584.6</ele>
        <time>2017-04-16T06:52:24Z</time>
      </trkpt>
      <trkpt lat="45.12255" lon="6.36673">
        <ele>2587.8</ele>
        <time>2017-04-16T06:52:29Z</time>
      </trkpt>
      <trkpt lat="45.12254" lon="6.3667">
        <ele>2585.6</ele>
        <time>2017-04-16T06:52:34Z</time>
      </trkpt>
      <trkpt lat="45.12254" lon="6.36666">
        <ele>2587</ele>
        <time>2017-04-16T06:52:39Z</time>
      </trkpt>
      <trkpt lat="45.12253" lon="6.36662">
        <ele>2588</ele>
        <time>2017-04-16T06:52:44Z</time>
      </trkpt>
      <trkpt lat="45.12255" lon="6.36659">
        <ele>2586.6</ele>
        <time>2017-04-16T06:52:49Z</time>
      </trkpt>
      <trkpt lat="45.12258" lon="6.36657">
        <ele>2586.2</ele>
        <time>2017-04-16T06:52:54Z</time>
      </trkpt>
      <trkpt lat="45.1226" lon="6.36655">
        <ele>2586.8</ele>
        <time>2017-04-16T06:52:59Z</time>
      </trkpt>
      <trkpt lat="45.12259" lon="6.36651">
        <ele>2589.6</ele>
        <time>2017-04-16T06:53:04Z</time>
      </trkpt>
      <trkpt lat="45.12259" lon="6.36647">
        <ele>2590</ele>
        <time>2017-04-16T06:53:09Z</time>
      </trkpt>
      <trkpt lat="45.12257" lon="6.36643">
        <ele>2592</ele>
        <time>2017-04-16T06:53:15Z</time>
      </trkpt>
      <trkpt lat="45.12256" lon="6.3664">
        <ele>2591.4</ele>
        <time>2017-04-16T06:53:20Z</time>
      </trkpt>
      <trkpt lat="45.12255" lon="6.36636">
        <ele>2593</ele>
        <time>2017-04-16T06:53:25Z</time>
      </trkpt>
      <trkpt lat="45.12255" lon="6.36633">
        <ele>2594.6</ele>
        <time>2017-04-16T06:53:30Z</time>
      </trkpt>
      <trkpt lat="45.12254" lon="6.3663">
        <ele>2595.4</ele>
        <time>2017-04-16T06:53:35Z</time>
      </trkpt>
      <trkpt lat="45.12253" lon="6.36627">
        <ele>2593.6</ele>
        <time>2017-04-16T06:53:40Z</time>
      </trkpt>
      <trkpt lat="45.12254" lon="6.36625">
        <ele>2597</ele>
        <time>2017-04-16T06:53:45Z</time>
      </trkpt>
      <trkpt lat="45.12257" lon="6.36624">
        <ele>2597</ele>
        <time>2017-04-16T06:53:50Z</time>
      </trkpt>
      <trkpt lat="45.12259" lon="6.36624">
        <ele>2596</ele>
        <time>2017-04-16T06:53:55Z</time>
      </trkpt>
      <trkpt lat="45.12262" lon="6.36624">
        <ele>2597</ele>
        <time>2017-04-16T06:54:00Z</time>
      </trkpt>
      <trkpt lat="45.12263" lon="6.36624">
        <ele>2598.2</ele>
        <time>2017-04-16T06:54:05Z</time>
      </trkpt>
      <trkpt lat="45.12265" lon="6.36623">
        <ele>2599.4</ele>
        <time>2017-04-16T06:54:10Z</time>
      </trkpt>
      <trkpt lat="45.12267" lon="6.36623">
        <ele>2599.2</ele>
        <time>2017-04-16T06:54:15Z</time>
      </trkpt>
      <trkpt lat="45.1227" lon="6.36622">
        <ele>2600.8</ele>
        <time>2017-04-16T06:54:20Z</time>
      </trkpt>
      <trkpt lat="45.12271" lon="6.3662">
        <ele>2599.6</ele>
        <time>2017-04-16T06:54:25Z</time>
      </trkpt>
      <trkpt lat="45.12271" lon="6.36616">
        <ele>2603.2</ele>
        <time>2017-04-16T06:54:30Z</time>
      </trkpt>
      <trkpt lat="45.1227" lon="6.36612">
        <ele>2602.2</ele>
        <time>2017-04-16T06:54:35Z</time>
      </trkpt>
      <trkpt lat="45.1227" lon="6.36609">
        <ele>2604</ele>
        <time>2017-04-16T06:54:40Z</time>
      </trkpt>
      <trkpt lat="45.1227" lon="6.36605">
        <ele>2604.8</ele>
        <time>2017-04-16T06:54:45Z</time>
      </trkpt>
      <trkpt lat="45.1227" lon="6.36602">
        <ele>2603.2</ele>
        <time>2017-04-16T06:54:50Z</time>
      </trkpt>
      <trkpt lat="45.1227" lon="6.36599">
        <ele>2601.6</ele>
        <time>2017-04-16T06:54:55Z</time>
      </trkpt>
      <trkpt lat="45.1227" lon="6.36596">
        <ele>2608.2</ele>
        <time>2017-04-16T06:55:00Z</time>
      </trkpt>
      <trkpt lat="45.12269" lon="6.36592">
        <ele>2606.2</ele>
        <time>2017-04-16T06:55:05Z</time>
      </trkpt>
      <trkpt lat="45.12268" lon="6.36589">
        <ele>2606.8</ele>
        <time>2017-04-16T06:55:10Z</time>
      </trkpt>
      <trkpt lat="45.12267" lon="6.36586">
        <ele>2611.8</ele>
        <time>2017-04-16T06:55:15Z</time>
      </trkpt>
      <trkpt lat="45.12266" lon="6.36583">
        <ele>2610.4</ele>
        <time>2017-04-16T06:55:20Z</time>
      </trkpt>
      <trkpt lat="45.12266" lon="6.36579">
        <ele>2609.6</ele>
        <time>2017-04-16T06:55:25Z</time>
      </trkpt>
      <trkpt lat="45.12265" lon="6.36576">
        <ele>2611</ele>
        <time>2017-04-16T06:55:30Z</time>
      </trkpt>
      <trkpt lat="45.12266" lon="6.36573">
        <ele>2614.8</ele>
        <time>2017-04-16T06:55:35Z</time>
      </trkpt>
      <trkpt lat="45.12268" lon="6.36572">
        <ele>2613.6</ele>
        <time>2017-04-16T06:55:40Z</time>
      </trkpt>
      <trkpt lat="45.12271" lon="6.36573">
        <ele>2613.2</ele>
        <time>2017-04-16T06:55:45Z</time>
      </trkpt>
      <trkpt lat="45.12274" lon="6.36572">
        <ele>2613</ele>
        <time>2017-04-16T06:55:50Z</time>
      </trkpt>
      <trkpt lat="45.12277" lon="6.3657">
        <ele>2614.4</ele>
        <time>2017-04-16T06:56:00Z</time>
      </trkpt>
      <trkpt lat="45.12276" lon="6.36567">
        <ele>2616.2</ele>
        <time>2017-04-16T06:56:05Z</time>
      </trkpt>
      <trkpt lat="45.12276" lon="6.36563">
        <ele>2617.8</ele>
        <time>2017-04-16T06:56:10Z</time>
      </trkpt>
      <trkpt lat="45.12276" lon="6.3656">
        <ele>2616</ele>
        <time>2017-04-16T06:56:15Z</time>
      </trkpt>
      <trkpt lat="45.12275" lon="6.36556">
        <ele>2618.4</ele>
        <time>2017-04-16T06:56:20Z</time>
      </trkpt>
      <trkpt lat="45.12275" lon="6.36552">
        <ele>2620.2</ele>
        <time>2017-04-16T06:56:25Z</time>
      </trkpt>
      <trkpt lat="45.12276" lon="6.36549">
        <ele>2620.2</ele>
        <time>2017-04-16T06:56:30Z</time>
      </trkpt>
      <trkpt lat="45.12276" lon="6.36545">
        <ele>2622</ele>
        <time>2017-04-16T06:56:35Z</time>
      </trkpt>
      <trkpt lat="45.12276" lon="6.36541">
        <ele>2623</ele>
        <time>2017-04-16T06:56:40Z</time>
      </trkpt>
      <trkpt lat="45.12277" lon="6.36538">
        <ele>2623.8</ele>
        <time>2017-04-16T06:56:45Z</time>
      </trkpt>
      <trkpt lat="45.12277" lon="6.36534">
        <ele>2622.6</ele>
        <time>2017-04-16T06:56:50Z</time>
      </trkpt>
      <trkpt lat="45.12278" lon="6.36531">
        <ele>2627</ele>
        <time>2017-04-16T06:56:55Z</time>
      </trkpt>
      <trkpt lat="45.12278" lon="6.36527">
        <ele>2625</ele>
        <time>2017-04-16T06:57:00Z</time>
      </trkpt>
      <trkpt lat="45.12278" lon="6.36523">
        <ele>2625</ele>
        <time>2017-04-16T06:57:05Z</time>
      </trkpt>
      <trkpt lat="45.12279" lon="6.3652">
        <ele>2623.8</ele>
        <time>2017-04-16T06:57:10Z</time>
      </trkpt>
      <trkpt lat="45.12279" lon="6.36516">
        <ele>2625.4</ele>
        <time>2017-04-16T06:57:15Z</time>
      </trkpt>
      <trkpt lat="45.12279" lon="6.36513">
        <ele>2628.8</ele>
        <time>2017-04-16T06:57:20Z</time>
      </trkpt>
      <trkpt lat="45.12279" lon="6.36509">
        <ele>2630.6</ele>
        <time>2017-04-16T06:57:25Z</time>
      </trkpt>
      <trkpt lat="45.12279" lon="6.36506">
        <ele>2628.2</ele>
        <time>2017-04-16T06:57:30Z</time>
      </trkpt>
      <trkpt lat="45.12279" lon="6.36502">
        <ele>2628.6</ele>
        <time>2017-04-16T06:57:35Z</time>
      </trkpt>
      <trkpt lat="45.12279" lon="6.36499">
        <ele>2627.4</ele>
        <time>2017-04-16T06:57:40Z</time>
      </trkpt>
      <trkpt lat="45.12279" lon="6.36495">
        <ele>2630</ele>
        <time>2017-04-16T06:57:45Z</time>
      </trkpt>
      <trkpt lat="45.12279" lon="6.36492">
        <ele>2631.6</ele>
        <time>2017-04-16T06:57:50Z</time>
      </trkpt>
      <trkpt lat="45.1228" lon="6.36488">
        <ele>2631</ele>
        <time>2017-04-16T06:57:55Z</time>
      </trkpt>
      <trkpt lat="45.1228" lon="6.36485">
        <ele>2632</ele>
        <time>2017-04-16T06:58:00Z</time>
      </trkpt>
      <trkpt lat="45.1228" lon="6.36481">
        <ele>2633.6</ele>
        <time>2017-04-16T06:58:05Z</time>
      </trkpt>
      <trkpt lat="45.1228" lon="6.36478">
        <ele>2635.2</ele>
        <time>2017-04-16T06:58:10Z</time>
      </trkpt>
      <trkpt lat="45.1228" lon="6.36474">
        <ele>2634.2</ele>
        <time>2017-04-16T06:58:15Z</time>
      </trkpt>
      <trkpt lat="45.1228" lon="6.36471">
        <ele>2635.8</ele>
        <time>2017-04-16T06:58:20Z</time>
      </trkpt>
      <trkpt lat="45.1228" lon="6.36467">
        <ele>2635.6</ele>
        <time>2017-04-16T06:58:25Z</time>
      </trkpt>
      <trkpt lat="45.1228" lon="6.36463">
        <ele>2640.6</ele>
        <time>2017-04-16T06:58:30Z</time>
      </trkpt>
      <trkpt lat="45.12281" lon="6.36462">
        <ele>2636.2</ele>
        <time>2017-04-16T06:58:35Z</time>
      </trkpt>
      <trkpt lat="45.12281" lon="6.36463">
        <ele>2636.6</ele>
        <time>2017-04-16T06:58:45Z</time>
      </trkpt>
      <trkpt lat="45.12284" lon="6.36464">
        <ele>2639</ele>
        <time>2017-04-16T06:58:50Z</time>
      </trkpt>
      <trkpt lat="45.12286" lon="6.36466">
        <ele>2639</ele>
        <time>2017-04-16T06:58:55Z</time>
      </trkpt>
      <trkpt lat="45.12288" lon="6.36468">
        <ele>2638.8</ele>
        <time>2017-04-16T06:59:00Z</time>
      </trkpt>
      <trkpt lat="45.1229" lon="6.3647">
        <ele>2639</ele>
        <time>2017-04-16T06:59:05Z</time>
      </trkpt>
      <trkpt lat="45.12293" lon="6.36473">
        <ele>2639.6</ele>
        <time>2017-04-16T06:59:10Z</time>
      </trkpt>
      <trkpt lat="45.12295" lon="6.36475">
        <ele>2640.8</ele>
        <time>2017-04-16T06:59:15Z</time>
      </trkpt>
      <trkpt lat="45.12297" lon="6.36477">
        <ele>2643.4</ele>
        <time>2017-04-16T06:59:20Z</time>
      </trkpt>
      <trkpt lat="45.123" lon="6.3648">
        <ele>2642.8</ele>
        <time>2017-04-16T06:59:25Z</time>
      </trkpt>
      <trkpt lat="45.12302" lon="6.36481">
        <ele>2644.8</ele>
        <time>2017-04-16T06:59:30Z</time>
      </trkpt>
      <trkpt lat="45.12304" lon="6.36483">
        <ele>2644.8</ele>
        <time>2017-04-16T06:59:35Z</time>
      </trkpt>
      <trkpt lat="45.12306" lon="6.36485">
        <ele>2647.4</ele>
        <time>2017-04-16T06:59:40Z</time>
      </trkpt>
      <trkpt lat="45.12309" lon="6.36488">
        <ele>2646.2</ele>
        <time>2017-04-16T06:59:45Z</time>
      </trkpt>
      <trkpt lat="45.12311" lon="6.36489">
        <ele>2649</ele>
        <time>2017-04-16T06:59:50Z</time>
      </trkpt>
      <trkpt lat="45.12313" lon="6.36491">
        <ele>2646.4</ele>
        <time>2017-04-16T06:59:55Z</time>
      </trkpt>
      <trkpt lat="45.12315" lon="6.36493">
        <ele>2647.6</ele>
        <time>2017-04-16T07:00:00Z</time>
      </trkpt>
      <trkpt lat="45.12317" lon="6.36495">
        <ele>2647</ele>
        <time>2017-04-16T07:00:05Z</time>
      </trkpt>
      <trkpt lat="45.12319" lon="6.36497">
        <ele>2652.8</ele>
        <time>2017-04-16T07:00:10Z</time>
      </trkpt>
      <trkpt lat="45.12321" lon="6.36498">
        <ele>2650.2</ele>
        <time>2017-04-16T07:00:15Z</time>
      </trkpt>
      <trkpt lat="45.12323" lon="6.365">
        <ele>2651</ele>
        <time>2017-04-16T07:00:20Z</time>
      </trkpt>
      <trkpt lat="45.12325" lon="6.36502">
        <ele>2651.4</ele>
        <time>2017-04-16T07:00:25Z</time>
      </trkpt>
      <trkpt lat="45.12327" lon="6.36504">
        <ele>2651.6</ele>
        <time>2017-04-16T07:00:30Z</time>
      </trkpt>
      <trkpt lat="45.12329" lon="6.36506">
        <ele>2653</ele>
        <time>2017-04-16T07:00:35Z</time>
      </trkpt>
      <trkpt lat="45.12332" lon="6.36508">
        <ele>2653.4</ele>
        <time>2017-04-16T07:00:40Z</time>
      </trkpt>
      <trkpt lat="45.12334" lon="6.3651">
        <ele>2655.6</ele>
        <time>2017-04-16T07:00:45Z</time>
      </trkpt>
      <trkpt lat="45.12336" lon="6.36512">
        <ele>2657.4</ele>
        <time>2017-04-16T07:00:50Z</time>
      </trkpt>
      <trkpt lat="45.12339" lon="6.36515">
        <ele>2654.4</ele>
        <time>2017-04-16T07:00:55Z</time>
      </trkpt>
      <trkpt lat="45.12341" lon="6.36517">
        <ele>2657.4</ele>
        <time>2017-04-16T07:01:00Z</time>
      </trkpt>
      <trkpt lat="45.12343" lon="6.36518">
        <ele>2655.8</ele>
        <time>2017-04-16T07:01:05Z</time>
      </trkpt>
      <trkpt lat="45.12345" lon="6.36519">
        <ele>2658.2</ele>
        <time>2017-04-16T07:01:10Z</time>
      </trkpt>
      <trkpt lat="45.12348" lon="6.3652">
        <ele>2658.8</ele>
        <time>2017-04-16T07:01:15Z</time>
      </trkpt>
      <trkpt lat="45.1235" lon="6.3652">
        <ele>2656.8</ele>
        <time>2017-04-16T07:01:20Z</time>
      </trkpt>
      <trkpt lat="45.12353" lon="6.36519">
        <ele>2660.8</ele>
        <time>2017-04-16T07:01:25Z</time>
      </trkpt>
      <trkpt lat="45.12355" lon="6.36518">
        <ele>2659.6</ele>
        <time>2017-04-16T07:01:30Z</time>
      </trkpt>
      <trkpt lat="45.12357" lon="6.36518">
        <ele>2661</ele>
        <time>2017-04-16T07:01:35Z</time>
      </trkpt>
      <trkpt lat="45.1236" lon="6.36518">
        <ele>2660.2</ele>
        <time>2017-04-16T07:01:40Z</time>
      </trkpt>
      <trkpt lat="45.12363" lon="6.36517">
        <ele>2659.4</ele>
        <time>2017-04-16T07:01:45Z</time>
      </trkpt>
      <trkpt lat="45.12365" lon="6.36516">
        <ele>2660.4</ele>
        <time>2017-04-16T07:01:50Z</time>
      </trkpt>
      <trkpt lat="45.12368" lon="6.36515">
        <ele>2660.2</ele>
        <time>2017-04-16T07:01:55Z</time>
      </trkpt>
      <trkpt lat="45.1237" lon="6.36515">
        <ele>2664</ele>
        <time>2017-04-16T07:02:00Z</time>
      </trkpt>
      <trkpt lat="45.12373" lon="6.36514">
        <ele>2663.4</ele>
        <time>2017-04-16T07:02:05Z</time>
      </trkpt>
      <trkpt lat="45.12376" lon="6.36513">
        <ele>2663.4</ele>
        <time>2017-04-16T07:02:10Z</time>
      </trkpt>
      <trkpt lat="45.12378" lon="6.36512">
        <ele>2662.6</ele>
        <time>2017-04-16T07:02:15Z</time>
      </trkpt>
      <trkpt lat="45.12381" lon="6.36511">
        <ele>2663.8</ele>
        <time>2017-04-16T07:02:20Z</time>
      </trkpt>
      <trkpt lat="45.12383" lon="6.36511">
        <ele>2665.8</ele>
        <time>2017-04-16T07:02:25Z</time>
      </trkpt>
      <trkpt lat="45.12386" lon="6.3651">
        <ele>2667</ele>
        <time>2017-04-16T07:02:30Z</time>
      </trkpt>
      <trkpt lat="45.12388" lon="6.3651">
        <ele>2667.8</ele>
        <time>2017-04-16T07:02:35Z</time>
      </trkpt>
      <trkpt lat="45.12391" lon="6.3651">
        <ele>2668</ele>
        <time>2017-04-16T07:02:40Z</time>
      </trkpt>
      <trkpt lat="45.12394" lon="6.3651">
        <ele>2670.2</ele>
        <time>2017-04-16T07:02:45Z</time>
      </trkpt>
      <trkpt lat="45.12396" lon="6.3651">
        <ele>2669</ele>
        <time>2017-04-16T07:02:50Z</time>
      </trkpt>
      <trkpt lat="45.12399" lon="6.3651">
        <ele>2668.4</ele>
        <time>2017-04-16T07:02:55Z</time>
      </trkpt>
      <trkpt lat="45.12401" lon="6.3651">
        <ele>2671.8</ele>
        <time>2017-04-16T07:03:00Z</time>
      </trkpt>
      <trkpt lat="45.12404" lon="6.3651">
        <ele>2672.2</ele>
        <time>2017-04-16T07:03:05Z</time>
      </trkpt>
      <trkpt lat="45.12406" lon="6.3651">
        <ele>2673</ele>
        <time>2017-04-16T07:03:10Z</time>
      </trkpt>
      <trkpt lat="45.12409" lon="6.3651">
        <ele>2671.4</ele>
        <time>2017-04-16T07:03:15Z</time>
      </trkpt>
      <trkpt lat="45.12411" lon="6.36511">
        <ele>2674.8</ele>
        <time>2017-04-16T07:03:20Z</time>
      </trkpt>
      <trkpt lat="45.12413" lon="6.36511">
        <ele>2673.2</ele>
        <time>2017-04-16T07:03:25Z</time>
      </trkpt>
      <trkpt lat="45.12415" lon="6.36512">
        <ele>2675.2</ele>
        <time>2017-04-16T07:03:30Z</time>
      </trkpt>
      <trkpt lat="45.12418" lon="6.36512">
        <ele>2675.2</ele>
        <time>2017-04-16T07:03:35Z</time>
      </trkpt>
      <trkpt lat="45.1242" lon="6.36513">
        <ele>2673.8</ele>
        <time>2017-04-16T07:03:40Z</time>
      </trkpt>
      <trkpt lat="45.12422" lon="6.36513">
        <ele>2676.4</ele>
        <time>2017-04-16T07:03:45Z</time>
      </trkpt>
      <trkpt lat="45.12424" lon="6.36514">
        <ele>2676.6</ele>
        <time>2017-04-16T07:03:50Z</time>
      </trkpt>
      <trkpt lat="45.12427" lon="6.36514">
        <ele>2676.6</ele>
        <time>2017-04-16T07:03:56Z</time>
      </trkpt>
      <trkpt lat="45.12429" lon="6.36515">
        <ele>2674.6</ele>
        <time>2017-04-16T07:04:01Z</time>
      </trkpt>
      <trkpt lat="45.12431" lon="6.36515">
        <ele>2682.4</ele>
        <time>2017-04-16T07:04:06Z</time>
      </trkpt>
      <trkpt lat="45.12433" lon="6.36515">
        <ele>2681.6</ele>
        <time>2017-04-16T07:04:11Z</time>
      </trkpt>
      <trkpt lat="45.12435" lon="6.36515">
        <ele>2679.8</ele>
        <time>2017-04-16T07:04:16Z</time>
      </trkpt>
      <trkpt lat="45.12437" lon="6.36516">
        <ele>2680.4</ele>
        <time>2017-04-16T07:04:21Z</time>
      </trkpt>
      <trkpt lat="45.1244" lon="6.36516">
        <ele>2678</ele>
        <time>2017-04-16T07:04:26Z</time>
      </trkpt>
      <trkpt lat="45.12442" lon="6.36517">
        <ele>2679.6</ele>
        <time>2017-04-16T07:04:31Z</time>
      </trkpt>
      <trkpt lat="45.12444" lon="6.36517">
        <ele>2684.4</ele>
        <time>2017-04-16T07:04:36Z</time>
      </trkpt>
      <trkpt lat="45.12446" lon="6.36517">
        <ele>2682.6</ele>
        <time>2017-04-16T07:04:41Z</time>
      </trkpt>
      <trkpt lat="45.12448" lon="6.36518">
        <ele>2683</ele>
        <time>2017-04-16T07:04:46Z</time>
      </trkpt>
      <trkpt lat="45.1245" lon="6.36518">
        <ele>2687.6</ele>
        <time>2017-04-16T07:04:51Z</time>
      </trkpt>
      <trkpt lat="45.12452" lon="6.36518">
        <ele>2683.6</ele>
        <time>2017-04-16T07:04:56Z</time>
      </trkpt>
      <trkpt lat="45.12455" lon="6.36518">
        <ele>2683.8</ele>
        <time>2017-04-16T07:05:01Z</time>
      </trkpt>
      <trkpt lat="45.12457" lon="6.36517">
        <ele>2684.2</ele>
        <time>2017-04-16T07:05:06Z</time>
      </trkpt>
      <trkpt lat="45.12457" lon="6.36516">
        <ele>2685</ele>
        <time>2017-04-16T07:05:11Z</time>
      </trkpt>
      <trkpt lat="45.12456" lon="6.36515">
        <ele>2690.8</ele>
        <time>2017-04-16T07:05:16Z</time>
      </trkpt>
      <trkpt lat="45.12456" lon="6.36512">
        <ele>2690</ele>
        <time>2017-04-16T07:05:21Z</time>
      </trkpt>
      <trkpt lat="45.12456" lon="6.36511">
        <ele>2689.4</ele>
        <time>2017-04-16T07:05:26Z</time>
      </trkpt>
      <trkpt lat="45.12456" lon="6.36508">
        <ele>2691.6</ele>
        <time>2017-04-16T07:05:31Z</time>
      </trkpt>
      <trkpt lat="45.12455" lon="6.36505">
        <ele>2688.2</ele>
        <time>2017-04-16T07:05:36Z</time>
      </trkpt>
      <trkpt lat="45.12454" lon="6.36502">
        <ele>2689.4</ele>
        <time>2017-04-16T07:05:41Z</time>
      </trkpt>
      <trkpt lat="45.12454" lon="6.36499">
        <ele>2693.6</ele>
        <time>2017-04-16T07:05:46Z</time>
      </trkpt>
      <trkpt lat="45.12453" lon="6.36495">
        <ele>2691.2</ele>
        <time>2017-04-16T07:05:51Z</time>
      </trkpt>
      <trkpt lat="45.12453" lon="6.36491">
        <ele>2694.2</ele>
        <time>2017-04-16T07:05:56Z</time>
      </trkpt>
      <trkpt lat="45.12452" lon="6.36488">
        <ele>2693.8</ele>
        <time>2017-04-16T07:06:01Z</time>
      </trkpt>
      <trkpt lat="45.12452" lon="6.36484">
        <ele>2691.4</ele>
        <time>2017-04-16T07:06:06Z</time>
      </trkpt>
      <trkpt lat="45.12452" lon="6.3648">
        <ele>2692</ele>
        <time>2017-04-16T07:06:11Z</time>
      </trkpt>
      <trkpt lat="45.12452" lon="6.36477">
        <ele>2696.2</ele>
        <time>2017-04-16T07:06:16Z</time>
      </trkpt>
      <trkpt lat="45.12452" lon="6.36473">
        <ele>2699</ele>
        <time>2017-04-16T07:06:21Z</time>
      </trkpt>
      <trkpt lat="45.12452" lon="6.3647">
        <ele>2698</ele>
        <time>2017-04-16T07:06:26Z</time>
      </trkpt>
      <trkpt lat="45.12451" lon="6.36466">
        <ele>2694.4</ele>
        <time>2017-04-16T07:06:31Z</time>
      </trkpt>
      <trkpt lat="45.12451" lon="6.36462">
        <ele>2697.8</ele>
        <time>2017-04-16T07:06:36Z</time>
      </trkpt>
      <trkpt lat="45.1245" lon="6.36459">
        <ele>2700.8</ele>
        <time>2017-04-16T07:06:41Z</time>
      </trkpt>
      <trkpt lat="45.1245" lon="6.36455">
        <ele>2698.4</ele>
        <time>2017-04-16T07:06:46Z</time>
      </trkpt>
      <trkpt lat="45.1245" lon="6.36452">
        <ele>2699.4</ele>
        <time>2017-04-16T07:06:51Z</time>
      </trkpt>
      <trkpt lat="45.12449" lon="6.36449">
        <ele>2698.8</ele>
        <time>2017-04-16T07:06:56Z</time>
      </trkpt>
      <trkpt lat="45.12448" lon="6.36445">
        <ele>2702.4</ele>
        <time>2017-04-16T07:07:01Z</time>
      </trkpt>
      <trkpt lat="45.12448" lon="6.36442">
        <ele>2701.8</ele>
        <time>2017-04-16T07:07:06Z</time>
      </trkpt>
      <trkpt lat="45.12447" lon="6.36439">
        <ele>2702.4</ele>
        <time>2017-04-16T07:07:11Z</time>
      </trkpt>
      <trkpt lat="45.12446" lon="6.36436">
        <ele>2704.6</ele>
        <time>2017-04-16T07:07:16Z</time>
      </trkpt>
      <trkpt lat="45.12446" lon="6.36433">
        <ele>2707.4</ele>
        <time>2017-04-16T07:07:21Z</time>
      </trkpt>
      <trkpt lat="45.12445" lon="6.3643">
        <ele>2705.4</ele>
        <time>2017-04-16T07:07:26Z</time>
      </trkpt>
      <trkpt lat="45.12443" lon="6.36427">
        <ele>2705.6</ele>
        <time>2017-04-16T07:07:31Z</time>
      </trkpt>
      <trkpt lat="45.12443" lon="6.36424">
        <ele>2706.4</ele>
        <time>2017-04-16T07:07:36Z</time>
      </trkpt>
      <trkpt lat="45.12442" lon="6.36421">
        <ele>2706.6</ele>
        <time>2017-04-16T07:07:41Z</time>
      </trkpt>
      <trkpt lat="45.12441" lon="6.36418">
        <ele>2708.2</ele>
        <time>2017-04-16T07:07:46Z</time>
      </trkpt>
      <trkpt lat="45.1244" lon="6.36415">
        <ele>2707.8</ele>
        <time>2017-04-16T07:07:51Z</time>
      </trkpt>
      <trkpt lat="45.12439" lon="6.36412">
        <ele>2706.4</ele>
        <time>2017-04-16T07:07:56Z</time>
      </trkpt>
      <trkpt lat="45.12439" lon="6.36409">
        <ele>2707.6</ele>
        <time>2017-04-16T07:08:01Z</time>
      </trkpt>
      <trkpt lat="45.12438" lon="6.36405">
        <ele>2710</ele>
        <time>2017-04-16T07:08:06Z</time>
      </trkpt>
      <trkpt lat="45.12438" lon="6.36402">
        <ele>2710.4</ele>
        <time>2017-04-16T07:08:11Z</time>
      </trkpt>
      <trkpt lat="45.12438" lon="6.36399">
        <ele>2711.4</ele>
        <time>2017-04-16T07:08:16Z</time>
      </trkpt>
      <trkpt lat="45.12438" lon="6.36396">
        <ele>2709.8</ele>
        <time>2017-04-16T07:08:21Z</time>
      </trkpt>
      <trkpt lat="45.12438" lon="6.36393">
        <ele>2716.8</ele>
        <time>2017-04-16T07:08:26Z</time>
      </trkpt>
      <trkpt lat="45.12438" lon="6.36392">
        <ele>2715.8</ele>
        <time>2017-04-16T07:08:31Z</time>
      </trkpt>
      <trkpt lat="45.12438" lon="6.36389">
        <ele>2718.4</ele>
        <time>2017-04-16T07:08:36Z</time>
      </trkpt>
      <trkpt lat="45.12438" lon="6.36386">
        <ele>2715.4</ele>
        <time>2017-04-16T07:08:41Z</time>
      </trkpt>
      <trkpt lat="45.12437" lon="6.36383">
        <ele>2714.2</ele>
        <time>2017-04-16T07:08:46Z</time>
      </trkpt>
      <trkpt lat="45.12437" lon="6.3638">
        <ele>2714</ele>
        <time>2017-04-16T07:08:51Z</time>
      </trkpt>
      <trkpt lat="45.12437" lon="6.36377">
        <ele>2716.4</ele>
        <time>2017-04-16T07:08:56Z</time>
      </trkpt>
      <trkpt lat="45.12436" lon="6.36373">
        <ele>2715.6</ele>
        <time>2017-04-16T07:09:02Z</time>
      </trkpt>
      <trkpt lat="45.12436" lon="6.3637">
        <ele>2719.6</ele>
        <time>2017-04-16T07:09:07Z</time>
      </trkpt>
      <trkpt lat="45.12436" lon="6.36367">
        <ele>2718.2</ele>
        <time>2017-04-16T07:09:12Z</time>
      </trkpt>
      <trkpt lat="45.12435" lon="6.36364">
        <ele>2719.6</ele>
        <time>2017-04-16T07:09:17Z</time>
      </trkpt>
      <trkpt lat="45.12435" lon="6.3636">
        <ele>2719.8</ele>
        <time>2017-04-16T07:09:22Z</time>
      </trkpt>
      <trkpt lat="45.12436" lon="6.36357">
        <ele>2724</ele>
        <time>2017-04-16T07:09:32Z</time>
      </trkpt>
      <trkpt lat="45.12438" lon="6.36359">
        <ele>2724.8</ele>
        <time>2017-04-16T07:09:37Z</time>
      </trkpt>
      <trkpt lat="45.1244" lon="6.3636">
        <ele>2726.4</ele>
        <time>2017-04-16T07:09:42Z</time>
      </trkpt>
      <trkpt lat="45.12442" lon="6.36361">
        <ele>2724</ele>
        <time>2017-04-16T07:09:47Z</time>
      </trkpt>
      <trkpt lat="45.12444" lon="6.36362">
        <ele>2725</ele>
        <time>2017-04-16T07:09:52Z</time>
      </trkpt>
      <trkpt lat="45.12444" lon="6.36362">
        <ele>2724.6</ele>
        <time>2017-04-16T07:09:57Z</time>
      </trkpt>
      <trkpt lat="45.12446" lon="6.36362">
        <ele>2723.8</ele>
        <time>2017-04-16T07:10:02Z</time>
      </trkpt>
      <trkpt lat="45.12448" lon="6.36363">
        <ele>2724</ele>
        <time>2017-04-16T07:10:07Z</time>
      </trkpt>
      <trkpt lat="45.1245" lon="6.36364">
        <ele>2727</ele>
        <time>2017-04-16T07:10:12Z</time>
      </trkpt>
      <trkpt lat="45.12453" lon="6.36365">
        <ele>2724.4</ele>
        <time>2017-04-16T07:10:17Z</time>
      </trkpt>
      <trkpt lat="45.12454" lon="6.36366">
        <ele>2727</ele>
        <time>2017-04-16T07:10:22Z</time>
      </trkpt>
      <trkpt lat="45.12457" lon="6.36367">
        <ele>2726.4</ele>
        <time>2017-04-16T07:10:27Z</time>
      </trkpt>
      <trkpt lat="45.12459" lon="6.36369">
        <ele>2724.6</ele>
        <time>2017-04-16T07:10:32Z</time>
      </trkpt>
      <trkpt lat="45.12461" lon="6.3637">
        <ele>2729.4</ele>
        <time>2017-04-16T07:10:37Z</time>
      </trkpt>
      <trkpt lat="45.12463" lon="6.36372">
        <ele>2728.8</ele>
        <time>2017-04-16T07:10:42Z</time>
      </trkpt>
      <trkpt lat="45.12465" lon="6.36373">
        <ele>2731.2</ele>
        <time>2017-04-16T07:10:47Z</time>
      </trkpt>
      <trkpt lat="45.12467" lon="6.36374">
        <ele>2730.4</ele>
        <time>2017-04-16T07:10:52Z</time>
      </trkpt>
      <trkpt lat="45.1247" lon="6.36375">
        <ele>2732</ele>
        <time>2017-04-16T07:10:57Z</time>
      </trkpt>
      <trkpt lat="45.12472" lon="6.36376">
        <ele>2733.6</ele>
        <time>2017-04-16T07:11:02Z</time>
      </trkpt>
      <trkpt lat="45.12474" lon="6.36377">
        <ele>2734</ele>
        <time>2017-04-16T07:11:07Z</time>
      </trkpt>
      <trkpt lat="45.12476" lon="6.36379">
        <ele>2734.6</ele>
        <time>2017-04-16T07:11:12Z</time>
      </trkpt>
      <trkpt lat="45.12478" lon="6.3638">
        <ele>2734</ele>
        <time>2017-04-16T07:11:17Z</time>
      </trkpt>
      <trkpt lat="45.12481" lon="6.3638">
        <ele>2736</ele>
        <time>2017-04-16T07:11:22Z</time>
      </trkpt>
      <trkpt lat="45.12483" lon="6.3638">
        <ele>2736.2</ele>
        <time>2017-04-16T07:11:27Z</time>
      </trkpt>
      <trkpt lat="45.12483" lon="6.3638">
        <ele>2736.2</ele>
        <time>2017-04-16T07:11:32Z</time>
      </trkpt>
      <trkpt lat="45.12483" lon="6.3638">
        <ele>2738.4</ele>
        <time>2017-04-16T07:11:37Z</time>
      </trkpt>
      <trkpt lat="45.12485" lon="6.36381">
        <ele>2738.6</ele>
        <time>2017-04-16T07:11:42Z</time>
      </trkpt>
      <trkpt lat="45.12487" lon="6.36381">
        <ele>2740</ele>
        <time>2017-04-16T07:11:47Z</time>
      </trkpt>
      <trkpt lat="45.12489" lon="6.36381">
        <ele>2740.4</ele>
        <time>2017-04-16T07:11:52Z</time>
      </trkpt>
      <trkpt lat="45.12491" lon="6.36381">
        <ele>2741</ele>
        <time>2017-04-16T07:11:57Z</time>
      </trkpt>
      <trkpt lat="45.12493" lon="6.36381">
        <ele>2738</ele>
        <time>2017-04-16T07:12:02Z</time>
      </trkpt>
      <trkpt lat="45.12495" lon="6.36381">
        <ele>2743.6</ele>
        <time>2017-04-16T07:12:07Z</time>
      </trkpt>
      <trkpt lat="45.12497" lon="6.36381">
        <ele>2741.8</ele>
        <time>2017-04-16T07:12:12Z</time>
      </trkpt>
      <trkpt lat="45.125" lon="6.3638">
        <ele>2742.2</ele>
        <time>2017-04-16T07:12:17Z</time>
      </trkpt>
      <trkpt lat="45.12502" lon="6.3638">
        <ele>2741.8</ele>
        <time>2017-04-16T07:12:22Z</time>
      </trkpt>
      <trkpt lat="45.12504" lon="6.36378">
        <ele>2740.2</ele>
        <time>2017-04-16T07:12:27Z</time>
      </trkpt>
      <trkpt lat="45.12505" lon="6.36375">
        <ele>2741</ele>
        <time>2017-04-16T07:12:32Z</time>
      </trkpt>
      <trkpt lat="45.12505" lon="6.36371">
        <ele>2746.4</ele>
        <time>2017-04-16T07:12:37Z</time>
      </trkpt>
      <trkpt lat="45.12505" lon="6.36368">
        <ele>2744.2</ele>
        <time>2017-04-16T07:12:42Z</time>
      </trkpt>
      <trkpt lat="45.12505" lon="6.36364">
        <ele>2744.8</ele>
        <time>2017-04-16T07:12:47Z</time>
      </trkpt>
      <trkpt lat="45.12505" lon="6.36361">
        <ele>2747.8</ele>
        <time>2017-04-16T07:12:52Z</time>
      </trkpt>
      <trkpt lat="45.12505" lon="6.36358">
        <ele>2746.2</ele>
        <time>2017-04-16T07:12:57Z</time>
      </trkpt>
      <trkpt lat="45.12505" lon="6.36354">
        <ele>2747.8</ele>
        <time>2017-04-16T07:13:02Z</time>
      </trkpt>
      <trkpt lat="45.12504" lon="6.36351">
        <ele>2748.2</ele>
        <time>2017-04-16T07:13:07Z</time>
      </trkpt>
      <trkpt lat="45.12504" lon="6.36348">
        <ele>2747.2</ele>
        <time>2017-04-16T07:13:12Z</time>
      </trkpt>
      <trkpt lat="45.12504" lon="6.36345">
        <ele>2746.6</ele>
        <time>2017-04-16T07:13:17Z</time>
      </trkpt>
      <trkpt lat="45.12504" lon="6.36342">
        <ele>2748.6</ele>
        <time>2017-04-16T07:13:22Z</time>
      </trkpt>
      <trkpt lat="45.12504" lon="6.36339">
        <ele>2748.6</ele>
        <time>2017-04-16T07:13:27Z</time>
      </trkpt>
      <trkpt lat="45.12504" lon="6.36337">
        <ele>2750.6</ele>
        <time>2017-04-16T07:13:32Z</time>
      </trkpt>
      <trkpt lat="45.12506" lon="6.36337">
        <ele>2750.6</ele>
        <time>2017-04-16T07:13:37Z</time>
      </trkpt>
      <trkpt lat="45.12508" lon="6.36337">
        <ele>2753</ele>
        <time>2017-04-16T07:13:42Z</time>
      </trkpt>
      <trkpt lat="45.1251" lon="6.36338">
        <ele>2751</ele>
        <time>2017-04-16T07:13:47Z</time>
      </trkpt>
      <trkpt lat="45.12512" lon="6.36338">
        <ele>2752.8</ele>
        <time>2017-04-16T07:13:52Z</time>
      </trkpt>
      <trkpt lat="45.12515" lon="6.36338">
        <ele>2752.6</ele>
        <time>2017-04-16T07:13:57Z</time>
      </trkpt>
      <trkpt lat="45.12516" lon="6.36338">
        <ele>2759</ele>
        <time>2017-04-16T07:14:02Z</time>
      </trkpt>
      <trkpt lat="45.12518" lon="6.36339">
        <ele>2755.4</ele>
        <time>2017-04-16T07:14:07Z</time>
      </trkpt>
      <trkpt lat="45.1252" lon="6.3634">
        <ele>2755</ele>
        <time>2017-04-16T07:14:12Z</time>
      </trkpt>
      <trkpt lat="45.12522" lon="6.3634">
        <ele>2757</ele>
        <time>2017-04-16T07:14:17Z</time>
      </trkpt>
      <trkpt lat="45.12524" lon="6.36341">
        <ele>2753.4</ele>
        <time>2017-04-16T07:14:22Z</time>
      </trkpt>
      <trkpt lat="45.12526" lon="6.36342">
        <ele>2754</ele>
        <time>2017-04-16T07:14:27Z</time>
      </trkpt>
      <trkpt lat="45.12528" lon="6.36344">
        <ele>2756.6</ele>
        <time>2017-04-16T07:14:32Z</time>
      </trkpt>
      <trkpt lat="45.12529" lon="6.36346">
        <ele>2756.4</ele>
        <time>2017-04-16T07:14:37Z</time>
      </trkpt>
      <trkpt lat="45.12531" lon="6.36347">
        <ele>2757.2</ele>
        <time>2017-04-16T07:14:42Z</time>
      </trkpt>
      <trkpt lat="45.12532" lon="6.36348">
        <ele>2760.6</ele>
        <time>2017-04-16T07:14:47Z</time>
      </trkpt>
      <trkpt lat="45.12534" lon="6.36349">
        <ele>2756.8</ele>
        <time>2017-04-16T07:14:52Z</time>
      </trkpt>
      <trkpt lat="45.12536" lon="6.36351">
        <ele>2757</ele>
        <time>2017-04-16T07:14:57Z</time>
      </trkpt>
      <trkpt lat="45.12538" lon="6.36353">
        <ele>2758.4</ele>
        <time>2017-04-16T07:15:02Z</time>
      </trkpt>
      <trkpt lat="45.12539" lon="6.36355">
        <ele>2762.2</ele>
        <time>2017-04-16T07:15:07Z</time>
      </trkpt>
      <trkpt lat="45.1254" lon="6.36356">
        <ele>2763.4</ele>
        <time>2017-04-16T07:15:12Z</time>
      </trkpt>
      <trkpt lat="45.12542" lon="6.36358">
        <ele>2762.8</ele>
        <time>2017-04-16T07:15:17Z</time>
      </trkpt>
      <trkpt lat="45.12543" lon="6.3636">
        <ele>2763.8</ele>
        <time>2017-04-16T07:15:22Z</time>
      </trkpt>
      <trkpt lat="45.12545" lon="6.36362">
        <ele>2763.8</ele>
        <time>2017-04-16T07:15:27Z</time>
      </trkpt>
      <trkpt lat="45.12546" lon="6.36364">
        <ele>2763.8</ele>
        <time>2017-04-16T07:15:32Z</time>
      </trkpt>
      <trkpt lat="45.12548" lon="6.36365">
        <ele>2768.4</ele>
        <time>2017-04-16T07:15:37Z</time>
      </trkpt>
      <trkpt lat="45.1255" lon="6.36367">
        <ele>2770.2</ele>
        <time>2017-04-16T07:15:42Z</time>
      </trkpt>
      <trkpt lat="45.12552" lon="6.36368">
        <ele>2768</ele>
        <time>2017-04-16T07:15:47Z</time>
      </trkpt>
      <trkpt lat="45.12552" lon="6.36366">
        <ele>2767.8</ele>
        <time>2017-04-16T07:15:52Z</time>
      </trkpt>
      <trkpt lat="45.12553" lon="6.36363">
        <ele>2769.6</ele>
        <time>2017-04-16T07:15:57Z</time>
      </trkpt>
      <trkpt lat="45.12553" lon="6.3636">
        <ele>2769.6</ele>
        <time>2017-04-16T07:16:02Z</time>
      </trkpt>
      <trkpt lat="45.12554" lon="6.36357">
        <ele>2771.2</ele>
        <time>2017-04-16T07:16:07Z</time>
      </trkpt>
      <trkpt lat="45.12555" lon="6.36354">
        <ele>2769.4</ele>
        <time>2017-04-16T07:16:12Z</time>
      </trkpt>
      <trkpt lat="45.12555" lon="6.36352">
        <ele>2768.6</ele>
        <time>2017-04-16T07:16:17Z</time>
      </trkpt>
      <trkpt lat="45.12557" lon="6.3635">
        <ele>2771.4</ele>
        <time>2017-04-16T07:16:22Z</time>
      </trkpt>
      <trkpt lat="45.12559" lon="6.36351">
        <ele>2773.2</ele>
        <time>2017-04-16T07:16:27Z</time>
      </trkpt>
      <trkpt lat="45.12561" lon="6.36353">
        <ele>2774.4</ele>
        <time>2017-04-16T07:16:32Z</time>
      </trkpt>
      <trkpt lat="45.12563" lon="6.36355">
        <ele>2772.8</ele>
        <time>2017-04-16T07:16:37Z</time>
      </trkpt>
      <trkpt lat="45.12565" lon="6.36357">
        <ele>2775.4</ele>
        <time>2017-04-16T07:16:42Z</time>
      </trkpt>
      <trkpt lat="45.12567" lon="6.36358">
        <ele>2774.2</ele>
        <time>2017-04-16T07:16:47Z</time>
      </trkpt>
      <trkpt lat="45.1257" lon="6.36359">
        <ele>2774.4</ele>
        <time>2017-04-16T07:16:52Z</time>
      </trkpt>
      <trkpt lat="45.12572" lon="6.36359">
        <ele>2777.2</ele>
        <time>2017-04-16T07:16:57Z</time>
      </trkpt>
      <trkpt lat="45.12575" lon="6.3636">
        <ele>2777.8</ele>
        <time>2017-04-16T07:17:02Z</time>
      </trkpt>
      <trkpt lat="45.12577" lon="6.3636">
        <ele>2779</ele>
        <time>2017-04-16T07:17:07Z</time>
      </trkpt>
      <trkpt lat="45.1258" lon="6.36359">
        <ele>2777.8</ele>
        <time>2017-04-16T07:17:12Z</time>
      </trkpt>
      <trkpt lat="45.12582" lon="6.36359">
        <ele>2779.8</ele>
        <time>2017-04-16T07:17:27Z</time>
      </trkpt>
      <trkpt lat="45.12582" lon="6.36358">
        <ele>2778.4</ele>
        <time>2017-04-16T07:18:57Z</time>
      </trkpt>
      <trkpt lat="45.12587" lon="6.36357">
        <ele>2776.8</ele>
        <time>2017-04-16T07:19:23Z</time>
      </trkpt>
      <trkpt lat="45.1259" lon="6.36356">
        <ele>2779.8</ele>
        <time>2017-04-16T07:19:28Z</time>
      </trkpt>
      <trkpt lat="45.12593" lon="6.36355">
        <ele>2782.2</ele>
        <time>2017-04-16T07:19:33Z</time>
      </trkpt>
      <trkpt lat="45.12597" lon="6.36354">
        <ele>2781.8</ele>
        <time>2017-04-16T07:19:39Z</time>
      </trkpt>
      <trkpt lat="45.12599" lon="6.36353">
        <ele>2785.8</ele>
        <time>2017-04-16T07:19:44Z</time>
      </trkpt>
      <trkpt lat="45.12602" lon="6.36351">
        <ele>2784.6</ele>
        <time>2017-04-16T07:19:49Z</time>
      </trkpt>
      <trkpt lat="45.12605" lon="6.3635">
        <ele>2785.8</ele>
        <time>2017-04-16T07:19:54Z</time>
      </trkpt>
      <trkpt lat="45.12607" lon="6.36348">
        <ele>2787.2</ele>
        <time>2017-04-16T07:19:59Z</time>
      </trkpt>
      <trkpt lat="45.1261" lon="6.36347">
        <ele>2790.4</ele>
        <time>2017-04-16T07:20:04Z</time>
      </trkpt>
      <trkpt lat="45.12612" lon="6.36345">
        <ele>2787.8</ele>
        <time>2017-04-16T07:20:09Z</time>
      </trkpt>
      <trkpt lat="45.12615" lon="6.36344">
        <ele>2786</ele>
        <time>2017-04-16T07:20:14Z</time>
      </trkpt>
      <trkpt lat="45.12617" lon="6.36344">
        <ele>2786.8</ele>
        <time>2017-04-16T07:20:19Z</time>
      </trkpt>
      <trkpt lat="45.12619" lon="6.36344">
        <ele>2792.8</ele>
        <time>2017-04-16T07:20:24Z</time>
      </trkpt>
      <trkpt lat="45.12621" lon="6.36343">
        <ele>2790.4</ele>
        <time>2017-04-16T07:20:29Z</time>
      </trkpt>
      <trkpt lat="45.12623" lon="6.36343">
        <ele>2791.2</ele>
        <time>2017-04-16T07:20:34Z</time>
      </trkpt>
      <trkpt lat="45.12625" lon="6.36344">
        <ele>2788.8</ele>
        <time>2017-04-16T07:20:39Z</time>
      </trkpt>
      <trkpt lat="45.12627" lon="6.36344">
        <ele>2793.6</ele>
        <time>2017-04-16T07:20:44Z</time>
      </trkpt>
      <trkpt lat="45.12629" lon="6.36344">
        <ele>2793.8</ele>
        <time>2017-04-16T07:20:49Z</time>
      </trkpt>
      <trkpt lat="45.12631" lon="6.36345">
        <ele>2796</ele>
        <time>2017-04-16T07:20:54Z</time>
      </trkpt>
      <trkpt lat="45.12633" lon="6.36345">
        <ele>2795.6</ele>
        <time>2017-04-16T07:20:59Z</time>
      </trkpt>
      <trkpt lat="45.12635" lon="6.36345">
        <ele>2796.6</ele>
        <time>2017-04-16T07:21:04Z</time>
      </trkpt>
      <trkpt lat="45.12637" lon="6.36346">
        <ele>2795.4</ele>
        <time>2017-04-16T07:21:09Z</time>
      </trkpt>
      <trkpt lat="45.12639" lon="6.36346">
        <ele>2796.2</ele>
        <time>2017-04-16T07:21:14Z</time>
      </trkpt>
      <trkpt lat="45.12641" lon="6.36347">
        <ele>2795</ele>
        <time>2017-04-16T07:21:19Z</time>
      </trkpt>
      <trkpt lat="45.12643" lon="6.36348">
        <ele>2796.2</ele>
        <time>2017-04-16T07:21:24Z</time>
      </trkpt>
      <trkpt lat="45.12643" lon="6.36347">
        <ele>2796.8</ele>
        <time>2017-04-16T07:21:29Z</time>
      </trkpt>
      <trkpt lat="45.12643" lon="6.36343">
        <ele>2797.4</ele>
        <time>2017-04-16T07:21:34Z</time>
      </trkpt>
      <trkpt lat="45.12642" lon="6.36341">
        <ele>2802.2</ele>
        <time>2017-04-16T07:21:39Z</time>
      </trkpt>
      <trkpt lat="45.12641" lon="6.36338">
        <ele>2800.6</ele>
        <time>2017-04-16T07:21:44Z</time>
      </trkpt>
      <trkpt lat="45.1264" lon="6.36335">
        <ele>2799.6</ele>
        <time>2017-04-16T07:21:49Z</time>
      </trkpt>
      <trkpt lat="45.1264" lon="6.36332">
        <ele>2804.6</ele>
        <time>2017-04-16T07:21:54Z</time>
      </trkpt>
      <trkpt lat="45.12639" lon="6.36329">
        <ele>2804.2</ele>
        <time>2017-04-16T07:21:59Z</time>
      </trkpt>
      <trkpt lat="45.12638" lon="6.36326">
        <ele>2804</ele>
        <time>2017-04-16T07:22:04Z</time>
      </trkpt>
      <trkpt lat="45.12638" lon="6.36323">
        <ele>2802.4</ele>
        <time>2017-04-16T07:22:09Z</time>
      </trkpt>
      <trkpt lat="45.12637" lon="6.3632">
        <ele>2802.8</ele>
        <time>2017-04-16T07:22:14Z</time>
      </trkpt>
      <trkpt lat="45.12636" lon="6.36317">
        <ele>2805.6</ele>
        <time>2017-04-16T07:22:19Z</time>
      </trkpt>
      <trkpt lat="45.12635" lon="6.36314">
        <ele>2807.6</ele>
        <time>2017-04-16T07:22:24Z</time>
      </trkpt>
      <trkpt lat="45.12635" lon="6.36311">
        <ele>2805</ele>
        <time>2017-04-16T07:22:29Z</time>
      </trkpt>
      <trkpt lat="45.12634" lon="6.36308">
        <ele>2805.2</ele>
        <time>2017-04-16T07:22:34Z</time>
      </trkpt>
      <trkpt lat="45.12633" lon="6.36305">
        <ele>2806.2</ele>
        <time>2017-04-16T07:22:39Z</time>
      </trkpt>
      <trkpt lat="45.12633" lon="6.36302">
        <ele>2804.6</ele>
        <time>2017-04-16T07:22:44Z</time>
      </trkpt>
      <trkpt lat="45.12632" lon="6.36299">
        <ele>2807.8</ele>
        <time>2017-04-16T07:22:49Z</time>
      </trkpt>
      <trkpt lat="45.12632" lon="6.36296">
        <ele>2808.2</ele>
        <time>2017-04-16T07:22:54Z</time>
      </trkpt>
      <trkpt lat="45.12631" lon="6.36293">
        <ele>2809</ele>
        <time>2017-04-16T07:22:59Z</time>
      </trkpt>
      <trkpt lat="45.12631" lon="6.36291">
        <ele>2808.8</ele>
        <time>2017-04-16T07:23:04Z</time>
      </trkpt>
      <trkpt lat="45.12633" lon="6.3629">
        <ele>2811</ele>
        <time>2017-04-16T07:23:09Z</time>
      </trkpt>
      <trkpt lat="45.12635" lon="6.3629">
        <ele>2810.6</ele>
        <time>2017-04-16T07:23:14Z</time>
      </trkpt>
      <trkpt lat="45.12638" lon="6.36289">
        <ele>2808.8</ele>
        <time>2017-04-16T07:23:19Z</time>
      </trkpt>
      <trkpt lat="45.12639" lon="6.36289">
        <ele>2809.4</ele>
        <time>2017-04-16T07:23:24Z</time>
      </trkpt>
      <trkpt lat="45.12641" lon="6.36289">
        <ele>2812.4</ele>
        <time>2017-04-16T07:23:29Z</time>
      </trkpt>
      <trkpt lat="45.12643" lon="6.36289">
        <ele>2814.4</ele>
        <time>2017-04-16T07:23:34Z</time>
      </trkpt>
      <trkpt lat="45.12645" lon="6.36289">
        <ele>2816</ele>
        <time>2017-04-16T07:23:39Z</time>
      </trkpt>
      <trkpt lat="45.12647" lon="6.36288">
        <ele>2817</ele>
        <time>2017-04-16T07:23:44Z</time>
      </trkpt>
      <trkpt lat="45.12649" lon="6.36288">
        <ele>2817.8</ele>
        <time>2017-04-16T07:23:49Z</time>
      </trkpt>
      <trkpt lat="45.12651" lon="6.36288">
        <ele>2819</ele>
        <time>2017-04-16T07:23:54Z</time>
      </trkpt>
      <trkpt lat="45.12653" lon="6.36288">
        <ele>2816.2</ele>
        <time>2017-04-16T07:23:59Z</time>
      </trkpt>
      <trkpt lat="45.12654" lon="6.36289">
        <ele>2816</ele>
        <time>2017-04-16T07:24:04Z</time>
      </trkpt>
      <trkpt lat="45.12656" lon="6.36289">
        <ele>2819.2</ele>
        <time>2017-04-16T07:24:09Z</time>
      </trkpt>
      <trkpt lat="45.12658" lon="6.36289">
        <ele>2820</ele>
        <time>2017-04-16T07:24:14Z</time>
      </trkpt>
      <trkpt lat="45.1266" lon="6.3629">
        <ele>2818.4</ele>
        <time>2017-04-16T07:24:19Z</time>
      </trkpt>
      <trkpt lat="45.12662" lon="6.3629">
        <ele>2818.4</ele>
        <time>2017-04-16T07:24:24Z</time>
      </trkpt>
      <trkpt lat="45.12664" lon="6.3629">
        <ele>2818.6</ele>
        <time>2017-04-16T07:24:29Z</time>
      </trkpt>
      <trkpt lat="45.12666" lon="6.3629">
        <ele>2819.4</ele>
        <time>2017-04-16T07:24:34Z</time>
      </trkpt>
      <trkpt lat="45.12668" lon="6.3629">
        <ele>2819</ele>
        <time>2017-04-16T07:24:39Z</time>
      </trkpt>
      <trkpt lat="45.12669" lon="6.3629">
        <ele>2821.6</ele>
        <time>2017-04-16T07:24:44Z</time>
      </trkpt>
      <trkpt lat="45.12671" lon="6.36291">
        <ele>2821</ele>
        <time>2017-04-16T07:24:49Z</time>
      </trkpt>
      <trkpt lat="45.12673" lon="6.36291">
        <ele>2825</ele>
        <time>2017-04-16T07:24:54Z</time>
      </trkpt>
      <trkpt lat="45.12675" lon="6.36291">
        <ele>2824.6</ele>
        <time>2017-04-16T07:24:59Z</time>
      </trkpt>
      <trkpt lat="45.12677" lon="6.36291">
        <ele>2824.4</ele>
        <time>2017-04-16T07:25:04Z</time>
      </trkpt>
      <trkpt lat="45.12679" lon="6.36292">
        <ele>2825</ele>
        <time>2017-04-16T07:25:09Z</time>
      </trkpt>
      <trkpt lat="45.1268" lon="6.36292">
        <ele>2826.4</ele>
        <time>2017-04-16T07:25:14Z</time>
      </trkpt>
      <trkpt lat="45.12682" lon="6.36292">
        <ele>2825.8</ele>
        <time>2017-04-16T07:25:19Z</time>
      </trkpt>
      <trkpt lat="45.12684" lon="6.36292">
        <ele>2826</ele>
        <time>2017-04-16T07:25:24Z</time>
      </trkpt>
      <trkpt lat="45.12686" lon="6.36293">
        <ele>2830.6</ele>
        <time>2017-04-16T07:25:29Z</time>
      </trkpt>
      <trkpt lat="45.12688" lon="6.36293">
        <ele>2832.8</ele>
        <time>2017-04-16T07:25:34Z</time>
      </trkpt>
      <trkpt lat="45.12689" lon="6.36293">
        <ele>2829.4</ele>
        <time>2017-04-16T07:25:39Z</time>
      </trkpt>
      <trkpt lat="45.12691" lon="6.36293">
        <ele>2828</ele>
        <time>2017-04-16T07:25:44Z</time>
      </trkpt>
      <trkpt lat="45.12693" lon="6.36293">
        <ele>2834.2</ele>
        <time>2017-04-16T07:25:49Z</time>
      </trkpt>
      <trkpt lat="45.12695" lon="6.36294">
        <ele>2837.8</ele>
        <time>2017-04-16T07:25:54Z</time>
      </trkpt>
      <trkpt lat="45.12697" lon="6.36295">
        <ele>2835.6</ele>
        <time>2017-04-16T07:25:59Z</time>
      </trkpt>
      <trkpt lat="45.12699" lon="6.36295">
        <ele>2836.6</ele>
        <time>2017-04-16T07:26:04Z</time>
      </trkpt>
      <trkpt lat="45.127" lon="6.36296">
        <ele>2833.2</ele>
        <time>2017-04-16T07:26:09Z</time>
      </trkpt>
      <trkpt lat="45.12702" lon="6.36297">
        <ele>2835.8</ele>
        <time>2017-04-16T07:26:14Z</time>
      </trkpt>
      <trkpt lat="45.12704" lon="6.36297">
        <ele>2836.6</ele>
        <time>2017-04-16T07:26:19Z</time>
      </trkpt>
      <trkpt lat="45.12706" lon="6.36297">
        <ele>2836</ele>
        <time>2017-04-16T07:26:24Z</time>
      </trkpt>
      <trkpt lat="45.12708" lon="6.36298">
        <ele>2837</ele>
        <time>2017-04-16T07:26:29Z</time>
      </trkpt>
      <trkpt lat="45.1271" lon="6.36298">
        <ele>2837.2</ele>
        <time>2017-04-16T07:26:34Z</time>
      </trkpt>
      <trkpt lat="45.12712" lon="6.36298">
        <ele>2835.8</ele>
        <time>2017-04-16T07:26:39Z</time>
      </trkpt>
      <trkpt lat="45.12714" lon="6.36299">
        <ele>2838.4</ele>
        <time>2017-04-16T07:26:44Z</time>
      </trkpt>
      <trkpt lat="45.12716" lon="6.36299">
        <ele>2838</ele>
        <time>2017-04-16T07:26:49Z</time>
      </trkpt>
      <trkpt lat="45.12718" lon="6.36299">
        <ele>2838.4</ele>
        <time>2017-04-16T07:26:54Z</time>
      </trkpt>
      <trkpt lat="45.1272" lon="6.363">
        <ele>2839.4</ele>
        <time>2017-04-16T07:26:59Z</time>
      </trkpt>
      <trkpt lat="45.12723" lon="6.363">
        <ele>2839.6</ele>
        <time>2017-04-16T07:27:04Z</time>
      </trkpt>
      <trkpt lat="45.12725" lon="6.363">
        <ele>2843.4</ele>
        <time>2017-04-16T07:27:09Z</time>
      </trkpt>
      <trkpt lat="45.12727" lon="6.36301">
        <ele>2844.2</ele>
        <time>2017-04-16T07:27:14Z</time>
      </trkpt>
      <trkpt lat="45.12729" lon="6.36301">
        <ele>2844.2</ele>
        <time>2017-04-16T07:27:19Z</time>
      </trkpt>
      <trkpt lat="45.12732" lon="6.36301">
        <ele>2845</ele>
        <time>2017-04-16T07:27:24Z</time>
      </trkpt>
      <trkpt lat="45.12734" lon="6.36302">
        <ele>2845.8</ele>
        <time>2017-04-16T07:27:29Z</time>
      </trkpt>
      <trkpt lat="45.12737" lon="6.36302">
        <ele>2843</ele>
        <time>2017-04-16T07:27:34Z</time>
      </trkpt>
      <trkpt lat="45.12739" lon="6.36303">
        <ele>2848.6</ele>
        <time>2017-04-16T07:27:39Z</time>
      </trkpt>
      <trkpt lat="45.12742" lon="6.36303">
        <ele>2844.2</ele>
        <time>2017-04-16T07:27:44Z</time>
      </trkpt>
      <trkpt lat="45.12744" lon="6.36303">
        <ele>2846.8</ele>
        <time>2017-04-16T07:27:49Z</time>
      </trkpt>
      <trkpt lat="45.12747" lon="6.36304">
        <ele>2847.4</ele>
        <time>2017-04-16T07:27:54Z</time>
      </trkpt>
      <trkpt lat="45.12749" lon="6.36305">
        <ele>2847.8</ele>
        <time>2017-04-16T07:27:59Z</time>
      </trkpt>
      <trkpt lat="45.12752" lon="6.36307">
        <ele>2849.4</ele>
        <time>2017-04-16T07:28:04Z</time>
      </trkpt>
      <trkpt lat="45.12754" lon="6.36308">
        <ele>2848.6</ele>
        <time>2017-04-16T07:28:09Z</time>
      </trkpt>
      <trkpt lat="45.12756" lon="6.36308">
        <ele>2850.8</ele>
        <time>2017-04-16T07:28:14Z</time>
      </trkpt>
      <trkpt lat="45.12759" lon="6.36309">
        <ele>2851</ele>
        <time>2017-04-16T07:28:19Z</time>
      </trkpt>
      <trkpt lat="45.12761" lon="6.36309">
        <ele>2850.6</ele>
        <time>2017-04-16T07:28:24Z</time>
      </trkpt>
      <trkpt lat="45.12764" lon="6.36309">
        <ele>2853.4</ele>
        <time>2017-04-16T07:28:29Z</time>
      </trkpt>
      <trkpt lat="45.12766" lon="6.36308">
        <ele>2852.6</ele>
        <time>2017-04-16T07:28:34Z</time>
      </trkpt>
      <trkpt lat="45.12767" lon="6.36308">
        <ele>2853.8</ele>
        <time>2017-04-16T07:28:39Z</time>
      </trkpt>
      <trkpt lat="45.12769" lon="6.36307">
        <ele>2854.6</ele>
        <time>2017-04-16T07:28:44Z</time>
      </trkpt>
      <trkpt lat="45.12771" lon="6.36305">
        <ele>2851</ele>
        <time>2017-04-16T07:28:49Z</time>
      </trkpt>
      <trkpt lat="45.12773" lon="6.36304">
        <ele>2853.8</ele>
        <time>2017-04-16T07:28:54Z</time>
      </trkpt>
      <trkpt lat="45.12776" lon="6.36303">
        <ele>2856.2</ele>
        <time>2017-04-16T07:28:59Z</time>
      </trkpt>
      <trkpt lat="45.12778" lon="6.36301">
        <ele>2854.2</ele>
        <time>2017-04-16T07:29:05Z</time>
      </trkpt>
      <trkpt lat="45.12781" lon="6.363">
        <ele>2857.4</ele>
        <time>2017-04-16T07:29:10Z</time>
      </trkpt>
      <trkpt lat="45.12783" lon="6.36299">
        <ele>2854.6</ele>
        <time>2017-04-16T07:29:15Z</time>
      </trkpt>
      <trkpt lat="45.12785" lon="6.36297">
        <ele>2855</ele>
        <time>2017-04-16T07:29:21Z</time>
      </trkpt>
      <trkpt lat="45.12788" lon="6.36296">
        <ele>2857.4</ele>
        <time>2017-04-16T07:29:26Z</time>
      </trkpt>
      <trkpt lat="45.1279" lon="6.36296">
        <ele>2857.8</ele>
        <time>2017-04-16T07:29:31Z</time>
      </trkpt>
      <trkpt lat="45.12792" lon="6.36297">
        <ele>2860.6</ele>
        <time>2017-04-16T07:29:36Z</time>
      </trkpt>
      <trkpt lat="45.12795" lon="6.36298">
        <ele>2858</ele>
        <time>2017-04-16T07:29:41Z</time>
      </trkpt>
      <trkpt lat="45.12797" lon="6.36299">
        <ele>2858.4</ele>
        <time>2017-04-16T07:29:46Z</time>
      </trkpt>
      <trkpt lat="45.128" lon="6.363">
        <ele>2861.8</ele>
        <time>2017-04-16T07:29:51Z</time>
      </trkpt>
      <trkpt lat="45.12802" lon="6.36302">
        <ele>2858</ele>
        <time>2017-04-16T07:29:56Z</time>
      </trkpt>
      <trkpt lat="45.12804" lon="6.36303">
        <ele>2860.8</ele>
        <time>2017-04-16T07:30:01Z</time>
      </trkpt>
      <trkpt lat="45.12807" lon="6.36304">
        <ele>2862.6</ele>
        <time>2017-04-16T07:30:06Z</time>
      </trkpt>
      <trkpt lat="45.12809" lon="6.36306">
        <ele>2859.8</ele>
        <time>2017-04-16T07:30:11Z</time>
      </trkpt>
      <trkpt lat="45.12812" lon="6.36307">
        <ele>2861.4</ele>
        <time>2017-04-16T07:30:16Z</time>
      </trkpt>
      <trkpt lat="45.12814" lon="6.36308">
        <ele>2864</ele>
        <time>2017-04-16T07:30:21Z</time>
      </trkpt>
      <trkpt lat="45.12816" lon="6.36309">
        <ele>2862</ele>
        <time>2017-04-16T07:30:26Z</time>
      </trkpt>
      <trkpt lat="45.12819" lon="6.3631">
        <ele>2864.6</ele>
        <time>2017-04-16T07:30:31Z</time>
      </trkpt>
      <trkpt lat="45.12821" lon="6.36311">
        <ele>2865.2</ele>
        <time>2017-04-16T07:30:36Z</time>
      </trkpt>
      <trkpt lat="45.12824" lon="6.36312">
        <ele>2863.8</ele>
        <time>2017-04-16T07:30:41Z</time>
      </trkpt>
      <trkpt lat="45.12826" lon="6.36313">
        <ele>2868.8</ele>
        <time>2017-04-16T07:30:46Z</time>
      </trkpt>
      <trkpt lat="45.12829" lon="6.36314">
        <ele>2867.6</ele>
        <time>2017-04-16T07:30:51Z</time>
      </trkpt>
      <trkpt lat="45.12831" lon="6.36314">
        <ele>2871.2</ele>
        <time>2017-04-16T07:30:56Z</time>
      </trkpt>
      <trkpt lat="45.12834" lon="6.36315">
        <ele>2872</ele>
        <time>2017-04-16T07:31:01Z</time>
      </trkpt>
      <trkpt lat="45.12836" lon="6.36315">
        <ele>2871.4</ele>
        <time>2017-04-16T07:31:06Z</time>
      </trkpt>
      <trkpt lat="45.12839" lon="6.36315">
        <ele>2870.4</ele>
        <time>2017-04-16T07:31:11Z</time>
      </trkpt>
      <trkpt lat="45.12841" lon="6.36315">
        <ele>2872.2</ele>
        <time>2017-04-16T07:31:16Z</time>
      </trkpt>
      <trkpt lat="45.12843" lon="6.36315">
        <ele>2874.2</ele>
        <time>2017-04-16T07:31:21Z</time>
      </trkpt>
      <trkpt lat="45.12846" lon="6.36314">
        <ele>2873.2</ele>
        <time>2017-04-16T07:31:26Z</time>
      </trkpt>
      <trkpt lat="45.12848" lon="6.36314">
        <ele>2871.6</ele>
        <time>2017-04-16T07:31:31Z</time>
      </trkpt>
      <trkpt lat="45.1285" lon="6.36314">
        <ele>2875.6</ele>
        <time>2017-04-16T07:31:36Z</time>
      </trkpt>
      <trkpt lat="45.12852" lon="6.36313">
        <ele>2873.6</ele>
        <time>2017-04-16T07:31:41Z</time>
      </trkpt>
      <trkpt lat="45.12855" lon="6.36313">
        <ele>2875.8</ele>
        <time>2017-04-16T07:31:46Z</time>
      </trkpt>
      <trkpt lat="45.12857" lon="6.36313">
        <ele>2877.4</ele>
        <time>2017-04-16T07:31:51Z</time>
      </trkpt>
      <trkpt lat="45.1286" lon="6.36313">
        <ele>2877.2</ele>
        <time>2017-04-16T07:31:56Z</time>
      </trkpt>
      <trkpt lat="45.12862" lon="6.36313">
        <ele>2876.8</ele>
        <time>2017-04-16T07:32:01Z</time>
      </trkpt>
      <trkpt lat="45.12862" lon="6.36311">
        <ele>2875.2</ele>
        <time>2017-04-16T07:32:06Z</time>
      </trkpt>
      <trkpt lat="45.12862" lon="6.36311">
        <ele>2875.8</ele>
        <time>2017-04-16T07:32:11Z</time>
      </trkpt>
      <trkpt lat="45.12863" lon="6.3631">
        <ele>2876</ele>
        <time>2017-04-16T07:32:16Z</time>
      </trkpt>
      <trkpt lat="45.12866" lon="6.36308">
        <ele>2877.4</ele>
        <time>2017-04-16T07:32:21Z</time>
      </trkpt>
      <trkpt lat="45.12868" lon="6.36307">
        <ele>2879.4</ele>
        <time>2017-04-16T07:32:26Z</time>
      </trkpt>
      <trkpt lat="45.1287" lon="6.36305">
        <ele>2878.4</ele>
        <time>2017-04-16T07:32:31Z</time>
      </trkpt>
      <trkpt lat="45.12872" lon="6.36304">
        <ele>2877.2</ele>
        <time>2017-04-16T07:32:36Z</time>
      </trkpt>
      <trkpt lat="45.12874" lon="6.36302">
        <ele>2878.8</ele>
        <time>2017-04-16T07:32:41Z</time>
      </trkpt>
      <trkpt lat="45.12875" lon="6.363">
        <ele>2879.6</ele>
        <time>2017-04-16T07:32:46Z</time>
      </trkpt>
      <trkpt lat="45.12878" lon="6.36299">
        <ele>2882.2</ele>
        <time>2017-04-16T07:32:51Z</time>
      </trkpt>
      <trkpt lat="45.1288" lon="6.36297">
        <ele>2883.4</ele>
        <time>2017-04-16T07:32:56Z</time>
      </trkpt>
      <trkpt lat="45.12881" lon="6.36296">
        <ele>2880</ele>
        <time>2017-04-16T07:33:01Z</time>
      </trkpt>
      <trkpt lat="45.12881" lon="6.36296">
        <ele>2881.2</ele>
        <time>2017-04-16T07:35:11Z</time>
      </trkpt>
      <trkpt lat="45.12884" lon="6.36295">
        <ele>2882</ele>
        <time>2017-04-16T07:35:16Z</time>
      </trkpt>
      <trkpt lat="45.12887" lon="6.36293">
        <ele>2881.4</ele>
        <time>2017-04-16T07:35:21Z</time>
      </trkpt>
      <trkpt lat="45.1289" lon="6.36292">
        <ele>2882.4</ele>
        <time>2017-04-16T07:35:26Z</time>
      </trkpt>
      <trkpt lat="45.12892" lon="6.3629">
        <ele>2881.2</ele>
        <time>2017-04-16T07:35:31Z</time>
      </trkpt>
      <trkpt lat="45.12895" lon="6.36289">
        <ele>2884.4</ele>
        <time>2017-04-16T07:35:36Z</time>
      </trkpt>
      <trkpt lat="45.12897" lon="6.36288">
        <ele>2882.8</ele>
        <time>2017-04-16T07:35:41Z</time>
      </trkpt>
      <trkpt lat="45.129" lon="6.36287">
        <ele>2884.8</ele>
        <time>2017-04-16T07:35:46Z</time>
      </trkpt>
      <trkpt lat="45.12902" lon="6.36285">
        <ele>2887.8</ele>
        <time>2017-04-16T07:35:51Z</time>
      </trkpt>
      <trkpt lat="45.12905" lon="6.36284">
        <ele>2890.6</ele>
        <time>2017-04-16T07:35:56Z</time>
      </trkpt>
      <trkpt lat="45.12907" lon="6.36283">
        <ele>2889.6</ele>
        <time>2017-04-16T07:36:01Z</time>
      </trkpt>
      <trkpt lat="45.12909" lon="6.36282">
        <ele>2888.8</ele>
        <time>2017-04-16T07:36:06Z</time>
      </trkpt>
      <trkpt lat="45.12911" lon="6.36282">
        <ele>2891.4</ele>
        <time>2017-04-16T07:36:11Z</time>
      </trkpt>
      <trkpt lat="45.12914" lon="6.36281">
        <ele>2890.2</ele>
        <time>2017-04-16T07:36:16Z</time>
      </trkpt>
      <trkpt lat="45.12916" lon="6.3628">
        <ele>2891.4</ele>
        <time>2017-04-16T07:36:21Z</time>
      </trkpt>
      <trkpt lat="45.12919" lon="6.36279">
        <ele>2892.8</ele>
        <time>2017-04-16T07:36:26Z</time>
      </trkpt>
      <trkpt lat="45.12921" lon="6.36278">
        <ele>2894.4</ele>
        <time>2017-04-16T07:36:31Z</time>
      </trkpt>
      <trkpt lat="45.12923" lon="6.36278">
        <ele>2891.6</ele>
        <time>2017-04-16T07:36:36Z</time>
      </trkpt>
      <trkpt lat="45.12926" lon="6.36277">
        <ele>2892.6</ele>
        <time>2017-04-16T07:36:41Z</time>
      </trkpt>
      <trkpt lat="45.12928" lon="6.36276">
        <ele>2895.6</ele>
        <time>2017-04-16T07:36:46Z</time>
      </trkpt>
      <trkpt lat="45.1293" lon="6.36275">
        <ele>2894.6</ele>
        <time>2017-04-16T07:36:51Z</time>
      </trkpt>
      <trkpt lat="45.12932" lon="6.36274">
        <ele>2896.4</ele>
        <time>2017-04-16T07:36:56Z</time>
      </trkpt>
      <trkpt lat="45.12935" lon="6.36273">
        <ele>2894.4</ele>
        <time>2017-04-16T07:37:01Z</time>
      </trkpt>
      <trkpt lat="45.12937" lon="6.36272">
        <ele>2895.6</ele>
        <time>2017-04-16T07:37:06Z</time>
      </trkpt>
      <trkpt lat="45.1294" lon="6.36272">
        <ele>2897.4</ele>
        <time>2017-04-16T07:37:11Z</time>
      </trkpt>
      <trkpt lat="45.12942" lon="6.36271">
        <ele>2897.8</ele>
        <time>2017-04-16T07:37:16Z</time>
      </trkpt>
      <trkpt lat="45.12945" lon="6.36271">
        <ele>2899.4</ele>
        <time>2017-04-16T07:37:21Z</time>
      </trkpt>
      <trkpt lat="45.12947" lon="6.36271">
        <ele>2897.6</ele>
        <time>2017-04-16T07:37:26Z</time>
      </trkpt>
      <trkpt lat="45.1295" lon="6.36271">
        <ele>2898.6</ele>
        <time>2017-04-16T07:37:31Z</time>
      </trkpt>
      <trkpt lat="45.12952" lon="6.36271">
        <ele>2899.8</ele>
        <time>2017-04-16T07:37:36Z</time>
      </trkpt>
      <trkpt lat="45.12954" lon="6.36267">
        <ele>2902.8</ele>
        <time>2017-04-16T07:37:51Z</time>
      </trkpt>
      <trkpt lat="45.12953" lon="6.36265">
        <ele>2901.6</ele>
        <time>2017-04-16T07:37:56Z</time>
      </trkpt>
      <trkpt lat="45.12951" lon="6.36262">
        <ele>2901.6</ele>
        <time>2017-04-16T07:38:01Z</time>
      </trkpt>
      <trkpt lat="45.12951" lon="6.3626">
        <ele>2900.6</ele>
        <time>2017-04-16T07:38:06Z</time>
      </trkpt>
      <trkpt lat="45.12949" lon="6.36258">
        <ele>2901</ele>
        <time>2017-04-16T07:38:11Z</time>
      </trkpt>
      <trkpt lat="45.12948" lon="6.36256">
        <ele>2902.4</ele>
        <time>2017-04-16T07:38:16Z</time>
      </trkpt>
      <trkpt lat="45.12947" lon="6.36254">
        <ele>2902.6</ele>
        <time>2017-04-16T07:38:21Z</time>
      </trkpt>
      <trkpt lat="45.12945" lon="6.36252">
        <ele>2900.4</ele>
        <time>2017-04-16T07:38:26Z</time>
      </trkpt>
      <trkpt lat="45.12944" lon="6.3625">
        <ele>2905.4</ele>
        <time>2017-04-16T07:38:31Z</time>
      </trkpt>
      <trkpt lat="45.12942" lon="6.36248">
        <ele>2909.4</ele>
        <time>2017-04-16T07:38:36Z</time>
      </trkpt>
      <trkpt lat="45.12941" lon="6.36246">
        <ele>2907.4</ele>
        <time>2017-04-16T07:38:41Z</time>
      </trkpt>
      <trkpt lat="45.12939" lon="6.36244">
        <ele>2908</ele>
        <time>2017-04-16T07:38:46Z</time>
      </trkpt>
      <trkpt lat="45.12937" lon="6.36242">
        <ele>2907.8</ele>
        <time>2017-04-16T07:38:51Z</time>
      </trkpt>
      <trkpt lat="45.12936" lon="6.3624">
        <ele>2910.8</ele>
        <time>2017-04-16T07:38:56Z</time>
      </trkpt>
      <trkpt lat="45.12934" lon="6.36238">
        <ele>2910.4</ele>
        <time>2017-04-16T07:39:01Z</time>
      </trkpt>
      <trkpt lat="45.12932" lon="6.36236">
        <ele>2908.8</ele>
        <time>2017-04-16T07:39:06Z</time>
      </trkpt>
      <trkpt lat="45.1293" lon="6.36234">
        <ele>2914</ele>
        <time>2017-04-16T07:39:11Z</time>
      </trkpt>
      <trkpt lat="45.12932" lon="6.36231">
        <ele>2911.4</ele>
        <time>2017-04-16T07:39:26Z</time>
      </trkpt>
      <trkpt lat="45.12935" lon="6.3623">
        <ele>2913.2</ele>
        <time>2017-04-16T07:39:31Z</time>
      </trkpt>
      <trkpt lat="45.12937" lon="6.36229">
        <ele>2913.8</ele>
        <time>2017-04-16T07:39:36Z</time>
      </trkpt>
      <trkpt lat="45.12939" lon="6.36229">
        <ele>2912.8</ele>
        <time>2017-04-16T07:39:41Z</time>
      </trkpt>
      <trkpt lat="45.12941" lon="6.36228">
        <ele>2912.2</ele>
        <time>2017-04-16T07:39:46Z</time>
      </trkpt>
      <trkpt lat="45.12943" lon="6.36227">
        <ele>2915.8</ele>
        <time>2017-04-16T07:39:51Z</time>
      </trkpt>
      <trkpt lat="45.12945" lon="6.36227">
        <ele>2915.6</ele>
        <time>2017-04-16T07:39:56Z</time>
      </trkpt>
      <trkpt lat="45.12946" lon="6.36226">
        <ele>2913.4</ele>
        <time>2017-04-16T07:40:01Z</time>
      </trkpt>
      <trkpt lat="45.12948" lon="6.36225">
        <ele>2915.2</ele>
        <time>2017-04-16T07:40:06Z</time>
      </trkpt>
      <trkpt lat="45.1295" lon="6.36224">
        <ele>2918</ele>
        <time>2017-04-16T07:40:11Z</time>
      </trkpt>
      <trkpt lat="45.12953" lon="6.36223">
        <ele>2919</ele>
        <time>2017-04-16T07:40:17Z</time>
      </trkpt>
      <trkpt lat="45.12955" lon="6.36222">
        <ele>2918</ele>
        <time>2017-04-16T07:40:22Z</time>
      </trkpt>
      <trkpt lat="45.12957" lon="6.36221">
        <ele>2917.6</ele>
        <time>2017-04-16T07:40:27Z</time>
      </trkpt>
      <trkpt lat="45.12959" lon="6.3622">
        <ele>2919.2</ele>
        <time>2017-04-16T07:40:32Z</time>
      </trkpt>
      <trkpt lat="45.12961" lon="6.36219">
        <ele>2921.6</ele>
        <time>2017-04-16T07:40:37Z</time>
      </trkpt>
      <trkpt lat="45.12964" lon="6.36219">
        <ele>2917.2</ele>
        <time>2017-04-16T07:40:42Z</time>
      </trkpt>
      <trkpt lat="45.12966" lon="6.36218">
        <ele>2920.4</ele>
        <time>2017-04-16T07:40:47Z</time>
      </trkpt>
      <trkpt lat="45.12967" lon="6.36217">
        <ele>2923</ele>
        <time>2017-04-16T07:40:52Z</time>
      </trkpt>
      <trkpt lat="45.12969" lon="6.36216">
        <ele>2921</ele>
        <time>2017-04-16T07:40:57Z</time>
      </trkpt>
      <trkpt lat="45.12971" lon="6.36215">
        <ele>2925.4</ele>
        <time>2017-04-16T07:41:02Z</time>
      </trkpt>
      <trkpt lat="45.12973" lon="6.36215">
        <ele>2923.6</ele>
        <time>2017-04-16T07:41:07Z</time>
      </trkpt>
      <trkpt lat="45.12975" lon="6.36215">
        <ele>2925.8</ele>
        <time>2017-04-16T07:41:12Z</time>
      </trkpt>
      <trkpt lat="45.12977" lon="6.36214">
        <ele>2927</ele>
        <time>2017-04-16T07:41:17Z</time>
      </trkpt>
      <trkpt lat="45.12979" lon="6.36215">
        <ele>2929</ele>
        <time>2017-04-16T07:41:22Z</time>
      </trkpt>
      <trkpt lat="45.12981" lon="6.36215">
        <ele>2925.4</ele>
        <time>2017-04-16T07:41:27Z</time>
      </trkpt>
      <trkpt lat="45.12983" lon="6.36215">
        <ele>2928.6</ele>
        <time>2017-04-16T07:41:32Z</time>
      </trkpt>
      <trkpt lat="45.12985" lon="6.36215">
        <ele>2931.6</ele>
        <time>2017-04-16T07:41:37Z</time>
      </trkpt>
      <trkpt lat="45.12987" lon="6.36216">
        <ele>2930.6</ele>
        <time>2017-04-16T07:41:42Z</time>
      </trkpt>
      <trkpt lat="45.12988" lon="6.36214">
        <ele>2931.2</ele>
        <time>2017-04-16T07:41:52Z</time>
      </trkpt>
      <trkpt lat="45.12987" lon="6.36211">
        <ele>2930.4</ele>
        <time>2017-04-16T07:41:57Z</time>
      </trkpt>
      <trkpt lat="45.12986" lon="6.36208">
        <ele>2928.8</ele>
        <time>2017-04-16T07:42:02Z</time>
      </trkpt>
      <trkpt lat="45.12985" lon="6.36206">
        <ele>2930.2</ele>
        <time>2017-04-16T07:42:07Z</time>
      </trkpt>
      <trkpt lat="45.12983" lon="6.36204">
        <ele>2929.4</ele>
        <time>2017-04-16T07:42:12Z</time>
      </trkpt>
      <trkpt lat="45.12982" lon="6.36201">
        <ele>2929.6</ele>
        <time>2017-04-16T07:42:17Z</time>
      </trkpt>
      <trkpt lat="45.12982" lon="6.36199">
        <ele>2933.4</ele>
        <time>2017-04-16T07:42:22Z</time>
      </trkpt>
      <trkpt lat="45.12981" lon="6.36196">
        <ele>2933.2</ele>
        <time>2017-04-16T07:42:27Z</time>
      </trkpt>
      <trkpt lat="45.12979" lon="6.36194">
        <ele>2934.6</ele>
        <time>2017-04-16T07:42:32Z</time>
      </trkpt>
      <trkpt lat="45.12978" lon="6.36191">
        <ele>2936.4</ele>
        <time>2017-04-16T07:42:37Z</time>
      </trkpt>
      <trkpt lat="45.12977" lon="6.36189">
        <ele>2938</ele>
        <time>2017-04-16T07:42:42Z</time>
      </trkpt>
      <trkpt lat="45.12975" lon="6.36187">
        <ele>2936.4</ele>
        <time>2017-04-16T07:42:47Z</time>
      </trkpt>
      <trkpt lat="45.12974" lon="6.36185">
        <ele>2939.6</ele>
        <time>2017-04-16T07:42:52Z</time>
      </trkpt>
      <trkpt lat="45.12972" lon="6.36183">
        <ele>2939.8</ele>
        <time>2017-04-16T07:42:57Z</time>
      </trkpt>
      <trkpt lat="45.1297" lon="6.36182">
        <ele>2938.8</ele>
        <time>2017-04-16T07:43:02Z</time>
      </trkpt>
      <trkpt lat="45.12968" lon="6.3618">
        <ele>2938.6</ele>
        <time>2017-04-16T07:43:07Z</time>
      </trkpt>
      <trkpt lat="45.12966" lon="6.36179">
        <ele>2940.4</ele>
        <time>2017-04-16T07:43:12Z</time>
      </trkpt>
      <trkpt lat="45.12966" lon="6.36178">
        <ele>2944</ele>
        <time>2017-04-16T07:43:22Z</time>
      </trkpt>
      <trkpt lat="45.12966" lon="6.36177">
        <ele>2941.8</ele>
        <time>2017-04-16T07:43:42Z</time>
      </trkpt>
      <trkpt lat="45.12968" lon="6.36177">
        <ele>2942.2</ele>
        <time>2017-04-16T07:43:47Z</time>
      </trkpt>
      <trkpt lat="45.1297" lon="6.36175">
        <ele>2946</ele>
        <time>2017-04-16T07:43:52Z</time>
      </trkpt>
      <trkpt lat="45.12972" lon="6.36174">
        <ele>2943.2</ele>
        <time>2017-04-16T07:43:57Z</time>
      </trkpt>
      <trkpt lat="45.12974" lon="6.36174">
        <ele>2946.6</ele>
        <time>2017-04-16T07:44:02Z</time>
      </trkpt>
      <trkpt lat="45.12977" lon="6.36173">
        <ele>2947.4</ele>
        <time>2017-04-16T07:44:07Z</time>
      </trkpt>
      <trkpt lat="45.12979" lon="6.36172">
        <ele>2949.2</ele>
        <time>2017-04-16T07:44:12Z</time>
      </trkpt>
      <trkpt lat="45.12981" lon="6.36171">
        <ele>2946.4</ele>
        <time>2017-04-16T07:44:17Z</time>
      </trkpt>
      <trkpt lat="45.12983" lon="6.3617">
        <ele>2948.4</ele>
        <time>2017-04-16T07:44:22Z</time>
      </trkpt>
      <trkpt lat="45.12986" lon="6.36169">
        <ele>2949</ele>
        <time>2017-04-16T07:44:27Z</time>
      </trkpt>
      <trkpt lat="45.12988" lon="6.36169">
        <ele>2947.6</ele>
        <time>2017-04-16T07:44:32Z</time>
      </trkpt>
      <trkpt lat="45.1299" lon="6.36168">
        <ele>2947.6</ele>
        <time>2017-04-16T07:44:37Z</time>
      </trkpt>
      <trkpt lat="45.12992" lon="6.36168">
        <ele>2949</ele>
        <time>2017-04-16T07:44:42Z</time>
      </trkpt>
      <trkpt lat="45.12994" lon="6.36168">
        <ele>2947.8</ele>
        <time>2017-04-16T07:44:47Z</time>
      </trkpt>
      <trkpt lat="45.12996" lon="6.36168">
        <ele>2951.4</ele>
        <time>2017-04-16T07:44:52Z</time>
      </trkpt>
      <trkpt lat="45.12998" lon="6.36168">
        <ele>2950</ele>
        <time>2017-04-16T07:44:57Z</time>
      </trkpt>
      <trkpt lat="45.13" lon="6.36169">
        <ele>2952.6</ele>
        <time>2017-04-16T07:45:02Z</time>
      </trkpt>
      <trkpt lat="45.13003" lon="6.36169">
        <ele>2954.2</ele>
        <time>2017-04-16T07:45:07Z</time>
      </trkpt>
      <trkpt lat="45.13005" lon="6.3617">
        <ele>2952.6</ele>
        <time>2017-04-16T07:45:12Z</time>
      </trkpt>
      <trkpt lat="45.13007" lon="6.3617">
        <ele>2953</ele>
        <time>2017-04-16T07:45:17Z</time>
      </trkpt>
      <trkpt lat="45.13009" lon="6.3617">
        <ele>2953.6</ele>
        <time>2017-04-16T07:45:22Z</time>
      </trkpt>
      <trkpt lat="45.13012" lon="6.36171">
        <ele>2953</ele>
        <time>2017-04-16T07:45:28Z</time>
      </trkpt>
      <trkpt lat="45.13014" lon="6.36172">
        <ele>2953</ele>
        <time>2017-04-16T07:45:33Z</time>
      </trkpt>
      <trkpt lat="45.13017" lon="6.36172">
        <ele>2954</ele>
        <time>2017-04-16T07:45:38Z</time>
      </trkpt>
      <trkpt lat="45.13019" lon="6.36166">
        <ele>2955.8</ele>
        <time>2017-04-16T07:45:53Z</time>
      </trkpt>
      <trkpt lat="45.13023" lon="6.36162">
        <ele>2959.4</ele>
        <time>2017-04-16T07:46:13Z</time>
      </trkpt>
      <trkpt lat="45.13024" lon="6.36161">
        <ele>2959.4</ele>
        <time>2017-04-16T07:49:38Z</time>
      </trkpt>
      <trkpt lat="45.13025" lon="6.36161">
        <ele>2959.4</ele>
        <time>2017-04-16T07:49:43Z</time>
      </trkpt>
      <trkpt lat="45.13029" lon="6.36162">
        <ele>2958.8</ele>
        <time>2017-04-16T07:49:48Z</time>
      </trkpt>
      <trkpt lat="45.13031" lon="6.3616">
        <ele>2961.4</ele>
        <time>2017-04-16T07:49:53Z</time>
      </trkpt>
      <trkpt lat="45.13033" lon="6.36158">
        <ele>2962.8</ele>
        <time>2017-04-16T07:49:58Z</time>
      </trkpt>
      <trkpt lat="45.13036" lon="6.36156">
        <ele>2962.8</ele>
        <time>2017-04-16T07:50:03Z</time>
      </trkpt>
      <trkpt lat="45.13037" lon="6.36155">
        <ele>2962</ele>
        <time>2017-04-16T07:50:08Z</time>
      </trkpt>
      <trkpt lat="45.13038" lon="6.36153">
        <ele>2961.6</ele>
        <time>2017-04-16T07:50:13Z</time>
      </trkpt>
      <trkpt lat="45.13039" lon="6.36151">
        <ele>2964.4</ele>
        <time>2017-04-16T07:50:18Z</time>
      </trkpt>
      <trkpt lat="45.13041" lon="6.36149">
        <ele>2966</ele>
        <time>2017-04-16T07:50:23Z</time>
      </trkpt>
      <trkpt lat="45.13043" lon="6.36148">
        <ele>2965</ele>
        <time>2017-04-16T07:50:28Z</time>
      </trkpt>
      <trkpt lat="45.13043" lon="6.36148">
        <ele>2964.8</ele>
        <time>2017-04-16T07:50:33Z</time>
      </trkpt>
      <trkpt lat="45.13045" lon="6.36146">
        <ele>2964</ele>
        <time>2017-04-16T07:50:38Z</time>
      </trkpt>
      <trkpt lat="45.13048" lon="6.36144">
        <ele>2968.2</ele>
        <time>2017-04-16T07:50:43Z</time>
      </trkpt>
      <trkpt lat="45.13049" lon="6.36143">
        <ele>2965.8</ele>
        <time>2017-04-16T07:50:48Z</time>
      </trkpt>
      <trkpt lat="45.13052" lon="6.36142">
        <ele>2965.8</ele>
        <time>2017-04-16T07:50:53Z</time>
      </trkpt>
      <trkpt lat="45.13054" lon="6.3614">
        <ele>2967.8</ele>
        <time>2017-04-16T07:50:59Z</time>
      </trkpt>
      <trkpt lat="45.13056" lon="6.36139">
        <ele>2969.6</ele>
        <time>2017-04-16T07:51:04Z</time>
      </trkpt>
      <trkpt lat="45.13059" lon="6.36137">
        <ele>2968.8</ele>
        <time>2017-04-16T07:51:09Z</time>
      </trkpt>
      <trkpt lat="45.13061" lon="6.36136">
        <ele>2971.2</ele>
        <time>2017-04-16T07:51:14Z</time>
      </trkpt>
      <trkpt lat="45.13063" lon="6.36135">
        <ele>2968.6</ele>
        <time>2017-04-16T07:51:19Z</time>
      </trkpt>
      <trkpt lat="45.13065" lon="6.36134">
        <ele>2971</ele>
        <time>2017-04-16T07:51:24Z</time>
      </trkpt>
      <trkpt lat="45.13067" lon="6.36133">
        <ele>2975</ele>
        <time>2017-04-16T07:51:29Z</time>
      </trkpt>
      <trkpt lat="45.13068" lon="6.36132">
        <ele>2974.6</ele>
        <time>2017-04-16T07:51:34Z</time>
      </trkpt>
      <trkpt lat="45.1307" lon="6.36131">
        <ele>2975.6</ele>
        <time>2017-04-16T07:51:39Z</time>
      </trkpt>
      <trkpt lat="45.13072" lon="6.3613">
        <ele>2973</ele>
        <time>2017-04-16T07:51:44Z</time>
      </trkpt>
      <trkpt lat="45.13074" lon="6.36129">
        <ele>2972.6</ele>
        <time>2017-04-16T07:51:49Z</time>
      </trkpt>
      <trkpt lat="45.13076" lon="6.36128">
        <ele>2975.4</ele>
        <time>2017-04-16T07:51:54Z</time>
      </trkpt>
      <trkpt lat="45.13078" lon="6.36128">
        <ele>2973.4</ele>
        <time>2017-04-16T07:51:59Z</time>
      </trkpt>
      <trkpt lat="45.1308" lon="6.36127">
        <ele>2973.6</ele>
        <time>2017-04-16T07:52:04Z</time>
      </trkpt>
      <trkpt lat="45.13081" lon="6.36126">
        <ele>2978.4</ele>
        <time>2017-04-16T07:52:09Z</time>
      </trkpt>
      <trkpt lat="45.13084" lon="6.36126">
        <ele>2979.6</ele>
        <time>2017-04-16T07:52:14Z</time>
      </trkpt>
      <trkpt lat="45.13086" lon="6.36122">
        <ele>2979</ele>
        <time>2017-04-16T07:52:24Z</time>
      </trkpt>
      <trkpt lat="45.13084" lon="6.3612">
        <ele>2978.2</ele>
        <time>2017-04-16T07:52:29Z</time>
      </trkpt>
      <trkpt lat="45.13083" lon="6.36118">
        <ele>2976.8</ele>
        <time>2017-04-16T07:52:34Z</time>
      </trkpt>
      <trkpt lat="45.13082" lon="6.36115">
        <ele>2981.2</ele>
        <time>2017-04-16T07:52:39Z</time>
      </trkpt>
      <trkpt lat="45.13081" lon="6.36113">
        <ele>2978.8</ele>
        <time>2017-04-16T07:52:44Z</time>
      </trkpt>
      <trkpt lat="45.1308" lon="6.3611">
        <ele>2980.2</ele>
        <time>2017-04-16T07:52:49Z</time>
      </trkpt>
      <trkpt lat="45.13078" lon="6.36107">
        <ele>2982</ele>
        <time>2017-04-16T07:52:54Z</time>
      </trkpt>
      <trkpt lat="45.13077" lon="6.36105">
        <ele>2983.2</ele>
        <time>2017-04-16T07:52:59Z</time>
      </trkpt>
      <trkpt lat="45.13076" lon="6.36103">
        <ele>2985.6</ele>
        <time>2017-04-16T07:53:04Z</time>
      </trkpt>
      <trkpt lat="45.13075" lon="6.361">
        <ele>2986.8</ele>
        <time>2017-04-16T07:53:09Z</time>
      </trkpt>
      <trkpt lat="45.13073" lon="6.36097">
        <ele>2985.2</ele>
        <time>2017-04-16T07:53:14Z</time>
      </trkpt>
      <trkpt lat="45.13072" lon="6.36095">
        <ele>2985.8</ele>
        <time>2017-04-16T07:53:19Z</time>
      </trkpt>
      <trkpt lat="45.13071" lon="6.36092">
        <ele>2987.6</ele>
        <time>2017-04-16T07:53:24Z</time>
      </trkpt>
      <trkpt lat="45.13069" lon="6.3609">
        <ele>2985.2</ele>
        <time>2017-04-16T07:53:29Z</time>
      </trkpt>
      <trkpt lat="45.13068" lon="6.36088">
        <ele>2987.8</ele>
        <time>2017-04-16T07:53:34Z</time>
      </trkpt>
      <trkpt lat="45.13066" lon="6.36085">
        <ele>2986.6</ele>
        <time>2017-04-16T07:53:39Z</time>
      </trkpt>
      <trkpt lat="45.13065" lon="6.36083">
        <ele>2990.6</ele>
        <time>2017-04-16T07:53:44Z</time>
      </trkpt>
      <trkpt lat="45.13063" lon="6.3608">
        <ele>2990</ele>
        <time>2017-04-16T07:53:49Z</time>
      </trkpt>
      <trkpt lat="45.13061" lon="6.36078">
        <ele>2991.6</ele>
        <time>2017-04-16T07:53:54Z</time>
      </trkpt>
      <trkpt lat="45.1306" lon="6.36075">
        <ele>2993.4</ele>
        <time>2017-04-16T07:53:59Z</time>
      </trkpt>
      <trkpt lat="45.13058" lon="6.36073">
        <ele>2991</ele>
        <time>2017-04-16T07:54:04Z</time>
      </trkpt>
      <trkpt lat="45.13056" lon="6.3607">
        <ele>2994</ele>
        <time>2017-04-16T07:54:09Z</time>
      </trkpt>
      <trkpt lat="45.13055" lon="6.36068">
        <ele>2991.4</ele>
        <time>2017-04-16T07:54:14Z</time>
      </trkpt>
      <trkpt lat="45.13053" lon="6.36066">
        <ele>2992.6</ele>
        <time>2017-04-16T07:54:19Z</time>
      </trkpt>
      <trkpt lat="45.13051" lon="6.36063">
        <ele>2992.8</ele>
        <time>2017-04-16T07:54:24Z</time>
      </trkpt>
      <trkpt lat="45.13052" lon="6.36062">
        <ele>2993</ele>
        <time>2017-04-16T07:54:29Z</time>
      </trkpt>
      <trkpt lat="45.13054" lon="6.3606">
        <ele>2991.6</ele>
        <time>2017-04-16T07:54:34Z</time>
      </trkpt>
      <trkpt lat="45.13056" lon="6.36059">
        <ele>2991</ele>
        <time>2017-04-16T07:54:39Z</time>
      </trkpt>
      <trkpt lat="45.13058" lon="6.36058">
        <ele>2992</ele>
        <time>2017-04-16T07:54:44Z</time>
      </trkpt>
      <trkpt lat="45.13061" lon="6.36057">
        <ele>2996.4</ele>
        <time>2017-04-16T07:54:49Z</time>
      </trkpt>
      <trkpt lat="45.13063" lon="6.36057">
        <ele>2997.8</ele>
        <time>2017-04-16T07:54:54Z</time>
      </trkpt>
      <trkpt lat="45.13065" lon="6.36056">
        <ele>2997.4</ele>
        <time>2017-04-16T07:54:59Z</time>
      </trkpt>
      <trkpt lat="45.13068" lon="6.36055">
        <ele>2997</ele>
        <time>2017-04-16T07:55:04Z</time>
      </trkpt>
      <trkpt lat="45.1307" lon="6.36055">
        <ele>2997.8</ele>
        <time>2017-04-16T07:55:09Z</time>
      </trkpt>
      <trkpt lat="45.13072" lon="6.36055">
        <ele>2997.8</ele>
        <time>2017-04-16T07:55:14Z</time>
      </trkpt>
      <trkpt lat="45.13074" lon="6.36056">
        <ele>2999.2</ele>
        <time>2017-04-16T07:55:19Z</time>
      </trkpt>
      <trkpt lat="45.13077" lon="6.36056">
        <ele>3003</ele>
        <time>2017-04-16T07:55:24Z</time>
      </trkpt>
      <trkpt lat="45.13079" lon="6.36056">
        <ele>2997.4</ele>
        <time>2017-04-16T07:55:29Z</time>
      </trkpt>
      <trkpt lat="45.13081" lon="6.36056">
        <ele>3000.2</ele>
        <time>2017-04-16T07:55:34Z</time>
      </trkpt>
      <trkpt lat="45.13083" lon="6.36056">
        <ele>3000.8</ele>
        <time>2017-04-16T07:55:39Z</time>
      </trkpt>
      <trkpt lat="45.13086" lon="6.36057">
        <ele>3000.8</ele>
        <time>2017-04-16T07:55:44Z</time>
      </trkpt>
      <trkpt lat="45.13088" lon="6.36057">
        <ele>3001.6</ele>
        <time>2017-04-16T07:55:49Z</time>
      </trkpt>
      <trkpt lat="45.1309" lon="6.36059">
        <ele>3004.6</ele>
        <time>2017-04-16T07:55:55Z</time>
      </trkpt>
      <trkpt lat="45.13093" lon="6.36059">
        <ele>3001.4</ele>
        <time>2017-04-16T07:56:00Z</time>
      </trkpt>
      <trkpt lat="45.13095" lon="6.3606">
        <ele>3007</ele>
        <time>2017-04-16T07:56:05Z</time>
      </trkpt>
      <trkpt lat="45.13097" lon="6.36061">
        <ele>3005.2</ele>
        <time>2017-04-16T07:56:10Z</time>
      </trkpt>
      <trkpt lat="45.13099" lon="6.3606">
        <ele>3004.8</ele>
        <time>2017-04-16T07:56:15Z</time>
      </trkpt>
      <trkpt lat="45.13099" lon="6.36058">
        <ele>3006.6</ele>
        <time>2017-04-16T07:56:20Z</time>
      </trkpt>
      <trkpt lat="45.13099" lon="6.36055">
        <ele>3006</ele>
        <time>2017-04-16T07:56:25Z</time>
      </trkpt>
      <trkpt lat="45.13098" lon="6.36052">
        <ele>3005.6</ele>
        <time>2017-04-16T07:56:30Z</time>
      </trkpt>
      <trkpt lat="45.13097" lon="6.36049">
        <ele>3007.2</ele>
        <time>2017-04-16T07:56:35Z</time>
      </trkpt>
      <trkpt lat="45.13096" lon="6.36047">
        <ele>3005.2</ele>
        <time>2017-04-16T07:56:40Z</time>
      </trkpt>
      <trkpt lat="45.13096" lon="6.36044">
        <ele>3012.8</ele>
        <time>2017-04-16T07:56:45Z</time>
      </trkpt>
      <trkpt lat="45.13095" lon="6.36041">
        <ele>3012.4</ele>
        <time>2017-04-16T07:56:50Z</time>
      </trkpt>
      <trkpt lat="45.13094" lon="6.36039">
        <ele>3011.4</ele>
        <time>2017-04-16T07:56:55Z</time>
      </trkpt>
      <trkpt lat="45.13092" lon="6.36036">
        <ele>3012.4</ele>
        <time>2017-04-16T07:57:00Z</time>
      </trkpt>
      <trkpt lat="45.13091" lon="6.36033">
        <ele>3011.2</ele>
        <time>2017-04-16T07:57:05Z</time>
      </trkpt>
      <trkpt lat="45.1309" lon="6.36031">
        <ele>3012</ele>
        <time>2017-04-16T07:57:10Z</time>
      </trkpt>
      <trkpt lat="45.13089" lon="6.36028">
        <ele>3011.8</ele>
        <time>2017-04-16T07:57:15Z</time>
      </trkpt>
      <trkpt lat="45.13087" lon="6.36026">
        <ele>3013.2</ele>
        <time>2017-04-16T07:57:20Z</time>
      </trkpt>
      <trkpt lat="45.13086" lon="6.36024">
        <ele>3013</ele>
        <time>2017-04-16T07:57:25Z</time>
      </trkpt>
      <trkpt lat="45.13084" lon="6.36022">
        <ele>3013.4</ele>
        <time>2017-04-16T07:57:30Z</time>
      </trkpt>
      <trkpt lat="45.13083" lon="6.3602">
        <ele>3015</ele>
        <time>2017-04-16T07:57:35Z</time>
      </trkpt>
      <trkpt lat="45.13081" lon="6.36018">
        <ele>3011.8</ele>
        <time>2017-04-16T07:57:40Z</time>
      </trkpt>
      <trkpt lat="45.13079" lon="6.36016">
        <ele>3014</ele>
        <time>2017-04-16T07:57:45Z</time>
      </trkpt>
      <trkpt lat="45.13078" lon="6.36014">
        <ele>3012.8</ele>
        <time>2017-04-16T07:57:50Z</time>
      </trkpt>
      <trkpt lat="45.13076" lon="6.36012">
        <ele>3016.2</ele>
        <time>2017-04-16T07:57:55Z</time>
      </trkpt>
      <trkpt lat="45.13074" lon="6.3601">
        <ele>3016.4</ele>
        <time>2017-04-16T07:58:00Z</time>
      </trkpt>
      <trkpt lat="45.13073" lon="6.36008">
        <ele>3018.2</ele>
        <time>2017-04-16T07:58:05Z</time>
      </trkpt>
      <trkpt lat="45.13072" lon="6.36005">
        <ele>3019</ele>
        <time>2017-04-16T07:58:10Z</time>
      </trkpt>
      <trkpt lat="45.13072" lon="6.36002">
        <ele>3020.8</ele>
        <time>2017-04-16T07:58:15Z</time>
      </trkpt>
      <trkpt lat="45.13072" lon="6.36">
        <ele>3021.4</ele>
        <time>2017-04-16T07:59:45Z</time>
      </trkpt>
      <trkpt lat="45.13073" lon="6.36">
        <ele>3020.6</ele>
        <time>2017-04-16T08:00:20Z</time>
      </trkpt>
      <trkpt lat="45.13073" lon="6.35999">
        <ele>3022.2</ele>
        <time>2017-04-16T08:05:47Z</time>
      </trkpt>
      <trkpt lat="45.13072" lon="6.35994">
        <ele>3022</ele>
        <time>2017-04-16T08:06:07Z</time>
      </trkpt>
      <trkpt lat="45.13072" lon="6.35992">
        <ele>3018.4</ele>
        <time>2017-04-16T08:06:12Z</time>
      </trkpt>
      <trkpt lat="45.13072" lon="6.35988">
        <ele>3022.4</ele>
        <time>2017-04-16T08:06:18Z</time>
      </trkpt>
      <trkpt lat="45.13074" lon="6.35986">
        <ele>3022.2</ele>
        <time>2017-04-16T08:06:23Z</time>
      </trkpt>
      <trkpt lat="45.13076" lon="6.35985">
        <ele>3026.6</ele>
        <time>2017-04-16T08:06:28Z</time>
      </trkpt>
      <trkpt lat="45.13078" lon="6.35985">
        <ele>3027.2</ele>
        <time>2017-04-16T08:06:33Z</time>
      </trkpt>
      <trkpt lat="45.13081" lon="6.35984">
        <ele>3028.6</ele>
        <time>2017-04-16T08:06:38Z</time>
      </trkpt>
      <trkpt lat="45.13083" lon="6.35984">
        <ele>3030.4</ele>
        <time>2017-04-16T08:06:43Z</time>
      </trkpt>
      <trkpt lat="45.13086" lon="6.35984">
        <ele>3030</ele>
        <time>2017-04-16T08:06:48Z</time>
      </trkpt>
      <trkpt lat="45.13087" lon="6.35983">
        <ele>3029</ele>
        <time>2017-04-16T08:06:53Z</time>
      </trkpt>
      <trkpt lat="45.13089" lon="6.35982">
        <ele>3031</ele>
        <time>2017-04-16T08:06:58Z</time>
      </trkpt>
      <trkpt lat="45.13091" lon="6.35981">
        <ele>3031.4</ele>
        <time>2017-04-16T08:07:03Z</time>
      </trkpt>
      <trkpt lat="45.13093" lon="6.3598">
        <ele>3031.2</ele>
        <time>2017-04-16T08:07:08Z</time>
      </trkpt>
      <trkpt lat="45.13095" lon="6.35979">
        <ele>3029.8</ele>
        <time>2017-04-16T08:07:13Z</time>
      </trkpt>
      <trkpt lat="45.13097" lon="6.35979">
        <ele>3031.2</ele>
        <time>2017-04-16T08:07:18Z</time>
      </trkpt>
      <trkpt lat="45.13099" lon="6.35979">
        <ele>3031.6</ele>
        <time>2017-04-16T08:07:23Z</time>
      </trkpt>
      <trkpt lat="45.13102" lon="6.35978">
        <ele>3031.6</ele>
        <time>2017-04-16T08:07:28Z</time>
      </trkpt>
      <trkpt lat="45.13104" lon="6.35978">
        <ele>3034.2</ele>
        <time>2017-04-16T08:07:33Z</time>
      </trkpt>
      <trkpt lat="45.13106" lon="6.35978">
        <ele>3034.8</ele>
        <time>2017-04-16T08:07:38Z</time>
      </trkpt>
      <trkpt lat="45.13108" lon="6.35977">
        <ele>3033.4</ele>
        <time>2017-04-16T08:07:43Z</time>
      </trkpt>
      <trkpt lat="45.1311" lon="6.35976">
        <ele>3034.4</ele>
        <time>2017-04-16T08:07:48Z</time>
      </trkpt>
      <trkpt lat="45.13112" lon="6.35975">
        <ele>3034.8</ele>
        <time>2017-04-16T08:07:53Z</time>
      </trkpt>
      <trkpt lat="45.13114" lon="6.35975">
        <ele>3037</ele>
        <time>2017-04-16T08:07:58Z</time>
      </trkpt>
      <trkpt lat="45.13116" lon="6.35974">
        <ele>3034.2</ele>
        <time>2017-04-16T08:08:03Z</time>
      </trkpt>
      <trkpt lat="45.13117" lon="6.35974">
        <ele>3038.4</ele>
        <time>2017-04-16T08:08:08Z</time>
      </trkpt>
      <trkpt lat="45.13119" lon="6.35973">
        <ele>3038.2</ele>
        <time>2017-04-16T08:08:13Z</time>
      </trkpt>
      <trkpt lat="45.13121" lon="6.35972">
        <ele>3042.8</ele>
        <time>2017-04-16T08:08:18Z</time>
      </trkpt>
      <trkpt lat="45.13123" lon="6.35971">
        <ele>3042.4</ele>
        <time>2017-04-16T08:08:23Z</time>
      </trkpt>
      <trkpt lat="45.13125" lon="6.35971">
        <ele>3045.4</ele>
        <time>2017-04-16T08:08:28Z</time>
      </trkpt>
      <trkpt lat="45.13127" lon="6.35971">
        <ele>3047.4</ele>
        <time>2017-04-16T08:08:33Z</time>
      </trkpt>
      <trkpt lat="45.13129" lon="6.3597">
        <ele>3046</ele>
        <time>2017-04-16T08:08:38Z</time>
      </trkpt>
      <trkpt lat="45.1313" lon="6.3597">
        <ele>3045.2</ele>
        <time>2017-04-16T08:08:43Z</time>
      </trkpt>
      <trkpt lat="45.13132" lon="6.35969">
        <ele>3047.2</ele>
        <time>2017-04-16T08:08:48Z</time>
      </trkpt>
      <trkpt lat="45.13134" lon="6.35968">
        <ele>3049.2</ele>
        <time>2017-04-16T08:08:53Z</time>
      </trkpt>
      <trkpt lat="45.13136" lon="6.35967">
        <ele>3045</ele>
        <time>2017-04-16T08:08:58Z</time>
      </trkpt>
      <trkpt lat="45.13138" lon="6.35966">
        <ele>3046.6</ele>
        <time>2017-04-16T08:09:03Z</time>
      </trkpt>
      <trkpt lat="45.1314" lon="6.35965">
        <ele>3049</ele>
        <time>2017-04-16T08:09:08Z</time>
      </trkpt>
      <trkpt lat="45.13142" lon="6.35965">
        <ele>3049.2</ele>
        <time>2017-04-16T08:09:13Z</time>
      </trkpt>
      <trkpt lat="45.13144" lon="6.35964">
        <ele>3051.4</ele>
        <time>2017-04-16T08:09:18Z</time>
      </trkpt>
      <trkpt lat="45.13146" lon="6.35963">
        <ele>3051.8</ele>
        <time>2017-04-16T08:09:23Z</time>
      </trkpt>
      <trkpt lat="45.13148" lon="6.35962">
        <ele>3053</ele>
        <time>2017-04-16T08:09:28Z</time>
      </trkpt>
      <trkpt lat="45.1315" lon="6.3596">
        <ele>3054.2</ele>
        <time>2017-04-16T08:09:33Z</time>
      </trkpt>
      <trkpt lat="45.13152" lon="6.35959">
        <ele>3050.6</ele>
        <time>2017-04-16T08:09:38Z</time>
      </trkpt>
      <trkpt lat="45.13154" lon="6.35958">
        <ele>3048.2</ele>
        <time>2017-04-16T08:09:43Z</time>
      </trkpt>
      <trkpt lat="45.13156" lon="6.35957">
        <ele>3048.8</ele>
        <time>2017-04-16T08:09:48Z</time>
      </trkpt>
      <trkpt lat="45.13157" lon="6.35955">
        <ele>3049.8</ele>
        <time>2017-04-16T08:09:53Z</time>
      </trkpt>
      <trkpt lat="45.13159" lon="6.35954">
        <ele>3052.6</ele>
        <time>2017-04-16T08:09:58Z</time>
      </trkpt>
      <trkpt lat="45.13161" lon="6.35952">
        <ele>3052</ele>
        <time>2017-04-16T08:10:03Z</time>
      </trkpt>
      <trkpt lat="45.13162" lon="6.35951">
        <ele>3052.8</ele>
        <time>2017-04-16T08:10:08Z</time>
      </trkpt>
      <trkpt lat="45.13164" lon="6.35949">
        <ele>3055.8</ele>
        <time>2017-04-16T08:10:13Z</time>
      </trkpt>
      <trkpt lat="45.13166" lon="6.35947">
        <ele>3055</ele>
        <time>2017-04-16T08:10:18Z</time>
      </trkpt>
      <trkpt lat="45.13167" lon="6.35946">
        <ele>3057</ele>
        <time>2017-04-16T08:10:23Z</time>
      </trkpt>
      <trkpt lat="45.13169" lon="6.35944">
        <ele>3057.6</ele>
        <time>2017-04-16T08:10:28Z</time>
      </trkpt>
      <trkpt lat="45.13171" lon="6.35943">
        <ele>3055.4</ele>
        <time>2017-04-16T08:10:33Z</time>
      </trkpt>
      <trkpt lat="45.13173" lon="6.35941">
        <ele>3058.8</ele>
        <time>2017-04-16T08:10:38Z</time>
      </trkpt>
      <trkpt lat="45.13175" lon="6.3594">
        <ele>3057.4</ele>
        <time>2017-04-16T08:10:43Z</time>
      </trkpt>
      <trkpt lat="45.13176" lon="6.35938">
        <ele>3058.2</ele>
        <time>2017-04-16T08:10:48Z</time>
      </trkpt>
      <trkpt lat="45.13178" lon="6.35937">
        <ele>3057</ele>
        <time>2017-04-16T08:10:53Z</time>
      </trkpt>
      <trkpt lat="45.13179" lon="6.35936">
        <ele>3058.2</ele>
        <time>2017-04-16T08:10:58Z</time>
      </trkpt>
      <trkpt lat="45.13181" lon="6.35934">
        <ele>3059.2</ele>
        <time>2017-04-16T08:11:03Z</time>
      </trkpt>
      <trkpt lat="45.13183" lon="6.35933">
        <ele>3059.2</ele>
        <time>2017-04-16T08:11:08Z</time>
      </trkpt>
      <trkpt lat="45.13185" lon="6.35932">
        <ele>3059.4</ele>
        <time>2017-04-16T08:11:13Z</time>
      </trkpt>
      <trkpt lat="45.13187" lon="6.35931">
        <ele>3058.6</ele>
        <time>2017-04-16T08:11:19Z</time>
      </trkpt>
      <trkpt lat="45.13189" lon="6.3593">
        <ele>3060.6</ele>
        <time>2017-04-16T08:11:24Z</time>
      </trkpt>
      <trkpt lat="45.13191" lon="6.35929">
        <ele>3061.4</ele>
        <time>2017-04-16T08:11:29Z</time>
      </trkpt>
      <trkpt lat="45.13192" lon="6.35928">
        <ele>3059</ele>
        <time>2017-04-16T08:11:34Z</time>
      </trkpt>
      <trkpt lat="45.13194" lon="6.35927">
        <ele>3059.6</ele>
        <time>2017-04-16T08:11:39Z</time>
      </trkpt>
      <trkpt lat="45.13196" lon="6.35926">
        <ele>3061</ele>
        <time>2017-04-16T08:11:44Z</time>
      </trkpt>
      <trkpt lat="45.13198" lon="6.35925">
        <ele>3061.6</ele>
        <time>2017-04-16T08:11:49Z</time>
      </trkpt>
      <trkpt lat="45.132" lon="6.35924">
        <ele>3065.4</ele>
        <time>2017-04-16T08:11:54Z</time>
      </trkpt>
      <trkpt lat="45.13202" lon="6.35923">
        <ele>3064.2</ele>
        <time>2017-04-16T08:11:59Z</time>
      </trkpt>
      <trkpt lat="45.13204" lon="6.35922">
        <ele>3064.4</ele>
        <time>2017-04-16T08:12:04Z</time>
      </trkpt>
      <trkpt lat="45.13205" lon="6.35921">
        <ele>3064.8</ele>
        <time>2017-04-16T08:12:09Z</time>
      </trkpt>
      <trkpt lat="45.13207" lon="6.3592">
        <ele>3066.6</ele>
        <time>2017-04-16T08:12:14Z</time>
      </trkpt>
      <trkpt lat="45.13209" lon="6.3592">
        <ele>3068.6</ele>
        <time>2017-04-16T08:12:19Z</time>
      </trkpt>
      <trkpt lat="45.13211" lon="6.35919">
        <ele>3069.6</ele>
        <time>2017-04-16T08:12:24Z</time>
      </trkpt>
      <trkpt lat="45.13212" lon="6.35918">
        <ele>3070</ele>
        <time>2017-04-16T08:12:29Z</time>
      </trkpt>
      <trkpt lat="45.13214" lon="6.35917">
        <ele>3071.6</ele>
        <time>2017-04-16T08:12:34Z</time>
      </trkpt>
      <trkpt lat="45.13216" lon="6.35916">
        <ele>3072.6</ele>
        <time>2017-04-16T08:12:39Z</time>
      </trkpt>
      <trkpt lat="45.13218" lon="6.35915">
        <ele>3071</ele>
        <time>2017-04-16T08:12:44Z</time>
      </trkpt>
      <trkpt lat="45.13219" lon="6.35914">
        <ele>3070.8</ele>
        <time>2017-04-16T08:12:49Z</time>
      </trkpt>
      <trkpt lat="45.13221" lon="6.35914">
        <ele>3072.6</ele>
        <time>2017-04-16T08:12:54Z</time>
      </trkpt>
      <trkpt lat="45.13223" lon="6.35913">
        <ele>3073.4</ele>
        <time>2017-04-16T08:12:59Z</time>
      </trkpt>
      <trkpt lat="45.13225" lon="6.35913">
        <ele>3074</ele>
        <time>2017-04-16T08:13:04Z</time>
      </trkpt>
      <trkpt lat="45.13227" lon="6.35912">
        <ele>3076.8</ele>
        <time>2017-04-16T08:13:09Z</time>
      </trkpt>
      <trkpt lat="45.13228" lon="6.35911">
        <ele>3075.8</ele>
        <time>2017-04-16T08:13:14Z</time>
      </trkpt>
      <trkpt lat="45.1323" lon="6.35911">
        <ele>3072.4</ele>
        <time>2017-04-16T08:13:19Z</time>
      </trkpt>
      <trkpt lat="45.13232" lon="6.3591">
        <ele>3072</ele>
        <time>2017-04-16T08:13:24Z</time>
      </trkpt>
      <trkpt lat="45.13234" lon="6.3591">
        <ele>3074.8</ele>
        <time>2017-04-16T08:13:29Z</time>
      </trkpt>
      <trkpt lat="45.13236" lon="6.3591">
        <ele>3075.6</ele>
        <time>2017-04-16T08:13:34Z</time>
      </trkpt>
      <trkpt lat="45.13238" lon="6.35909">
        <ele>3076.2</ele>
        <time>2017-04-16T08:13:39Z</time>
      </trkpt>
      <trkpt lat="45.1324" lon="6.35909">
        <ele>3077.8</ele>
        <time>2017-04-16T08:13:44Z</time>
      </trkpt>
      <trkpt lat="45.13242" lon="6.35909">
        <ele>3078.8</ele>
        <time>2017-04-16T08:13:49Z</time>
      </trkpt>
      <trkpt lat="45.13244" lon="6.35909">
        <ele>3078.2</ele>
        <time>2017-04-16T08:13:54Z</time>
      </trkpt>
      <trkpt lat="45.13246" lon="6.35909">
        <ele>3079.4</ele>
        <time>2017-04-16T08:13:59Z</time>
      </trkpt>
      <trkpt lat="45.13248" lon="6.35908">
        <ele>3081</ele>
        <time>2017-04-16T08:14:04Z</time>
      </trkpt>
      <trkpt lat="45.13249" lon="6.35908">
        <ele>3082.6</ele>
        <time>2017-04-16T08:14:09Z</time>
      </trkpt>
      <trkpt lat="45.13251" lon="6.35908">
        <ele>3083.4</ele>
        <time>2017-04-16T08:14:14Z</time>
      </trkpt>
      <trkpt lat="45.13253" lon="6.35908">
        <ele>3082.2</ele>
        <time>2017-04-16T08:14:19Z</time>
      </trkpt>
      <trkpt lat="45.13255" lon="6.35908">
        <ele>3081.6</ele>
        <time>2017-04-16T08:14:24Z</time>
      </trkpt>
      <trkpt lat="45.13257" lon="6.35908">
        <ele>3081.4</ele>
        <time>2017-04-16T08:14:29Z</time>
      </trkpt>
      <trkpt lat="45.13259" lon="6.35908">
        <ele>3082.2</ele>
        <time>2017-04-16T08:14:34Z</time>
      </trkpt>
      <trkpt lat="45.1326" lon="6.35908">
        <ele>3081</ele>
        <time>2017-04-16T08:14:39Z</time>
      </trkpt>
      <trkpt lat="45.13262" lon="6.35908">
        <ele>3082.6</ele>
        <time>2017-04-16T08:14:44Z</time>
      </trkpt>
      <trkpt lat="45.13264" lon="6.35908">
        <ele>3085.2</ele>
        <time>2017-04-16T08:14:49Z</time>
      </trkpt>
      <trkpt lat="45.13266" lon="6.35908">
        <ele>3088.8</ele>
        <time>2017-04-16T08:14:54Z</time>
      </trkpt>
      <trkpt lat="45.13268" lon="6.35908">
        <ele>3088.4</ele>
        <time>2017-04-16T08:14:59Z</time>
      </trkpt>
      <trkpt lat="45.13269" lon="6.35908">
        <ele>3087</ele>
        <time>2017-04-16T08:15:04Z</time>
      </trkpt>
      <trkpt lat="45.13268" lon="6.35906">
        <ele>3087.4</ele>
        <time>2017-04-16T08:15:09Z</time>
      </trkpt>
      <trkpt lat="45.13267" lon="6.35903">
        <ele>3087.8</ele>
        <time>2017-04-16T08:15:14Z</time>
      </trkpt>
      <trkpt lat="45.13265" lon="6.35901">
        <ele>3088.8</ele>
        <time>2017-04-16T08:15:19Z</time>
      </trkpt>
      <trkpt lat="45.13264" lon="6.35898">
        <ele>3088.8</ele>
        <time>2017-04-16T08:15:24Z</time>
      </trkpt>
      <trkpt lat="45.13263" lon="6.35895">
        <ele>3087.6</ele>
        <time>2017-04-16T08:15:29Z</time>
      </trkpt>
      <trkpt lat="45.13262" lon="6.35893">
        <ele>3089.4</ele>
        <time>2017-04-16T08:15:34Z</time>
      </trkpt>
      <trkpt lat="45.1326" lon="6.3589">
        <ele>3091.6</ele>
        <time>2017-04-16T08:15:39Z</time>
      </trkpt>
      <trkpt lat="45.13259" lon="6.35888">
        <ele>3093</ele>
        <time>2017-04-16T08:15:44Z</time>
      </trkpt>
      <trkpt lat="45.13258" lon="6.35885">
        <ele>3091.4</ele>
        <time>2017-04-16T08:15:49Z</time>
      </trkpt>
      <trkpt lat="45.13257" lon="6.35883">
        <ele>3094.4</ele>
        <time>2017-04-16T08:15:54Z</time>
      </trkpt>
      <trkpt lat="45.13256" lon="6.3588">
        <ele>3095.4</ele>
        <time>2017-04-16T08:15:59Z</time>
      </trkpt>
      <trkpt lat="45.13255" lon="6.35878">
        <ele>3096.4</ele>
        <time>2017-04-16T08:16:04Z</time>
      </trkpt>
      <trkpt lat="45.13253" lon="6.35876">
        <ele>3098.6</ele>
        <time>2017-04-16T08:16:09Z</time>
      </trkpt>
      <trkpt lat="45.13252" lon="6.35874">
        <ele>3099.8</ele>
        <time>2017-04-16T08:16:14Z</time>
      </trkpt>
      <trkpt lat="45.13251" lon="6.35872">
        <ele>3102.2</ele>
        <time>2017-04-16T08:16:19Z</time>
      </trkpt>
      <trkpt lat="45.1325" lon="6.3587">
        <ele>3102.6</ele>
        <time>2017-04-16T08:16:24Z</time>
      </trkpt>
      <trkpt lat="45.13249" lon="6.35868">
        <ele>3099.4</ele>
        <time>2017-04-16T08:16:29Z</time>
      </trkpt>
      <trkpt lat="45.13248" lon="6.35866">
        <ele>3102.6</ele>
        <time>2017-04-16T08:16:34Z</time>
      </trkpt>
      <trkpt lat="45.13247" lon="6.35864">
        <ele>3101.6</ele>
        <time>2017-04-16T08:16:39Z</time>
      </trkpt>
      <trkpt lat="45.13246" lon="6.35862">
        <ele>3103</ele>
        <time>2017-04-16T08:16:44Z</time>
      </trkpt>
      <trkpt lat="45.13245" lon="6.35859">
        <ele>3103.8</ele>
        <time>2017-04-16T08:16:49Z</time>
      </trkpt>
      <trkpt lat="45.13244" lon="6.35857">
        <ele>3107</ele>
        <time>2017-04-16T08:16:54Z</time>
      </trkpt>
      <trkpt lat="45.13242" lon="6.35855">
        <ele>3102.4</ele>
        <time>2017-04-16T08:16:59Z</time>
      </trkpt>
      <trkpt lat="45.13241" lon="6.35853">
        <ele>3104.2</ele>
        <time>2017-04-16T08:17:04Z</time>
      </trkpt>
      <trkpt lat="45.1324" lon="6.35851">
        <ele>3102.6</ele>
        <time>2017-04-16T08:17:09Z</time>
      </trkpt>
      <trkpt lat="45.13239" lon="6.35849">
        <ele>3104.6</ele>
        <time>2017-04-16T08:17:14Z</time>
      </trkpt>
      <trkpt lat="45.13237" lon="6.35847">
        <ele>3106</ele>
        <time>2017-04-16T08:17:19Z</time>
      </trkpt>
      <trkpt lat="45.13237" lon="6.35846">
        <ele>3105</ele>
        <time>2017-04-16T08:17:44Z</time>
      </trkpt>
      <trkpt lat="45.13239" lon="6.35846">
        <ele>3104.8</ele>
        <time>2017-04-16T08:17:49Z</time>
      </trkpt>
      <trkpt lat="45.13241" lon="6.35846">
        <ele>3107</ele>
        <time>2017-04-16T08:17:54Z</time>
      </trkpt>
      <trkpt lat="45.13243" lon="6.35847">
        <ele>3106.6</ele>
        <time>2017-04-16T08:18:04Z</time>
      </trkpt>
      <trkpt lat="45.13246" lon="6.35846">
        <ele>3108.2</ele>
        <time>2017-04-16T08:18:09Z</time>
      </trkpt>
      <trkpt lat="45.13248" lon="6.35846">
        <ele>3111</ele>
        <time>2017-04-16T08:18:14Z</time>
      </trkpt>
      <trkpt lat="45.13251" lon="6.35846">
        <ele>3109.8</ele>
        <time>2017-04-16T08:18:19Z</time>
      </trkpt>
      <trkpt lat="45.13253" lon="6.35846">
        <ele>3109.8</ele>
        <time>2017-04-16T08:18:24Z</time>
      </trkpt>
      <trkpt lat="45.13255" lon="6.35846">
        <ele>3109.2</ele>
        <time>2017-04-16T08:18:29Z</time>
      </trkpt>
      <trkpt lat="45.13258" lon="6.35846">
        <ele>3111.2</ele>
        <time>2017-04-16T08:18:34Z</time>
      </trkpt>
      <trkpt lat="45.1326" lon="6.35846">
        <ele>3112</ele>
        <time>2017-04-16T08:18:39Z</time>
      </trkpt>
      <trkpt lat="45.13262" lon="6.35846">
        <ele>3113</ele>
        <time>2017-04-16T08:18:44Z</time>
      </trkpt>
      <trkpt lat="45.13265" lon="6.35846">
        <ele>3113.2</ele>
        <time>2017-04-16T08:18:49Z</time>
      </trkpt>
      <trkpt lat="45.13267" lon="6.35846">
        <ele>3114</ele>
        <time>2017-04-16T08:18:54Z</time>
      </trkpt>
      <trkpt lat="45.13269" lon="6.35845">
        <ele>3115</ele>
        <time>2017-04-16T08:18:59Z</time>
      </trkpt>
      <trkpt lat="45.13271" lon="6.35846">
        <ele>3114.8</ele>
        <time>2017-04-16T08:19:04Z</time>
      </trkpt>
      <trkpt lat="45.13274" lon="6.35846">
        <ele>3116.4</ele>
        <time>2017-04-16T08:19:09Z</time>
      </trkpt>
      <trkpt lat="45.13276" lon="6.35846">
        <ele>3117.4</ele>
        <time>2017-04-16T08:19:14Z</time>
      </trkpt>
      <trkpt lat="45.13278" lon="6.35846">
        <ele>3117</ele>
        <time>2017-04-16T08:19:19Z</time>
      </trkpt>
      <trkpt lat="45.1328" lon="6.35847">
        <ele>3118.2</ele>
        <time>2017-04-16T08:19:24Z</time>
      </trkpt>
      <trkpt lat="45.13283" lon="6.35847">
        <ele>3121.2</ele>
        <time>2017-04-16T08:19:29Z</time>
      </trkpt>
      <trkpt lat="45.13285" lon="6.35847">
        <ele>3120.8</ele>
        <time>2017-04-16T08:19:34Z</time>
      </trkpt>
      <trkpt lat="45.13288" lon="6.35848">
        <ele>3118.8</ele>
        <time>2017-04-16T08:19:39Z</time>
      </trkpt>
      <trkpt lat="45.1329" lon="6.35848">
        <ele>3118.4</ele>
        <time>2017-04-16T08:19:44Z</time>
      </trkpt>
      <trkpt lat="45.13292" lon="6.35848">
        <ele>3119</ele>
        <time>2017-04-16T08:19:49Z</time>
      </trkpt>
      <trkpt lat="45.13295" lon="6.35848">
        <ele>3120.6</ele>
        <time>2017-04-16T08:19:54Z</time>
      </trkpt>
      <trkpt lat="45.13297" lon="6.35848">
        <ele>3121</ele>
        <time>2017-04-16T08:19:59Z</time>
      </trkpt>
      <trkpt lat="45.13297" lon="6.35847">
        <ele>3121</ele>
        <time>2017-04-16T08:20:04Z</time>
      </trkpt>
      <trkpt lat="45.13296" lon="6.35846">
        <ele>3121.6</ele>
        <time>2017-04-16T08:20:09Z</time>
      </trkpt>
      <trkpt lat="45.13294" lon="6.35843">
        <ele>3121.6</ele>
        <time>2017-04-16T08:20:14Z</time>
      </trkpt>
      <trkpt lat="45.13292" lon="6.35841">
        <ele>3122</ele>
        <time>2017-04-16T08:20:19Z</time>
      </trkpt>
      <trkpt lat="45.1329" lon="6.35838">
        <ele>3121</ele>
        <time>2017-04-16T08:20:24Z</time>
      </trkpt>
      <trkpt lat="45.13289" lon="6.35835">
        <ele>3119.6</ele>
        <time>2017-04-16T08:20:29Z</time>
      </trkpt>
      <trkpt lat="45.13288" lon="6.35833">
        <ele>3124</ele>
        <time>2017-04-16T08:20:34Z</time>
      </trkpt>
      <trkpt lat="45.13286" lon="6.3583">
        <ele>3124.6</ele>
        <time>2017-04-16T08:20:39Z</time>
      </trkpt>
      <trkpt lat="45.13285" lon="6.35828">
        <ele>3123.6</ele>
        <time>2017-04-16T08:20:44Z</time>
      </trkpt>
      <trkpt lat="45.13284" lon="6.35825">
        <ele>3121.2</ele>
        <time>2017-04-16T08:20:49Z</time>
      </trkpt>
      <trkpt lat="45.13283" lon="6.35823">
        <ele>3124.6</ele>
        <time>2017-04-16T08:20:54Z</time>
      </trkpt>
      <trkpt lat="45.13281" lon="6.35821">
        <ele>3123</ele>
        <time>2017-04-16T08:20:59Z</time>
      </trkpt>
      <trkpt lat="45.1328" lon="6.35818">
        <ele>3123.8</ele>
        <time>2017-04-16T08:21:04Z</time>
      </trkpt>
      <trkpt lat="45.13279" lon="6.35816">
        <ele>3124.8</ele>
        <time>2017-04-16T08:21:09Z</time>
      </trkpt>
      <trkpt lat="45.13278" lon="6.35814">
        <ele>3127.4</ele>
        <time>2017-04-16T08:21:14Z</time>
      </trkpt>
      <trkpt lat="45.13276" lon="6.35812">
        <ele>3125.2</ele>
        <time>2017-04-16T08:21:19Z</time>
      </trkpt>
      <trkpt lat="45.13275" lon="6.3581">
        <ele>3129.8</ele>
        <time>2017-04-16T08:21:24Z</time>
      </trkpt>
      <trkpt lat="45.13273" lon="6.35808">
        <ele>3127.8</ele>
        <time>2017-04-16T08:21:29Z</time>
      </trkpt>
      <trkpt lat="45.13272" lon="6.35806">
        <ele>3129.4</ele>
        <time>2017-04-16T08:21:34Z</time>
      </trkpt>
      <trkpt lat="45.1327" lon="6.35803">
        <ele>3132.2</ele>
        <time>2017-04-16T08:21:39Z</time>
      </trkpt>
      <trkpt lat="45.13268" lon="6.35801">
        <ele>3131</ele>
        <time>2017-04-16T08:21:44Z</time>
      </trkpt>
      <trkpt lat="45.13267" lon="6.35799">
        <ele>3133.6</ele>
        <time>2017-04-16T08:21:49Z</time>
      </trkpt>
      <trkpt lat="45.13266" lon="6.35797">
        <ele>3132.6</ele>
        <time>2017-04-16T08:21:54Z</time>
      </trkpt>
      <trkpt lat="45.13264" lon="6.35794">
        <ele>3135.8</ele>
        <time>2017-04-16T08:21:59Z</time>
      </trkpt>
      <trkpt lat="45.13262" lon="6.35792">
        <ele>3132</ele>
        <time>2017-04-16T08:22:04Z</time>
      </trkpt>
      <trkpt lat="45.1326" lon="6.3579">
        <ele>3132</ele>
        <time>2017-04-16T08:22:09Z</time>
      </trkpt>
      <trkpt lat="45.13259" lon="6.35787">
        <ele>3131.6</ele>
        <time>2017-04-16T08:22:14Z</time>
      </trkpt>
      <trkpt lat="45.13257" lon="6.35785">
        <ele>3135</ele>
        <time>2017-04-16T08:22:19Z</time>
      </trkpt>
      <trkpt lat="45.13257" lon="6.35783">
        <ele>3136.8</ele>
        <time>2017-04-16T08:22:24Z</time>
      </trkpt>
      <trkpt lat="45.13258" lon="6.35784">
        <ele>3135</ele>
        <time>2017-04-16T08:23:35Z</time>
      </trkpt>
      <trkpt lat="45.13258" lon="6.35783">
        <ele>3135.4</ele>
        <time>2017-04-16T08:23:45Z</time>
      </trkpt>
      <trkpt lat="45.1326" lon="6.35784">
        <ele>3135.2</ele>
        <time>2017-04-16T08:23:50Z</time>
      </trkpt>
      <trkpt lat="45.13263" lon="6.35784">
        <ele>3132.8</ele>
        <time>2017-04-16T08:23:55Z</time>
      </trkpt>
      <trkpt lat="45.13265" lon="6.35783">
        <ele>3136</ele>
        <time>2017-04-16T08:24:00Z</time>
      </trkpt>
      <trkpt lat="45.13267" lon="6.35783">
        <ele>3135.6</ele>
        <time>2017-04-16T08:24:05Z</time>
      </trkpt>
      <trkpt lat="45.13269" lon="6.35783">
        <ele>3136.6</ele>
        <time>2017-04-16T08:24:10Z</time>
      </trkpt>
      <trkpt lat="45.13272" lon="6.35783">
        <ele>3136.8</ele>
        <time>2017-04-16T08:24:15Z</time>
      </trkpt>
      <trkpt lat="45.13274" lon="6.35783">
        <ele>3141.2</ele>
        <time>2017-04-16T08:24:20Z</time>
      </trkpt>
      <trkpt lat="45.13276" lon="6.35784">
        <ele>3139.6</ele>
        <time>2017-04-16T08:24:25Z</time>
      </trkpt>
      <trkpt lat="45.13277" lon="6.35783">
        <ele>3140</ele>
        <time>2017-04-16T08:24:40Z</time>
      </trkpt>
      <trkpt lat="45.13279" lon="6.35784">
        <ele>3141</ele>
        <time>2017-04-16T08:24:45Z</time>
      </trkpt>
      <trkpt lat="45.13282" lon="6.35784">
        <ele>3141.8</ele>
        <time>2017-04-16T08:24:50Z</time>
      </trkpt>
      <trkpt lat="45.13285" lon="6.35784">
        <ele>3143</ele>
        <time>2017-04-16T08:24:55Z</time>
      </trkpt>
      <trkpt lat="45.13287" lon="6.35784">
        <ele>3144.4</ele>
        <time>2017-04-16T08:25:00Z</time>
      </trkpt>
      <trkpt lat="45.13289" lon="6.35784">
        <ele>3143.4</ele>
        <time>2017-04-16T08:25:05Z</time>
      </trkpt>
      <trkpt lat="45.13291" lon="6.35784">
        <ele>3143.6</ele>
        <time>2017-04-16T08:25:10Z</time>
      </trkpt>
      <trkpt lat="45.13293" lon="6.35784">
        <ele>3147.4</ele>
        <time>2017-04-16T08:25:15Z</time>
      </trkpt>
      <trkpt lat="45.13296" lon="6.35783">
        <ele>3145.6</ele>
        <time>2017-04-16T08:25:20Z</time>
      </trkpt>
      <trkpt lat="45.13298" lon="6.35783">
        <ele>3145.6</ele>
        <time>2017-04-16T08:25:25Z</time>
      </trkpt>
      <trkpt lat="45.133" lon="6.35783">
        <ele>3146.2</ele>
        <time>2017-04-16T08:25:30Z</time>
      </trkpt>
      <trkpt lat="45.13303" lon="6.35783">
        <ele>3147.4</ele>
        <time>2017-04-16T08:25:35Z</time>
      </trkpt>
      <trkpt lat="45.13305" lon="6.35783">
        <ele>3149</ele>
        <time>2017-04-16T08:25:40Z</time>
      </trkpt>
      <trkpt lat="45.13307" lon="6.35782">
        <ele>3148.8</ele>
        <time>2017-04-16T08:25:45Z</time>
      </trkpt>
      <trkpt lat="45.1331" lon="6.35782">
        <ele>3148.8</ele>
        <time>2017-04-16T08:25:50Z</time>
      </trkpt>
      <trkpt lat="45.13312" lon="6.35782">
        <ele>3149</ele>
        <time>2017-04-16T08:25:55Z</time>
      </trkpt>
      <trkpt lat="45.13314" lon="6.35781">
        <ele>3149.4</ele>
        <time>2017-04-16T08:26:00Z</time>
      </trkpt>
      <trkpt lat="45.13316" lon="6.35781">
        <ele>3152</ele>
        <time>2017-04-16T08:26:05Z</time>
      </trkpt>
      <trkpt lat="45.13318" lon="6.3578">
        <ele>3149.4</ele>
        <time>2017-04-16T08:26:10Z</time>
      </trkpt>
      <trkpt lat="45.13321" lon="6.3578">
        <ele>3151.8</ele>
        <time>2017-04-16T08:26:15Z</time>
      </trkpt>
      <trkpt lat="45.13323" lon="6.3578">
        <ele>3151.6</ele>
        <time>2017-04-16T08:26:20Z</time>
      </trkpt>
      <trkpt lat="45.13325" lon="6.35779">
        <ele>3151.4</ele>
        <time>2017-04-16T08:26:25Z</time>
      </trkpt>
      <trkpt lat="45.13327" lon="6.35779">
        <ele>3152.4</ele>
        <time>2017-04-16T08:26:30Z</time>
      </trkpt>
      <trkpt lat="45.13329" lon="6.35778">
        <ele>3152.8</ele>
        <time>2017-04-16T08:26:35Z</time>
      </trkpt>
      <trkpt lat="45.13331" lon="6.35778">
        <ele>3154</ele>
        <time>2017-04-16T08:26:40Z</time>
      </trkpt>
      <trkpt lat="45.13333" lon="6.35777">
        <ele>3155</ele>
        <time>2017-04-16T08:26:45Z</time>
      </trkpt>
      <trkpt lat="45.13336" lon="6.35777">
        <ele>3155.6</ele>
        <time>2017-04-16T08:26:50Z</time>
      </trkpt>
      <trkpt lat="45.13338" lon="6.35776">
        <ele>3160.6</ele>
        <time>2017-04-16T08:26:55Z</time>
      </trkpt>
      <trkpt lat="45.1334" lon="6.35776">
        <ele>3161.8</ele>
        <time>2017-04-16T08:27:00Z</time>
      </trkpt>
      <trkpt lat="45.13342" lon="6.35775">
        <ele>3160.8</ele>
        <time>2017-04-16T08:27:05Z</time>
      </trkpt>
      <trkpt lat="45.13342" lon="6.35775">
        <ele>3159.8</ele>
        <time>2017-04-16T08:27:10Z</time>
      </trkpt>
      <trkpt lat="45.13343" lon="6.35775">
        <ele>3159</ele>
        <time>2017-04-16T08:27:15Z</time>
      </trkpt>
      <trkpt lat="45.13344" lon="6.35775">
        <ele>3158.8</ele>
        <time>2017-04-16T08:27:20Z</time>
      </trkpt>
      <trkpt lat="45.13346" lon="6.35774">
        <ele>3154</ele>
        <time>2017-04-16T08:27:25Z</time>
      </trkpt>
      <trkpt lat="45.13348" lon="6.35774">
        <ele>3155.8</ele>
        <time>2017-04-16T08:27:30Z</time>
      </trkpt>
      <trkpt lat="45.1335" lon="6.35774">
        <ele>3158.8</ele>
        <time>2017-04-16T08:27:35Z</time>
      </trkpt>
      <trkpt lat="45.13353" lon="6.35773">
        <ele>3158.8</ele>
        <time>2017-04-16T08:27:40Z</time>
      </trkpt>
      <trkpt lat="45.13356" lon="6.35773">
        <ele>3160.6</ele>
        <time>2017-04-16T08:27:46Z</time>
      </trkpt>
      <trkpt lat="45.13358" lon="6.35772">
        <ele>3158</ele>
        <time>2017-04-16T08:27:51Z</time>
      </trkpt>
      <trkpt lat="45.1336" lon="6.35772">
        <ele>3161.2</ele>
        <time>2017-04-16T08:27:56Z</time>
      </trkpt>
      <trkpt lat="45.13363" lon="6.35772">
        <ele>3156.6</ele>
        <time>2017-04-16T08:28:01Z</time>
      </trkpt>
      <trkpt lat="45.13365" lon="6.35772">
        <ele>3159.4</ele>
        <time>2017-04-16T08:28:06Z</time>
      </trkpt>
      <trkpt lat="45.13368" lon="6.35772">
        <ele>3160.6</ele>
        <time>2017-04-16T08:28:11Z</time>
      </trkpt>
      <trkpt lat="45.1337" lon="6.35771">
        <ele>3163.4</ele>
        <time>2017-04-16T08:28:16Z</time>
      </trkpt>
      <trkpt lat="45.13373" lon="6.3577">
        <ele>3164.2</ele>
        <time>2017-04-16T08:28:21Z</time>
      </trkpt>
      <trkpt lat="45.13375" lon="6.3577">
        <ele>3163.4</ele>
        <time>2017-04-16T08:28:26Z</time>
      </trkpt>
      <trkpt lat="45.13377" lon="6.35769">
        <ele>3163.4</ele>
        <time>2017-04-16T08:28:31Z</time>
      </trkpt>
      <trkpt lat="45.13378" lon="6.35768">
        <ele>3167.8</ele>
        <time>2017-04-16T08:28:36Z</time>
      </trkpt>
      <trkpt lat="45.13377" lon="6.35765">
        <ele>3166.4</ele>
        <time>2017-04-16T08:28:41Z</time>
      </trkpt>
      <trkpt lat="45.13375" lon="6.35763">
        <ele>3167</ele>
        <time>2017-04-16T08:28:46Z</time>
      </trkpt>
      <trkpt lat="45.13374" lon="6.35761">
        <ele>3166.6</ele>
        <time>2017-04-16T08:28:51Z</time>
      </trkpt>
      <trkpt lat="45.13372" lon="6.35759">
        <ele>3168.2</ele>
        <time>2017-04-16T08:28:56Z</time>
      </trkpt>
      <trkpt lat="45.13371" lon="6.35758">
        <ele>3167.4</ele>
        <time>2017-04-16T08:29:01Z</time>
      </trkpt>
      <trkpt lat="45.13369" lon="6.35756">
        <ele>3167.4</ele>
        <time>2017-04-16T08:29:06Z</time>
      </trkpt>
      <trkpt lat="45.13368" lon="6.35754">
        <ele>3169.2</ele>
        <time>2017-04-16T08:29:11Z</time>
      </trkpt>
      <trkpt lat="45.13366" lon="6.35751">
        <ele>3169.4</ele>
        <time>2017-04-16T08:29:16Z</time>
      </trkpt>
      <trkpt lat="45.13366" lon="6.3575">
        <ele>3168</ele>
        <time>2017-04-16T08:29:21Z</time>
      </trkpt>
      <trkpt lat="45.13366" lon="6.3575">
        <ele>3168.2</ele>
        <time>2017-04-16T08:29:36Z</time>
      </trkpt>
      <trkpt lat="45.13367" lon="6.35748">
        <ele>3168.6</ele>
        <time>2017-04-16T08:29:46Z</time>
      </trkpt>
      <trkpt lat="45.13369" lon="6.35747">
        <ele>3170</ele>
        <time>2017-04-16T08:29:51Z</time>
      </trkpt>
      <trkpt lat="45.1337" lon="6.35746">
        <ele>3170.2</ele>
        <time>2017-04-16T08:29:56Z</time>
      </trkpt>
      <trkpt lat="45.13371" lon="6.35746">
        <ele>3173.8</ele>
        <time>2017-04-16T08:30:36Z</time>
      </trkpt>
      <trkpt lat="45.13371" lon="6.35745">
        <ele>3173.8</ele>
        <time>2017-04-16T08:30:41Z</time>
      </trkpt>
      <trkpt lat="45.13372" lon="6.35742">
        <ele>3174.4</ele>
        <time>2017-04-16T08:30:46Z</time>
      </trkpt>
      <trkpt lat="45.13371" lon="6.35738">
        <ele>3177.2</ele>
        <time>2017-04-16T08:30:51Z</time>
      </trkpt>
      <trkpt lat="45.13369" lon="6.35735">
        <ele>3171</ele>
        <time>2017-04-16T08:30:56Z</time>
      </trkpt>
      <trkpt lat="45.13367" lon="6.35732">
        <ele>3175.8</ele>
        <time>2017-04-16T08:31:01Z</time>
      </trkpt>
      <trkpt lat="45.13366" lon="6.35729">
        <ele>3176.6</ele>
        <time>2017-04-16T08:31:06Z</time>
      </trkpt>
      <trkpt lat="45.13366" lon="6.35726">
        <ele>3179.2</ele>
        <time>2017-04-16T08:31:11Z</time>
      </trkpt>
      <trkpt lat="45.13369" lon="6.35725">
        <ele>3181.4</ele>
        <time>2017-04-16T08:31:16Z</time>
      </trkpt>
      <trkpt lat="45.13371" lon="6.35723">
        <ele>3181.2</ele>
        <time>2017-04-16T08:31:21Z</time>
      </trkpt>
      <trkpt lat="45.13372" lon="6.35717">
        <ele>3178.6</ele>
        <time>2017-04-16T08:31:36Z</time>
      </trkpt>
      <trkpt lat="45.1337" lon="6.35715">
        <ele>3181.4</ele>
        <time>2017-04-16T08:31:41Z</time>
      </trkpt>
      <trkpt lat="45.13369" lon="6.35714">
        <ele>3181.2</ele>
        <time>2017-04-16T08:31:46Z</time>
      </trkpt>
      <trkpt lat="45.13369" lon="6.35714">
        <ele>3181.4</ele>
        <time>2017-04-16T08:31:56Z</time>
      </trkpt>
      <trkpt lat="45.13368" lon="6.35712">
        <ele>3177.2</ele>
        <time>2017-04-16T08:32:01Z</time>
      </trkpt>
      <trkpt lat="45.13367" lon="6.3571">
        <ele>3177</ele>
        <time>2017-04-16T08:32:06Z</time>
      </trkpt>
      <trkpt lat="45.13365" lon="6.35708">
        <ele>3180.6</ele>
        <time>2017-04-16T08:32:11Z</time>
      </trkpt>
      <trkpt lat="45.13363" lon="6.35706">
        <ele>3181.2</ele>
        <time>2017-04-16T08:32:16Z</time>
      </trkpt>
      <trkpt lat="45.13362" lon="6.35703">
        <ele>3183</ele>
        <time>2017-04-16T08:32:21Z</time>
      </trkpt>
      <trkpt lat="45.1336" lon="6.35702">
        <ele>3185.2</ele>
        <time>2017-04-16T08:32:26Z</time>
      </trkpt>
      <trkpt lat="45.13359" lon="6.357">
        <ele>3185.6</ele>
        <time>2017-04-16T08:32:31Z</time>
      </trkpt>
      <trkpt lat="45.13357" lon="6.35698">
        <ele>3190.6</ele>
        <time>2017-04-16T08:32:36Z</time>
      </trkpt>
      <trkpt lat="45.13356" lon="6.35697">
        <ele>3190</ele>
        <time>2017-04-16T08:32:41Z</time>
      </trkpt>
      <trkpt lat="45.13354" lon="6.35695">
        <ele>3191.6</ele>
        <time>2017-04-16T08:32:46Z</time>
      </trkpt>
      <trkpt lat="45.13352" lon="6.35694">
        <ele>3187.8</ele>
        <time>2017-04-16T08:32:51Z</time>
      </trkpt>
      <trkpt lat="45.13351" lon="6.35693">
        <ele>3189.6</ele>
        <time>2017-04-16T08:32:56Z</time>
      </trkpt>
      <trkpt lat="45.13349" lon="6.35691">
        <ele>3190</ele>
        <time>2017-04-16T08:33:01Z</time>
      </trkpt>
      <trkpt lat="45.13347" lon="6.3569">
        <ele>3187.4</ele>
        <time>2017-04-16T08:33:06Z</time>
      </trkpt>
      <trkpt lat="45.13345" lon="6.35689">
        <ele>3191.8</ele>
        <time>2017-04-16T08:33:12Z</time>
      </trkpt>
      <trkpt lat="45.13343" lon="6.35687">
        <ele>3192.4</ele>
        <time>2017-04-16T08:33:18Z</time>
      </trkpt>
      <trkpt lat="45.13341" lon="6.35686">
        <ele>3197.4</ele>
        <time>2017-04-16T08:33:23Z</time>
      </trkpt>
      <trkpt lat="45.1334" lon="6.35685">
        <ele>3199.2</ele>
        <time>2017-04-16T08:33:28Z</time>
      </trkpt>
      <trkpt lat="45.13338" lon="6.35684">
        <ele>3200.2</ele>
        <time>2017-04-16T08:33:33Z</time>
      </trkpt>
      <trkpt lat="45.13337" lon="6.35682">
        <ele>3199.4</ele>
        <time>2017-04-16T08:33:38Z</time>
      </trkpt>
      <trkpt lat="45.13335" lon="6.3568">
        <ele>3200</ele>
        <time>2017-04-16T08:33:43Z</time>
      </trkpt>
      <trkpt lat="45.13333" lon="6.35678">
        <ele>3198.4</ele>
        <time>2017-04-16T08:33:48Z</time>
      </trkpt>
      <trkpt lat="45.13332" lon="6.35677">
        <ele>3196.4</ele>
        <time>2017-04-16T08:33:53Z</time>
      </trkpt>
      <trkpt lat="45.13332" lon="6.35677">
        <ele>3196.8</ele>
        <time>2017-04-16T08:33:58Z</time>
      </trkpt>
      <trkpt lat="45.1333" lon="6.35675">
        <ele>3197.2</ele>
        <time>2017-04-16T08:34:03Z</time>
      </trkpt>
      <trkpt lat="45.13329" lon="6.35673">
        <ele>3197</ele>
        <time>2017-04-16T08:34:08Z</time>
      </trkpt>
      <trkpt lat="45.13327" lon="6.3567">
        <ele>3198.8</ele>
        <time>2017-04-16T08:34:13Z</time>
      </trkpt>
      <trkpt lat="45.13324" lon="6.35668">
        <ele>3197.4</ele>
        <time>2017-04-16T08:34:18Z</time>
      </trkpt>
      <trkpt lat="45.13322" lon="6.35666">
        <ele>3202</ele>
        <time>2017-04-16T08:34:23Z</time>
      </trkpt>
      <trkpt lat="45.1332" lon="6.35664">
        <ele>3202.6</ele>
        <time>2017-04-16T08:34:28Z</time>
      </trkpt>
      <trkpt lat="45.13319" lon="6.35661">
        <ele>3199.2</ele>
        <time>2017-04-16T08:34:33Z</time>
      </trkpt>
      <trkpt lat="45.13318" lon="6.35659">
        <ele>3202.4</ele>
        <time>2017-04-16T08:34:38Z</time>
      </trkpt>
      <trkpt lat="45.13316" lon="6.35657">
        <ele>3201.6</ele>
        <time>2017-04-16T08:34:43Z</time>
      </trkpt>
      <trkpt lat="45.13314" lon="6.35655">
        <ele>3202.4</ele>
        <time>2017-04-16T08:34:48Z</time>
      </trkpt>
      <trkpt lat="45.13313" lon="6.35652">
        <ele>3203.6</ele>
        <time>2017-04-16T08:34:53Z</time>
      </trkpt>
      <trkpt lat="45.13312" lon="6.3565">
        <ele>3206</ele>
        <time>2017-04-16T08:34:58Z</time>
      </trkpt>
      <trkpt lat="45.13311" lon="6.35648">
        <ele>3204.4</ele>
        <time>2017-04-16T08:35:03Z</time>
      </trkpt>
      <trkpt lat="45.13309" lon="6.35645">
        <ele>3205.2</ele>
        <time>2017-04-16T08:35:08Z</time>
      </trkpt>
      <trkpt lat="45.13308" lon="6.35643">
        <ele>3207.2</ele>
        <time>2017-04-16T08:35:13Z</time>
      </trkpt>
      <trkpt lat="45.13307" lon="6.3564">
        <ele>3207.6</ele>
        <time>2017-04-16T08:35:18Z</time>
      </trkpt>
      <trkpt lat="45.13305" lon="6.35638">
        <ele>3209.6</ele>
        <time>2017-04-16T08:35:23Z</time>
      </trkpt>
      <trkpt lat="45.13304" lon="6.35636">
        <ele>3208.8</ele>
        <time>2017-04-16T08:35:28Z</time>
      </trkpt>
      <trkpt lat="45.13302" lon="6.35634">
        <ele>3212</ele>
        <time>2017-04-16T08:35:33Z</time>
      </trkpt>
      <trkpt lat="45.133" lon="6.35633">
        <ele>3211.6</ele>
        <time>2017-04-16T08:35:38Z</time>
      </trkpt>
      <trkpt lat="45.13299" lon="6.35631">
        <ele>3213.6</ele>
        <time>2017-04-16T08:35:43Z</time>
      </trkpt>
      <trkpt lat="45.13297" lon="6.35629">
        <ele>3210.2</ele>
        <time>2017-04-16T08:35:48Z</time>
      </trkpt>
      <trkpt lat="45.13295" lon="6.35627">
        <ele>3212.6</ele>
        <time>2017-04-16T08:35:53Z</time>
      </trkpt>
      <trkpt lat="45.13293" lon="6.35625">
        <ele>3214</ele>
        <time>2017-04-16T08:35:58Z</time>
      </trkpt>
      <trkpt lat="45.1329" lon="6.35624">
        <ele>3209.8</ele>
        <time>2017-04-16T08:36:03Z</time>
      </trkpt>
      <trkpt lat="45.13287" lon="6.35621">
        <ele>3210.8</ele>
        <time>2017-04-16T08:36:08Z</time>
      </trkpt>
      <trkpt lat="45.13284" lon="6.35619">
        <ele>3212</ele>
        <time>2017-04-16T08:36:13Z</time>
      </trkpt>
      <trkpt lat="45.13282" lon="6.35617">
        <ele>3212.6</ele>
        <time>2017-04-16T08:36:18Z</time>
      </trkpt>
      <trkpt lat="45.13279" lon="6.35615">
        <ele>3216.6</ele>
        <time>2017-04-16T08:36:23Z</time>
      </trkpt>
      <trkpt lat="45.13277" lon="6.35613">
        <ele>3215.8</ele>
        <time>2017-04-16T08:36:28Z</time>
      </trkpt>
      <trkpt lat="45.13274" lon="6.35611">
        <ele>3217</ele>
        <time>2017-04-16T08:36:33Z</time>
      </trkpt>
      <trkpt lat="45.13272" lon="6.35609">
        <ele>3217.2</ele>
        <time>2017-04-16T08:36:38Z</time>
      </trkpt>
      <trkpt lat="45.1327" lon="6.35607">
        <ele>3218</ele>
        <time>2017-04-16T08:36:43Z</time>
      </trkpt>
      <trkpt lat="45.13267" lon="6.35605">
        <ele>3216.8</ele>
        <time>2017-04-16T08:36:48Z</time>
      </trkpt>
      <trkpt lat="45.13265" lon="6.35603">
        <ele>3218.4</ele>
        <time>2017-04-16T08:36:53Z</time>
      </trkpt>
      <trkpt lat="45.13263" lon="6.35601">
        <ele>3216.6</ele>
        <time>2017-04-16T08:36:58Z</time>
      </trkpt>
      <trkpt lat="45.13261" lon="6.35599">
        <ele>3216.4</ele>
        <time>2017-04-16T08:37:03Z</time>
      </trkpt>
      <trkpt lat="45.13259" lon="6.35597">
        <ele>3218.8</ele>
        <time>2017-04-16T08:37:08Z</time>
      </trkpt>
      <trkpt lat="45.13256" lon="6.35595">
        <ele>3218.2</ele>
        <time>2017-04-16T08:37:13Z</time>
      </trkpt>
      <trkpt lat="45.13254" lon="6.35593">
        <ele>3218</ele>
        <time>2017-04-16T08:37:18Z</time>
      </trkpt>
      <trkpt lat="45.13251" lon="6.3559">
        <ele>3222.4</ele>
        <time>2017-04-16T08:37:38Z</time>
      </trkpt>
      <trkpt lat="45.13249" lon="6.35588">
        <ele>3221.4</ele>
        <time>2017-04-16T08:37:43Z</time>
      </trkpt>
      <trkpt lat="45.13247" lon="6.35586">
        <ele>3222.6</ele>
        <time>2017-04-16T08:37:48Z</time>
      </trkpt>
      <trkpt lat="45.13245" lon="6.35585">
        <ele>3223.2</ele>
        <time>2017-04-16T08:37:53Z</time>
      </trkpt>
      <trkpt lat="45.13242" lon="6.35584">
        <ele>3225.8</ele>
        <time>2017-04-16T08:37:58Z</time>
      </trkpt>
      <trkpt lat="45.13239" lon="6.35584">
        <ele>3224.8</ele>
        <time>2017-04-16T08:38:03Z</time>
      </trkpt>
      <trkpt lat="45.13237" lon="6.35583">
        <ele>3223.2</ele>
        <time>2017-04-16T08:38:08Z</time>
      </trkpt>
      <trkpt lat="45.13235" lon="6.35582">
        <ele>3223</ele>
        <time>2017-04-16T08:38:13Z</time>
      </trkpt>
      <trkpt lat="45.13235" lon="6.35582">
        <ele>3225.6</ele>
        <time>2017-04-16T08:38:43Z</time>
      </trkpt>
      <trkpt lat="45.13236" lon="6.3558">
        <ele>3229.8</ele>
        <time>2017-04-16T08:44:25Z</time>
      </trkpt>
      <trkpt lat="45.13238" lon="6.35579">
        <ele>3229.4</ele>
        <time>2017-04-16T08:44:30Z</time>
      </trkpt>
      <trkpt lat="45.13239" lon="6.35578">
        <ele>3229.2</ele>
        <time>2017-04-16T08:44:35Z</time>
      </trkpt>
      <trkpt lat="45.13241" lon="6.35577">
        <ele>3228.4</ele>
        <time>2017-04-16T08:44:40Z</time>
      </trkpt>
      <trkpt lat="45.13243" lon="6.35575">
        <ele>3229.8</ele>
        <time>2017-04-16T08:44:45Z</time>
      </trkpt>
      <trkpt lat="45.13245" lon="6.35574">
        <ele>3228.2</ele>
        <time>2017-04-16T08:44:50Z</time>
      </trkpt>
      <trkpt lat="45.13246" lon="6.35573">
        <ele>3229.2</ele>
        <time>2017-04-16T08:44:55Z</time>
      </trkpt>
      <trkpt lat="45.13246" lon="6.35573">
        <ele>3229.8</ele>
        <time>2017-04-16T08:45:00Z</time>
      </trkpt>
      <trkpt lat="45.13248" lon="6.35572">
        <ele>3231.8</ele>
        <time>2017-04-16T08:45:05Z</time>
      </trkpt>
      <trkpt lat="45.13249" lon="6.35572">
        <ele>3231.8</ele>
        <time>2017-04-16T08:45:15Z</time>
      </trkpt>
      <trkpt lat="45.1325" lon="6.35572">
        <ele>3231.2</ele>
        <time>2017-04-16T08:45:20Z</time>
      </trkpt>
      <trkpt lat="45.13252" lon="6.35571">
        <ele>3233</ele>
        <time>2017-04-16T08:45:25Z</time>
      </trkpt>
      <trkpt lat="45.13254" lon="6.35571">
        <ele>3230</ele>
        <time>2017-04-16T08:45:30Z</time>
      </trkpt>
      <trkpt lat="45.13255" lon="6.3557">
        <ele>3230.8</ele>
        <time>2017-04-16T08:45:35Z</time>
      </trkpt>
      <trkpt lat="45.13257" lon="6.35571">
        <ele>3231.2</ele>
        <time>2017-04-16T08:45:40Z</time>
      </trkpt>
      <trkpt lat="45.13259" lon="6.35569">
        <ele>3234.8</ele>
        <time>2017-04-16T08:49:56Z</time>
      </trkpt>
      <trkpt lat="45.13259" lon="6.35569">
        <ele>3235.4</ele>
        <time>2017-04-16T09:16:15Z</time>
      </trkpt>
      <trkpt lat="45.13259" lon="6.3557">
        <ele>3235.6</ele>
        <time>2017-04-16T09:17:15Z</time>
      </trkpt>
      <trkpt lat="45.13257" lon="6.3557">
        <ele>3234.8</ele>
        <time>2017-04-16T09:17:30Z</time>
      </trkpt>
      <trkpt lat="45.13255" lon="6.35571">
        <ele>3233.4</ele>
        <time>2017-04-16T09:17:35Z</time>
      </trkpt>
      <trkpt lat="45.13251" lon="6.35571">
        <ele>3231</ele>
        <time>2017-04-16T09:17:40Z</time>
      </trkpt>
      <trkpt lat="45.13247" lon="6.35574">
        <ele>3233.8</ele>
        <time>2017-04-16T09:17:45Z</time>
      </trkpt>
      <trkpt lat="45.13241" lon="6.35577">
        <ele>3231.2</ele>
        <time>2017-04-16T09:17:50Z</time>
      </trkpt>
      <trkpt lat="45.13237" lon="6.3558">
        <ele>3233.4</ele>
        <time>2017-04-16T09:17:55Z</time>
      </trkpt>
      <trkpt lat="45.13237" lon="6.3558">
        <ele>3231.4</ele>
        <time>2017-04-16T09:22:22Z</time>
      </trkpt>
      <trkpt lat="45.13236" lon="6.3558">
        <ele>3230</ele>
        <time>2017-04-16T09:25:33Z</time>
      </trkpt>
      <trkpt lat="45.13238" lon="6.35581">
        <ele>3232</ele>
        <time>2017-04-16T09:27:03Z</time>
      </trkpt>
      <trkpt lat="45.13244" lon="6.35586">
        <ele>3229.4</ele>
        <time>2017-04-16T09:27:13Z</time>
      </trkpt>
      <trkpt lat="45.13256" lon="6.35603">
        <ele>3223.6</ele>
        <time>2017-04-16T09:27:23Z</time>
      </trkpt>
      <trkpt lat="45.13259" lon="6.35608">
        <ele>3220.6</ele>
        <time>2017-04-16T09:27:28Z</time>
      </trkpt>
      <trkpt lat="45.13276" lon="6.35621">
        <ele>3216.4</ele>
        <time>2017-04-16T09:27:33Z</time>
      </trkpt>
      <trkpt lat="45.13272" lon="6.35624">
        <ele>3209.6</ele>
        <time>2017-04-16T09:27:58Z</time>
      </trkpt>
      <trkpt lat="45.13259" lon="6.35627">
        <ele>3206.6</ele>
        <time>2017-04-16T09:28:03Z</time>
      </trkpt>
      <trkpt lat="45.13265" lon="6.35632">
        <ele>3206</ele>
        <time>2017-04-16T09:28:08Z</time>
      </trkpt>
      <trkpt lat="45.1328" lon="6.35647">
        <ele>3204.8</ele>
        <time>2017-04-16T09:28:13Z</time>
      </trkpt>
      <trkpt lat="45.13294" lon="6.35659">
        <ele>3204</ele>
        <time>2017-04-16T09:28:18Z</time>
      </trkpt>
      <trkpt lat="45.13314" lon="6.35678">
        <ele>3199.8</ele>
        <time>2017-04-16T09:28:23Z</time>
      </trkpt>
      <trkpt lat="45.13323" lon="6.35685">
        <ele>3199.2</ele>
        <time>2017-04-16T09:28:28Z</time>
      </trkpt>
      <trkpt lat="45.13332" lon="6.35695">
        <ele>3196.8</ele>
        <time>2017-04-16T09:28:33Z</time>
      </trkpt>
      <trkpt lat="45.13351" lon="6.35703">
        <ele>3191.8</ele>
        <time>2017-04-16T09:28:38Z</time>
      </trkpt>
      <trkpt lat="45.13365" lon="6.35727">
        <ele>3184</ele>
        <time>2017-04-16T09:29:03Z</time>
      </trkpt>
      <trkpt lat="45.13365" lon="6.3574">
        <ele>3181.2</ele>
        <time>2017-04-16T09:29:53Z</time>
      </trkpt>
      <trkpt lat="45.1335" lon="6.35746">
        <ele>3176.4</ele>
        <time>2017-04-16T09:29:58Z</time>
      </trkpt>
      <trkpt lat="45.13335" lon="6.35754">
        <ele>3169.4</ele>
        <time>2017-04-16T09:30:03Z</time>
      </trkpt>
      <trkpt lat="45.1333" lon="6.35766">
        <ele>3167.4</ele>
        <time>2017-04-16T09:30:08Z</time>
      </trkpt>
      <trkpt lat="45.13302" lon="6.35763">
        <ele>3164.4</ele>
        <time>2017-04-16T09:30:13Z</time>
      </trkpt>
      <trkpt lat="45.13279" lon="6.35768">
        <ele>3156.4</ele>
        <time>2017-04-16T09:30:18Z</time>
      </trkpt>
      <trkpt lat="45.13257" lon="6.35769">
        <ele>3150.2</ele>
        <time>2017-04-16T09:30:23Z</time>
      </trkpt>
      <trkpt lat="45.13265" lon="6.35797">
        <ele>3141.6</ele>
        <time>2017-04-16T09:30:33Z</time>
      </trkpt>
      <trkpt lat="45.13244" lon="6.35809">
        <ele>3134.4</ele>
        <time>2017-04-16T09:30:38Z</time>
      </trkpt>
      <trkpt lat="45.13244" lon="6.35836">
        <ele>3125.4</ele>
        <time>2017-04-16T09:30:43Z</time>
      </trkpt>
      <trkpt lat="45.13241" lon="6.35863">
        <ele>3115.4</ele>
        <time>2017-04-16T09:30:48Z</time>
      </trkpt>
      <trkpt lat="45.13237" lon="6.3588">
        <ele>3107</ele>
        <time>2017-04-16T09:30:53Z</time>
      </trkpt>
      <trkpt lat="45.13225" lon="6.3589">
        <ele>3095</ele>
        <time>2017-04-16T09:31:03Z</time>
      </trkpt>
      <trkpt lat="45.13212" lon="6.35895">
        <ele>3088</ele>
        <time>2017-04-16T09:31:08Z</time>
      </trkpt>
      <trkpt lat="45.13211" lon="6.35896">
        <ele>3085.8</ele>
        <time>2017-04-16T09:32:13Z</time>
      </trkpt>
      <trkpt lat="45.13211" lon="6.35896">
        <ele>3085.8</ele>
        <time>2017-04-16T09:32:18Z</time>
      </trkpt>
      <trkpt lat="45.1321" lon="6.35898">
        <ele>3083.6</ele>
        <time>2017-04-16T09:32:23Z</time>
      </trkpt>
      <trkpt lat="45.13192" lon="6.35908">
        <ele>3078</ele>
        <time>2017-04-16T09:32:28Z</time>
      </trkpt>
      <trkpt lat="45.13181" lon="6.35929">
        <ele>3068.6</ele>
        <time>2017-04-16T09:32:33Z</time>
      </trkpt>
      <trkpt lat="45.13177" lon="6.35945">
        <ele>3063.2</ele>
        <time>2017-04-16T09:32:38Z</time>
      </trkpt>
      <trkpt lat="45.13165" lon="6.35944">
        <ele>3061.2</ele>
        <time>2017-04-16T09:32:43Z</time>
      </trkpt>
      <trkpt lat="45.13146" lon="6.35954">
        <ele>3056.6</ele>
        <time>2017-04-16T09:32:48Z</time>
      </trkpt>
      <trkpt lat="45.13137" lon="6.35963">
        <ele>3054.6</ele>
        <time>2017-04-16T09:32:58Z</time>
      </trkpt>
      <trkpt lat="45.13129" lon="6.35971">
        <ele>3049.4</ele>
        <time>2017-04-16T09:33:18Z</time>
      </trkpt>
      <trkpt lat="45.13106" lon="6.35977">
        <ele>3045</ele>
        <time>2017-04-16T09:33:23Z</time>
      </trkpt>
      <trkpt lat="45.13083" lon="6.35973">
        <ele>3035.6</ele>
        <time>2017-04-16T09:33:28Z</time>
      </trkpt>
      <trkpt lat="45.13084" lon="6.35996">
        <ele>3031.8</ele>
        <time>2017-04-16T09:33:33Z</time>
      </trkpt>
      <trkpt lat="45.13059" lon="6.35983">
        <ele>3031.4</ele>
        <time>2017-04-16T09:33:38Z</time>
      </trkpt>
      <trkpt lat="45.13045" lon="6.36002">
        <ele>3020.6</ele>
        <time>2017-04-16T09:33:43Z</time>
      </trkpt>
      <trkpt lat="45.13019" lon="6.36005">
        <ele>3016.8</ele>
        <time>2017-04-16T09:33:48Z</time>
      </trkpt>
      <trkpt lat="45.13013" lon="6.36032">
        <ele>3008.8</ele>
        <time>2017-04-16T09:33:53Z</time>
      </trkpt>
      <trkpt lat="45.13" lon="6.36053">
        <ele>3004.2</ele>
        <time>2017-04-16T09:33:58Z</time>
      </trkpt>
      <trkpt lat="45.12973" lon="6.36046">
        <ele>2999.6</ele>
        <time>2017-04-16T09:34:03Z</time>
      </trkpt>
      <trkpt lat="45.1295" lon="6.36032">
        <ele>2993.4</ele>
        <time>2017-04-16T09:34:08Z</time>
      </trkpt>
      <trkpt lat="45.1293" lon="6.36016">
        <ele>2988.8</ele>
        <time>2017-04-16T09:34:13Z</time>
      </trkpt>
      <trkpt lat="45.12905" lon="6.35999">
        <ele>2984.2</ele>
        <time>2017-04-16T09:34:18Z</time>
      </trkpt>
      <trkpt lat="45.12897" lon="6.36022">
        <ele>2979.2</ele>
        <time>2017-04-16T09:34:23Z</time>
      </trkpt>
      <trkpt lat="45.12896" lon="6.36051">
        <ele>2973.4</ele>
        <time>2017-04-16T09:34:28Z</time>
      </trkpt>
      <trkpt lat="45.12913" lon="6.36081">
        <ele>2965</ele>
        <time>2017-04-16T09:34:33Z</time>
      </trkpt>
      <trkpt lat="45.12898" lon="6.36101">
        <ele>2957</ele>
        <time>2017-04-16T09:34:38Z</time>
      </trkpt>
      <trkpt lat="45.12885" lon="6.36134">
        <ele>2948.6</ele>
        <time>2017-04-16T09:34:43Z</time>
      </trkpt>
      <trkpt lat="45.12874" lon="6.36162">
        <ele>2936.6</ele>
        <time>2017-04-16T09:34:48Z</time>
      </trkpt>
      <trkpt lat="45.12871" lon="6.36167">
        <ele>2936.4</ele>
        <time>2017-04-16T09:34:58Z</time>
      </trkpt>
      <trkpt lat="45.12872" lon="6.36166">
        <ele>2936.2</ele>
        <time>2017-04-16T09:35:03Z</time>
      </trkpt>
      <trkpt lat="45.12872" lon="6.36166">
        <ele>2935.8</ele>
        <time>2017-04-16T09:36:09Z</time>
      </trkpt>
      <trkpt lat="45.12872" lon="6.36165">
        <ele>2935.6</ele>
        <time>2017-04-16T09:36:14Z</time>
      </trkpt>
      <trkpt lat="45.1287" lon="6.36162">
        <ele>2934.8</ele>
        <time>2017-04-16T09:36:24Z</time>
      </trkpt>
      <trkpt lat="45.12852" lon="6.36153">
        <ele>2931.4</ele>
        <time>2017-04-16T09:36:29Z</time>
      </trkpt>
      <trkpt lat="45.1283" lon="6.36142">
        <ele>2930</ele>
        <time>2017-04-16T09:36:34Z</time>
      </trkpt>
      <trkpt lat="45.1281" lon="6.36124">
        <ele>2925.4</ele>
        <time>2017-04-16T09:36:39Z</time>
      </trkpt>
      <trkpt lat="45.12791" lon="6.36104">
        <ele>2921.8</ele>
        <time>2017-04-16T09:36:44Z</time>
      </trkpt>
      <trkpt lat="45.1277" lon="6.36109">
        <ele>2913</ele>
        <time>2017-04-16T09:36:49Z</time>
      </trkpt>
      <trkpt lat="45.12745" lon="6.3609">
        <ele>2911.4</ele>
        <time>2017-04-16T09:36:54Z</time>
      </trkpt>
      <trkpt lat="45.12727" lon="6.36079">
        <ele>2908.6</ele>
        <time>2017-04-16T09:36:59Z</time>
      </trkpt>
      <trkpt lat="45.12707" lon="6.3608">
        <ele>2904.6</ele>
        <time>2017-04-16T09:37:04Z</time>
      </trkpt>
      <trkpt lat="45.12686" lon="6.36065">
        <ele>2898.6</ele>
        <time>2017-04-16T09:37:09Z</time>
      </trkpt>
      <trkpt lat="45.12662" lon="6.36052">
        <ele>2896.4</ele>
        <time>2017-04-16T09:37:14Z</time>
      </trkpt>
      <trkpt lat="45.12643" lon="6.36033">
        <ele>2889.4</ele>
        <time>2017-04-16T09:37:34Z</time>
      </trkpt>
      <trkpt lat="45.12643" lon="6.36033">
        <ele>2890</ele>
        <time>2017-04-16T09:37:49Z</time>
      </trkpt>
      <trkpt lat="45.12637" lon="6.36044">
        <ele>2881.4</ele>
        <time>2017-04-16T09:37:59Z</time>
      </trkpt>
      <trkpt lat="45.12622" lon="6.36056">
        <ele>2874.2</ele>
        <time>2017-04-16T09:38:04Z</time>
      </trkpt>
      <trkpt lat="45.12604" lon="6.36062">
        <ele>2863</ele>
        <time>2017-04-16T09:38:09Z</time>
      </trkpt>
      <trkpt lat="45.12583" lon="6.36057">
        <ele>2855.6</ele>
        <time>2017-04-16T09:38:14Z</time>
      </trkpt>
      <trkpt lat="45.12562" lon="6.36076">
        <ele>2848.2</ele>
        <time>2017-04-16T09:38:19Z</time>
      </trkpt>
      <trkpt lat="45.12539" lon="6.36072">
        <ele>2835.8</ele>
        <time>2017-04-16T09:38:24Z</time>
      </trkpt>
      <trkpt lat="45.12519" lon="6.36088">
        <ele>2822.8</ele>
        <time>2017-04-16T09:38:29Z</time>
      </trkpt>
      <trkpt lat="45.12504" lon="6.36081">
        <ele>2818.6</ele>
        <time>2017-04-16T09:38:34Z</time>
      </trkpt>
      <trkpt lat="45.12486" lon="6.36077">
        <ele>2810.4</ele>
        <time>2017-04-16T09:38:39Z</time>
      </trkpt>
      <trkpt lat="45.12476" lon="6.36051">
        <ele>2809.4</ele>
        <time>2017-04-16T09:38:44Z</time>
      </trkpt>
      <trkpt lat="45.12477" lon="6.36045">
        <ele>2809</ele>
        <time>2017-04-16T09:38:49Z</time>
      </trkpt>
      <trkpt lat="45.12467" lon="6.36039">
        <ele>2799.2</ele>
        <time>2017-04-16T09:40:24Z</time>
      </trkpt>
      <trkpt lat="45.12452" lon="6.36015">
        <ele>2794.4</ele>
        <time>2017-04-16T09:40:30Z</time>
      </trkpt>
      <trkpt lat="45.12432" lon="6.36016">
        <ele>2786.2</ele>
        <time>2017-04-16T09:40:35Z</time>
      </trkpt>
      <trkpt lat="45.1241" lon="6.36021">
        <ele>2771.4</ele>
        <time>2017-04-16T09:40:40Z</time>
      </trkpt>
      <trkpt lat="45.12409" lon="6.36012">
        <ele>2769.8</ele>
        <time>2017-04-16T09:40:46Z</time>
      </trkpt>
      <trkpt lat="45.12409" lon="6.36012">
        <ele>2769.2</ele>
        <time>2017-04-16T09:43:06Z</time>
      </trkpt>
      <trkpt lat="45.12407" lon="6.36009">
        <ele>2767.6</ele>
        <time>2017-04-16T09:43:11Z</time>
      </trkpt>
      <trkpt lat="45.12384" lon="6.36006">
        <ele>2751.6</ele>
        <time>2017-04-16T09:43:16Z</time>
      </trkpt>
      <trkpt lat="45.12378" lon="6.35967">
        <ele>2745</ele>
        <time>2017-04-16T09:43:21Z</time>
      </trkpt>
      <trkpt lat="45.12379" lon="6.35923">
        <ele>2736</ele>
        <time>2017-04-16T09:43:26Z</time>
      </trkpt>
      <trkpt lat="45.12371" lon="6.35909">
        <ele>2729.4</ele>
        <time>2017-04-16T09:43:31Z</time>
      </trkpt>
      <trkpt lat="45.12354" lon="6.35901">
        <ele>2719.6</ele>
        <time>2017-04-16T09:43:36Z</time>
      </trkpt>
      <trkpt lat="45.12337" lon="6.35878">
        <ele>2699.4</ele>
        <time>2017-04-16T09:43:41Z</time>
      </trkpt>
      <trkpt lat="45.12332" lon="6.35864">
        <ele>2690.4</ele>
        <time>2017-04-16T09:44:21Z</time>
      </trkpt>
      <trkpt lat="45.12332" lon="6.35865">
        <ele>2689.8</ele>
        <time>2017-04-16T09:46:26Z</time>
      </trkpt>
      <trkpt lat="45.12332" lon="6.3586">
        <ele>2688.6</ele>
        <time>2017-04-16T09:46:31Z</time>
      </trkpt>
      <trkpt lat="45.12332" lon="6.3584">
        <ele>2690.6</ele>
        <time>2017-04-16T09:46:36Z</time>
      </trkpt>
      <trkpt lat="45.12331" lon="6.3583">
        <ele>2690.2</ele>
        <time>2017-04-16T09:46:41Z</time>
      </trkpt>
      <trkpt lat="45.12327" lon="6.3582">
        <ele>2689</ele>
        <time>2017-04-16T09:46:46Z</time>
      </trkpt>
      <trkpt lat="45.12326" lon="6.35814">
        <ele>2691</ele>
        <time>2017-04-16T09:46:51Z</time>
      </trkpt>
      <trkpt lat="45.12326" lon="6.35809">
        <ele>2691.6</ele>
        <time>2017-04-16T09:46:56Z</time>
      </trkpt>
      <trkpt lat="45.12327" lon="6.35803">
        <ele>2691</ele>
        <time>2017-04-16T09:47:01Z</time>
      </trkpt>
      <trkpt lat="45.12327" lon="6.358">
        <ele>2692.8</ele>
        <time>2017-04-16T09:47:06Z</time>
      </trkpt>
      <trkpt lat="45.12328" lon="6.358">
        <ele>2690.4</ele>
        <time>2017-04-16T09:55:34Z</time>
      </trkpt>
      <trkpt lat="45.12329" lon="6.35798">
        <ele>2688</ele>
        <time>2017-04-16T09:57:14Z</time>
      </trkpt>
      <trkpt lat="45.12328" lon="6.35798">
        <ele>2688.2</ele>
        <time>2017-04-16T09:57:39Z</time>
      </trkpt>
      <trkpt lat="45.12328" lon="6.35795">
        <ele>2688.6</ele>
        <time>2017-04-16T10:00:09Z</time>
      </trkpt>
      <trkpt lat="45.12328" lon="6.35795">
        <ele>2688</ele>
        <time>2017-04-16T10:00:14Z</time>
      </trkpt>
      <trkpt lat="45.12328" lon="6.3579">
        <ele>2688.8</ele>
        <time>2017-04-16T10:00:19Z</time>
      </trkpt>
      <trkpt lat="45.12327" lon="6.35784">
        <ele>2692.8</ele>
        <time>2017-04-16T10:00:54Z</time>
      </trkpt>
      <trkpt lat="45.12327" lon="6.35779">
        <ele>2689.6</ele>
        <time>2017-04-16T10:00:59Z</time>
      </trkpt>
      <trkpt lat="45.12329" lon="6.35774">
        <ele>2693.2</ele>
        <time>2017-04-16T10:01:04Z</time>
      </trkpt>
      <trkpt lat="45.1233" lon="6.35772">
        <ele>2692.6</ele>
        <time>2017-04-16T10:01:09Z</time>
      </trkpt>
      <trkpt lat="45.12332" lon="6.35769">
        <ele>2693.6</ele>
        <time>2017-04-16T10:01:14Z</time>
      </trkpt>
      <trkpt lat="45.12334" lon="6.35764">
        <ele>2693.6</ele>
        <time>2017-04-16T10:01:19Z</time>
      </trkpt>
      <trkpt lat="45.12338" lon="6.35759">
        <ele>2695</ele>
        <time>2017-04-16T10:01:25Z</time>
      </trkpt>
      <trkpt lat="45.12339" lon="6.35755">
        <ele>2697.4</ele>
        <time>2017-04-16T10:01:30Z</time>
      </trkpt>
      <trkpt lat="45.1234" lon="6.3575">
        <ele>2698.2</ele>
        <time>2017-04-16T10:01:35Z</time>
      </trkpt>
      <trkpt lat="45.12342" lon="6.35745">
        <ele>2701.4</ele>
        <time>2017-04-16T10:01:40Z</time>
      </trkpt>
      <trkpt lat="45.12344" lon="6.3574">
        <ele>2699.8</ele>
        <time>2017-04-16T10:01:46Z</time>
      </trkpt>
      <trkpt lat="45.12347" lon="6.35737">
        <ele>2700</ele>
        <time>2017-04-16T10:01:51Z</time>
      </trkpt>
      <trkpt lat="45.12349" lon="6.35733">
        <ele>2700.6</ele>
        <time>2017-04-16T10:01:56Z</time>
      </trkpt>
      <trkpt lat="45.1235" lon="6.35729">
        <ele>2703.8</ele>
        <time>2017-04-16T10:02:01Z</time>
      </trkpt>
      <trkpt lat="45.12352" lon="6.35726">
        <ele>2702.2</ele>
        <time>2017-04-16T10:02:06Z</time>
      </trkpt>
      <trkpt lat="45.12354" lon="6.35722">
        <ele>2705.6</ele>
        <time>2017-04-16T10:02:11Z</time>
      </trkpt>
      <trkpt lat="45.12356" lon="6.35717">
        <ele>2706.2</ele>
        <time>2017-04-16T10:02:16Z</time>
      </trkpt>
      <trkpt lat="45.12357" lon="6.35713">
        <ele>2708.2</ele>
        <time>2017-04-16T10:02:21Z</time>
      </trkpt>
      <trkpt lat="45.12358" lon="6.35713">
        <ele>2707.4</ele>
        <time>2017-04-16T10:02:26Z</time>
      </trkpt>
      <trkpt lat="45.12359" lon="6.3571">
        <ele>2704.8</ele>
        <time>2017-04-16T10:02:31Z</time>
      </trkpt>
      <trkpt lat="45.12361" lon="6.35707">
        <ele>2709.4</ele>
        <time>2017-04-16T10:02:36Z</time>
      </trkpt>
      <trkpt lat="45.12364" lon="6.35704">
        <ele>2706.2</ele>
        <time>2017-04-16T10:02:41Z</time>
      </trkpt>
      <trkpt lat="45.12366" lon="6.35701">
        <ele>2708</ele>
        <time>2017-04-16T10:02:46Z</time>
      </trkpt>
      <trkpt lat="45.12368" lon="6.35697">
        <ele>2709.2</ele>
        <time>2017-04-16T10:02:51Z</time>
      </trkpt>
      <trkpt lat="45.12371" lon="6.35694">
        <ele>2710.2</ele>
        <time>2017-04-16T10:02:56Z</time>
      </trkpt>
      <trkpt lat="45.12373" lon="6.35694">
        <ele>2708.6</ele>
        <time>2017-04-16T10:03:01Z</time>
      </trkpt>
      <trkpt lat="45.12373" lon="6.35694">
        <ele>2708.4</ele>
        <time>2017-04-16T10:03:06Z</time>
      </trkpt>
      <trkpt lat="45.12374" lon="6.35695">
        <ele>2707</ele>
        <time>2017-04-16T10:03:11Z</time>
      </trkpt>
      <trkpt lat="45.12377" lon="6.35697">
        <ele>2709.6</ele>
        <time>2017-04-16T10:03:16Z</time>
      </trkpt>
      <trkpt lat="45.12378" lon="6.35697">
        <ele>2712</ele>
        <time>2017-04-16T10:03:56Z</time>
      </trkpt>
      <trkpt lat="45.1238" lon="6.35694">
        <ele>2712.8</ele>
        <time>2017-04-16T10:04:01Z</time>
      </trkpt>
      <trkpt lat="45.12382" lon="6.3569">
        <ele>2711</ele>
        <time>2017-04-16T10:04:06Z</time>
      </trkpt>
      <trkpt lat="45.12384" lon="6.35686">
        <ele>2711.4</ele>
        <time>2017-04-16T10:04:11Z</time>
      </trkpt>
      <trkpt lat="45.12386" lon="6.35682">
        <ele>2714.4</ele>
        <time>2017-04-16T10:04:16Z</time>
      </trkpt>
      <trkpt lat="45.12388" lon="6.35679">
        <ele>2713.4</ele>
        <time>2017-04-16T10:04:21Z</time>
      </trkpt>
      <trkpt lat="45.1239" lon="6.35676">
        <ele>2715.6</ele>
        <time>2017-04-16T10:04:26Z</time>
      </trkpt>
      <trkpt lat="45.12392" lon="6.35673">
        <ele>2715.8</ele>
        <time>2017-04-16T10:04:31Z</time>
      </trkpt>
      <trkpt lat="45.12395" lon="6.35671">
        <ele>2717.8</ele>
        <time>2017-04-16T10:04:36Z</time>
      </trkpt>
      <trkpt lat="45.12398" lon="6.35668">
        <ele>2718.2</ele>
        <time>2017-04-16T10:04:41Z</time>
      </trkpt>
      <trkpt lat="45.12401" lon="6.35666">
        <ele>2719.6</ele>
        <time>2017-04-16T10:04:46Z</time>
      </trkpt>
      <trkpt lat="45.12403" lon="6.35664">
        <ele>2719.8</ele>
        <time>2017-04-16T10:04:51Z</time>
      </trkpt>
      <trkpt lat="45.12406" lon="6.35661">
        <ele>2718.6</ele>
        <time>2017-04-16T10:04:56Z</time>
      </trkpt>
      <trkpt lat="45.12408" lon="6.35659">
        <ele>2719.6</ele>
        <time>2017-04-16T10:05:01Z</time>
      </trkpt>
      <trkpt lat="45.12411" lon="6.35656">
        <ele>2717.4</ele>
        <time>2017-04-16T10:05:06Z</time>
      </trkpt>
      <trkpt lat="45.12414" lon="6.35654">
        <ele>2720.4</ele>
        <time>2017-04-16T10:05:11Z</time>
      </trkpt>
      <trkpt lat="45.12416" lon="6.35651">
        <ele>2721</ele>
        <time>2017-04-16T10:05:16Z</time>
      </trkpt>
      <trkpt lat="45.12418" lon="6.35649">
        <ele>2724</ele>
        <time>2017-04-16T10:05:21Z</time>
      </trkpt>
      <trkpt lat="45.1242" lon="6.35648">
        <ele>2721.6</ele>
        <time>2017-04-16T10:05:26Z</time>
      </trkpt>
      <trkpt lat="45.12422" lon="6.35646">
        <ele>2725.2</ele>
        <time>2017-04-16T10:05:31Z</time>
      </trkpt>
      <trkpt lat="45.12424" lon="6.35645">
        <ele>2726.2</ele>
        <time>2017-04-16T10:05:36Z</time>
      </trkpt>
      <trkpt lat="45.12427" lon="6.35643">
        <ele>2727.4</ele>
        <time>2017-04-16T10:05:41Z</time>
      </trkpt>
      <trkpt lat="45.12429" lon="6.35641">
        <ele>2725.4</ele>
        <time>2017-04-16T10:05:46Z</time>
      </trkpt>
      <trkpt lat="45.12431" lon="6.35639">
        <ele>2725.2</ele>
        <time>2017-04-16T10:05:51Z</time>
      </trkpt>
      <trkpt lat="45.12434" lon="6.35637">
        <ele>2727.8</ele>
        <time>2017-04-16T10:05:56Z</time>
      </trkpt>
      <trkpt lat="45.12437" lon="6.35634">
        <ele>2725.8</ele>
        <time>2017-04-16T10:06:01Z</time>
      </trkpt>
      <trkpt lat="45.12439" lon="6.35632">
        <ele>2728.4</ele>
        <time>2017-04-16T10:06:06Z</time>
      </trkpt>
      <trkpt lat="45.12441" lon="6.3563">
        <ele>2727.8</ele>
        <time>2017-04-16T10:06:11Z</time>
      </trkpt>
      <trkpt lat="45.12443" lon="6.35627">
        <ele>2731.4</ele>
        <time>2017-04-16T10:06:16Z</time>
      </trkpt>
      <trkpt lat="45.12445" lon="6.35625">
        <ele>2730.4</ele>
        <time>2017-04-16T10:06:21Z</time>
      </trkpt>
      <trkpt lat="45.12448" lon="6.35622">
        <ele>2732.4</ele>
        <time>2017-04-16T10:06:27Z</time>
      </trkpt>
      <trkpt lat="45.1245" lon="6.3562">
        <ele>2731.4</ele>
        <time>2017-04-16T10:06:32Z</time>
      </trkpt>
      <trkpt lat="45.12452" lon="6.35618">
        <ele>2733.6</ele>
        <time>2017-04-16T10:06:37Z</time>
      </trkpt>
      <trkpt lat="45.12454" lon="6.35617">
        <ele>2731.2</ele>
        <time>2017-04-16T10:06:42Z</time>
      </trkpt>
      <trkpt lat="45.12456" lon="6.35614">
        <ele>2733.6</ele>
        <time>2017-04-16T10:06:47Z</time>
      </trkpt>
      <trkpt lat="45.12458" lon="6.35612">
        <ele>2734</ele>
        <time>2017-04-16T10:06:52Z</time>
      </trkpt>
      <trkpt lat="45.12459" lon="6.35609">
        <ele>2735.6</ele>
        <time>2017-04-16T10:06:57Z</time>
      </trkpt>
      <trkpt lat="45.1246" lon="6.35606">
        <ele>2734.6</ele>
        <time>2017-04-16T10:07:02Z</time>
      </trkpt>
      <trkpt lat="45.12461" lon="6.35603">
        <ele>2733.8</ele>
        <time>2017-04-16T10:07:07Z</time>
      </trkpt>
      <trkpt lat="45.12463" lon="6.356">
        <ele>2737.6</ele>
        <time>2017-04-16T10:07:12Z</time>
      </trkpt>
      <trkpt lat="45.12464" lon="6.35598">
        <ele>2735.8</ele>
        <time>2017-04-16T10:07:17Z</time>
      </trkpt>
      <trkpt lat="45.12465" lon="6.35595">
        <ele>2738.4</ele>
        <time>2017-04-16T10:07:22Z</time>
      </trkpt>
      <trkpt lat="45.12467" lon="6.35593">
        <ele>2737.8</ele>
        <time>2017-04-16T10:07:27Z</time>
      </trkpt>
      <trkpt lat="45.12469" lon="6.35591">
        <ele>2738.4</ele>
        <time>2017-04-16T10:07:32Z</time>
      </trkpt>
      <trkpt lat="45.12471" lon="6.35589">
        <ele>2738.6</ele>
        <time>2017-04-16T10:07:37Z</time>
      </trkpt>
      <trkpt lat="45.12473" lon="6.35587">
        <ele>2742.2</ele>
        <time>2017-04-16T10:07:42Z</time>
      </trkpt>
      <trkpt lat="45.12475" lon="6.35585">
        <ele>2743.4</ele>
        <time>2017-04-16T10:07:47Z</time>
      </trkpt>
      <trkpt lat="45.12477" lon="6.35583">
        <ele>2741.4</ele>
        <time>2017-04-16T10:07:52Z</time>
      </trkpt>
      <trkpt lat="45.12479" lon="6.35581">
        <ele>2745.8</ele>
        <time>2017-04-16T10:07:57Z</time>
      </trkpt>
      <trkpt lat="45.12481" lon="6.3558">
        <ele>2745</ele>
        <time>2017-04-16T10:08:02Z</time>
      </trkpt>
      <trkpt lat="45.12483" lon="6.35578">
        <ele>2745.8</ele>
        <time>2017-04-16T10:08:07Z</time>
      </trkpt>
      <trkpt lat="45.12485" lon="6.35576">
        <ele>2742.2</ele>
        <time>2017-04-16T10:08:12Z</time>
      </trkpt>
      <trkpt lat="45.12488" lon="6.35575">
        <ele>2745.6</ele>
        <time>2017-04-16T10:08:17Z</time>
      </trkpt>
      <trkpt lat="45.1249" lon="6.35573">
        <ele>2746</ele>
        <time>2017-04-16T10:08:22Z</time>
      </trkpt>
      <trkpt lat="45.12492" lon="6.35571">
        <ele>2747.2</ele>
        <time>2017-04-16T10:08:27Z</time>
      </trkpt>
      <trkpt lat="45.12493" lon="6.35573">
        <ele>2746.8</ele>
        <time>2017-04-16T10:08:32Z</time>
      </trkpt>
      <trkpt lat="45.12493" lon="6.35577">
        <ele>2747.2</ele>
        <time>2017-04-16T10:08:37Z</time>
      </trkpt>
      <trkpt lat="45.12493" lon="6.3558">
        <ele>2748.6</ele>
        <time>2017-04-16T10:08:42Z</time>
      </trkpt>
      <trkpt lat="45.12493" lon="6.35584">
        <ele>2747.4</ele>
        <time>2017-04-16T10:08:47Z</time>
      </trkpt>
      <trkpt lat="45.12493" lon="6.35587">
        <ele>2744.4</ele>
        <time>2017-04-16T10:08:52Z</time>
      </trkpt>
      <trkpt lat="45.12493" lon="6.35591">
        <ele>2746.2</ele>
        <time>2017-04-16T10:08:57Z</time>
      </trkpt>
      <trkpt lat="45.12493" lon="6.35595">
        <ele>2749</ele>
        <time>2017-04-16T10:09:02Z</time>
      </trkpt>
      <trkpt lat="45.12493" lon="6.35598">
        <ele>2749.8</ele>
        <time>2017-04-16T10:09:07Z</time>
      </trkpt>
      <trkpt lat="45.12494" lon="6.35601">
        <ele>2748</ele>
        <time>2017-04-16T10:09:12Z</time>
      </trkpt>
      <trkpt lat="45.12494" lon="6.35605">
        <ele>2748.8</ele>
        <time>2017-04-16T10:09:17Z</time>
      </trkpt>
      <trkpt lat="45.12495" lon="6.35609">
        <ele>2750.4</ele>
        <time>2017-04-16T10:09:22Z</time>
      </trkpt>
      <trkpt lat="45.12495" lon="6.35613">
        <ele>2752.4</ele>
        <time>2017-04-16T10:09:27Z</time>
      </trkpt>
      <trkpt lat="45.12498" lon="6.35613">
        <ele>2752.4</ele>
        <time>2017-04-16T10:09:32Z</time>
      </trkpt>
      <trkpt lat="45.125" lon="6.35611">
        <ele>2752.8</ele>
        <time>2017-04-16T10:09:37Z</time>
      </trkpt>
      <trkpt lat="45.12502" lon="6.35608">
        <ele>2753.2</ele>
        <time>2017-04-16T10:09:42Z</time>
      </trkpt>
      <trkpt lat="45.12504" lon="6.35606">
        <ele>2751.2</ele>
        <time>2017-04-16T10:09:47Z</time>
      </trkpt>
      <trkpt lat="45.12506" lon="6.35603">
        <ele>2755.4</ele>
        <time>2017-04-16T10:09:52Z</time>
      </trkpt>
      <trkpt lat="45.12508" lon="6.356">
        <ele>2756.2</ele>
        <time>2017-04-16T10:09:57Z</time>
      </trkpt>
      <trkpt lat="45.12511" lon="6.35598">
        <ele>2754.4</ele>
        <time>2017-04-16T10:10:02Z</time>
      </trkpt>
      <trkpt lat="45.12513" lon="6.35596">
        <ele>2755</ele>
        <time>2017-04-16T10:10:07Z</time>
      </trkpt>
      <trkpt lat="45.12515" lon="6.35594">
        <ele>2759.2</ele>
        <time>2017-04-16T10:10:12Z</time>
      </trkpt>
      <trkpt lat="45.12517" lon="6.35592">
        <ele>2758.2</ele>
        <time>2017-04-16T10:10:17Z</time>
      </trkpt>
      <trkpt lat="45.12519" lon="6.3559">
        <ele>2756.2</ele>
        <time>2017-04-16T10:10:22Z</time>
      </trkpt>
      <trkpt lat="45.12521" lon="6.35588">
        <ele>2757.8</ele>
        <time>2017-04-16T10:10:27Z</time>
      </trkpt>
      <trkpt lat="45.12523" lon="6.35585">
        <ele>2762.6</ele>
        <time>2017-04-16T10:10:32Z</time>
      </trkpt>
      <trkpt lat="45.12525" lon="6.35583">
        <ele>2760.8</ele>
        <time>2017-04-16T10:10:37Z</time>
      </trkpt>
      <trkpt lat="45.12527" lon="6.3558">
        <ele>2760</ele>
        <time>2017-04-16T10:10:42Z</time>
      </trkpt>
      <trkpt lat="45.12529" lon="6.35578">
        <ele>2761.4</ele>
        <time>2017-04-16T10:10:47Z</time>
      </trkpt>
      <trkpt lat="45.12531" lon="6.35575">
        <ele>2761.4</ele>
        <time>2017-04-16T10:10:52Z</time>
      </trkpt>
      <trkpt lat="45.12533" lon="6.35572">
        <ele>2762.4</ele>
        <time>2017-04-16T10:10:57Z</time>
      </trkpt>
      <trkpt lat="45.12534" lon="6.35571">
        <ele>2761</ele>
        <time>2017-04-16T10:11:02Z</time>
      </trkpt>
      <trkpt lat="45.12535" lon="6.35569">
        <ele>2762.8</ele>
        <time>2017-04-16T10:11:07Z</time>
      </trkpt>
      <trkpt lat="45.12537" lon="6.35566">
        <ele>2763</ele>
        <time>2017-04-16T10:11:13Z</time>
      </trkpt>
      <trkpt lat="45.12539" lon="6.35564">
        <ele>2764.6</ele>
        <time>2017-04-16T10:11:18Z</time>
      </trkpt>
      <trkpt lat="45.12541" lon="6.35562">
        <ele>2769.2</ele>
        <time>2017-04-16T10:11:23Z</time>
      </trkpt>
      <trkpt lat="45.12543" lon="6.3556">
        <ele>2766.2</ele>
        <time>2017-04-16T10:11:28Z</time>
      </trkpt>
      <trkpt lat="45.12545" lon="6.35557">
        <ele>2767.8</ele>
        <time>2017-04-16T10:11:33Z</time>
      </trkpt>
      <trkpt lat="45.12546" lon="6.35554">
        <ele>2770.6</ele>
        <time>2017-04-16T10:11:38Z</time>
      </trkpt>
      <trkpt lat="45.12548" lon="6.35552">
        <ele>2771.2</ele>
        <time>2017-04-16T10:11:43Z</time>
      </trkpt>
      <trkpt lat="45.1255" lon="6.35549">
        <ele>2770.4</ele>
        <time>2017-04-16T10:11:48Z</time>
      </trkpt>
      <trkpt lat="45.12552" lon="6.35546">
        <ele>2769.6</ele>
        <time>2017-04-16T10:11:53Z</time>
      </trkpt>
      <trkpt lat="45.12552" lon="6.35546">
        <ele>2771.2</ele>
        <time>2017-04-16T10:12:23Z</time>
      </trkpt>
      <trkpt lat="45.12553" lon="6.35543">
        <ele>2770.8</ele>
        <time>2017-04-16T10:12:28Z</time>
      </trkpt>
      <trkpt lat="45.12554" lon="6.35542">
        <ele>2773.4</ele>
        <time>2017-04-16T10:12:33Z</time>
      </trkpt>
      <trkpt lat="45.12556" lon="6.35538">
        <ele>2771.8</ele>
        <time>2017-04-16T10:12:38Z</time>
      </trkpt>
      <trkpt lat="45.12558" lon="6.35535">
        <ele>2775.8</ele>
        <time>2017-04-16T10:12:43Z</time>
      </trkpt>
      <trkpt lat="45.12559" lon="6.35531">
        <ele>2775.6</ele>
        <time>2017-04-16T10:12:48Z</time>
      </trkpt>
      <trkpt lat="45.12561" lon="6.35528">
        <ele>2774.8</ele>
        <time>2017-04-16T10:12:53Z</time>
      </trkpt>
      <trkpt lat="45.12562" lon="6.35525">
        <ele>2775.8</ele>
        <time>2017-04-16T10:12:58Z</time>
      </trkpt>
      <trkpt lat="45.12564" lon="6.35522">
        <ele>2775.2</ele>
        <time>2017-04-16T10:13:03Z</time>
      </trkpt>
      <trkpt lat="45.12565" lon="6.35519">
        <ele>2774.8</ele>
        <time>2017-04-16T10:13:08Z</time>
      </trkpt>
      <trkpt lat="45.12566" lon="6.35516">
        <ele>2778.8</ele>
        <time>2017-04-16T10:13:13Z</time>
      </trkpt>
      <trkpt lat="45.12568" lon="6.35512">
        <ele>2781.2</ele>
        <time>2017-04-16T10:13:18Z</time>
      </trkpt>
      <trkpt lat="45.12569" lon="6.35509">
        <ele>2779.4</ele>
        <time>2017-04-16T10:13:23Z</time>
      </trkpt>
      <trkpt lat="45.12569" lon="6.35505">
        <ele>2777.8</ele>
        <time>2017-04-16T10:13:28Z</time>
      </trkpt>
      <trkpt lat="45.1257" lon="6.35502">
        <ele>2780.4</ele>
        <time>2017-04-16T10:13:33Z</time>
      </trkpt>
      <trkpt lat="45.12571" lon="6.35498">
        <ele>2781.2</ele>
        <time>2017-04-16T10:13:38Z</time>
      </trkpt>
      <trkpt lat="45.12572" lon="6.35494">
        <ele>2783.6</ele>
        <time>2017-04-16T10:13:43Z</time>
      </trkpt>
      <trkpt lat="45.12573" lon="6.3549">
        <ele>2784.6</ele>
        <time>2017-04-16T10:13:48Z</time>
      </trkpt>
      <trkpt lat="45.12575" lon="6.35486">
        <ele>2785</ele>
        <time>2017-04-16T10:13:53Z</time>
      </trkpt>
      <trkpt lat="45.12576" lon="6.35482">
        <ele>2783.4</ele>
        <time>2017-04-16T10:13:58Z</time>
      </trkpt>
      <trkpt lat="45.12577" lon="6.35479">
        <ele>2786</ele>
        <time>2017-04-16T10:14:03Z</time>
      </trkpt>
      <trkpt lat="45.12578" lon="6.35475">
        <ele>2787</ele>
        <time>2017-04-16T10:14:08Z</time>
      </trkpt>
      <trkpt lat="45.1258" lon="6.35471">
        <ele>2789.6</ele>
        <time>2017-04-16T10:14:13Z</time>
      </trkpt>
      <trkpt lat="45.12581" lon="6.35468">
        <ele>2790.8</ele>
        <time>2017-04-16T10:14:18Z</time>
      </trkpt>
      <trkpt lat="45.12583" lon="6.35465">
        <ele>2790.4</ele>
        <time>2017-04-16T10:14:23Z</time>
      </trkpt>
      <trkpt lat="45.12585" lon="6.35465">
        <ele>2789.4</ele>
        <time>2017-04-16T10:14:28Z</time>
      </trkpt>
      <trkpt lat="45.12587" lon="6.35467">
        <ele>2788.8</ele>
        <time>2017-04-16T10:14:33Z</time>
      </trkpt>
      <trkpt lat="45.12589" lon="6.35468">
        <ele>2791.8</ele>
        <time>2017-04-16T10:14:38Z</time>
      </trkpt>
      <trkpt lat="45.12591" lon="6.3547">
        <ele>2794.4</ele>
        <time>2017-04-16T10:14:43Z</time>
      </trkpt>
      <trkpt lat="45.12593" lon="6.35472">
        <ele>2792.8</ele>
        <time>2017-04-16T10:14:48Z</time>
      </trkpt>
      <trkpt lat="45.12595" lon="6.35475">
        <ele>2796.6</ele>
        <time>2017-04-16T10:14:53Z</time>
      </trkpt>
      <trkpt lat="45.12596" lon="6.35477">
        <ele>2797.4</ele>
        <time>2017-04-16T10:14:58Z</time>
      </trkpt>
      <trkpt lat="45.12598" lon="6.35479">
        <ele>2795.6</ele>
        <time>2017-04-16T10:15:03Z</time>
      </trkpt>
      <trkpt lat="45.126" lon="6.35481">
        <ele>2796.2</ele>
        <time>2017-04-16T10:15:08Z</time>
      </trkpt>
      <trkpt lat="45.12602" lon="6.35483">
        <ele>2793.8</ele>
        <time>2017-04-16T10:15:13Z</time>
      </trkpt>
      <trkpt lat="45.12603" lon="6.35486">
        <ele>2798</ele>
        <time>2017-04-16T10:15:18Z</time>
      </trkpt>
      <trkpt lat="45.12605" lon="6.35489">
        <ele>2798</ele>
        <time>2017-04-16T10:15:23Z</time>
      </trkpt>
      <trkpt lat="45.12606" lon="6.35491">
        <ele>2798</ele>
        <time>2017-04-16T10:15:28Z</time>
      </trkpt>
      <trkpt lat="45.12608" lon="6.35492">
        <ele>2798.2</ele>
        <time>2017-04-16T10:15:33Z</time>
      </trkpt>
      <trkpt lat="45.1261" lon="6.35489">
        <ele>2796.6</ele>
        <time>2017-04-16T10:15:38Z</time>
      </trkpt>
      <trkpt lat="45.12611" lon="6.35487">
        <ele>2798.6</ele>
        <time>2017-04-16T10:15:43Z</time>
      </trkpt>
      <trkpt lat="45.12613" lon="6.35484">
        <ele>2799.4</ele>
        <time>2017-04-16T10:15:48Z</time>
      </trkpt>
      <trkpt lat="45.12614" lon="6.35481">
        <ele>2800</ele>
        <time>2017-04-16T10:15:53Z</time>
      </trkpt>
      <trkpt lat="45.12616" lon="6.35479">
        <ele>2801.4</ele>
        <time>2017-04-16T10:15:58Z</time>
      </trkpt>
      <trkpt lat="45.12618" lon="6.35477">
        <ele>2802.6</ele>
        <time>2017-04-16T10:16:03Z</time>
      </trkpt>
      <trkpt lat="45.1262" lon="6.35475">
        <ele>2803.2</ele>
        <time>2017-04-16T10:16:08Z</time>
      </trkpt>
      <trkpt lat="45.12621" lon="6.35472">
        <ele>2805.6</ele>
        <time>2017-04-16T10:16:13Z</time>
      </trkpt>
      <trkpt lat="45.12622" lon="6.35469">
        <ele>2802.4</ele>
        <time>2017-04-16T10:16:18Z</time>
      </trkpt>
      <trkpt lat="45.12624" lon="6.35467">
        <ele>2802.6</ele>
        <time>2017-04-16T10:16:23Z</time>
      </trkpt>
      <trkpt lat="45.12625" lon="6.35464">
        <ele>2804.6</ele>
        <time>2017-04-16T10:16:28Z</time>
      </trkpt>
      <trkpt lat="45.12626" lon="6.35461">
        <ele>2805.8</ele>
        <time>2017-04-16T10:16:33Z</time>
      </trkpt>
      <trkpt lat="45.12627" lon="6.35459">
        <ele>2807.2</ele>
        <time>2017-04-16T10:16:38Z</time>
      </trkpt>
      <trkpt lat="45.12629" lon="6.35457">
        <ele>2808.8</ele>
        <time>2017-04-16T10:16:43Z</time>
      </trkpt>
      <trkpt lat="45.1263" lon="6.35454">
        <ele>2809.6</ele>
        <time>2017-04-16T10:16:48Z</time>
      </trkpt>
      <trkpt lat="45.12631" lon="6.3545">
        <ele>2811</ele>
        <time>2017-04-16T10:16:53Z</time>
      </trkpt>
      <trkpt lat="45.12632" lon="6.35447">
        <ele>2810.6</ele>
        <time>2017-04-16T10:16:58Z</time>
      </trkpt>
      <trkpt lat="45.12634" lon="6.35444">
        <ele>2809</ele>
        <time>2017-04-16T10:17:03Z</time>
      </trkpt>
      <trkpt lat="45.12637" lon="6.35442">
        <ele>2812.4</ele>
        <time>2017-04-16T10:17:13Z</time>
      </trkpt>
      <trkpt lat="45.12637" lon="6.35443">
        <ele>2812.2</ele>
        <time>2017-04-16T10:17:28Z</time>
      </trkpt>
      <trkpt lat="45.12637" lon="6.35443">
        <ele>2810.8</ele>
        <time>2017-04-16T10:17:33Z</time>
      </trkpt>
      <trkpt lat="45.12638" lon="6.35445">
        <ele>2809.8</ele>
        <time>2017-04-16T10:17:38Z</time>
      </trkpt>
      <trkpt lat="45.12638" lon="6.35445">
        <ele>2812</ele>
        <time>2017-04-16T10:18:18Z</time>
      </trkpt>
      <trkpt lat="45.1264" lon="6.35448">
        <ele>2812.6</ele>
        <time>2017-04-16T10:18:24Z</time>
      </trkpt>
      <trkpt lat="45.12642" lon="6.35452">
        <ele>2813.4</ele>
        <time>2017-04-16T10:18:29Z</time>
      </trkpt>
      <trkpt lat="45.12644" lon="6.35455">
        <ele>2813.4</ele>
        <time>2017-04-16T10:18:34Z</time>
      </trkpt>
      <trkpt lat="45.12646" lon="6.35459">
        <ele>2814.8</ele>
        <time>2017-04-16T10:18:39Z</time>
      </trkpt>
      <trkpt lat="45.12648" lon="6.35462">
        <ele>2815</ele>
        <time>2017-04-16T10:18:44Z</time>
      </trkpt>
      <trkpt lat="45.12649" lon="6.35465">
        <ele>2820.8</ele>
        <time>2017-04-16T10:18:49Z</time>
      </trkpt>
      <trkpt lat="45.12651" lon="6.35468">
        <ele>2820.4</ele>
        <time>2017-04-16T10:18:54Z</time>
      </trkpt>
      <trkpt lat="45.12653" lon="6.35471">
        <ele>2819.6</ele>
        <time>2017-04-16T10:18:59Z</time>
      </trkpt>
      <trkpt lat="45.12654" lon="6.35475">
        <ele>2819.8</ele>
        <time>2017-04-16T10:19:04Z</time>
      </trkpt>
      <trkpt lat="45.12656" lon="6.35477">
        <ele>2820.6</ele>
        <time>2017-04-16T10:19:09Z</time>
      </trkpt>
      <trkpt lat="45.12657" lon="6.3548">
        <ele>2823.6</ele>
        <time>2017-04-16T10:19:14Z</time>
      </trkpt>
      <trkpt lat="45.12659" lon="6.35483">
        <ele>2822.8</ele>
        <time>2017-04-16T10:19:19Z</time>
      </trkpt>
      <trkpt lat="45.1266" lon="6.35486">
        <ele>2825.2</ele>
        <time>2017-04-16T10:19:24Z</time>
      </trkpt>
      <trkpt lat="45.12661" lon="6.35488">
        <ele>2825</ele>
        <time>2017-04-16T10:19:29Z</time>
      </trkpt>
      <trkpt lat="45.12662" lon="6.35491">
        <ele>2826.4</ele>
        <time>2017-04-16T10:19:34Z</time>
      </trkpt>
      <trkpt lat="45.12664" lon="6.35491">
        <ele>2826.4</ele>
        <time>2017-04-16T10:19:44Z</time>
      </trkpt>
      <trkpt lat="45.12665" lon="6.35488">
        <ele>2826.2</ele>
        <time>2017-04-16T10:19:49Z</time>
      </trkpt>
      <trkpt lat="45.12667" lon="6.35485">
        <ele>2825.4</ele>
        <time>2017-04-16T10:19:54Z</time>
      </trkpt>
      <trkpt lat="45.12668" lon="6.35483">
        <ele>2824.8</ele>
        <time>2017-04-16T10:19:59Z</time>
      </trkpt>
      <trkpt lat="45.1267" lon="6.35481">
        <ele>2824</ele>
        <time>2017-04-16T10:20:04Z</time>
      </trkpt>
      <trkpt lat="45.12672" lon="6.35478">
        <ele>2826.4</ele>
        <time>2017-04-16T10:20:09Z</time>
      </trkpt>
      <trkpt lat="45.12674" lon="6.35475">
        <ele>2828.8</ele>
        <time>2017-04-16T10:20:14Z</time>
      </trkpt>
      <trkpt lat="45.12676" lon="6.35472">
        <ele>2830.8</ele>
        <time>2017-04-16T10:20:19Z</time>
      </trkpt>
      <trkpt lat="45.12678" lon="6.3547">
        <ele>2830</ele>
        <time>2017-04-16T10:20:24Z</time>
      </trkpt>
      <trkpt lat="45.1268" lon="6.35466">
        <ele>2827.8</ele>
        <time>2017-04-16T10:20:29Z</time>
      </trkpt>
      <trkpt lat="45.12681" lon="6.35463">
        <ele>2828.6</ele>
        <time>2017-04-16T10:20:34Z</time>
      </trkpt>
      <trkpt lat="45.12682" lon="6.35459">
        <ele>2830.2</ele>
        <time>2017-04-16T10:20:39Z</time>
      </trkpt>
      <trkpt lat="45.12684" lon="6.35456">
        <ele>2832.6</ele>
        <time>2017-04-16T10:20:44Z</time>
      </trkpt>
      <trkpt lat="45.12686" lon="6.35455">
        <ele>2831</ele>
        <time>2017-04-16T10:20:54Z</time>
      </trkpt>
      <trkpt lat="45.12687" lon="6.35458">
        <ele>2830.6</ele>
        <time>2017-04-16T10:20:59Z</time>
      </trkpt>
      <trkpt lat="45.12688" lon="6.3546">
        <ele>2831.6</ele>
        <time>2017-04-16T10:21:04Z</time>
      </trkpt>
      <trkpt lat="45.1269" lon="6.35462">
        <ele>2832.6</ele>
        <time>2017-04-16T10:21:09Z</time>
      </trkpt>
      <trkpt lat="45.12691" lon="6.35465">
        <ele>2833.6</ele>
        <time>2017-04-16T10:21:14Z</time>
      </trkpt>
      <trkpt lat="45.12693" lon="6.35468">
        <ele>2834.4</ele>
        <time>2017-04-16T10:21:19Z</time>
      </trkpt>
      <trkpt lat="45.12694" lon="6.3547">
        <ele>2835</ele>
        <time>2017-04-16T10:21:24Z</time>
      </trkpt>
      <trkpt lat="45.12695" lon="6.35473">
        <ele>2836.4</ele>
        <time>2017-04-16T10:21:29Z</time>
      </trkpt>
      <trkpt lat="45.12695" lon="6.35476">
        <ele>2835.2</ele>
        <time>2017-04-16T10:21:34Z</time>
      </trkpt>
      <trkpt lat="45.12696" lon="6.35478">
        <ele>2839.2</ele>
        <time>2017-04-16T10:21:39Z</time>
      </trkpt>
      <trkpt lat="45.12697" lon="6.35481">
        <ele>2841</ele>
        <time>2017-04-16T10:21:44Z</time>
      </trkpt>
      <trkpt lat="45.12698" lon="6.35482">
        <ele>2840.2</ele>
        <time>2017-04-16T10:22:04Z</time>
      </trkpt>
      <trkpt lat="45.12698" lon="6.35482">
        <ele>2840</ele>
        <time>2017-04-16T10:22:34Z</time>
      </trkpt>
      <trkpt lat="45.12698" lon="6.3548">
        <ele>2840.8</ele>
        <time>2017-04-16T10:22:39Z</time>
      </trkpt>
      <trkpt lat="45.127" lon="6.35478">
        <ele>2840</ele>
        <time>2017-04-16T10:22:44Z</time>
      </trkpt>
      <trkpt lat="45.12701" lon="6.35475">
        <ele>2838.6</ele>
        <time>2017-04-16T10:22:49Z</time>
      </trkpt>
      <trkpt lat="45.12702" lon="6.35473">
        <ele>2842.8</ele>
        <time>2017-04-16T10:22:54Z</time>
      </trkpt>
      <trkpt lat="45.12704" lon="6.3547">
        <ele>2841.6</ele>
        <time>2017-04-16T10:22:59Z</time>
      </trkpt>
      <trkpt lat="45.12705" lon="6.35467">
        <ele>2842</ele>
        <time>2017-04-16T10:23:04Z</time>
      </trkpt>
      <trkpt lat="45.12706" lon="6.35464">
        <ele>2841.6</ele>
        <time>2017-04-16T10:23:09Z</time>
      </trkpt>
      <trkpt lat="45.12708" lon="6.35461">
        <ele>2844</ele>
        <time>2017-04-16T10:23:14Z</time>
      </trkpt>
      <trkpt lat="45.12709" lon="6.35459">
        <ele>2842.4</ele>
        <time>2017-04-16T10:23:19Z</time>
      </trkpt>
      <trkpt lat="45.1271" lon="6.35455">
        <ele>2846</ele>
        <time>2017-04-16T10:23:24Z</time>
      </trkpt>
      <trkpt lat="45.12711" lon="6.35452">
        <ele>2844.2</ele>
        <time>2017-04-16T10:23:29Z</time>
      </trkpt>
      <trkpt lat="45.12712" lon="6.35448">
        <ele>2847</ele>
        <time>2017-04-16T10:23:34Z</time>
      </trkpt>
      <trkpt lat="45.12713" lon="6.35445">
        <ele>2847</ele>
        <time>2017-04-16T10:23:39Z</time>
      </trkpt>
      <trkpt lat="45.12714" lon="6.35441">
        <ele>2849.4</ele>
        <time>2017-04-16T10:23:44Z</time>
      </trkpt>
      <trkpt lat="45.12714" lon="6.35437">
        <ele>2846.6</ele>
        <time>2017-04-16T10:23:49Z</time>
      </trkpt>
      <trkpt lat="45.12715" lon="6.35434">
        <ele>2854.4</ele>
        <time>2017-04-16T10:23:54Z</time>
      </trkpt>
      <trkpt lat="45.12717" lon="6.35433">
        <ele>2853.6</ele>
        <time>2017-04-16T10:24:04Z</time>
      </trkpt>
      <trkpt lat="45.12719" lon="6.35436">
        <ele>2851.6</ele>
        <time>2017-04-16T10:24:09Z</time>
      </trkpt>
      <trkpt lat="45.12721" lon="6.35438">
        <ele>2853</ele>
        <time>2017-04-16T10:24:14Z</time>
      </trkpt>
      <trkpt lat="45.12723" lon="6.3544">
        <ele>2853.4</ele>
        <time>2017-04-16T10:24:19Z</time>
      </trkpt>
      <trkpt lat="45.12725" lon="6.35441">
        <ele>2853.2</ele>
        <time>2017-04-16T10:24:24Z</time>
      </trkpt>
      <trkpt lat="45.12726" lon="6.35443">
        <ele>2855</ele>
        <time>2017-04-16T10:24:29Z</time>
      </trkpt>
      <trkpt lat="45.12728" lon="6.35445">
        <ele>2852.8</ele>
        <time>2017-04-16T10:24:34Z</time>
      </trkpt>
      <trkpt lat="45.1273" lon="6.35446">
        <ele>2855.6</ele>
        <time>2017-04-16T10:24:39Z</time>
      </trkpt>
      <trkpt lat="45.12731" lon="6.35448">
        <ele>2857.2</ele>
        <time>2017-04-16T10:24:44Z</time>
      </trkpt>
      <trkpt lat="45.12732" lon="6.35451">
        <ele>2854.2</ele>
        <time>2017-04-16T10:24:49Z</time>
      </trkpt>
      <trkpt lat="45.12734" lon="6.35453">
        <ele>2855.4</ele>
        <time>2017-04-16T10:24:54Z</time>
      </trkpt>
      <trkpt lat="45.12735" lon="6.35456">
        <ele>2854.8</ele>
        <time>2017-04-16T10:24:59Z</time>
      </trkpt>
      <trkpt lat="45.12736" lon="6.35458">
        <ele>2859.8</ele>
        <time>2017-04-16T10:25:04Z</time>
      </trkpt>
      <trkpt lat="45.12737" lon="6.3546">
        <ele>2860.8</ele>
        <time>2017-04-16T10:25:09Z</time>
      </trkpt>
      <trkpt lat="45.12737" lon="6.35463">
        <ele>2860.8</ele>
        <time>2017-04-16T10:25:14Z</time>
      </trkpt>
      <trkpt lat="45.12738" lon="6.35466">
        <ele>2862</ele>
        <time>2017-04-16T10:25:19Z</time>
      </trkpt>
      <trkpt lat="45.12738" lon="6.35469">
        <ele>2862.8</ele>
        <time>2017-04-16T10:25:24Z</time>
      </trkpt>
      <trkpt lat="45.12739" lon="6.35472">
        <ele>2864.2</ele>
        <time>2017-04-16T10:25:29Z</time>
      </trkpt>
      <trkpt lat="45.1274" lon="6.35475">
        <ele>2863.2</ele>
        <time>2017-04-16T10:25:34Z</time>
      </trkpt>
      <trkpt lat="45.1274" lon="6.35478">
        <ele>2864.2</ele>
        <time>2017-04-16T10:25:39Z</time>
      </trkpt>
      <trkpt lat="45.12741" lon="6.35481">
        <ele>2865</ele>
        <time>2017-04-16T10:25:44Z</time>
      </trkpt>
      <trkpt lat="45.12741" lon="6.35484">
        <ele>2867.6</ele>
        <time>2017-04-16T10:25:49Z</time>
      </trkpt>
      <trkpt lat="45.12742" lon="6.35486">
        <ele>2865.6</ele>
        <time>2017-04-16T10:25:54Z</time>
      </trkpt>
      <trkpt lat="45.12742" lon="6.3549">
        <ele>2866.6</ele>
        <time>2017-04-16T10:25:59Z</time>
      </trkpt>
      <trkpt lat="45.12743" lon="6.35493">
        <ele>2866.4</ele>
        <time>2017-04-16T10:26:04Z</time>
      </trkpt>
      <trkpt lat="45.12743" lon="6.35495">
        <ele>2865.8</ele>
        <time>2017-04-16T10:26:09Z</time>
      </trkpt>
      <trkpt lat="45.12743" lon="6.35495">
        <ele>2866</ele>
        <time>2017-04-16T10:26:14Z</time>
      </trkpt>
      <trkpt lat="45.12744" lon="6.35492">
        <ele>2867.8</ele>
        <time>2017-04-16T10:26:19Z</time>
      </trkpt>
      <trkpt lat="45.12746" lon="6.3549">
        <ele>2867</ele>
        <time>2017-04-16T10:26:24Z</time>
      </trkpt>
      <trkpt lat="45.12747" lon="6.35487">
        <ele>2868.4</ele>
        <time>2017-04-16T10:26:29Z</time>
      </trkpt>
      <trkpt lat="45.12749" lon="6.35485">
        <ele>2868.4</ele>
        <time>2017-04-16T10:26:34Z</time>
      </trkpt>
      <trkpt lat="45.12751" lon="6.35482">
        <ele>2866</ele>
        <time>2017-04-16T10:26:39Z</time>
      </trkpt>
      <trkpt lat="45.12752" lon="6.35479">
        <ele>2869.2</ele>
        <time>2017-04-16T10:26:44Z</time>
      </trkpt>
      <trkpt lat="45.12753" lon="6.35478">
        <ele>2870.8</ele>
        <time>2017-04-16T10:26:49Z</time>
      </trkpt>
      <trkpt lat="45.12754" lon="6.35475">
        <ele>2868.6</ele>
        <time>2017-04-16T10:26:54Z</time>
      </trkpt>
      <trkpt lat="45.12756" lon="6.35473">
        <ele>2869.6</ele>
        <time>2017-04-16T10:26:59Z</time>
      </trkpt>
      <trkpt lat="45.12757" lon="6.3547">
        <ele>2874.2</ele>
        <time>2017-04-16T10:27:04Z</time>
      </trkpt>
      <trkpt lat="45.12758" lon="6.35467">
        <ele>2873</ele>
        <time>2017-04-16T10:27:09Z</time>
      </trkpt>
      <trkpt lat="45.1276" lon="6.35464">
        <ele>2874.2</ele>
        <time>2017-04-16T10:27:14Z</time>
      </trkpt>
      <trkpt lat="45.12761" lon="6.3546">
        <ele>2871</ele>
        <time>2017-04-16T10:27:19Z</time>
      </trkpt>
      <trkpt lat="45.12762" lon="6.35458">
        <ele>2873.2</ele>
        <time>2017-04-16T10:27:24Z</time>
      </trkpt>
      <trkpt lat="45.12764" lon="6.35454">
        <ele>2873.4</ele>
        <time>2017-04-16T10:27:29Z</time>
      </trkpt>
      <trkpt lat="45.12766" lon="6.35449">
        <ele>2875.6</ele>
        <time>2017-04-16T10:27:34Z</time>
      </trkpt>
      <trkpt lat="45.12767" lon="6.35445">
        <ele>2873.4</ele>
        <time>2017-04-16T10:27:39Z</time>
      </trkpt>
      <trkpt lat="45.12768" lon="6.35442">
        <ele>2876.8</ele>
        <time>2017-04-16T10:27:44Z</time>
      </trkpt>
      <trkpt lat="45.12769" lon="6.35439">
        <ele>2876.6</ele>
        <time>2017-04-16T10:27:49Z</time>
      </trkpt>
      <trkpt lat="45.1277" lon="6.35434">
        <ele>2878.6</ele>
        <time>2017-04-16T10:27:54Z</time>
      </trkpt>
      <trkpt lat="45.1277" lon="6.35435">
        <ele>2877.8</ele>
        <time>2017-04-16T10:28:04Z</time>
      </trkpt>
      <trkpt lat="45.12772" lon="6.35434">
        <ele>2876.2</ele>
        <time>2017-04-16T10:28:09Z</time>
      </trkpt>
      <trkpt lat="45.12773" lon="6.35434">
        <ele>2877.2</ele>
        <time>2017-04-16T10:31:39Z</time>
      </trkpt>
      <trkpt lat="45.12775" lon="6.35432">
        <ele>2878.6</ele>
        <time>2017-04-16T10:31:44Z</time>
      </trkpt>
      <trkpt lat="45.12778" lon="6.35432">
        <ele>2878.2</ele>
        <time>2017-04-16T10:31:49Z</time>
      </trkpt>
      <trkpt lat="45.12781" lon="6.3543">
        <ele>2877.6</ele>
        <time>2017-04-16T10:31:54Z</time>
      </trkpt>
      <trkpt lat="45.12784" lon="6.3543">
        <ele>2879.2</ele>
        <time>2017-04-16T10:31:59Z</time>
      </trkpt>
      <trkpt lat="45.12787" lon="6.35429">
        <ele>2880</ele>
        <time>2017-04-16T10:32:04Z</time>
      </trkpt>
      <trkpt lat="45.1279" lon="6.35429">
        <ele>2881.4</ele>
        <time>2017-04-16T10:32:09Z</time>
      </trkpt>
      <trkpt lat="45.12793" lon="6.35429">
        <ele>2881.6</ele>
        <time>2017-04-16T10:32:14Z</time>
      </trkpt>
      <trkpt lat="45.12796" lon="6.3543">
        <ele>2882.2</ele>
        <time>2017-04-16T10:32:19Z</time>
      </trkpt>
      <trkpt lat="45.12799" lon="6.3543">
        <ele>2880.4</ele>
        <time>2017-04-16T10:32:24Z</time>
      </trkpt>
      <trkpt lat="45.12801" lon="6.3543">
        <ele>2883.8</ele>
        <time>2017-04-16T10:32:29Z</time>
      </trkpt>
      <trkpt lat="45.12804" lon="6.3543">
        <ele>2882.8</ele>
        <time>2017-04-16T10:32:34Z</time>
      </trkpt>
      <trkpt lat="45.12806" lon="6.3543">
        <ele>2887</ele>
        <time>2017-04-16T10:32:39Z</time>
      </trkpt>
      <trkpt lat="45.12808" lon="6.35429">
        <ele>2885.8</ele>
        <time>2017-04-16T10:32:44Z</time>
      </trkpt>
      <trkpt lat="45.1281" lon="6.35429">
        <ele>2886.8</ele>
        <time>2017-04-16T10:32:49Z</time>
      </trkpt>
      <trkpt lat="45.12813" lon="6.35428">
        <ele>2887.2</ele>
        <time>2017-04-16T10:32:54Z</time>
      </trkpt>
      <trkpt lat="45.12815" lon="6.35427">
        <ele>2889</ele>
        <time>2017-04-16T10:32:59Z</time>
      </trkpt>
      <trkpt lat="45.12816" lon="6.35427">
        <ele>2887</ele>
        <time>2017-04-16T10:33:04Z</time>
      </trkpt>
      <trkpt lat="45.12819" lon="6.35426">
        <ele>2888.2</ele>
        <time>2017-04-16T10:33:10Z</time>
      </trkpt>
      <trkpt lat="45.12821" lon="6.35425">
        <ele>2889</ele>
        <time>2017-04-16T10:33:15Z</time>
      </trkpt>
      <trkpt lat="45.12822" lon="6.35424">
        <ele>2892.6</ele>
        <time>2017-04-16T10:33:20Z</time>
      </trkpt>
      <trkpt lat="45.12824" lon="6.35423">
        <ele>2892.8</ele>
        <time>2017-04-16T10:33:25Z</time>
      </trkpt>
      <trkpt lat="45.12826" lon="6.35422">
        <ele>2891.8</ele>
        <time>2017-04-16T10:33:30Z</time>
      </trkpt>
      <trkpt lat="45.12829" lon="6.35421">
        <ele>2892.4</ele>
        <time>2017-04-16T10:33:35Z</time>
      </trkpt>
      <trkpt lat="45.12831" lon="6.3542">
        <ele>2893.4</ele>
        <time>2017-04-16T10:33:40Z</time>
      </trkpt>
      <trkpt lat="45.12834" lon="6.35419">
        <ele>2894.2</ele>
        <time>2017-04-16T10:33:45Z</time>
      </trkpt>
      <trkpt lat="45.12836" lon="6.35417">
        <ele>2895.8</ele>
        <time>2017-04-16T10:33:50Z</time>
      </trkpt>
      <trkpt lat="45.12838" lon="6.35416">
        <ele>2894.6</ele>
        <time>2017-04-16T10:33:55Z</time>
      </trkpt>
      <trkpt lat="45.12841" lon="6.35415">
        <ele>2894</ele>
        <time>2017-04-16T10:34:00Z</time>
      </trkpt>
      <trkpt lat="45.12843" lon="6.35413">
        <ele>2896.8</ele>
        <time>2017-04-16T10:34:05Z</time>
      </trkpt>
      <trkpt lat="45.12846" lon="6.35412">
        <ele>2893.8</ele>
        <time>2017-04-16T10:34:10Z</time>
      </trkpt>
      <trkpt lat="45.12848" lon="6.3541">
        <ele>2895.6</ele>
        <time>2017-04-16T10:34:15Z</time>
      </trkpt>
      <trkpt lat="45.1285" lon="6.35409">
        <ele>2897</ele>
        <time>2017-04-16T10:34:20Z</time>
      </trkpt>
      <trkpt lat="45.12852" lon="6.35407">
        <ele>2895</ele>
        <time>2017-04-16T10:34:25Z</time>
      </trkpt>
      <trkpt lat="45.12854" lon="6.35405">
        <ele>2898</ele>
        <time>2017-04-16T10:34:30Z</time>
      </trkpt>
      <trkpt lat="45.12857" lon="6.35403">
        <ele>2900</ele>
        <time>2017-04-16T10:34:35Z</time>
      </trkpt>
      <trkpt lat="45.12859" lon="6.35401">
        <ele>2898.8</ele>
        <time>2017-04-16T10:34:40Z</time>
      </trkpt>
      <trkpt lat="45.12861" lon="6.35399">
        <ele>2901.6</ele>
        <time>2017-04-16T10:34:45Z</time>
      </trkpt>
      <trkpt lat="45.12864" lon="6.35397">
        <ele>2899.8</ele>
        <time>2017-04-16T10:34:50Z</time>
      </trkpt>
      <trkpt lat="45.12866" lon="6.35395">
        <ele>2903.2</ele>
        <time>2017-04-16T10:34:55Z</time>
      </trkpt>
      <trkpt lat="45.12867" lon="6.35394">
        <ele>2906.8</ele>
        <time>2017-04-16T10:35:00Z</time>
      </trkpt>
      <trkpt lat="45.1287" lon="6.35392">
        <ele>2904.6</ele>
        <time>2017-04-16T10:35:05Z</time>
      </trkpt>
      <trkpt lat="45.12871" lon="6.35391">
        <ele>2904.2</ele>
        <time>2017-04-16T10:35:10Z</time>
      </trkpt>
      <trkpt lat="45.12872" lon="6.35389">
        <ele>2903.4</ele>
        <time>2017-04-16T10:35:15Z</time>
      </trkpt>
      <trkpt lat="45.12873" lon="6.35388">
        <ele>2904.4</ele>
        <time>2017-04-16T10:35:20Z</time>
      </trkpt>
      <trkpt lat="45.12875" lon="6.35386">
        <ele>2902.4</ele>
        <time>2017-04-16T10:35:25Z</time>
      </trkpt>
      <trkpt lat="45.12876" lon="6.35384">
        <ele>2905.2</ele>
        <time>2017-04-16T10:35:30Z</time>
      </trkpt>
      <trkpt lat="45.12878" lon="6.35381">
        <ele>2904</ele>
        <time>2017-04-16T10:35:35Z</time>
      </trkpt>
      <trkpt lat="45.12879" lon="6.35379">
        <ele>2909.2</ele>
        <time>2017-04-16T10:35:40Z</time>
      </trkpt>
      <trkpt lat="45.12881" lon="6.35376">
        <ele>2909.4</ele>
        <time>2017-04-16T10:35:45Z</time>
      </trkpt>
      <trkpt lat="45.12882" lon="6.35374">
        <ele>2906</ele>
        <time>2017-04-16T10:35:50Z</time>
      </trkpt>
      <trkpt lat="45.12884" lon="6.35372">
        <ele>2907.4</ele>
        <time>2017-04-16T10:35:55Z</time>
      </trkpt>
      <trkpt lat="45.12885" lon="6.35369">
        <ele>2908</ele>
        <time>2017-04-16T10:36:00Z</time>
      </trkpt>
      <trkpt lat="45.12887" lon="6.35367">
        <ele>2908.8</ele>
        <time>2017-04-16T10:36:05Z</time>
      </trkpt>
      <trkpt lat="45.12888" lon="6.35365">
        <ele>2910</ele>
        <time>2017-04-16T10:36:10Z</time>
      </trkpt>
      <trkpt lat="45.1289" lon="6.35363">
        <ele>2911.2</ele>
        <time>2017-04-16T10:36:15Z</time>
      </trkpt>
      <trkpt lat="45.12891" lon="6.35361">
        <ele>2910.2</ele>
        <time>2017-04-16T10:36:20Z</time>
      </trkpt>
      <trkpt lat="45.12893" lon="6.35359">
        <ele>2911.2</ele>
        <time>2017-04-16T10:36:25Z</time>
      </trkpt>
      <trkpt lat="45.12894" lon="6.35357">
        <ele>2912.6</ele>
        <time>2017-04-16T10:36:30Z</time>
      </trkpt>
      <trkpt lat="45.12896" lon="6.35355">
        <ele>2914.8</ele>
        <time>2017-04-16T10:36:35Z</time>
      </trkpt>
      <trkpt lat="45.12898" lon="6.35352">
        <ele>2913</ele>
        <time>2017-04-16T10:36:40Z</time>
      </trkpt>
      <trkpt lat="45.12899" lon="6.3535">
        <ele>2914</ele>
        <time>2017-04-16T10:36:45Z</time>
      </trkpt>
      <trkpt lat="45.12901" lon="6.35348">
        <ele>2913.8</ele>
        <time>2017-04-16T10:36:50Z</time>
      </trkpt>
      <trkpt lat="45.12902" lon="6.35347">
        <ele>2913.6</ele>
        <time>2017-04-16T10:36:55Z</time>
      </trkpt>
      <trkpt lat="45.12903" lon="6.35345">
        <ele>2913.4</ele>
        <time>2017-04-16T10:37:00Z</time>
      </trkpt>
      <trkpt lat="45.12905" lon="6.35342">
        <ele>2915.8</ele>
        <time>2017-04-16T10:37:05Z</time>
      </trkpt>
      <trkpt lat="45.12906" lon="6.3534">
        <ele>2912.6</ele>
        <time>2017-04-16T10:37:10Z</time>
      </trkpt>
      <trkpt lat="45.12908" lon="6.35338">
        <ele>2917.2</ele>
        <time>2017-04-16T10:37:15Z</time>
      </trkpt>
      <trkpt lat="45.12909" lon="6.35335">
        <ele>2919.6</ele>
        <time>2017-04-16T10:37:20Z</time>
      </trkpt>
      <trkpt lat="45.12911" lon="6.35333">
        <ele>2918</ele>
        <time>2017-04-16T10:37:25Z</time>
      </trkpt>
      <trkpt lat="45.12912" lon="6.35331">
        <ele>2916.2</ele>
        <time>2017-04-16T10:37:30Z</time>
      </trkpt>
      <trkpt lat="45.12914" lon="6.35329">
        <ele>2918.4</ele>
        <time>2017-04-16T10:37:35Z</time>
      </trkpt>
      <trkpt lat="45.12915" lon="6.35327">
        <ele>2920.2</ele>
        <time>2017-04-16T10:37:40Z</time>
      </trkpt>
      <trkpt lat="45.12917" lon="6.35325">
        <ele>2918.4</ele>
        <time>2017-04-16T10:37:45Z</time>
      </trkpt>
      <trkpt lat="45.12918" lon="6.35323">
        <ele>2917.8</ele>
        <time>2017-04-16T10:37:50Z</time>
      </trkpt>
      <trkpt lat="45.1292" lon="6.35321">
        <ele>2919.6</ele>
        <time>2017-04-16T10:37:56Z</time>
      </trkpt>
      <trkpt lat="45.12922" lon="6.35318">
        <ele>2920.4</ele>
        <time>2017-04-16T10:38:01Z</time>
      </trkpt>
      <trkpt lat="45.12923" lon="6.35316">
        <ele>2922</ele>
        <time>2017-04-16T10:38:06Z</time>
      </trkpt>
      <trkpt lat="45.12925" lon="6.35314">
        <ele>2924</ele>
        <time>2017-04-16T10:38:11Z</time>
      </trkpt>
      <trkpt lat="45.12927" lon="6.35312">
        <ele>2924.2</ele>
        <time>2017-04-16T10:38:16Z</time>
      </trkpt>
      <trkpt lat="45.12928" lon="6.3531">
        <ele>2923.8</ele>
        <time>2017-04-16T10:38:21Z</time>
      </trkpt>
      <trkpt lat="45.1293" lon="6.35308">
        <ele>2925</ele>
        <time>2017-04-16T10:38:26Z</time>
      </trkpt>
      <trkpt lat="45.12932" lon="6.35307">
        <ele>2921.2</ele>
        <time>2017-04-16T10:38:31Z</time>
      </trkpt>
      <trkpt lat="45.12933" lon="6.35304">
        <ele>2925.2</ele>
        <time>2017-04-16T10:38:36Z</time>
      </trkpt>
      <trkpt lat="45.12935" lon="6.35303">
        <ele>2928.2</ele>
        <time>2017-04-16T10:38:41Z</time>
      </trkpt>
      <trkpt lat="45.12937" lon="6.353">
        <ele>2929.8</ele>
        <time>2017-04-16T10:38:46Z</time>
      </trkpt>
      <trkpt lat="45.12939" lon="6.35298">
        <ele>2926.4</ele>
        <time>2017-04-16T10:38:51Z</time>
      </trkpt>
      <trkpt lat="45.1294" lon="6.35296">
        <ele>2929</ele>
        <time>2017-04-16T10:38:56Z</time>
      </trkpt>
      <trkpt lat="45.12942" lon="6.35294">
        <ele>2930.2</ele>
        <time>2017-04-16T10:39:01Z</time>
      </trkpt>
      <trkpt lat="45.12944" lon="6.35291">
        <ele>2930.2</ele>
        <time>2017-04-16T10:39:06Z</time>
      </trkpt>
      <trkpt lat="45.12946" lon="6.35289">
        <ele>2933.8</ele>
        <time>2017-04-16T10:39:11Z</time>
      </trkpt>
      <trkpt lat="45.12947" lon="6.35287">
        <ele>2931.2</ele>
        <time>2017-04-16T10:39:16Z</time>
      </trkpt>
      <trkpt lat="45.12949" lon="6.35286">
        <ele>2929.8</ele>
        <time>2017-04-16T10:39:21Z</time>
      </trkpt>
      <trkpt lat="45.12951" lon="6.35284">
        <ele>2929.8</ele>
        <time>2017-04-16T10:39:26Z</time>
      </trkpt>
      <trkpt lat="45.12953" lon="6.35282">
        <ele>2932.8</ele>
        <time>2017-04-16T10:39:31Z</time>
      </trkpt>
      <trkpt lat="45.12954" lon="6.3528">
        <ele>2932.6</ele>
        <time>2017-04-16T10:39:36Z</time>
      </trkpt>
      <trkpt lat="45.12956" lon="6.35278">
        <ele>2932</ele>
        <time>2017-04-16T10:39:41Z</time>
      </trkpt>
      <trkpt lat="45.12958" lon="6.35275">
        <ele>2934</ele>
        <time>2017-04-16T10:39:46Z</time>
      </trkpt>
      <trkpt lat="45.12959" lon="6.35273">
        <ele>2934</ele>
        <time>2017-04-16T10:39:51Z</time>
      </trkpt>
      <trkpt lat="45.12961" lon="6.35271">
        <ele>2933.6</ele>
        <time>2017-04-16T10:39:56Z</time>
      </trkpt>
      <trkpt lat="45.12962" lon="6.35269">
        <ele>2935.2</ele>
        <time>2017-04-16T10:40:01Z</time>
      </trkpt>
      <trkpt lat="45.12962" lon="6.35269">
        <ele>2935.4</ele>
        <time>2017-04-16T10:40:16Z</time>
      </trkpt>
      <trkpt lat="45.12964" lon="6.35267">
        <ele>2935.2</ele>
        <time>2017-04-16T10:40:21Z</time>
      </trkpt>
      <trkpt lat="45.12966" lon="6.35265">
        <ele>2934.2</ele>
        <time>2017-04-16T10:40:26Z</time>
      </trkpt>
      <trkpt lat="45.12967" lon="6.35261">
        <ele>2938.2</ele>
        <time>2017-04-16T10:40:31Z</time>
      </trkpt>
      <trkpt lat="45.12969" lon="6.35258">
        <ele>2937.2</ele>
        <time>2017-04-16T10:40:36Z</time>
      </trkpt>
      <trkpt lat="45.12971" lon="6.35255">
        <ele>2938.4</ele>
        <time>2017-04-16T10:40:41Z</time>
      </trkpt>
      <trkpt lat="45.12972" lon="6.35252">
        <ele>2938.6</ele>
        <time>2017-04-16T10:40:46Z</time>
      </trkpt>
      <trkpt lat="45.12974" lon="6.3525">
        <ele>2939</ele>
        <time>2017-04-16T10:40:51Z</time>
      </trkpt>
      <trkpt lat="45.12975" lon="6.35247">
        <ele>2941.4</ele>
        <time>2017-04-16T10:40:56Z</time>
      </trkpt>
      <trkpt lat="45.12977" lon="6.35245">
        <ele>2941.6</ele>
        <time>2017-04-16T10:41:01Z</time>
      </trkpt>
      <trkpt lat="45.12978" lon="6.35243">
        <ele>2941.2</ele>
        <time>2017-04-16T10:41:06Z</time>
      </trkpt>
      <trkpt lat="45.1298" lon="6.35241">
        <ele>2942.4</ele>
        <time>2017-04-16T10:41:11Z</time>
      </trkpt>
      <trkpt lat="45.12981" lon="6.35239">
        <ele>2943.4</ele>
        <time>2017-04-16T10:41:16Z</time>
      </trkpt>
      <trkpt lat="45.12982" lon="6.35235">
        <ele>2943</ele>
        <time>2017-04-16T10:41:21Z</time>
      </trkpt>
      <trkpt lat="45.12982" lon="6.35231">
        <ele>2943.6</ele>
        <time>2017-04-16T10:41:26Z</time>
      </trkpt>
      <trkpt lat="45.12983" lon="6.35227">
        <ele>2946.6</ele>
        <time>2017-04-16T10:41:31Z</time>
      </trkpt>
      <trkpt lat="45.12984" lon="6.35224">
        <ele>2948</ele>
        <time>2017-04-16T10:41:36Z</time>
      </trkpt>
      <trkpt lat="45.12985" lon="6.35221">
        <ele>2947.2</ele>
        <time>2017-04-16T10:41:41Z</time>
      </trkpt>
      <trkpt lat="45.12985" lon="6.35218">
        <ele>2950.6</ele>
        <time>2017-04-16T10:41:46Z</time>
      </trkpt>
      <trkpt lat="45.12986" lon="6.35215">
        <ele>2951.8</ele>
        <time>2017-04-16T10:41:51Z</time>
      </trkpt>
      <trkpt lat="45.12986" lon="6.35211">
        <ele>2950.4</ele>
        <time>2017-04-16T10:41:56Z</time>
      </trkpt>
      <trkpt lat="45.12986" lon="6.35208">
        <ele>2954.8</ele>
        <time>2017-04-16T10:42:01Z</time>
      </trkpt>
      <trkpt lat="45.12986" lon="6.35204">
        <ele>2951.6</ele>
        <time>2017-04-16T10:42:06Z</time>
      </trkpt>
      <trkpt lat="45.12985" lon="6.35201">
        <ele>2956.6</ele>
        <time>2017-04-16T10:42:11Z</time>
      </trkpt>
      <trkpt lat="45.12985" lon="6.35198">
        <ele>2954.4</ele>
        <time>2017-04-16T10:42:16Z</time>
      </trkpt>
      <trkpt lat="45.12986" lon="6.35197">
        <ele>2952.6</ele>
        <time>2017-04-16T10:43:43Z</time>
      </trkpt>
      <trkpt lat="45.12989" lon="6.35197">
        <ele>2954.4</ele>
        <time>2017-04-16T10:44:13Z</time>
      </trkpt>
      <trkpt lat="45.1299" lon="6.35198">
        <ele>2954.6</ele>
        <time>2017-04-16T10:44:28Z</time>
      </trkpt>
      <trkpt lat="45.12991" lon="6.35198">
        <ele>2953.2</ele>
        <time>2017-04-16T10:44:33Z</time>
      </trkpt>
      <trkpt lat="45.12994" lon="6.35199">
        <ele>2954.6</ele>
        <time>2017-04-16T10:44:38Z</time>
      </trkpt>
      <trkpt lat="45.12996" lon="6.352">
        <ele>2955.4</ele>
        <time>2017-04-16T10:44:43Z</time>
      </trkpt>
      <trkpt lat="45.12999" lon="6.35201">
        <ele>2956.4</ele>
        <time>2017-04-16T10:44:48Z</time>
      </trkpt>
      <trkpt lat="45.13002" lon="6.35201">
        <ele>2958.2</ele>
        <time>2017-04-16T10:44:53Z</time>
      </trkpt>
      <trkpt lat="45.13004" lon="6.35202">
        <ele>2960.4</ele>
        <time>2017-04-16T10:44:58Z</time>
      </trkpt>
      <trkpt lat="45.13007" lon="6.35203">
        <ele>2957.2</ele>
        <time>2017-04-16T10:45:03Z</time>
      </trkpt>
      <trkpt lat="45.13009" lon="6.35204">
        <ele>2960.6</ele>
        <time>2017-04-16T10:45:08Z</time>
      </trkpt>
      <trkpt lat="45.13012" lon="6.35204">
        <ele>2961.2</ele>
        <time>2017-04-16T10:45:13Z</time>
      </trkpt>
      <trkpt lat="45.13014" lon="6.35205">
        <ele>2961</ele>
        <time>2017-04-16T10:45:18Z</time>
      </trkpt>
      <trkpt lat="45.13016" lon="6.35206">
        <ele>2960.4</ele>
        <time>2017-04-16T10:45:23Z</time>
      </trkpt>
      <trkpt lat="45.13018" lon="6.35206">
        <ele>2963.4</ele>
        <time>2017-04-16T10:45:28Z</time>
      </trkpt>
      <trkpt lat="45.13021" lon="6.35207">
        <ele>2965</ele>
        <time>2017-04-16T10:45:33Z</time>
      </trkpt>
      <trkpt lat="45.13023" lon="6.35206">
        <ele>2964.2</ele>
        <time>2017-04-16T10:45:43Z</time>
      </trkpt>
      <trkpt lat="45.13023" lon="6.35203">
        <ele>2963.8</ele>
        <time>2017-04-16T10:45:48Z</time>
      </trkpt>
      <trkpt lat="45.13022" lon="6.352">
        <ele>2965.6</ele>
        <time>2017-04-16T10:45:53Z</time>
      </trkpt>
      <trkpt lat="45.13022" lon="6.35196">
        <ele>2966</ele>
        <time>2017-04-16T10:45:58Z</time>
      </trkpt>
      <trkpt lat="45.1302" lon="6.35192">
        <ele>2968.6</ele>
        <time>2017-04-16T10:46:03Z</time>
      </trkpt>
      <trkpt lat="45.13022" lon="6.35188">
        <ele>2965.8</ele>
        <time>2017-04-16T10:46:13Z</time>
      </trkpt>
      <trkpt lat="45.13022" lon="6.35189">
        <ele>2966.8</ele>
        <time>2017-04-16T10:46:18Z</time>
      </trkpt>
      <trkpt lat="45.13024" lon="6.3519">
        <ele>2966.2</ele>
        <time>2017-04-16T10:46:23Z</time>
      </trkpt>
      <trkpt lat="45.13027" lon="6.35191">
        <ele>2971.8</ele>
        <time>2017-04-16T10:46:28Z</time>
      </trkpt>
      <trkpt lat="45.13029" lon="6.35193">
        <ele>2971</ele>
        <time>2017-04-16T10:46:33Z</time>
      </trkpt>
      <trkpt lat="45.13032" lon="6.35194">
        <ele>2971.6</ele>
        <time>2017-04-16T10:46:38Z</time>
      </trkpt>
      <trkpt lat="45.13034" lon="6.35195">
        <ele>2972.8</ele>
        <time>2017-04-16T10:46:43Z</time>
      </trkpt>
      <trkpt lat="45.13036" lon="6.35196">
        <ele>2973.8</ele>
        <time>2017-04-16T10:46:48Z</time>
      </trkpt>
      <trkpt lat="45.13038" lon="6.35197">
        <ele>2974.8</ele>
        <time>2017-04-16T10:46:53Z</time>
      </trkpt>
      <trkpt lat="45.1304" lon="6.35199">
        <ele>2973.8</ele>
        <time>2017-04-16T10:46:58Z</time>
      </trkpt>
      <trkpt lat="45.13042" lon="6.352">
        <ele>2973.2</ele>
        <time>2017-04-16T10:47:03Z</time>
      </trkpt>
      <trkpt lat="45.13044" lon="6.35202">
        <ele>2971.8</ele>
        <time>2017-04-16T10:47:08Z</time>
      </trkpt>
      <trkpt lat="45.13046" lon="6.35203">
        <ele>2972.8</ele>
        <time>2017-04-16T10:47:13Z</time>
      </trkpt>
      <trkpt lat="45.13048" lon="6.35205">
        <ele>2973.2</ele>
        <time>2017-04-16T10:47:18Z</time>
      </trkpt>
      <trkpt lat="45.1305" lon="6.35208">
        <ele>2972</ele>
        <time>2017-04-16T10:47:23Z</time>
      </trkpt>
      <trkpt lat="45.13052" lon="6.3521">
        <ele>2975.6</ele>
        <time>2017-04-16T10:47:28Z</time>
      </trkpt>
      <trkpt lat="45.13054" lon="6.35212">
        <ele>2975.6</ele>
        <time>2017-04-16T10:47:33Z</time>
      </trkpt>
      <trkpt lat="45.13055" lon="6.35214">
        <ele>2976.2</ele>
        <time>2017-04-16T10:47:38Z</time>
      </trkpt>
      <trkpt lat="45.13058" lon="6.35216">
        <ele>2979.6</ele>
        <time>2017-04-16T10:47:43Z</time>
      </trkpt>
      <trkpt lat="45.13058" lon="6.35217">
        <ele>2978.2</ele>
        <time>2017-04-16T10:47:58Z</time>
      </trkpt>
      <trkpt lat="45.13059" lon="6.35218">
        <ele>2977</ele>
        <time>2017-04-16T10:48:03Z</time>
      </trkpt>
      <trkpt lat="45.1306" lon="6.35221">
        <ele>2977.2</ele>
        <time>2017-04-16T10:48:08Z</time>
      </trkpt>
      <trkpt lat="45.13062" lon="6.35224">
        <ele>2978.4</ele>
        <time>2017-04-16T10:48:13Z</time>
      </trkpt>
      <trkpt lat="45.13063" lon="6.35226">
        <ele>2978.8</ele>
        <time>2017-04-16T10:48:18Z</time>
      </trkpt>
      <trkpt lat="45.13064" lon="6.35227">
        <ele>2978.6</ele>
        <time>2017-04-16T10:48:24Z</time>
      </trkpt>
      <trkpt lat="45.13065" lon="6.3523">
        <ele>2983</ele>
        <time>2017-04-16T10:48:29Z</time>
      </trkpt>
      <trkpt lat="45.13067" lon="6.35233">
        <ele>2978.4</ele>
        <time>2017-04-16T10:48:34Z</time>
      </trkpt>
      <trkpt lat="45.13069" lon="6.35235">
        <ele>2983.8</ele>
        <time>2017-04-16T10:48:44Z</time>
      </trkpt>
      <trkpt lat="45.13071" lon="6.35232">
        <ele>2983.6</ele>
        <time>2017-04-16T10:48:49Z</time>
      </trkpt>
      <trkpt lat="45.13072" lon="6.3523">
        <ele>2984.2</ele>
        <time>2017-04-16T10:48:54Z</time>
      </trkpt>
      <trkpt lat="45.13073" lon="6.35227">
        <ele>2983.8</ele>
        <time>2017-04-16T10:48:59Z</time>
      </trkpt>
      <trkpt lat="45.13075" lon="6.35225">
        <ele>2985.8</ele>
        <time>2017-04-16T10:49:04Z</time>
      </trkpt>
      <trkpt lat="45.13076" lon="6.35222">
        <ele>2984.2</ele>
        <time>2017-04-16T10:49:09Z</time>
      </trkpt>
      <trkpt lat="45.13076" lon="6.35219">
        <ele>2987</ele>
        <time>2017-04-16T10:49:14Z</time>
      </trkpt>
      <trkpt lat="45.13077" lon="6.35216">
        <ele>2987.8</ele>
        <time>2017-04-16T10:49:19Z</time>
      </trkpt>
      <trkpt lat="45.13078" lon="6.35214">
        <ele>2987</ele>
        <time>2017-04-16T10:49:24Z</time>
      </trkpt>
      <trkpt lat="45.1308" lon="6.35211">
        <ele>2986.2</ele>
        <time>2017-04-16T10:49:29Z</time>
      </trkpt>
      <trkpt lat="45.1308" lon="6.35208">
        <ele>2989.8</ele>
        <time>2017-04-16T10:49:34Z</time>
      </trkpt>
      <trkpt lat="45.13081" lon="6.35205">
        <ele>2989.8</ele>
        <time>2017-04-16T10:49:39Z</time>
      </trkpt>
      <trkpt lat="45.13082" lon="6.35202">
        <ele>2989.6</ele>
        <time>2017-04-16T10:49:44Z</time>
      </trkpt>
      <trkpt lat="45.13082" lon="6.352">
        <ele>2989.2</ele>
        <time>2017-04-16T10:49:49Z</time>
      </trkpt>
      <trkpt lat="45.13083" lon="6.35197">
        <ele>2991.6</ele>
        <time>2017-04-16T10:49:54Z</time>
      </trkpt>
      <trkpt lat="45.13083" lon="6.35194">
        <ele>2992.4</ele>
        <time>2017-04-16T10:49:59Z</time>
      </trkpt>
      <trkpt lat="45.13084" lon="6.35191">
        <ele>2991.4</ele>
        <time>2017-04-16T10:50:04Z</time>
      </trkpt>
      <trkpt lat="45.13084" lon="6.35188">
        <ele>2990.8</ele>
        <time>2017-04-16T10:50:09Z</time>
      </trkpt>
      <trkpt lat="45.13084" lon="6.35186">
        <ele>2992.6</ele>
        <time>2017-04-16T10:50:14Z</time>
      </trkpt>
      <trkpt lat="45.13084" lon="6.35183">
        <ele>2994.2</ele>
        <time>2017-04-16T10:50:19Z</time>
      </trkpt>
      <trkpt lat="45.13084" lon="6.3518">
        <ele>2997</ele>
        <time>2017-04-16T10:50:24Z</time>
      </trkpt>
      <trkpt lat="45.13084" lon="6.35177">
        <ele>2997.2</ele>
        <time>2017-04-16T10:50:29Z</time>
      </trkpt>
      <trkpt lat="45.13085" lon="6.35174">
        <ele>2995</ele>
        <time>2017-04-16T10:50:34Z</time>
      </trkpt>
      <trkpt lat="45.13085" lon="6.35171">
        <ele>2994.2</ele>
        <time>2017-04-16T10:50:39Z</time>
      </trkpt>
      <trkpt lat="45.13085" lon="6.35169">
        <ele>2997.4</ele>
        <time>2017-04-16T10:50:44Z</time>
      </trkpt>
      <trkpt lat="45.13085" lon="6.35165">
        <ele>2997.6</ele>
        <time>2017-04-16T10:50:49Z</time>
      </trkpt>
      <trkpt lat="45.13086" lon="6.35162">
        <ele>2996</ele>
        <time>2017-04-16T10:50:54Z</time>
      </trkpt>
      <trkpt lat="45.13086" lon="6.35158">
        <ele>3001.2</ele>
        <time>2017-04-16T10:50:59Z</time>
      </trkpt>
      <trkpt lat="45.13086" lon="6.35157">
        <ele>3000.6</ele>
        <time>2017-04-16T10:51:04Z</time>
      </trkpt>
      <trkpt lat="45.13087" lon="6.35159">
        <ele>3001.8</ele>
        <time>2017-04-16T10:51:09Z</time>
      </trkpt>
      <trkpt lat="45.13089" lon="6.35161">
        <ele>2999.4</ele>
        <time>2017-04-16T10:51:14Z</time>
      </trkpt>
      <trkpt lat="45.13091" lon="6.35163">
        <ele>3001.2</ele>
        <time>2017-04-16T10:51:19Z</time>
      </trkpt>
      <trkpt lat="45.13093" lon="6.35166">
        <ele>3001.6</ele>
        <time>2017-04-16T10:51:24Z</time>
      </trkpt>
      <trkpt lat="45.13095" lon="6.35168">
        <ele>3001</ele>
        <time>2017-04-16T10:51:29Z</time>
      </trkpt>
      <trkpt lat="45.13096" lon="6.35168">
        <ele>3001.8</ele>
        <time>2017-04-16T10:51:39Z</time>
      </trkpt>
      <trkpt lat="45.13097" lon="6.3517">
        <ele>3004.4</ele>
        <time>2017-04-16T10:51:44Z</time>
      </trkpt>
      <trkpt lat="45.13098" lon="6.35172">
        <ele>3005.4</ele>
        <time>2017-04-16T10:51:49Z</time>
      </trkpt>
      <trkpt lat="45.131" lon="6.35174">
        <ele>3003</ele>
        <time>2017-04-16T10:51:54Z</time>
      </trkpt>
      <trkpt lat="45.13102" lon="6.35176">
        <ele>3006.4</ele>
        <time>2017-04-16T10:51:59Z</time>
      </trkpt>
      <trkpt lat="45.13104" lon="6.35179">
        <ele>3003.8</ele>
        <time>2017-04-16T10:52:04Z</time>
      </trkpt>
      <trkpt lat="45.13105" lon="6.3518">
        <ele>3005.4</ele>
        <time>2017-04-16T10:52:09Z</time>
      </trkpt>
      <trkpt lat="45.13107" lon="6.35182">
        <ele>3006.4</ele>
        <time>2017-04-16T10:52:14Z</time>
      </trkpt>
      <trkpt lat="45.13109" lon="6.35184">
        <ele>3008.2</ele>
        <time>2017-04-16T10:52:19Z</time>
      </trkpt>
      <trkpt lat="45.13111" lon="6.35185">
        <ele>3005.8</ele>
        <time>2017-04-16T10:52:24Z</time>
      </trkpt>
      <trkpt lat="45.13113" lon="6.35187">
        <ele>3006.6</ele>
        <time>2017-04-16T10:52:29Z</time>
      </trkpt>
      <trkpt lat="45.13115" lon="6.35189">
        <ele>3006.8</ele>
        <time>2017-04-16T10:52:34Z</time>
      </trkpt>
      <trkpt lat="45.13117" lon="6.3519">
        <ele>3008.8</ele>
        <time>2017-04-16T10:52:39Z</time>
      </trkpt>
      <trkpt lat="45.13119" lon="6.35189">
        <ele>3010.4</ele>
        <time>2017-04-16T10:52:49Z</time>
      </trkpt>
      <trkpt lat="45.13119" lon="6.35186">
        <ele>3012.8</ele>
        <time>2017-04-16T10:52:54Z</time>
      </trkpt>
      <trkpt lat="45.1312" lon="6.35182">
        <ele>3015.2</ele>
        <time>2017-04-16T10:52:59Z</time>
      </trkpt>
      <trkpt lat="45.1312" lon="6.35179">
        <ele>3014</ele>
        <time>2017-04-16T10:53:04Z</time>
      </trkpt>
      <trkpt lat="45.13121" lon="6.35176">
        <ele>3013.6</ele>
        <time>2017-04-16T10:53:09Z</time>
      </trkpt>
      <trkpt lat="45.13121" lon="6.35173">
        <ele>3012.4</ele>
        <time>2017-04-16T10:53:14Z</time>
      </trkpt>
      <trkpt lat="45.13122" lon="6.3517">
        <ele>3013.4</ele>
        <time>2017-04-16T10:53:19Z</time>
      </trkpt>
      <trkpt lat="45.13123" lon="6.35168">
        <ele>3015.2</ele>
        <time>2017-04-16T10:53:24Z</time>
      </trkpt>
      <trkpt lat="45.13123" lon="6.35164">
        <ele>3014.2</ele>
        <time>2017-04-16T10:53:29Z</time>
      </trkpt>
      <trkpt lat="45.13124" lon="6.35161">
        <ele>3019</ele>
        <time>2017-04-16T10:53:34Z</time>
      </trkpt>
      <trkpt lat="45.13124" lon="6.35158">
        <ele>3020.4</ele>
        <time>2017-04-16T10:53:39Z</time>
      </trkpt>
      <trkpt lat="45.13125" lon="6.35155">
        <ele>3020.2</ele>
        <time>2017-04-16T10:53:44Z</time>
      </trkpt>
      <trkpt lat="45.13125" lon="6.35152">
        <ele>3020</ele>
        <time>2017-04-16T10:53:49Z</time>
      </trkpt>
      <trkpt lat="45.13126" lon="6.35149">
        <ele>3021.4</ele>
        <time>2017-04-16T10:53:54Z</time>
      </trkpt>
      <trkpt lat="45.13127" lon="6.35146">
        <ele>3022.2</ele>
        <time>2017-04-16T10:53:59Z</time>
      </trkpt>
      <trkpt lat="45.13128" lon="6.35143">
        <ele>3023.4</ele>
        <time>2017-04-16T10:54:04Z</time>
      </trkpt>
      <trkpt lat="45.13129" lon="6.35141">
        <ele>3022.4</ele>
        <time>2017-04-16T10:54:09Z</time>
      </trkpt>
      <trkpt lat="45.13131" lon="6.35138">
        <ele>3024.6</ele>
        <time>2017-04-16T10:54:14Z</time>
      </trkpt>
      <trkpt lat="45.13132" lon="6.35136">
        <ele>3025.6</ele>
        <time>2017-04-16T10:54:19Z</time>
      </trkpt>
      <trkpt lat="45.13132" lon="6.35136">
        <ele>3023.6</ele>
        <time>2017-04-16T10:54:49Z</time>
      </trkpt>
      <trkpt lat="45.13133" lon="6.35133">
        <ele>3022.2</ele>
        <time>2017-04-16T10:54:54Z</time>
      </trkpt>
      <trkpt lat="45.13138" lon="6.35135">
        <ele>3027.4</ele>
        <time>2017-04-16T10:55:14Z</time>
      </trkpt>
      <trkpt lat="45.13139" lon="6.35138">
        <ele>3027</ele>
        <time>2017-04-16T10:55:19Z</time>
      </trkpt>
      <trkpt lat="45.13141" lon="6.3514">
        <ele>3030.6</ele>
        <time>2017-04-16T10:55:24Z</time>
      </trkpt>
      <trkpt lat="45.13143" lon="6.35143">
        <ele>3030.2</ele>
        <time>2017-04-16T10:55:29Z</time>
      </trkpt>
      <trkpt lat="45.13145" lon="6.35145">
        <ele>3029.8</ele>
        <time>2017-04-16T10:55:34Z</time>
      </trkpt>
      <trkpt lat="45.13146" lon="6.35147">
        <ele>3030.6</ele>
        <time>2017-04-16T10:55:39Z</time>
      </trkpt>
      <trkpt lat="45.13148" lon="6.35149">
        <ele>3029.2</ele>
        <time>2017-04-16T10:55:44Z</time>
      </trkpt>
      <trkpt lat="45.13149" lon="6.35151">
        <ele>3030.6</ele>
        <time>2017-04-16T10:55:49Z</time>
      </trkpt>
      <trkpt lat="45.13151" lon="6.35153">
        <ele>3030.4</ele>
        <time>2017-04-16T10:55:54Z</time>
      </trkpt>
      <trkpt lat="45.13153" lon="6.35156">
        <ele>3031.8</ele>
        <time>2017-04-16T10:55:59Z</time>
      </trkpt>
      <trkpt lat="45.13155" lon="6.35158">
        <ele>3036.2</ele>
        <time>2017-04-16T10:56:04Z</time>
      </trkpt>
      <trkpt lat="45.13157" lon="6.3516">
        <ele>3035.8</ele>
        <time>2017-04-16T10:56:09Z</time>
      </trkpt>
      <trkpt lat="45.13158" lon="6.35163">
        <ele>3034.2</ele>
        <time>2017-04-16T10:56:14Z</time>
      </trkpt>
      <trkpt lat="45.1316" lon="6.35165">
        <ele>3035.2</ele>
        <time>2017-04-16T10:56:19Z</time>
      </trkpt>
      <trkpt lat="45.13161" lon="6.35166">
        <ele>3037.4</ele>
        <time>2017-04-16T10:57:55Z</time>
      </trkpt>
      <trkpt lat="45.13161" lon="6.35164">
        <ele>3037.2</ele>
        <time>2017-04-16T10:58:30Z</time>
      </trkpt>
      <trkpt lat="45.13161" lon="6.35163">
        <ele>3038.8</ele>
        <time>2017-04-16T10:58:35Z</time>
      </trkpt>
      <trkpt lat="45.13161" lon="6.35162">
        <ele>3036.6</ele>
        <time>2017-04-16T10:58:40Z</time>
      </trkpt>
      <trkpt lat="45.13162" lon="6.35158">
        <ele>3039</ele>
        <time>2017-04-16T10:58:45Z</time>
      </trkpt>
      <trkpt lat="45.13163" lon="6.35155">
        <ele>3038.8</ele>
        <time>2017-04-16T10:58:50Z</time>
      </trkpt>
      <trkpt lat="45.13164" lon="6.35151">
        <ele>3042.2</ele>
        <time>2017-04-16T10:58:55Z</time>
      </trkpt>
      <trkpt lat="45.13165" lon="6.35149">
        <ele>3042.6</ele>
        <time>2017-04-16T10:59:00Z</time>
      </trkpt>
      <trkpt lat="45.13166" lon="6.35145">
        <ele>3044</ele>
        <time>2017-04-16T10:59:05Z</time>
      </trkpt>
      <trkpt lat="45.13167" lon="6.35143">
        <ele>3042.2</ele>
        <time>2017-04-16T10:59:10Z</time>
      </trkpt>
      <trkpt lat="45.13167" lon="6.35139">
        <ele>3043.8</ele>
        <time>2017-04-16T10:59:15Z</time>
      </trkpt>
      <trkpt lat="45.13168" lon="6.35136">
        <ele>3044.8</ele>
        <time>2017-04-16T10:59:20Z</time>
      </trkpt>
      <trkpt lat="45.1317" lon="6.35134">
        <ele>3046.8</ele>
        <time>2017-04-16T10:59:30Z</time>
      </trkpt>
      <trkpt lat="45.13171" lon="6.35135">
        <ele>3045.6</ele>
        <time>2017-04-16T10:59:35Z</time>
      </trkpt>
      <trkpt lat="45.13173" lon="6.35136">
        <ele>3043.6</ele>
        <time>2017-04-16T10:59:40Z</time>
      </trkpt>
      <trkpt lat="45.13174" lon="6.35138">
        <ele>3045</ele>
        <time>2017-04-16T10:59:45Z</time>
      </trkpt>
      <trkpt lat="45.13176" lon="6.3514">
        <ele>3047</ele>
        <time>2017-04-16T10:59:50Z</time>
      </trkpt>
      <trkpt lat="45.13178" lon="6.35142">
        <ele>3048</ele>
        <time>2017-04-16T10:59:55Z</time>
      </trkpt>
      <trkpt lat="45.13179" lon="6.35145">
        <ele>3048.4</ele>
        <time>2017-04-16T11:00:00Z</time>
      </trkpt>
      <trkpt lat="45.1318" lon="6.35147">
        <ele>3053.6</ele>
        <time>2017-04-16T11:00:05Z</time>
      </trkpt>
      <trkpt lat="45.13182" lon="6.35149">
        <ele>3052</ele>
        <time>2017-04-16T11:00:10Z</time>
      </trkpt>
      <trkpt lat="45.13183" lon="6.35151">
        <ele>3053</ele>
        <time>2017-04-16T11:00:15Z</time>
      </trkpt>
      <trkpt lat="45.13185" lon="6.35154">
        <ele>3055.4</ele>
        <time>2017-04-16T11:00:20Z</time>
      </trkpt>
      <trkpt lat="45.13186" lon="6.35156">
        <ele>3056.8</ele>
        <time>2017-04-16T11:00:25Z</time>
      </trkpt>
      <trkpt lat="45.13188" lon="6.35158">
        <ele>3056.2</ele>
        <time>2017-04-16T11:00:30Z</time>
      </trkpt>
      <trkpt lat="45.13189" lon="6.3516">
        <ele>3056.8</ele>
        <time>2017-04-16T11:00:35Z</time>
      </trkpt>
      <trkpt lat="45.1319" lon="6.35163">
        <ele>3055</ele>
        <time>2017-04-16T11:00:40Z</time>
      </trkpt>
      <trkpt lat="45.13192" lon="6.35165">
        <ele>3056.4</ele>
        <time>2017-04-16T11:00:45Z</time>
      </trkpt>
      <trkpt lat="45.13193" lon="6.35167">
        <ele>3057.2</ele>
        <time>2017-04-16T11:00:50Z</time>
      </trkpt>
      <trkpt lat="45.13195" lon="6.3517">
        <ele>3052.6</ele>
        <time>2017-04-16T11:00:55Z</time>
      </trkpt>
      <trkpt lat="45.13196" lon="6.35172">
        <ele>3053.2</ele>
        <time>2017-04-16T11:01:00Z</time>
      </trkpt>
      <trkpt lat="45.13198" lon="6.35174">
        <ele>3053.8</ele>
        <time>2017-04-16T11:01:05Z</time>
      </trkpt>
      <trkpt lat="45.13199" lon="6.35176">
        <ele>3056.4</ele>
        <time>2017-04-16T11:01:10Z</time>
      </trkpt>
      <trkpt lat="45.13201" lon="6.35173">
        <ele>3062.6</ele>
        <time>2017-04-16T11:01:30Z</time>
      </trkpt>
      <trkpt lat="45.13202" lon="6.3517">
        <ele>3060.2</ele>
        <time>2017-04-16T11:01:35Z</time>
      </trkpt>
      <trkpt lat="45.13203" lon="6.35167">
        <ele>3062.6</ele>
        <time>2017-04-16T11:01:40Z</time>
      </trkpt>
      <trkpt lat="45.13204" lon="6.35165">
        <ele>3061.2</ele>
        <time>2017-04-16T11:01:45Z</time>
      </trkpt>
      <trkpt lat="45.13205" lon="6.35161">
        <ele>3062.2</ele>
        <time>2017-04-16T11:01:50Z</time>
      </trkpt>
      <trkpt lat="45.13205" lon="6.35158">
        <ele>3064</ele>
        <time>2017-04-16T11:01:55Z</time>
      </trkpt>
      <trkpt lat="45.13206" lon="6.35155">
        <ele>3064.4</ele>
        <time>2017-04-16T11:02:00Z</time>
      </trkpt>
      <trkpt lat="45.13207" lon="6.35152">
        <ele>3065</ele>
        <time>2017-04-16T11:02:05Z</time>
      </trkpt>
      <trkpt lat="45.13207" lon="6.35149">
        <ele>3068.2</ele>
        <time>2017-04-16T11:02:11Z</time>
      </trkpt>
      <trkpt lat="45.13208" lon="6.35146">
        <ele>3066.8</ele>
        <time>2017-04-16T11:02:16Z</time>
      </trkpt>
      <trkpt lat="45.13209" lon="6.35143">
        <ele>3066</ele>
        <time>2017-04-16T11:02:21Z</time>
      </trkpt>
      <trkpt lat="45.1321" lon="6.3514">
        <ele>3068.4</ele>
        <time>2017-04-16T11:02:27Z</time>
      </trkpt>
      <trkpt lat="45.1321" lon="6.35137">
        <ele>3063</ele>
        <time>2017-04-16T11:02:32Z</time>
      </trkpt>
      <trkpt lat="45.13212" lon="6.35136">
        <ele>3066.8</ele>
        <time>2017-04-16T11:03:27Z</time>
      </trkpt>
      <trkpt lat="45.13212" lon="6.35137">
        <ele>3068.4</ele>
        <time>2017-04-16T11:03:32Z</time>
      </trkpt>
      <trkpt lat="45.13212" lon="6.35138">
        <ele>3069.4</ele>
        <time>2017-04-16T11:03:37Z</time>
      </trkpt>
      <trkpt lat="45.13213" lon="6.3514">
        <ele>3069</ele>
        <time>2017-04-16T11:03:42Z</time>
      </trkpt>
      <trkpt lat="45.13215" lon="6.35142">
        <ele>3071.8</ele>
        <time>2017-04-16T11:03:47Z</time>
      </trkpt>
      <trkpt lat="45.13216" lon="6.35145">
        <ele>3071</ele>
        <time>2017-04-16T11:03:52Z</time>
      </trkpt>
      <trkpt lat="45.13218" lon="6.35147">
        <ele>3073.2</ele>
        <time>2017-04-16T11:03:57Z</time>
      </trkpt>
      <trkpt lat="45.13218" lon="6.35148">
        <ele>3073.4</ele>
        <time>2017-04-16T11:04:02Z</time>
      </trkpt>
      <trkpt lat="45.13219" lon="6.35149">
        <ele>3076.2</ele>
        <time>2017-04-16T11:04:07Z</time>
      </trkpt>
      <trkpt lat="45.13221" lon="6.35151">
        <ele>3077.2</ele>
        <time>2017-04-16T11:04:12Z</time>
      </trkpt>
      <trkpt lat="45.13221" lon="6.35152">
        <ele>3076.8</ele>
        <time>2017-04-16T11:04:17Z</time>
      </trkpt>
      <trkpt lat="45.13222" lon="6.35154">
        <ele>3078.8</ele>
        <time>2017-04-16T11:04:22Z</time>
      </trkpt>
      <trkpt lat="45.13224" lon="6.35157">
        <ele>3075.4</ele>
        <time>2017-04-16T11:04:27Z</time>
      </trkpt>
      <trkpt lat="45.13226" lon="6.35159">
        <ele>3078.2</ele>
        <time>2017-04-16T11:04:32Z</time>
      </trkpt>
      <trkpt lat="45.13227" lon="6.35162">
        <ele>3075</ele>
        <time>2017-04-16T11:04:37Z</time>
      </trkpt>
      <trkpt lat="45.13229" lon="6.35165">
        <ele>3078.6</ele>
        <time>2017-04-16T11:04:42Z</time>
      </trkpt>
      <trkpt lat="45.1323" lon="6.35168">
        <ele>3076.6</ele>
        <time>2017-04-16T11:04:47Z</time>
      </trkpt>
      <trkpt lat="45.13232" lon="6.3517">
        <ele>3079</ele>
        <time>2017-04-16T11:04:52Z</time>
      </trkpt>
      <trkpt lat="45.13233" lon="6.35173">
        <ele>3075.6</ele>
        <time>2017-04-16T11:04:57Z</time>
      </trkpt>
      <trkpt lat="45.13235" lon="6.35176">
        <ele>3077.8</ele>
        <time>2017-04-16T11:05:02Z</time>
      </trkpt>
      <trkpt lat="45.13236" lon="6.35179">
        <ele>3080.2</ele>
        <time>2017-04-16T11:05:07Z</time>
      </trkpt>
      <trkpt lat="45.13237" lon="6.35179">
        <ele>3079.8</ele>
        <time>2017-04-16T11:05:12Z</time>
      </trkpt>
      <trkpt lat="45.13238" lon="6.35176">
        <ele>3082.4</ele>
        <time>2017-04-16T11:05:17Z</time>
      </trkpt>
      <trkpt lat="45.13238" lon="6.35173">
        <ele>3082.6</ele>
        <time>2017-04-16T11:05:22Z</time>
      </trkpt>
      <trkpt lat="45.13239" lon="6.3517">
        <ele>3084.2</ele>
        <time>2017-04-16T11:05:27Z</time>
      </trkpt>
      <trkpt lat="45.13239" lon="6.35168">
        <ele>3083.8</ele>
        <time>2017-04-16T11:05:32Z</time>
      </trkpt>
      <trkpt lat="45.1324" lon="6.35164">
        <ele>3087.6</ele>
        <time>2017-04-16T11:05:37Z</time>
      </trkpt>
      <trkpt lat="45.1324" lon="6.35162">
        <ele>3084.8</ele>
        <time>2017-04-16T11:05:42Z</time>
      </trkpt>
      <trkpt lat="45.13241" lon="6.35159">
        <ele>3088.8</ele>
        <time>2017-04-16T11:05:47Z</time>
      </trkpt>
      <trkpt lat="45.13241" lon="6.35157">
        <ele>3088.2</ele>
        <time>2017-04-16T11:05:52Z</time>
      </trkpt>
      <trkpt lat="45.13241" lon="6.35154">
        <ele>3087.4</ele>
        <time>2017-04-16T11:05:57Z</time>
      </trkpt>
      <trkpt lat="45.13242" lon="6.35151">
        <ele>3086.6</ele>
        <time>2017-04-16T11:06:02Z</time>
      </trkpt>
      <trkpt lat="45.13242" lon="6.35148">
        <ele>3086.8</ele>
        <time>2017-04-16T11:06:07Z</time>
      </trkpt>
      <trkpt lat="45.13242" lon="6.35146">
        <ele>3088.2</ele>
        <time>2017-04-16T11:06:12Z</time>
      </trkpt>
      <trkpt lat="45.13242" lon="6.35146">
        <ele>3090.2</ele>
        <time>2017-04-16T11:06:17Z</time>
      </trkpt>
      <trkpt lat="45.13243" lon="6.35147">
        <ele>3093</ele>
        <time>2017-04-16T11:06:22Z</time>
      </trkpt>
      <trkpt lat="45.13245" lon="6.3515">
        <ele>3092.6</ele>
        <time>2017-04-16T11:06:27Z</time>
      </trkpt>
      <trkpt lat="45.13246" lon="6.35152">
        <ele>3091</ele>
        <time>2017-04-16T11:06:32Z</time>
      </trkpt>
      <trkpt lat="45.13248" lon="6.35154">
        <ele>3093</ele>
        <time>2017-04-16T11:06:37Z</time>
      </trkpt>
      <trkpt lat="45.1325" lon="6.35158">
        <ele>3092.6</ele>
        <time>2017-04-16T11:06:43Z</time>
      </trkpt>
      <trkpt lat="45.13251" lon="6.3516">
        <ele>3092.8</ele>
        <time>2017-04-16T11:06:48Z</time>
      </trkpt>
      <trkpt lat="45.13253" lon="6.35163">
        <ele>3091.6</ele>
        <time>2017-04-16T11:06:53Z</time>
      </trkpt>
      <trkpt lat="45.13254" lon="6.35165">
        <ele>3094</ele>
        <time>2017-04-16T11:06:58Z</time>
      </trkpt>
      <trkpt lat="45.13255" lon="6.35168">
        <ele>3094.2</ele>
        <time>2017-04-16T11:07:03Z</time>
      </trkpt>
      <trkpt lat="45.13255" lon="6.35168">
        <ele>3094</ele>
        <time>2017-04-16T11:07:08Z</time>
      </trkpt>
      <trkpt lat="45.13256" lon="6.3517">
        <ele>3096.2</ele>
        <time>2017-04-16T11:07:13Z</time>
      </trkpt>
      <trkpt lat="45.13258" lon="6.35173">
        <ele>3094.4</ele>
        <time>2017-04-16T11:07:18Z</time>
      </trkpt>
      <trkpt lat="45.13259" lon="6.35176">
        <ele>3097</ele>
        <time>2017-04-16T11:07:23Z</time>
      </trkpt>
      <trkpt lat="45.1326" lon="6.35176">
        <ele>3095</ele>
        <time>2017-04-16T11:07:53Z</time>
      </trkpt>
      <trkpt lat="45.1326" lon="6.35175">
        <ele>3094.4</ele>
        <time>2017-04-16T11:07:58Z</time>
      </trkpt>
      <trkpt lat="45.13261" lon="6.35172">
        <ele>3095</ele>
        <time>2017-04-16T11:08:03Z</time>
      </trkpt>
      <trkpt lat="45.13261" lon="6.3517">
        <ele>3096</ele>
        <time>2017-04-16T11:08:38Z</time>
      </trkpt>
      <trkpt lat="45.13261" lon="6.35169">
        <ele>3096</ele>
        <time>2017-04-16T11:08:48Z</time>
      </trkpt>
      <trkpt lat="45.13262" lon="6.35167">
        <ele>3097.4</ele>
        <time>2017-04-16T11:08:53Z</time>
      </trkpt>
      <trkpt lat="45.13263" lon="6.35165">
        <ele>3096</ele>
        <time>2017-04-16T11:08:58Z</time>
      </trkpt>
      <trkpt lat="45.13263" lon="6.35162">
        <ele>3097.6</ele>
        <time>2017-04-16T11:09:03Z</time>
      </trkpt>
      <trkpt lat="45.13264" lon="6.3516">
        <ele>3099.8</ele>
        <time>2017-04-16T11:09:08Z</time>
      </trkpt>
      <trkpt lat="45.13265" lon="6.35157">
        <ele>3100.8</ele>
        <time>2017-04-16T11:09:13Z</time>
      </trkpt>
      <trkpt lat="45.13265" lon="6.35154">
        <ele>3103.6</ele>
        <time>2017-04-16T11:09:18Z</time>
      </trkpt>
      <trkpt lat="45.13266" lon="6.3515">
        <ele>3106.8</ele>
        <time>2017-04-16T11:09:23Z</time>
      </trkpt>
      <trkpt lat="45.13266" lon="6.35147">
        <ele>3106</ele>
        <time>2017-04-16T11:09:28Z</time>
      </trkpt>
      <trkpt lat="45.13266" lon="6.35144">
        <ele>3104.6</ele>
        <time>2017-04-16T11:09:33Z</time>
      </trkpt>
      <trkpt lat="45.13266" lon="6.35141">
        <ele>3103.4</ele>
        <time>2017-04-16T11:09:38Z</time>
      </trkpt>
      <trkpt lat="45.13265" lon="6.35138">
        <ele>3104.8</ele>
        <time>2017-04-16T11:09:43Z</time>
      </trkpt>
      <trkpt lat="45.13265" lon="6.35137">
        <ele>3104.4</ele>
        <time>2017-04-16T11:10:08Z</time>
      </trkpt>
      <trkpt lat="45.13265" lon="6.35136">
        <ele>3106</ele>
        <time>2017-04-16T11:10:13Z</time>
      </trkpt>
      <trkpt lat="45.13266" lon="6.35132">
        <ele>3108.4</ele>
        <time>2017-04-16T11:10:18Z</time>
      </trkpt>
      <trkpt lat="45.13265" lon="6.3513">
        <ele>3107.2</ele>
        <time>2017-04-16T11:10:23Z</time>
      </trkpt>
      <trkpt lat="45.13266" lon="6.35128">
        <ele>3105.8</ele>
        <time>2017-04-16T11:10:48Z</time>
      </trkpt>
      <trkpt lat="45.13266" lon="6.35128">
        <ele>3107.2</ele>
        <time>2017-04-16T11:11:08Z</time>
      </trkpt>
      <trkpt lat="45.13267" lon="6.35128">
        <ele>3109.8</ele>
        <time>2017-04-16T11:11:13Z</time>
      </trkpt>
      <trkpt lat="45.13269" lon="6.3513">
        <ele>3109.4</ele>
        <time>2017-04-16T11:11:18Z</time>
      </trkpt>
      <trkpt lat="45.13271" lon="6.35131">
        <ele>3109.4</ele>
        <time>2017-04-16T11:11:23Z</time>
      </trkpt>
      <trkpt lat="45.13272" lon="6.35133">
        <ele>3109.4</ele>
        <time>2017-04-16T11:11:28Z</time>
      </trkpt>
      <trkpt lat="45.13274" lon="6.35135">
        <ele>3111</ele>
        <time>2017-04-16T11:11:33Z</time>
      </trkpt>
      <trkpt lat="45.13275" lon="6.35136">
        <ele>3110.8</ele>
        <time>2017-04-16T11:11:38Z</time>
      </trkpt>
      <trkpt lat="45.13277" lon="6.3514">
        <ele>3112.6</ele>
        <time>2017-04-16T11:11:44Z</time>
      </trkpt>
      <trkpt lat="45.13279" lon="6.35142">
        <ele>3113.8</ele>
        <time>2017-04-16T11:11:49Z</time>
      </trkpt>
      <trkpt lat="45.1328" lon="6.35144">
        <ele>3114.8</ele>
        <time>2017-04-16T11:11:54Z</time>
      </trkpt>
      <trkpt lat="45.13281" lon="6.35146">
        <ele>3111.8</ele>
        <time>2017-04-16T11:11:59Z</time>
      </trkpt>
      <trkpt lat="45.13282" lon="6.35147">
        <ele>3112.6</ele>
        <time>2017-04-16T11:12:09Z</time>
      </trkpt>
      <trkpt lat="45.13281" lon="6.35147">
        <ele>3113.6</ele>
        <time>2017-04-16T11:13:24Z</time>
      </trkpt>
      <trkpt lat="45.13282" lon="6.35145">
        <ele>3114.2</ele>
        <time>2017-04-16T11:14:14Z</time>
      </trkpt>
      <trkpt lat="45.13283" lon="6.35142">
        <ele>3113.6</ele>
        <time>2017-04-16T11:14:19Z</time>
      </trkpt>
      <trkpt lat="45.13283" lon="6.35139">
        <ele>3113</ele>
        <time>2017-04-16T11:14:24Z</time>
      </trkpt>
      <trkpt lat="45.13284" lon="6.35138">
        <ele>3114.4</ele>
        <time>2017-04-16T11:14:34Z</time>
      </trkpt>
      <trkpt lat="45.13284" lon="6.35136">
        <ele>3114.2</ele>
        <time>2017-04-16T11:14:39Z</time>
      </trkpt>
      <trkpt lat="45.13284" lon="6.35133">
        <ele>3115.6</ele>
        <time>2017-04-16T11:14:44Z</time>
      </trkpt>
      <trkpt lat="45.13284" lon="6.3513">
        <ele>3119.2</ele>
        <time>2017-04-16T11:14:49Z</time>
      </trkpt>
      <trkpt lat="45.13286" lon="6.35128">
        <ele>3113</ele>
        <time>2017-04-16T11:15:14Z</time>
      </trkpt>
      <trkpt lat="45.13286" lon="6.35129">
        <ele>3114.6</ele>
        <time>2017-04-16T11:15:19Z</time>
      </trkpt>
      <trkpt lat="45.13286" lon="6.35129">
        <ele>3118.2</ele>
        <time>2017-04-16T11:15:49Z</time>
      </trkpt>
      <trkpt lat="45.13285" lon="6.3513">
        <ele>3119.6</ele>
        <time>2017-04-16T11:16:35Z</time>
      </trkpt>
      <trkpt lat="45.13285" lon="6.35131">
        <ele>3119.2</ele>
        <time>2017-04-16T11:16:40Z</time>
      </trkpt>
      <trkpt lat="45.13287" lon="6.35126">
        <ele>3119.2</ele>
        <time>2017-04-16T11:17:15Z</time>
      </trkpt>
      <trkpt lat="45.13287" lon="6.35125">
        <ele>3119</ele>
        <time>2017-04-16T11:17:20Z</time>
      </trkpt>
      <trkpt lat="45.13287" lon="6.35122">
        <ele>3118.4</ele>
        <time>2017-04-16T11:17:25Z</time>
      </trkpt>
      <trkpt lat="45.13288" lon="6.3512">
        <ele>3119.8</ele>
        <time>2017-04-16T11:17:30Z</time>
      </trkpt>
      <trkpt lat="45.13288" lon="6.35117">
        <ele>3120.2</ele>
        <time>2017-04-16T11:17:35Z</time>
      </trkpt>
      <trkpt lat="45.13287" lon="6.35114">
        <ele>3123.8</ele>
        <time>2017-04-16T11:17:40Z</time>
      </trkpt>
      <trkpt lat="45.13287" lon="6.35111">
        <ele>3122.6</ele>
        <time>2017-04-16T11:17:45Z</time>
      </trkpt>
      <trkpt lat="45.13287" lon="6.35107">
        <ele>3125.4</ele>
        <time>2017-04-16T11:17:50Z</time>
      </trkpt>
      <trkpt lat="45.13287" lon="6.35104">
        <ele>3125.8</ele>
        <time>2017-04-16T11:17:55Z</time>
      </trkpt>
      <trkpt lat="45.13287" lon="6.351">
        <ele>3125</ele>
        <time>2017-04-16T11:18:00Z</time>
      </trkpt>
      <trkpt lat="45.13287" lon="6.35097">
        <ele>3124</ele>
        <time>2017-04-16T11:18:05Z</time>
      </trkpt>
      <trkpt lat="45.13288" lon="6.35095">
        <ele>3128.8</ele>
        <time>2017-04-16T11:18:10Z</time>
      </trkpt>
      <trkpt lat="45.13289" lon="6.35096">
        <ele>3128</ele>
        <time>2017-04-16T11:18:15Z</time>
      </trkpt>
      <trkpt lat="45.13291" lon="6.35097">
        <ele>3124.2</ele>
        <time>2017-04-16T11:18:20Z</time>
      </trkpt>
      <trkpt lat="45.13292" lon="6.35099">
        <ele>3130.8</ele>
        <time>2017-04-16T11:18:25Z</time>
      </trkpt>
      <trkpt lat="45.13295" lon="6.35101">
        <ele>3125.8</ele>
        <time>2017-04-16T11:18:30Z</time>
      </trkpt>
      <trkpt lat="45.13297" lon="6.35103">
        <ele>3129</ele>
        <time>2017-04-16T11:18:35Z</time>
      </trkpt>
      <trkpt lat="45.133" lon="6.35106">
        <ele>3130.6</ele>
        <time>2017-04-16T11:18:40Z</time>
      </trkpt>
      <trkpt lat="45.13302" lon="6.35109">
        <ele>3130</ele>
        <time>2017-04-16T11:18:45Z</time>
      </trkpt>
      <trkpt lat="45.13304" lon="6.35113">
        <ele>3130.6</ele>
        <time>2017-04-16T11:18:50Z</time>
      </trkpt>
      <trkpt lat="45.13306" lon="6.35121">
        <ele>3129.6</ele>
        <time>2017-04-16T11:26:46Z</time>
      </trkpt>
      <trkpt lat="45.13305" lon="6.35118">
        <ele>3129.6</ele>
        <time>2017-04-16T11:31:26Z</time>
      </trkpt>
      <trkpt lat="45.13303" lon="6.35111">
        <ele>3131</ele>
        <time>2017-04-16T11:32:02Z</time>
      </trkpt>
      <trkpt lat="45.13302" lon="6.35109">
        <ele>3128</ele>
        <time>2017-04-16T11:32:07Z</time>
      </trkpt>
      <trkpt lat="45.13302" lon="6.35109">
        <ele>3129.4</ele>
        <time>2017-04-16T11:32:22Z</time>
      </trkpt>
      <trkpt lat="45.13299" lon="6.35109">
        <ele>3128.6</ele>
        <time>2017-04-16T11:32:27Z</time>
      </trkpt>
      <trkpt lat="45.13296" lon="6.35105">
        <ele>3129.6</ele>
        <time>2017-04-16T11:32:32Z</time>
      </trkpt>
      <trkpt lat="45.13291" lon="6.3511">
        <ele>3126</ele>
        <time>2017-04-16T11:32:42Z</time>
      </trkpt>
      <trkpt lat="45.1329" lon="6.35123">
        <ele>3120.2</ele>
        <time>2017-04-16T11:32:47Z</time>
      </trkpt>
      <trkpt lat="45.13288" lon="6.35128">
        <ele>3120</ele>
        <time>2017-04-16T11:32:52Z</time>
      </trkpt>
      <trkpt lat="45.13286" lon="6.35129">
        <ele>3121.4</ele>
        <time>2017-04-16T11:32:57Z</time>
      </trkpt>
      <trkpt lat="45.13284" lon="6.35135">
        <ele>3117.2</ele>
        <time>2017-04-16T11:33:02Z</time>
      </trkpt>
      <trkpt lat="45.13278" lon="6.35141">
        <ele>3112.4</ele>
        <time>2017-04-16T11:33:52Z</time>
      </trkpt>
      <trkpt lat="45.1325" lon="6.35172">
        <ele>3091.4</ele>
        <time>2017-04-16T11:34:12Z</time>
      </trkpt>
      <trkpt lat="45.13225" lon="6.35207">
        <ele>3076</ele>
        <time>2017-04-16T11:35:32Z</time>
      </trkpt>
      <trkpt lat="45.13206" lon="6.35217">
        <ele>3064.8</ele>
        <time>2017-04-16T11:35:37Z</time>
      </trkpt>
      <trkpt lat="45.13188" lon="6.35248">
        <ele>3052.4</ele>
        <time>2017-04-16T11:35:42Z</time>
      </trkpt>
      <trkpt lat="45.1317" lon="6.35255">
        <ele>3045.2</ele>
        <time>2017-04-16T11:35:47Z</time>
      </trkpt>
      <trkpt lat="45.13141" lon="6.35236">
        <ele>3034.6</ele>
        <time>2017-04-16T11:35:53Z</time>
      </trkpt>
      <trkpt lat="45.13123" lon="6.35241">
        <ele>3024.6</ele>
        <time>2017-04-16T11:35:58Z</time>
      </trkpt>
      <trkpt lat="45.13107" lon="6.35274">
        <ele>3019.4</ele>
        <time>2017-04-16T11:36:03Z</time>
      </trkpt>
      <trkpt lat="45.13085" lon="6.35268">
        <ele>3008</ele>
        <time>2017-04-16T11:36:09Z</time>
      </trkpt>
      <trkpt lat="45.13058" lon="6.35258">
        <ele>2988.4</ele>
        <time>2017-04-16T11:36:14Z</time>
      </trkpt>
      <trkpt lat="45.13039" lon="6.35259">
        <ele>2973.4</ele>
        <time>2017-04-16T11:36:49Z</time>
      </trkpt>
      <trkpt lat="45.13039" lon="6.35258">
        <ele>2969</ele>
        <time>2017-04-16T11:37:04Z</time>
      </trkpt>
      <trkpt lat="45.13036" lon="6.35263">
        <ele>2970.2</ele>
        <time>2017-04-16T11:37:09Z</time>
      </trkpt>
      <trkpt lat="45.13016" lon="6.35266">
        <ele>2958</ele>
        <time>2017-04-16T11:37:14Z</time>
      </trkpt>
      <trkpt lat="45.12988" lon="6.35273">
        <ele>2947.2</ele>
        <time>2017-04-16T11:37:19Z</time>
      </trkpt>
      <trkpt lat="45.12962" lon="6.35287">
        <ele>2939.2</ele>
        <time>2017-04-16T11:37:24Z</time>
      </trkpt>
      <trkpt lat="45.12943" lon="6.35257">
        <ele>2932.8</ele>
        <time>2017-04-16T11:37:29Z</time>
      </trkpt>
      <trkpt lat="45.12917" lon="6.35253">
        <ele>2923.6</ele>
        <time>2017-04-16T11:37:34Z</time>
      </trkpt>
      <trkpt lat="45.12888" lon="6.35263">
        <ele>2913.6</ele>
        <time>2017-04-16T11:37:39Z</time>
      </trkpt>
      <trkpt lat="45.1286" lon="6.35254">
        <ele>2906.2</ele>
        <time>2017-04-16T11:37:44Z</time>
      </trkpt>
      <trkpt lat="45.12843" lon="6.35283">
        <ele>2896.4</ele>
        <time>2017-04-16T11:37:49Z</time>
      </trkpt>
      <trkpt lat="45.12812" lon="6.35286">
        <ele>2896.2</ele>
        <time>2017-04-16T11:37:54Z</time>
      </trkpt>
      <trkpt lat="45.12805" lon="6.35287">
        <ele>2896.6</ele>
        <time>2017-04-16T11:37:59Z</time>
      </trkpt>
      <trkpt lat="45.12805" lon="6.35287">
        <ele>2897.4</ele>
        <time>2017-04-16T11:38:19Z</time>
      </trkpt>
      <trkpt lat="45.12804" lon="6.35288">
        <ele>2894.4</ele>
        <time>2017-04-16T11:38:24Z</time>
      </trkpt>
      <trkpt lat="45.1279" lon="6.35299">
        <ele>2890.2</ele>
        <time>2017-04-16T11:38:29Z</time>
      </trkpt>
      <trkpt lat="45.12776" lon="6.35315">
        <ele>2887.2</ele>
        <time>2017-04-16T11:38:34Z</time>
      </trkpt>
      <trkpt lat="45.12762" lon="6.35326">
        <ele>2882.4</ele>
        <time>2017-04-16T11:38:39Z</time>
      </trkpt>
      <trkpt lat="45.12752" lon="6.35351">
        <ele>2881</ele>
        <time>2017-04-16T11:38:44Z</time>
      </trkpt>
      <trkpt lat="45.12749" lon="6.35358">
        <ele>2876.4</ele>
        <time>2017-04-16T11:38:49Z</time>
      </trkpt>
      <trkpt lat="45.12735" lon="6.35381">
        <ele>2868.8</ele>
        <time>2017-04-16T11:39:34Z</time>
      </trkpt>
      <trkpt lat="45.12737" lon="6.35401">
        <ele>2864.4</ele>
        <time>2017-04-16T11:39:39Z</time>
      </trkpt>
      <trkpt lat="45.12739" lon="6.35411">
        <ele>2862.2</ele>
        <time>2017-04-16T11:39:44Z</time>
      </trkpt>
      <trkpt lat="45.12741" lon="6.35438">
        <ele>2859</ele>
        <time>2017-04-16T11:39:49Z</time>
      </trkpt>
      <trkpt lat="45.12738" lon="6.35468">
        <ele>2860.4</ele>
        <time>2017-04-16T11:39:54Z</time>
      </trkpt>
      <trkpt lat="45.12736" lon="6.35476">
        <ele>2858.6</ele>
        <time>2017-04-16T11:39:59Z</time>
      </trkpt>
      <trkpt lat="45.12736" lon="6.35476">
        <ele>2857.4</ele>
        <time>2017-04-16T11:40:24Z</time>
      </trkpt>
      <trkpt lat="45.12716" lon="6.35486">
        <ele>2847.4</ele>
        <time>2017-04-16T11:40:34Z</time>
      </trkpt>
      <trkpt lat="45.12697" lon="6.35524">
        <ele>2842</ele>
        <time>2017-04-16T11:40:39Z</time>
      </trkpt>
      <trkpt lat="45.12677" lon="6.35518">
        <ele>2832.2</ele>
        <time>2017-04-16T11:40:44Z</time>
      </trkpt>
      <trkpt lat="45.12651" lon="6.35525">
        <ele>2817.8</ele>
        <time>2017-04-16T11:40:49Z</time>
      </trkpt>
      <trkpt lat="45.12624" lon="6.35531">
        <ele>2802.2</ele>
        <time>2017-04-16T11:40:54Z</time>
      </trkpt>
      <trkpt lat="45.12603" lon="6.35558">
        <ele>2793</ele>
        <time>2017-04-16T11:40:59Z</time>
      </trkpt>
      <trkpt lat="45.1258" lon="6.3559">
        <ele>2785.2</ele>
        <time>2017-04-16T11:41:04Z</time>
      </trkpt>
      <trkpt lat="45.12562" lon="6.35633">
        <ele>2781.6</ele>
        <time>2017-04-16T11:41:09Z</time>
      </trkpt>
      <trkpt lat="45.12547" lon="6.35643">
        <ele>2777.2</ele>
        <time>2017-04-16T11:41:14Z</time>
      </trkpt>
      <trkpt lat="45.12522" lon="6.35658">
        <ele>2772.6</ele>
        <time>2017-04-16T11:41:19Z</time>
      </trkpt>
      <trkpt lat="45.12502" lon="6.35689">
        <ele>2770.4</ele>
        <time>2017-04-16T11:41:24Z</time>
      </trkpt>
      <trkpt lat="45.12486" lon="6.35692">
        <ele>2763</ele>
        <time>2017-04-16T11:41:29Z</time>
      </trkpt>
      <trkpt lat="45.12459" lon="6.35686">
        <ele>2747.6</ele>
        <time>2017-04-16T11:41:34Z</time>
      </trkpt>
      <trkpt lat="45.12436" lon="6.35709">
        <ele>2741.6</ele>
        <time>2017-04-16T11:41:39Z</time>
      </trkpt>
      <trkpt lat="45.12411" lon="6.35729">
        <ele>2731.2</ele>
        <time>2017-04-16T11:41:44Z</time>
      </trkpt>
      <trkpt lat="45.12405" lon="6.35741">
        <ele>2725.6</ele>
        <time>2017-04-16T11:42:14Z</time>
      </trkpt>
      <trkpt lat="45.12403" lon="6.35745">
        <ele>2721.4</ele>
        <time>2017-04-16T11:42:24Z</time>
      </trkpt>
      <trkpt lat="45.1239" lon="6.35758">
        <ele>2713.8</ele>
        <time>2017-04-16T11:42:29Z</time>
      </trkpt>
      <trkpt lat="45.12367" lon="6.35759">
        <ele>2708.8</ele>
        <time>2017-04-16T11:42:34Z</time>
      </trkpt>
      <trkpt lat="45.12343" lon="6.35765">
        <ele>2699.2</ele>
        <time>2017-04-16T11:42:39Z</time>
      </trkpt>
      <trkpt lat="45.12331" lon="6.35797">
        <ele>2694.8</ele>
        <time>2017-04-16T11:42:44Z</time>
      </trkpt>
      <trkpt lat="45.12316" lon="6.35818">
        <ele>2687</ele>
        <time>2017-04-16T11:42:49Z</time>
      </trkpt>
      <trkpt lat="45.12303" lon="6.35842">
        <ele>2675.2</ele>
        <time>2017-04-16T11:42:54Z</time>
      </trkpt>
      <trkpt lat="45.12287" lon="6.35876">
        <ele>2669.4</ele>
        <time>2017-04-16T11:42:59Z</time>
      </trkpt>
      <trkpt lat="45.12272" lon="6.35881">
        <ele>2668.6</ele>
        <time>2017-04-16T11:43:04Z</time>
      </trkpt>
      <trkpt lat="45.12271" lon="6.3588">
        <ele>2668</ele>
        <time>2017-04-16T11:43:09Z</time>
      </trkpt>
      <trkpt lat="45.12271" lon="6.3588">
        <ele>2668</ele>
        <time>2017-04-16T11:43:14Z</time>
      </trkpt>
      <trkpt lat="45.12268" lon="6.35868">
        <ele>2667</ele>
        <time>2017-04-16T11:43:19Z</time>
      </trkpt>
      <trkpt lat="45.12248" lon="6.35865">
        <ele>2660</ele>
        <time>2017-04-16T11:43:24Z</time>
      </trkpt>
      <trkpt lat="45.12228" lon="6.35854">
        <ele>2652.8</ele>
        <time>2017-04-16T11:43:29Z</time>
      </trkpt>
      <trkpt lat="45.12211" lon="6.35877">
        <ele>2640.4</ele>
        <time>2017-04-16T11:43:34Z</time>
      </trkpt>
      <trkpt lat="45.12202" lon="6.35908">
        <ele>2631.2</ele>
        <time>2017-04-16T11:43:39Z</time>
      </trkpt>
      <trkpt lat="45.12196" lon="6.35947">
        <ele>2624.4</ele>
        <time>2017-04-16T11:43:44Z</time>
      </trkpt>
      <trkpt lat="45.1218" lon="6.35972">
        <ele>2611</ele>
        <time>2017-04-16T11:43:49Z</time>
      </trkpt>
      <trkpt lat="45.12163" lon="6.35982">
        <ele>2604.4</ele>
        <time>2017-04-16T11:43:54Z</time>
      </trkpt>
      <trkpt lat="45.12158" lon="6.36005">
        <ele>2600.4</ele>
        <time>2017-04-16T11:44:09Z</time>
      </trkpt>
      <trkpt lat="45.12149" lon="6.35994">
        <ele>2602.4</ele>
        <time>2017-04-16T11:44:14Z</time>
      </trkpt>
      <trkpt lat="45.12133" lon="6.35955">
        <ele>2593.8</ele>
        <time>2017-04-16T11:44:19Z</time>
      </trkpt>
      <trkpt lat="45.12129" lon="6.35934">
        <ele>2594.6</ele>
        <time>2017-04-16T11:44:24Z</time>
      </trkpt>
      <trkpt lat="45.1213" lon="6.35932">
        <ele>2593</ele>
        <time>2017-04-16T11:44:29Z</time>
      </trkpt>
      <trkpt lat="45.1213" lon="6.35932">
        <ele>2589.2</ele>
        <time>2017-04-16T11:44:54Z</time>
      </trkpt>
      <trkpt lat="45.12128" lon="6.35936">
        <ele>2588.4</ele>
        <time>2017-04-16T11:44:59Z</time>
      </trkpt>
      <trkpt lat="45.12128" lon="6.3594">
        <ele>2588.4</ele>
        <time>2017-04-16T11:45:04Z</time>
      </trkpt>
      <trkpt lat="45.12128" lon="6.35944">
        <ele>2583.2</ele>
        <time>2017-04-16T11:45:09Z</time>
      </trkpt>
      <trkpt lat="45.12127" lon="6.35968">
        <ele>2581.8</ele>
        <time>2017-04-16T11:45:14Z</time>
      </trkpt>
      <trkpt lat="45.12126" lon="6.36009">
        <ele>2578.2</ele>
        <time>2017-04-16T11:45:19Z</time>
      </trkpt>
      <trkpt lat="45.12125" lon="6.36045">
        <ele>2576</ele>
        <time>2017-04-16T11:45:24Z</time>
      </trkpt>
      <trkpt lat="45.12129" lon="6.36067">
        <ele>2575.2</ele>
        <time>2017-04-16T11:45:29Z</time>
      </trkpt>
      <trkpt lat="45.12133" lon="6.36093">
        <ele>2573.4</ele>
        <time>2017-04-16T11:45:34Z</time>
      </trkpt>
      <trkpt lat="45.12131" lon="6.36125">
        <ele>2573.8</ele>
        <time>2017-04-16T11:45:39Z</time>
      </trkpt>
      <trkpt lat="45.12125" lon="6.36153">
        <ele>2569.6</ele>
        <time>2017-04-16T11:45:44Z</time>
      </trkpt>
      <trkpt lat="45.12108" lon="6.3615">
        <ele>2560.8</ele>
        <time>2017-04-16T11:45:49Z</time>
      </trkpt>
      <trkpt lat="45.12092" lon="6.36163">
        <ele>2554.2</ele>
        <time>2017-04-16T11:46:04Z</time>
      </trkpt>
      <trkpt lat="45.12088" lon="6.36164">
        <ele>2549.4</ele>
        <time>2017-04-16T11:46:14Z</time>
      </trkpt>
      <trkpt lat="45.12084" lon="6.36167">
        <ele>2549.2</ele>
        <time>2017-04-16T11:46:19Z</time>
      </trkpt>
      <trkpt lat="45.12083" lon="6.3617">
        <ele>2549.8</ele>
        <time>2017-04-16T11:46:24Z</time>
      </trkpt>
      <trkpt lat="45.12081" lon="6.36179">
        <ele>2542.6</ele>
        <time>2017-04-16T11:47:59Z</time>
      </trkpt>
      <trkpt lat="45.12079" lon="6.36182">
        <ele>2542</ele>
        <time>2017-04-16T11:48:04Z</time>
      </trkpt>
      <trkpt lat="45.12079" lon="6.36182">
        <ele>2541</ele>
        <time>2017-04-16T11:48:10Z</time>
      </trkpt>
      <trkpt lat="45.12063" lon="6.36216">
        <ele>2533.6</ele>
        <time>2017-04-16T11:48:20Z</time>
      </trkpt>
      <trkpt lat="45.12051" lon="6.36223">
        <ele>2524.8</ele>
        <time>2017-04-16T11:48:25Z</time>
      </trkpt>
      <trkpt lat="45.12039" lon="6.36237">
        <ele>2514</ele>
        <time>2017-04-16T11:48:30Z</time>
      </trkpt>
      <trkpt lat="45.12027" lon="6.36245">
        <ele>2510.2</ele>
        <time>2017-04-16T11:48:35Z</time>
      </trkpt>
      <trkpt lat="45.12024" lon="6.36247">
        <ele>2508</ele>
        <time>2017-04-16T11:48:40Z</time>
      </trkpt>
      <trkpt lat="45.12024" lon="6.36247">
        <ele>2510.8</ele>
        <time>2017-04-16T11:48:50Z</time>
      </trkpt>
      <trkpt lat="45.12008" lon="6.36262">
        <ele>2498.6</ele>
        <time>2017-04-16T11:49:00Z</time>
      </trkpt>
      <trkpt lat="45.12002" lon="6.36297">
        <ele>2494</ele>
        <time>2017-04-16T11:49:05Z</time>
      </trkpt>
      <trkpt lat="45.11983" lon="6.36306">
        <ele>2483.4</ele>
        <time>2017-04-16T11:49:10Z</time>
      </trkpt>
      <trkpt lat="45.11975" lon="6.36348">
        <ele>2480</ele>
        <time>2017-04-16T11:49:15Z</time>
      </trkpt>
      <trkpt lat="45.11957" lon="6.36372">
        <ele>2468.6</ele>
        <time>2017-04-16T11:49:20Z</time>
      </trkpt>
      <trkpt lat="45.11953" lon="6.36386">
        <ele>2465.6</ele>
        <time>2017-04-16T11:49:35Z</time>
      </trkpt>
      <trkpt lat="45.11951" lon="6.36387">
        <ele>2456.8</ele>
        <time>2017-04-16T11:49:45Z</time>
      </trkpt>
      <trkpt lat="45.11941" lon="6.36395">
        <ele>2448</ele>
        <time>2017-04-16T11:50:00Z</time>
      </trkpt>
      <trkpt lat="45.11937" lon="6.36394">
        <ele>2441.2</ele>
        <time>2017-04-16T11:50:05Z</time>
      </trkpt>
      <trkpt lat="45.11931" lon="6.36407">
        <ele>2437</ele>
        <time>2017-04-16T11:50:10Z</time>
      </trkpt>
      <trkpt lat="45.11927" lon="6.36412">
        <ele>2431.4</ele>
        <time>2017-04-16T11:50:15Z</time>
      </trkpt>
      <trkpt lat="45.11925" lon="6.36415">
        <ele>2428.2</ele>
        <time>2017-04-16T11:50:25Z</time>
      </trkpt>
      <trkpt lat="45.11923" lon="6.36415">
        <ele>2426</ele>
        <time>2017-04-16T11:50:30Z</time>
      </trkpt>
      <trkpt lat="45.11918" lon="6.36421">
        <ele>2416.2</ele>
        <time>2017-04-16T11:50:50Z</time>
      </trkpt>
      <trkpt lat="45.11916" lon="6.36422">
        <ele>2406</ele>
        <time>2017-04-16T11:51:30Z</time>
      </trkpt>
      <trkpt lat="45.11917" lon="6.36421">
        <ele>2400.8</ele>
        <time>2017-04-16T11:52:30Z</time>
      </trkpt>
      <trkpt lat="45.11917" lon="6.36421">
        <ele>2402.4</ele>
        <time>2017-04-16T11:52:35Z</time>
      </trkpt>
      <trkpt lat="45.11918" lon="6.3642">
        <ele>2399.4</ele>
        <time>2017-04-16T11:53:00Z</time>
      </trkpt>
      <trkpt lat="45.11918" lon="6.36419">
        <ele>2395.6</ele>
        <time>2017-04-16T11:53:35Z</time>
      </trkpt>
      <trkpt lat="45.11919" lon="6.36422">
        <ele>2395</ele>
        <time>2017-04-16T11:54:20Z</time>
      </trkpt>
      <trkpt lat="45.11919" lon="6.36424">
        <ele>2395</ele>
        <time>2017-04-16T11:54:25Z</time>
      </trkpt>
      <trkpt lat="45.11919" lon="6.36426">
        <ele>2394.8</ele>
        <time>2017-04-16T11:54:30Z</time>
      </trkpt>
      <trkpt lat="45.11918" lon="6.36428">
        <ele>2394.8</ele>
        <time>2017-04-16T11:54:35Z</time>
      </trkpt>
      <trkpt lat="45.11918" lon="6.36429">
        <ele>2395.2</ele>
        <time>2017-04-16T11:54:40Z</time>
      </trkpt>
      <trkpt lat="45.11916" lon="6.36431">
        <ele>2394.8</ele>
        <time>2017-04-16T11:54:45Z</time>
      </trkpt>
      <trkpt lat="45.11916" lon="6.36432">
        <ele>2395.6</ele>
        <time>2017-04-16T11:54:50Z</time>
      </trkpt>
      <trkpt lat="45.11915" lon="6.36435">
        <ele>2396.2</ele>
        <time>2017-04-16T11:54:55Z</time>
      </trkpt>
      <trkpt lat="45.11914" lon="6.36437">
        <ele>2399.2</ele>
        <time>2017-04-16T11:55:00Z</time>
      </trkpt>
      <trkpt lat="45.11914" lon="6.36437">
        <ele>2399.4</ele>
        <time>2017-04-16T11:55:10Z</time>
      </trkpt>
      <trkpt lat="45.11914" lon="6.36439">
        <ele>2399.8</ele>
        <time>2017-04-16T11:55:15Z</time>
      </trkpt>
      <trkpt lat="45.11914" lon="6.3644">
        <ele>2402.6</ele>
        <time>2017-04-16T11:55:40Z</time>
      </trkpt>
      <trkpt lat="45.11915" lon="6.36441">
        <ele>2403.8</ele>
        <time>2017-04-16T11:56:10Z</time>
      </trkpt>
      <trkpt lat="45.11916" lon="6.36441">
        <ele>2403.2</ele>
        <time>2017-04-16T11:56:30Z</time>
      </trkpt>
      <trkpt lat="45.11918" lon="6.36442">
        <ele>2401.6</ele>
        <time>2017-04-16T11:59:00Z</time>
      </trkpt>
      <trkpt lat="45.11916" lon="6.36441">
        <ele>2400.2</ele>
        <time>2017-04-16T11:59:45Z</time>
      </trkpt>
      <trkpt lat="45.11914" lon="6.36438">
        <ele>2401.4</ele>
        <time>2017-04-16T12:00:10Z</time>
      </trkpt>
      <trkpt lat="45.11914" lon="6.36437">
        <ele>2401.4</ele>
        <time>2017-04-16T12:00:15Z</time>
      </trkpt>
      <trkpt lat="45.11912" lon="6.36436">
        <ele>2401</ele>
        <time>2017-04-16T12:00:20Z</time>
      </trkpt>
      <trkpt lat="45.1191" lon="6.36433">
        <ele>2400</ele>
        <time>2017-04-16T12:00:25Z</time>
      </trkpt>
      <trkpt lat="45.11908" lon="6.36431">
        <ele>2399</ele>
        <time>2017-04-16T12:00:50Z</time>
      </trkpt>
      <trkpt lat="45.11908" lon="6.36431">
        <ele>2397.4</ele>
        <time>2017-04-16T12:01:41Z</time>
      </trkpt>
      <trkpt lat="45.11908" lon="6.36433">
        <ele>2396.8</ele>
        <time>2017-04-16T12:01:46Z</time>
      </trkpt>
      <trkpt lat="45.11906" lon="6.36435">
        <ele>2394.2</ele>
        <time>2017-04-16T12:01:51Z</time>
      </trkpt>
      <trkpt lat="45.11906" lon="6.36439">
        <ele>2396.4</ele>
        <time>2017-04-16T12:01:56Z</time>
      </trkpt>
      <trkpt lat="45.11904" lon="6.36441">
        <ele>2397.6</ele>
        <time>2017-04-16T12:02:01Z</time>
      </trkpt>
      <trkpt lat="45.11905" lon="6.36443">
        <ele>2396.8</ele>
        <time>2017-04-16T12:02:16Z</time>
      </trkpt>
      <trkpt lat="45.11904" lon="6.36446">
        <ele>2393</ele>
        <time>2017-04-16T12:02:21Z</time>
      </trkpt>
      <trkpt lat="45.11904" lon="6.36446">
        <ele>2394.8</ele>
        <time>2017-04-16T12:02:41Z</time>
      </trkpt>
      <trkpt lat="45.11901" lon="6.36444">
        <ele>2392</ele>
        <time>2017-04-16T12:03:01Z</time>
      </trkpt>
      <trkpt lat="45.11901" lon="6.36443">
        <ele>2392</ele>
        <time>2017-04-16T12:03:16Z</time>
      </trkpt>
      <trkpt lat="45.119" lon="6.36442">
        <ele>2391</ele>
        <time>2017-04-16T12:03:31Z</time>
      </trkpt>
      <trkpt lat="45.119" lon="6.36441">
        <ele>2386.8</ele>
        <time>2017-04-16T12:05:01Z</time>
      </trkpt>
      <trkpt lat="45.11901" lon="6.3644">
        <ele>2386.6</ele>
        <time>2017-04-16T12:05:06Z</time>
      </trkpt>
      <trkpt lat="45.11901" lon="6.36439">
        <ele>2386.6</ele>
        <time>2017-04-16T12:05:11Z</time>
      </trkpt>
      <trkpt lat="45.11901" lon="6.36438">
        <ele>2386.8</ele>
        <time>2017-04-16T12:05:31Z</time>
      </trkpt>
      <trkpt lat="45.11901" lon="6.36438">
        <ele>2385.2</ele>
        <time>2017-04-16T12:05:36Z</time>
      </trkpt>
      <trkpt lat="45.119" lon="6.36435">
        <ele>2387.4</ele>
        <time>2017-04-16T12:05:41Z</time>
      </trkpt>
      <trkpt lat="45.11895" lon="6.36427">
        <ele>2384.6</ele>
        <time>2017-04-16T12:05:46Z</time>
      </trkpt>
      <trkpt lat="45.11883" lon="6.36434">
        <ele>2379.2</ele>
        <time>2017-04-16T12:05:51Z</time>
      </trkpt>
      <trkpt lat="45.11878" lon="6.36437">
        <ele>2377.2</ele>
        <time>2017-04-16T12:05:56Z</time>
      </trkpt>
      <trkpt lat="45.11865" lon="6.3643">
        <ele>2369.8</ele>
        <time>2017-04-16T12:06:01Z</time>
      </trkpt>
      <trkpt lat="45.11858" lon="6.36443">
        <ele>2367.2</ele>
        <time>2017-04-16T12:06:06Z</time>
      </trkpt>
      <trkpt lat="45.11851" lon="6.36455">
        <ele>2366.6</ele>
        <time>2017-04-16T12:06:11Z</time>
      </trkpt>
      <trkpt lat="45.11847" lon="6.36468">
        <ele>2363.6</ele>
        <time>2017-04-16T12:06:16Z</time>
      </trkpt>
      <trkpt lat="45.11842" lon="6.36495">
        <ele>2357</ele>
        <time>2017-04-16T12:06:21Z</time>
      </trkpt>
      <trkpt lat="45.11836" lon="6.36514">
        <ele>2354.6</ele>
        <time>2017-04-16T12:06:26Z</time>
      </trkpt>
      <trkpt lat="45.11826" lon="6.36525">
        <ele>2350</ele>
        <time>2017-04-16T12:06:31Z</time>
      </trkpt>
      <trkpt lat="45.11826" lon="6.36553">
        <ele>2348.2</ele>
        <time>2017-04-16T12:06:36Z</time>
      </trkpt>
      <trkpt lat="45.11832" lon="6.36578">
        <ele>2346.4</ele>
        <time>2017-04-16T12:06:41Z</time>
      </trkpt>
      <trkpt lat="45.1183" lon="6.36607">
        <ele>2345</ele>
        <time>2017-04-16T12:06:46Z</time>
      </trkpt>
      <trkpt lat="45.11826" lon="6.36613">
        <ele>2339.8</ele>
        <time>2017-04-16T12:06:51Z</time>
      </trkpt>
      <trkpt lat="45.11823" lon="6.36613">
        <ele>2338</ele>
        <time>2017-04-16T12:06:56Z</time>
      </trkpt>
      <trkpt lat="45.1182" lon="6.36614">
        <ele>2332.4</ele>
        <time>2017-04-16T12:07:11Z</time>
      </trkpt>
      <trkpt lat="45.11818" lon="6.36614">
        <ele>2331.8</ele>
        <time>2017-04-16T12:07:31Z</time>
      </trkpt>
      <trkpt lat="45.11809" lon="6.36618">
        <ele>2325.4</ele>
        <time>2017-04-16T12:07:46Z</time>
      </trkpt>
      <trkpt lat="45.11793" lon="6.3662">
        <ele>2319</ele>
        <time>2017-04-16T12:07:51Z</time>
      </trkpt>
      <trkpt lat="45.11781" lon="6.36622">
        <ele>2313</ele>
        <time>2017-04-16T12:07:56Z</time>
      </trkpt>
      <trkpt lat="45.11779" lon="6.36626">
        <ele>2311.4</ele>
        <time>2017-04-16T12:08:01Z</time>
      </trkpt>
      <trkpt lat="45.11781" lon="6.36641">
        <ele>2305.6</ele>
        <time>2017-04-16T12:08:06Z</time>
      </trkpt>
      <trkpt lat="45.11783" lon="6.36662">
        <ele>2308.4</ele>
        <time>2017-04-16T12:08:11Z</time>
      </trkpt>
      <trkpt lat="45.11785" lon="6.36675">
        <ele>2303.6</ele>
        <time>2017-04-16T12:08:16Z</time>
      </trkpt>
      <trkpt lat="45.11786" lon="6.36679">
        <ele>2303</ele>
        <time>2017-04-16T12:08:21Z</time>
      </trkpt>
      <trkpt lat="45.11786" lon="6.36684">
        <ele>2303.6</ele>
        <time>2017-04-16T12:08:26Z</time>
      </trkpt>
      <trkpt lat="45.11786" lon="6.36691">
        <ele>2301.6</ele>
        <time>2017-04-16T12:08:31Z</time>
      </trkpt>
      <trkpt lat="45.11787" lon="6.36692">
        <ele>2301.4</ele>
        <time>2017-04-16T12:08:36Z</time>
      </trkpt>
      <trkpt lat="45.11786" lon="6.36699">
        <ele>2298.6</ele>
        <time>2017-04-16T12:09:11Z</time>
      </trkpt>
      <trkpt lat="45.11786" lon="6.36705">
        <ele>2298.2</ele>
        <time>2017-04-16T12:09:16Z</time>
      </trkpt>
      <trkpt lat="45.11786" lon="6.36711">
        <ele>2298.8</ele>
        <time>2017-04-16T12:09:21Z</time>
      </trkpt>
      <trkpt lat="45.11786" lon="6.36716">
        <ele>2296.2</ele>
        <time>2017-04-16T12:09:26Z</time>
      </trkpt>
      <trkpt lat="45.11787" lon="6.36719">
        <ele>2295.8</ele>
        <time>2017-04-16T12:09:31Z</time>
      </trkpt>
      <trkpt lat="45.11786" lon="6.36721">
        <ele>2299.4</ele>
        <time>2017-04-16T12:09:36Z</time>
      </trkpt>
      <trkpt lat="45.11785" lon="6.36731">
        <ele>2298</ele>
        <time>2017-04-16T12:09:41Z</time>
      </trkpt>
      <trkpt lat="45.11781" lon="6.36743">
        <ele>2292.8</ele>
        <time>2017-04-16T12:09:46Z</time>
      </trkpt>
      <trkpt lat="45.11774" lon="6.36753">
        <ele>2291.8</ele>
        <time>2017-04-16T12:09:51Z</time>
      </trkpt>
      <trkpt lat="45.11767" lon="6.36761">
        <ele>2287.4</ele>
        <time>2017-04-16T12:09:56Z</time>
      </trkpt>
      <trkpt lat="45.11756" lon="6.36773">
        <ele>2283.8</ele>
        <time>2017-04-16T12:10:06Z</time>
      </trkpt>
      <trkpt lat="45.11756" lon="6.36768">
        <ele>2283.8</ele>
        <time>2017-04-16T12:10:11Z</time>
      </trkpt>
      <trkpt lat="45.11755" lon="6.36758">
        <ele>2285</ele>
        <time>2017-04-16T12:10:16Z</time>
      </trkpt>
      <trkpt lat="45.11752" lon="6.36737">
        <ele>2280.4</ele>
        <time>2017-04-16T12:10:21Z</time>
      </trkpt>
      <trkpt lat="45.1174" lon="6.36738">
        <ele>2278.2</ele>
        <time>2017-04-16T12:10:26Z</time>
      </trkpt>
      <trkpt lat="45.1172" lon="6.36762">
        <ele>2270.8</ele>
        <time>2017-04-16T12:10:31Z</time>
      </trkpt>
      <trkpt lat="45.11704" lon="6.36769">
        <ele>2275.2</ele>
        <time>2017-04-16T12:10:36Z</time>
      </trkpt>
      <trkpt lat="45.11702" lon="6.36769">
        <ele>2272.4</ele>
        <time>2017-04-16T12:10:41Z</time>
      </trkpt>
      <trkpt lat="45.11703" lon="6.36769">
        <ele>2269.6</ele>
        <time>2017-04-16T12:11:01Z</time>
      </trkpt>
      <trkpt lat="45.11704" lon="6.36769">
        <ele>2269</ele>
        <time>2017-04-16T12:11:11Z</time>
      </trkpt>
      <trkpt lat="45.11704" lon="6.36768">
        <ele>2268.4</ele>
        <time>2017-04-16T12:11:26Z</time>
      </trkpt>
      <trkpt lat="45.11699" lon="6.36773">
        <ele>2267.4</ele>
        <time>2017-04-16T12:11:31Z</time>
      </trkpt>
      <trkpt lat="45.11688" lon="6.36792">
        <ele>2266.8</ele>
        <time>2017-04-16T12:11:36Z</time>
      </trkpt>
      <trkpt lat="45.11679" lon="6.36808">
        <ele>2262</ele>
        <time>2017-04-16T12:11:41Z</time>
      </trkpt>
      <trkpt lat="45.11672" lon="6.36821">
        <ele>2262.4</ele>
        <time>2017-04-16T12:11:46Z</time>
      </trkpt>
      <trkpt lat="45.11661" lon="6.36839">
        <ele>2259.2</ele>
        <time>2017-04-16T12:11:51Z</time>
      </trkpt>
      <trkpt lat="45.11647" lon="6.36865">
        <ele>2260</ele>
        <time>2017-04-16T12:11:56Z</time>
      </trkpt>
      <trkpt lat="45.11635" lon="6.3689">
        <ele>2257</ele>
        <time>2017-04-16T12:12:01Z</time>
      </trkpt>
      <trkpt lat="45.11628" lon="6.36915">
        <ele>2253.8</ele>
        <time>2017-04-16T12:12:06Z</time>
      </trkpt>
      <trkpt lat="45.1162" lon="6.3694">
        <ele>2256.6</ele>
        <time>2017-04-16T12:12:11Z</time>
      </trkpt>
      <trkpt lat="45.11609" lon="6.36968">
        <ele>2255.4</ele>
        <time>2017-04-16T12:12:16Z</time>
      </trkpt>
      <trkpt lat="45.11598" lon="6.37002">
        <ele>2248.2</ele>
        <time>2017-04-16T12:12:21Z</time>
      </trkpt>
      <trkpt lat="45.11593" lon="6.37022">
        <ele>2249.8</ele>
        <time>2017-04-16T12:12:26Z</time>
      </trkpt>
      <trkpt lat="45.11587" lon="6.37038">
        <ele>2247.2</ele>
        <time>2017-04-16T12:12:31Z</time>
      </trkpt>
      <trkpt lat="45.11577" lon="6.37064">
        <ele>2249</ele>
        <time>2017-04-16T12:12:36Z</time>
      </trkpt>
      <trkpt lat="45.11561" lon="6.37095">
        <ele>2246</ele>
        <time>2017-04-16T12:12:41Z</time>
      </trkpt>
      <trkpt lat="45.11549" lon="6.3712">
        <ele>2239.8</ele>
        <time>2017-04-16T12:12:46Z</time>
      </trkpt>
      <trkpt lat="45.11537" lon="6.37151">
        <ele>2236.4</ele>
        <time>2017-04-16T12:12:51Z</time>
      </trkpt>
      <trkpt lat="45.11523" lon="6.37192">
        <ele>2233.2</ele>
        <time>2017-04-16T12:12:56Z</time>
      </trkpt>
      <trkpt lat="45.11519" lon="6.3723">
        <ele>2233.6</ele>
        <time>2017-04-16T12:13:01Z</time>
      </trkpt>
      <trkpt lat="45.11517" lon="6.3726">
        <ele>2231</ele>
        <time>2017-04-16T12:13:06Z</time>
      </trkpt>
      <trkpt lat="45.11515" lon="6.37289">
        <ele>2225.6</ele>
        <time>2017-04-16T12:13:11Z</time>
      </trkpt>
      <trkpt lat="45.1151" lon="6.37319">
        <ele>2224.6</ele>
        <time>2017-04-16T12:13:16Z</time>
      </trkpt>
      <trkpt lat="45.11505" lon="6.37345">
        <ele>2226.2</ele>
        <time>2017-04-16T12:13:21Z</time>
      </trkpt>
      <trkpt lat="45.11504" lon="6.37367">
        <ele>2224.8</ele>
        <time>2017-04-16T12:13:26Z</time>
      </trkpt>
      <trkpt lat="45.11501" lon="6.37385">
        <ele>2222.8</ele>
        <time>2017-04-16T12:13:31Z</time>
      </trkpt>
      <trkpt lat="45.115" lon="6.37388">
        <ele>2220.4</ele>
        <time>2017-04-16T12:13:36Z</time>
      </trkpt>
      <trkpt lat="45.115" lon="6.37388">
        <ele>2219</ele>
        <time>2017-04-16T12:13:51Z</time>
      </trkpt>
      <trkpt lat="45.11502" lon="6.37388">
        <ele>2217.8</ele>
        <time>2017-04-16T12:14:01Z</time>
      </trkpt>
      <trkpt lat="45.11502" lon="6.37388">
        <ele>2216.4</ele>
        <time>2017-04-16T12:14:26Z</time>
      </trkpt>
      <trkpt lat="45.11504" lon="6.37389">
        <ele>2218</ele>
        <time>2017-04-16T12:14:31Z</time>
      </trkpt>
      <trkpt lat="45.11503" lon="6.37404">
        <ele>2217</ele>
        <time>2017-04-16T12:14:36Z</time>
      </trkpt>
      <trkpt lat="45.11498" lon="6.3743">
        <ele>2213.4</ele>
        <time>2017-04-16T12:14:41Z</time>
      </trkpt>
      <trkpt lat="45.11497" lon="6.37446">
        <ele>2213.4</ele>
        <time>2017-04-16T12:14:46Z</time>
      </trkpt>
      <trkpt lat="45.11492" lon="6.37477">
        <ele>2207.2</ele>
        <time>2017-04-16T12:14:51Z</time>
      </trkpt>
      <trkpt lat="45.1149" lon="6.37506">
        <ele>2203.4</ele>
        <time>2017-04-16T12:14:56Z</time>
      </trkpt>
      <trkpt lat="45.11489" lon="6.3752">
        <ele>2202.4</ele>
        <time>2017-04-16T12:15:01Z</time>
      </trkpt>
      <trkpt lat="45.1149" lon="6.37531">
        <ele>2204.2</ele>
        <time>2017-04-16T12:15:06Z</time>
      </trkpt>
      <trkpt lat="45.1149" lon="6.37554">
        <ele>2202.2</ele>
        <time>2017-04-16T12:15:11Z</time>
      </trkpt>
      <trkpt lat="45.11493" lon="6.376">
        <ele>2197.8</ele>
        <time>2017-04-16T12:15:16Z</time>
      </trkpt>
      <trkpt lat="45.11499" lon="6.37626">
        <ele>2196.4</ele>
        <time>2017-04-16T12:15:21Z</time>
      </trkpt>
      <trkpt lat="45.11503" lon="6.37643">
        <ele>2193.4</ele>
        <time>2017-04-16T12:15:26Z</time>
      </trkpt>
      <trkpt lat="45.11505" lon="6.37657">
        <ele>2196.8</ele>
        <time>2017-04-16T12:15:31Z</time>
      </trkpt>
      <trkpt lat="45.11507" lon="6.37666">
        <ele>2193.6</ele>
        <time>2017-04-16T12:15:36Z</time>
      </trkpt>
      <trkpt lat="45.11509" lon="6.37688">
        <ele>2192.8</ele>
        <time>2017-04-16T12:15:41Z</time>
      </trkpt>
      <trkpt lat="45.11511" lon="6.37711">
        <ele>2190.4</ele>
        <time>2017-04-16T12:15:46Z</time>
      </trkpt>
      <trkpt lat="45.11509" lon="6.37749">
        <ele>2185.8</ele>
        <time>2017-04-16T12:15:51Z</time>
      </trkpt>
      <trkpt lat="45.11515" lon="6.37792">
        <ele>2185</ele>
        <time>2017-04-16T12:15:56Z</time>
      </trkpt>
      <trkpt lat="45.11519" lon="6.37806">
        <ele>2185.4</ele>
        <time>2017-04-16T12:16:01Z</time>
      </trkpt>
      <trkpt lat="45.1152" lon="6.3782">
        <ele>2181.8</ele>
        <time>2017-04-16T12:16:06Z</time>
      </trkpt>
      <trkpt lat="45.11524" lon="6.37839">
        <ele>2180.8</ele>
        <time>2017-04-16T12:16:11Z</time>
      </trkpt>
      <trkpt lat="45.11529" lon="6.37851">
        <ele>2180.6</ele>
        <time>2017-04-16T12:16:16Z</time>
      </trkpt>
      <trkpt lat="45.11535" lon="6.37878">
        <ele>2178.6</ele>
        <time>2017-04-16T12:16:21Z</time>
      </trkpt>
      <trkpt lat="45.11543" lon="6.37915">
        <ele>2174</ele>
        <time>2017-04-16T12:16:26Z</time>
      </trkpt>
      <trkpt lat="45.11546" lon="6.37925">
        <ele>2170.6</ele>
        <time>2017-04-16T12:16:31Z</time>
      </trkpt>
      <trkpt lat="45.11549" lon="6.37933">
        <ele>2172.2</ele>
        <time>2017-04-16T12:16:36Z</time>
      </trkpt>
      <trkpt lat="45.11553" lon="6.37945">
        <ele>2170.6</ele>
        <time>2017-04-16T12:16:41Z</time>
      </trkpt>
      <trkpt lat="45.11558" lon="6.37961">
        <ele>2169.4</ele>
        <time>2017-04-16T12:16:46Z</time>
      </trkpt>
      <trkpt lat="45.11564" lon="6.3798">
        <ele>2167.2</ele>
        <time>2017-04-16T12:16:51Z</time>
      </trkpt>
      <trkpt lat="45.11569" lon="6.37995">
        <ele>2165.6</ele>
        <time>2017-04-16T12:16:56Z</time>
      </trkpt>
      <trkpt lat="45.11572" lon="6.38013">
        <ele>2164.4</ele>
        <time>2017-04-16T12:17:01Z</time>
      </trkpt>
      <trkpt lat="45.11577" lon="6.38042">
        <ele>2161.8</ele>
        <time>2017-04-16T12:17:06Z</time>
      </trkpt>
      <trkpt lat="45.11585" lon="6.38066">
        <ele>2159.6</ele>
        <time>2017-04-16T12:17:11Z</time>
      </trkpt>
      <trkpt lat="45.11589" lon="6.38094">
        <ele>2152.4</ele>
        <time>2017-04-16T12:17:16Z</time>
      </trkpt>
      <trkpt lat="45.11592" lon="6.38135">
        <ele>2149.2</ele>
        <time>2017-04-16T12:17:21Z</time>
      </trkpt>
      <trkpt lat="45.11606" lon="6.3818">
        <ele>2146</ele>
        <time>2017-04-16T12:17:26Z</time>
      </trkpt>
      <trkpt lat="45.11616" lon="6.38197">
        <ele>2148</ele>
        <time>2017-04-16T12:17:31Z</time>
      </trkpt>
      <trkpt lat="45.1162" lon="6.38203">
        <ele>2146.4</ele>
        <time>2017-04-16T12:17:36Z</time>
      </trkpt>
      <trkpt lat="45.11628" lon="6.38212">
        <ele>2145.6</ele>
        <time>2017-04-16T12:17:41Z</time>
      </trkpt>
      <trkpt lat="45.11637" lon="6.38223">
        <ele>2146.4</ele>
        <time>2017-04-16T12:17:46Z</time>
      </trkpt>
      <trkpt lat="45.11644" lon="6.38238">
        <ele>2144.4</ele>
        <time>2017-04-16T12:17:51Z</time>
      </trkpt>
      <trkpt lat="45.11647" lon="6.38247">
        <ele>2145.8</ele>
        <time>2017-04-16T12:17:56Z</time>
      </trkpt>
      <trkpt lat="45.11647" lon="6.38247">
        <ele>2143.2</ele>
        <time>2017-04-16T12:18:41Z</time>
      </trkpt>
      <trkpt lat="45.11647" lon="6.3825">
        <ele>2145.2</ele>
        <time>2017-04-16T12:18:46Z</time>
      </trkpt>
      <trkpt lat="45.1165" lon="6.38261">
        <ele>2143</ele>
        <time>2017-04-16T12:18:51Z</time>
      </trkpt>
      <trkpt lat="45.11653" lon="6.38278">
        <ele>2145.2</ele>
        <time>2017-04-16T12:18:56Z</time>
      </trkpt>
      <trkpt lat="45.11667" lon="6.3829">
        <ele>2138.8</ele>
        <time>2017-04-16T12:19:01Z</time>
      </trkpt>
      <trkpt lat="45.11678" lon="6.383">
        <ele>2133.4</ele>
        <time>2017-04-16T12:19:06Z</time>
      </trkpt>
      <trkpt lat="45.11684" lon="6.38335">
        <ele>2133.4</ele>
        <time>2017-04-16T12:19:11Z</time>
      </trkpt>
      <trkpt lat="45.11688" lon="6.3837">
        <ele>2129</ele>
        <time>2017-04-16T12:19:16Z</time>
      </trkpt>
      <trkpt lat="45.11691" lon="6.38404">
        <ele>2126.6</ele>
        <time>2017-04-16T12:19:21Z</time>
      </trkpt>
      <trkpt lat="45.11692" lon="6.38426">
        <ele>2126.6</ele>
        <time>2017-04-16T12:19:26Z</time>
      </trkpt>
      <trkpt lat="45.11695" lon="6.3845">
        <ele>2122.2</ele>
        <time>2017-04-16T12:19:31Z</time>
      </trkpt>
      <trkpt lat="45.11689" lon="6.38491">
        <ele>2114.2</ele>
        <time>2017-04-16T12:19:36Z</time>
      </trkpt>
      <trkpt lat="45.11692" lon="6.38532">
        <ele>2108.4</ele>
        <time>2017-04-16T12:19:41Z</time>
      </trkpt>
      <trkpt lat="45.11702" lon="6.38549">
        <ele>2108</ele>
        <time>2017-04-16T12:19:46Z</time>
      </trkpt>
      <trkpt lat="45.11703" lon="6.38572">
        <ele>2107.2</ele>
        <time>2017-04-16T12:19:51Z</time>
      </trkpt>
      <trkpt lat="45.11701" lon="6.38609">
        <ele>2100</ele>
        <time>2017-04-16T12:19:56Z</time>
      </trkpt>
      <trkpt lat="45.117" lon="6.38651">
        <ele>2096</ele>
        <time>2017-04-16T12:20:01Z</time>
      </trkpt>
      <trkpt lat="45.11703" lon="6.38669">
        <ele>2097</ele>
        <time>2017-04-16T12:20:06Z</time>
      </trkpt>
      <trkpt lat="45.11711" lon="6.38688">
        <ele>2098</ele>
        <time>2017-04-16T12:20:11Z</time>
      </trkpt>
      <trkpt lat="45.11716" lon="6.38709">
        <ele>2093.6</ele>
        <time>2017-04-16T12:20:16Z</time>
      </trkpt>
      <trkpt lat="45.11718" lon="6.38741">
        <ele>2093.8</ele>
        <time>2017-04-16T12:20:21Z</time>
      </trkpt>
      <trkpt lat="45.1172" lon="6.38772">
        <ele>2088.2</ele>
        <time>2017-04-16T12:20:26Z</time>
      </trkpt>
      <trkpt lat="45.11725" lon="6.38796">
        <ele>2085.6</ele>
        <time>2017-04-16T12:20:31Z</time>
      </trkpt>
      <trkpt lat="45.11728" lon="6.3882">
        <ele>2082.2</ele>
        <time>2017-04-16T12:20:36Z</time>
      </trkpt>
      <trkpt lat="45.11727" lon="6.3883">
        <ele>2082.2</ele>
        <time>2017-04-16T12:20:41Z</time>
      </trkpt>
      <trkpt lat="45.11727" lon="6.3883">
        <ele>2083</ele>
        <time>2017-04-16T12:20:51Z</time>
      </trkpt>
      <trkpt lat="45.11728" lon="6.38829">
        <ele>2083.2</ele>
        <time>2017-04-16T12:20:56Z</time>
      </trkpt>
      <trkpt lat="45.11728" lon="6.38827">
        <ele>2082.8</ele>
        <time>2017-04-16T12:21:01Z</time>
      </trkpt>
      <trkpt lat="45.11728" lon="6.38827">
        <ele>2082</ele>
        <time>2017-04-16T12:21:06Z</time>
      </trkpt>
      <trkpt lat="45.1173" lon="6.38828">
        <ele>2079.6</ele>
        <time>2017-04-16T12:21:11Z</time>
      </trkpt>
      <trkpt lat="45.11734" lon="6.38853">
        <ele>2076.2</ele>
        <time>2017-04-16T12:21:16Z</time>
      </trkpt>
      <trkpt lat="45.11738" lon="6.38879">
        <ele>2074.4</ele>
        <time>2017-04-16T12:21:21Z</time>
      </trkpt>
      <trkpt lat="45.11744" lon="6.3891">
        <ele>2074.4</ele>
        <time>2017-04-16T12:21:26Z</time>
      </trkpt>
      <trkpt lat="45.11748" lon="6.38933">
        <ele>2070.6</ele>
        <time>2017-04-16T12:21:31Z</time>
      </trkpt>
      <trkpt lat="45.11752" lon="6.38952">
        <ele>2069.4</ele>
        <time>2017-04-16T12:21:36Z</time>
      </trkpt>
      <trkpt lat="45.11754" lon="6.38965">
        <ele>2070.4</ele>
        <time>2017-04-16T12:21:41Z</time>
      </trkpt>
      <trkpt lat="45.11753" lon="6.38971">
        <ele>2067.6</ele>
        <time>2017-04-16T12:21:46Z</time>
      </trkpt>
      <trkpt lat="45.11753" lon="6.38971">
        <ele>2068</ele>
        <time>2017-04-16T12:21:51Z</time>
      </trkpt>
      <trkpt lat="45.11754" lon="6.38973">
        <ele>2071.6</ele>
        <time>2017-04-16T12:21:56Z</time>
      </trkpt>
      <trkpt lat="45.11755" lon="6.38989">
        <ele>2066.2</ele>
        <time>2017-04-16T12:22:01Z</time>
      </trkpt>
      <trkpt lat="45.11757" lon="6.39006">
        <ele>2067.2</ele>
        <time>2017-04-16T12:22:06Z</time>
      </trkpt>
      <trkpt lat="45.11756" lon="6.39011">
        <ele>2064.4</ele>
        <time>2017-04-16T12:22:11Z</time>
      </trkpt>
      <trkpt lat="45.11756" lon="6.39012">
        <ele>2065</ele>
        <time>2017-04-16T12:22:46Z</time>
      </trkpt>
      <trkpt lat="45.11756" lon="6.39012">
        <ele>2065.2</ele>
        <time>2017-04-16T12:22:51Z</time>
      </trkpt>
      <trkpt lat="45.11755" lon="6.39015">
        <ele>2063.6</ele>
        <time>2017-04-16T12:22:56Z</time>
      </trkpt>
      <trkpt lat="45.11753" lon="6.39035">
        <ele>2062</ele>
        <time>2017-04-16T12:23:01Z</time>
      </trkpt>
      <trkpt lat="45.11752" lon="6.39061">
        <ele>2058.8</ele>
        <time>2017-04-16T12:23:06Z</time>
      </trkpt>
      <trkpt lat="45.11752" lon="6.39096">
        <ele>2054.2</ele>
        <time>2017-04-16T12:23:12Z</time>
      </trkpt>
      <trkpt lat="45.11748" lon="6.39112">
        <ele>2058</ele>
        <time>2017-04-16T12:23:18Z</time>
      </trkpt>
      <trkpt lat="45.11755" lon="6.39121">
        <ele>2054</ele>
        <time>2017-04-16T12:23:23Z</time>
      </trkpt>
      <trkpt lat="45.11765" lon="6.39155">
        <ele>2048</ele>
        <time>2017-04-16T12:23:28Z</time>
      </trkpt>
      <trkpt lat="45.11759" lon="6.39175">
        <ele>2042.6</ele>
        <time>2017-04-16T12:23:33Z</time>
      </trkpt>
      <trkpt lat="45.11754" lon="6.39178">
        <ele>2043.4</ele>
        <time>2017-04-16T12:23:38Z</time>
      </trkpt>
      <trkpt lat="45.11752" lon="6.39179">
        <ele>2039.8</ele>
        <time>2017-04-16T12:23:43Z</time>
      </trkpt>
      <trkpt lat="45.1175" lon="6.39181">
        <ele>2040.8</ele>
        <time>2017-04-16T12:23:48Z</time>
      </trkpt>
      <trkpt lat="45.11748" lon="6.39184">
        <ele>2042.4</ele>
        <time>2017-04-16T12:23:53Z</time>
      </trkpt>
      <trkpt lat="45.11745" lon="6.39188">
        <ele>2044.6</ele>
        <time>2017-04-16T12:23:58Z</time>
      </trkpt>
      <trkpt lat="45.11737" lon="6.39202">
        <ele>2040.6</ele>
        <time>2017-04-16T12:24:03Z</time>
      </trkpt>
      <trkpt lat="45.11734" lon="6.39207">
        <ele>2039.2</ele>
        <time>2017-04-16T12:24:08Z</time>
      </trkpt>
      <trkpt lat="45.11733" lon="6.39228">
        <ele>2036.8</ele>
        <time>2017-04-16T12:24:13Z</time>
      </trkpt>
      <trkpt lat="45.11731" lon="6.39262">
        <ele>2032.2</ele>
        <time>2017-04-16T12:24:18Z</time>
      </trkpt>
      <trkpt lat="45.11728" lon="6.39304">
        <ele>2032.6</ele>
        <time>2017-04-16T12:24:23Z</time>
      </trkpt>
      <trkpt lat="45.11722" lon="6.39359">
        <ele>2021.8</ele>
        <time>2017-04-16T12:24:28Z</time>
      </trkpt>
      <trkpt lat="45.11728" lon="6.39425">
        <ele>2016.4</ele>
        <time>2017-04-16T12:24:33Z</time>
      </trkpt>
      <trkpt lat="45.11734" lon="6.39467">
        <ele>2011.2</ele>
        <time>2017-04-16T12:24:38Z</time>
      </trkpt>
      <trkpt lat="45.11737" lon="6.395">
        <ele>2002.2</ele>
        <time>2017-04-16T12:24:43Z</time>
      </trkpt>
      <trkpt lat="45.11736" lon="6.39532">
        <ele>1999.6</ele>
        <time>2017-04-16T12:24:48Z</time>
      </trkpt>
      <trkpt lat="45.11734" lon="6.3956">
        <ele>1995.6</ele>
        <time>2017-04-16T12:24:53Z</time>
      </trkpt>
      <trkpt lat="45.11745" lon="6.39563">
        <ele>1990.6</ele>
        <time>2017-04-16T12:24:58Z</time>
      </trkpt>
      <trkpt lat="45.11747" lon="6.39575">
        <ele>1991.4</ele>
        <time>2017-04-16T12:25:03Z</time>
      </trkpt>
      <trkpt lat="45.1175" lon="6.39606">
        <ele>1988.6</ele>
        <time>2017-04-16T12:25:08Z</time>
      </trkpt>
      <trkpt lat="45.1175" lon="6.39618">
        <ele>1989.6</ele>
        <time>2017-04-16T12:25:13Z</time>
      </trkpt>
      <trkpt lat="45.1175" lon="6.39625">
        <ele>1989</ele>
        <time>2017-04-16T12:25:18Z</time>
      </trkpt>
      <trkpt lat="45.1175" lon="6.39644">
        <ele>1989.8</ele>
        <time>2017-04-16T12:25:23Z</time>
      </trkpt>
      <trkpt lat="45.11758" lon="6.39663">
        <ele>1983.6</ele>
        <time>2017-04-16T12:25:28Z</time>
      </trkpt>
      <trkpt lat="45.11767" lon="6.39665">
        <ele>1980.2</ele>
        <time>2017-04-16T12:25:33Z</time>
      </trkpt>
      <trkpt lat="45.1177" lon="6.39672">
        <ele>1980</ele>
        <time>2017-04-16T12:25:38Z</time>
      </trkpt>
      <trkpt lat="45.11778" lon="6.39675">
        <ele>1976</ele>
        <time>2017-04-16T12:25:43Z</time>
      </trkpt>
      <trkpt lat="45.11783" lon="6.39686">
        <ele>1971.2</ele>
        <time>2017-04-16T12:25:48Z</time>
      </trkpt>
      <trkpt lat="45.11782" lon="6.39699">
        <ele>1970.6</ele>
        <time>2017-04-16T12:25:53Z</time>
      </trkpt>
      <trkpt lat="45.11784" lon="6.39716">
        <ele>1970</ele>
        <time>2017-04-16T12:25:58Z</time>
      </trkpt>
      <trkpt lat="45.11785" lon="6.39718">
        <ele>1966.2</ele>
        <time>2017-04-16T12:26:03Z</time>
      </trkpt>
      <trkpt lat="45.11786" lon="6.39718">
        <ele>1967.2</ele>
        <time>2017-04-16T12:26:08Z</time>
      </trkpt>
      <trkpt lat="45.11786" lon="6.39721">
        <ele>1965.4</ele>
        <time>2017-04-16T12:26:33Z</time>
      </trkpt>
      <trkpt lat="45.11785" lon="6.39722">
        <ele>1967.4</ele>
        <time>2017-04-16T12:26:38Z</time>
      </trkpt>
      <trkpt lat="45.11785" lon="6.39724">
        <ele>1967.4</ele>
        <time>2017-04-16T12:26:43Z</time>
      </trkpt>
      <trkpt lat="45.11786" lon="6.39728">
        <ele>1968.4</ele>
        <time>2017-04-16T12:26:48Z</time>
      </trkpt>
      <trkpt lat="45.11787" lon="6.39733">
        <ele>1965.4</ele>
        <time>2017-04-16T12:26:53Z</time>
      </trkpt>
      <trkpt lat="45.11788" lon="6.39738">
        <ele>1965.4</ele>
        <time>2017-04-16T12:26:58Z</time>
      </trkpt>
      <trkpt lat="45.11788" lon="6.39743">
        <ele>1964.8</ele>
        <time>2017-04-16T12:27:03Z</time>
      </trkpt>
      <trkpt lat="45.11788" lon="6.39751">
        <ele>1964.6</ele>
        <time>2017-04-16T12:27:08Z</time>
      </trkpt>
      <trkpt lat="45.1179" lon="6.39761">
        <ele>1962.8</ele>
        <time>2017-04-16T12:27:13Z</time>
      </trkpt>
      <trkpt lat="45.11791" lon="6.39764">
        <ele>1964.4</ele>
        <time>2017-04-16T12:27:18Z</time>
      </trkpt>
      <trkpt lat="45.11793" lon="6.3977">
        <ele>1960.6</ele>
        <time>2017-04-16T12:27:23Z</time>
      </trkpt>
      <trkpt lat="45.11794" lon="6.39776">
        <ele>1963.4</ele>
        <time>2017-04-16T12:27:28Z</time>
      </trkpt>
      <trkpt lat="45.11795" lon="6.39779">
        <ele>1962</ele>
        <time>2017-04-16T12:27:33Z</time>
      </trkpt>
      <trkpt lat="45.11795" lon="6.39779">
        <ele>1962.2</ele>
        <time>2017-04-16T12:27:38Z</time>
      </trkpt>
      <trkpt lat="45.118" lon="6.39788">
        <ele>1959.4</ele>
        <time>2017-04-16T12:27:43Z</time>
      </trkpt>
      <trkpt lat="45.11805" lon="6.398">
        <ele>1961.2</ele>
        <time>2017-04-16T12:27:48Z</time>
      </trkpt>
      <trkpt lat="45.11808" lon="6.39803">
        <ele>1961.2</ele>
        <time>2017-04-16T12:27:53Z</time>
      </trkpt>
      <trkpt lat="45.11811" lon="6.39805">
        <ele>1958.2</ele>
        <time>2017-04-16T12:27:58Z</time>
      </trkpt>
      <trkpt lat="45.11812" lon="6.39808">
        <ele>1961.4</ele>
        <time>2017-04-16T12:28:03Z</time>
      </trkpt>
      <trkpt lat="45.11813" lon="6.3981">
        <ele>1964</ele>
        <time>2017-04-16T12:28:08Z</time>
      </trkpt>
      <trkpt lat="45.11814" lon="6.39815">
        <ele>1964.6</ele>
        <time>2017-04-16T12:28:13Z</time>
      </trkpt>
      <trkpt lat="45.11815" lon="6.39816">
        <ele>1963</ele>
        <time>2017-04-16T12:28:18Z</time>
      </trkpt>
      <trkpt lat="45.11815" lon="6.39817">
        <ele>1962.2</ele>
        <time>2017-04-16T12:28:43Z</time>
      </trkpt>
      <trkpt lat="45.11814" lon="6.39817">
        <ele>1960.8</ele>
        <time>2017-04-16T12:28:48Z</time>
      </trkpt>
      <trkpt lat="45.11814" lon="6.39818">
        <ele>1959.6</ele>
        <time>2017-04-16T12:28:53Z</time>
      </trkpt>
      <trkpt lat="45.11814" lon="6.3982">
        <ele>1960</ele>
        <time>2017-04-16T12:28:59Z</time>
      </trkpt>
      <trkpt lat="45.11814" lon="6.3982">
        <ele>1960.2</ele>
        <time>2017-04-16T12:29:04Z</time>
      </trkpt>
      <trkpt lat="45.11813" lon="6.39821">
        <ele>1960.2</ele>
        <time>2017-04-16T12:29:09Z</time>
      </trkpt>
      <trkpt lat="45.11812" lon="6.39823">
        <ele>1960.2</ele>
        <time>2017-04-16T12:29:14Z</time>
      </trkpt>
      <trkpt lat="45.11812" lon="6.39824">
        <ele>1959</ele>
        <time>2017-04-16T12:29:30Z</time>
      </trkpt>
      <trkpt lat="45.11812" lon="6.39824">
        <ele>1959.2</ele>
        <time>2017-04-16T12:29:35Z</time>
      </trkpt>
      <trkpt lat="45.11812" lon="6.39824">
        <ele>1959.2</ele>
        <time>2017-04-16T12:29:40Z</time>
      </trkpt>
      <trkpt lat="45.11813" lon="6.39823">
        <ele>1959.4</ele>
        <time>2017-04-16T12:29:45Z</time>
      </trkpt>
      <trkpt lat="45.11815" lon="6.39819">
        <ele>1961</ele>
        <time>2017-04-16T12:29:50Z</time>
      </trkpt>
      <trkpt lat="45.11816" lon="6.39817">
        <ele>1961.6</ele>
        <time>2017-04-16T12:29:55Z</time>
      </trkpt>
      <trkpt lat="45.11819" lon="6.39815">
        <ele>1961.8</ele>
        <time>2017-04-16T12:30:00Z</time>
      </trkpt>
      <trkpt lat="45.11819" lon="6.39813">
        <ele>1963.8</ele>
        <time>2017-04-16T12:30:05Z</time>
      </trkpt>
      <trkpt lat="45.11821" lon="6.39811">
        <ele>1962.2</ele>
        <time>2017-04-16T12:30:10Z</time>
      </trkpt>
      <trkpt lat="45.11822" lon="6.3981">
        <ele>1962.2</ele>
        <time>2017-04-16T12:30:15Z</time>
      </trkpt>
      <trkpt lat="45.11824" lon="6.39809">
        <ele>1963</ele>
        <time>2017-04-16T12:30:20Z</time>
      </trkpt>
      <trkpt lat="45.11825" lon="6.39809">
        <ele>1961.4</ele>
        <time>2017-04-16T12:30:30Z</time>
      </trkpt>
      <trkpt lat="45.11827" lon="6.39809">
        <ele>1963.2</ele>
        <time>2017-04-16T12:30:35Z</time>
      </trkpt>
      <trkpt lat="45.11829" lon="6.39809">
        <ele>1965</ele>
        <time>2017-04-16T12:30:40Z</time>
      </trkpt>
      <trkpt lat="45.11831" lon="6.39805">
        <ele>1967.8</ele>
        <time>2017-04-16T12:30:45Z</time>
      </trkpt>
      <trkpt lat="45.11832" lon="6.39804">
        <ele>1968.4</ele>
        <time>2017-04-16T12:30:50Z</time>
      </trkpt>
      <trkpt lat="45.11833" lon="6.39803">
        <ele>1968.6</ele>
        <time>2017-04-16T12:30:55Z</time>
      </trkpt>
      <trkpt lat="45.11835" lon="6.39804">
        <ele>1974.8</ele>
        <time>2017-04-16T12:31:25Z</time>
      </trkpt>
      <trkpt lat="45.11836" lon="6.39807">
        <ele>1975.2</ele>
        <time>2017-04-16T12:31:30Z</time>
      </trkpt>
      <trkpt lat="45.11836" lon="6.39813">
        <ele>1977.2</ele>
        <time>2017-04-16T12:31:35Z</time>
      </trkpt>
      <trkpt lat="45.11836" lon="6.39817">
        <ele>1976.6</ele>
        <time>2017-04-16T12:31:40Z</time>
      </trkpt>
      <trkpt lat="45.11837" lon="6.39817">
        <ele>1977</ele>
        <time>2017-04-16T12:31:45Z</time>
      </trkpt>
      <trkpt lat="45.11837" lon="6.3982">
        <ele>1975</ele>
        <time>2017-04-16T12:31:50Z</time>
      </trkpt>
      <trkpt lat="45.11837" lon="6.39823">
        <ele>1976.6</ele>
        <time>2017-04-16T12:31:55Z</time>
      </trkpt>
      <trkpt lat="45.11838" lon="6.39825">
        <ele>1976.6</ele>
        <time>2017-04-16T12:32:00Z</time>
      </trkpt>
      <trkpt lat="45.11838" lon="6.39827">
        <ele>1979.8</ele>
        <time>2017-04-16T12:32:05Z</time>
      </trkpt>
      <trkpt lat="45.11839" lon="6.39829">
        <ele>1978.6</ele>
        <time>2017-04-16T12:32:10Z</time>
      </trkpt>
      <trkpt lat="45.1184" lon="6.39829">
        <ele>1979</ele>
        <time>2017-04-16T12:32:15Z</time>
      </trkpt>
      <trkpt lat="45.11839" lon="6.39832">
        <ele>1978.8</ele>
        <time>2017-04-16T12:32:20Z</time>
      </trkpt>
      <trkpt lat="45.11839" lon="6.39834">
        <ele>1980.8</ele>
        <time>2017-04-16T12:32:25Z</time>
      </trkpt>
      <trkpt lat="45.11839" lon="6.3984">
        <ele>1978.2</ele>
        <time>2017-04-16T12:32:30Z</time>
      </trkpt>
      <trkpt lat="45.11838" lon="6.39843">
        <ele>1977.8</ele>
        <time>2017-04-16T12:32:35Z</time>
      </trkpt>
      <trkpt lat="45.1184" lon="6.39849">
        <ele>1976.6</ele>
        <time>2017-04-16T12:39:17Z</time>
      </trkpt>
      <trkpt lat="45.1184" lon="6.39848">
        <ele>1975.4</ele>
        <time>2017-04-16T12:49:08Z</time>
      </trkpt>
      <trkpt lat="45.1184" lon="6.39849">
        <ele>1977</ele>
        <time>2017-04-16T12:55:48Z</time>
      </trkpt>
      <trkpt lat="45.11841" lon="6.39849">
        <ele>1976.6</ele>
        <time>2017-04-16T12:55:58Z</time>
      </trkpt>
      <trkpt lat="45.11841" lon="6.39849">
        <ele>1977</ele>
        <time>2017-04-16T12:56:03Z</time>
      </trkpt>
      <trkpt lat="45.11843" lon="6.3985">
        <ele>1977.4</ele>
        <time>2017-04-16T12:56:28Z</time>
      </trkpt>
      <trkpt lat="45.11846" lon="6.39851">
        <ele>1982.6</ele>
        <time>2017-04-16T12:58:38Z</time>
      </trkpt>
      <trkpt lat="45.1185" lon="6.3985">
        <ele>1983</ele>
        <time>2017-04-16T12:58:43Z</time>
      </trkpt>
      <trkpt lat="45.11852" lon="6.39853">
        <ele>1980.8</ele>
        <time>2017-04-16T12:58:48Z</time>
      </trkpt>
      <trkpt lat="45.11854" lon="6.39858">
        <ele>1982</ele>
        <time>2017-04-16T12:58:53Z</time>
      </trkpt>
      <trkpt lat="45.11856" lon="6.39863">
        <ele>1986.2</ele>
        <time>2017-04-16T12:58:58Z</time>
      </trkpt>
      <trkpt lat="45.11857" lon="6.39867">
        <ele>1986</ele>
        <time>2017-04-16T12:59:03Z</time>
      </trkpt>
      <trkpt lat="45.11857" lon="6.39867">
        <ele>1985.8</ele>
        <time>2017-04-16T12:59:08Z</time>
      </trkpt>
      <trkpt lat="45.11856" lon="6.39868">
        <ele>1985.8</ele>
        <time>2017-04-16T12:59:13Z</time>
      </trkpt>
      <trkpt lat="45.11855" lon="6.39867">
        <ele>1985.6</ele>
        <time>2017-04-16T12:59:18Z</time>
      </trkpt>
      <trkpt lat="45.11853" lon="6.39869">
        <ele>1986.2</ele>
        <time>2017-04-16T12:59:23Z</time>
      </trkpt>
      <trkpt lat="45.11852" lon="6.39873">
        <ele>1983.4</ele>
        <time>2017-04-16T12:59:28Z</time>
      </trkpt>
      <trkpt lat="45.11851" lon="6.39879">
        <ele>1983.6</ele>
        <time>2017-04-16T12:59:33Z</time>
      </trkpt>
      <trkpt lat="45.11852" lon="6.39884">
        <ele>1984</ele>
        <time>2017-04-16T12:59:38Z</time>
      </trkpt>
      <trkpt lat="45.11854" lon="6.39888">
        <ele>1979.4</ele>
        <time>2017-04-16T12:59:43Z</time>
      </trkpt>
      <trkpt lat="45.11857" lon="6.39893">
        <ele>1982</ele>
        <time>2017-04-16T12:59:48Z</time>
      </trkpt>
      <trkpt lat="45.11858" lon="6.39897">
        <ele>1981.6</ele>
        <time>2017-04-16T12:59:53Z</time>
      </trkpt>
      <trkpt lat="45.1186" lon="6.39902">
        <ele>1982.8</ele>
        <time>2017-04-16T12:59:58Z</time>
      </trkpt>
      <trkpt lat="45.11861" lon="6.39907">
        <ele>1982.8</ele>
        <time>2017-04-16T13:00:03Z</time>
      </trkpt>
      <trkpt lat="45.11862" lon="6.39913">
        <ele>1982</ele>
        <time>2017-04-16T13:00:08Z</time>
      </trkpt>
      <trkpt lat="45.11864" lon="6.39919">
        <ele>1984</ele>
        <time>2017-04-16T13:00:13Z</time>
      </trkpt>
      <trkpt lat="45.11865" lon="6.39924">
        <ele>1981.4</ele>
        <time>2017-04-16T13:00:18Z</time>
      </trkpt>
      <trkpt lat="45.11866" lon="6.3993">
        <ele>1980.8</ele>
        <time>2017-04-16T13:00:23Z</time>
      </trkpt>
      <trkpt lat="45.11866" lon="6.39935">
        <ele>1981</ele>
        <time>2017-04-16T13:00:28Z</time>
      </trkpt>
      <trkpt lat="45.11865" lon="6.3994">
        <ele>1981.4</ele>
        <time>2017-04-16T13:00:33Z</time>
      </trkpt>
      <trkpt lat="45.11865" lon="6.39945">
        <ele>1982.2</ele>
        <time>2017-04-16T13:00:38Z</time>
      </trkpt>
      <trkpt lat="45.11865" lon="6.39951">
        <ele>1979.4</ele>
        <time>2017-04-16T13:00:43Z</time>
      </trkpt>
      <trkpt lat="45.11865" lon="6.39957">
        <ele>1981.4</ele>
        <time>2017-04-16T13:00:48Z</time>
      </trkpt>
      <trkpt lat="45.11865" lon="6.39964">
        <ele>1980.8</ele>
        <time>2017-04-16T13:00:53Z</time>
      </trkpt>
      <trkpt lat="45.11865" lon="6.39969">
        <ele>1980.6</ele>
        <time>2017-04-16T13:00:58Z</time>
      </trkpt>
      <trkpt lat="45.11863" lon="6.39975">
        <ele>1977</ele>
        <time>2017-04-16T13:01:03Z</time>
      </trkpt>
      <trkpt lat="45.11864" lon="6.39983">
        <ele>1979.6</ele>
        <time>2017-04-16T13:01:08Z</time>
      </trkpt>
      <trkpt lat="45.11865" lon="6.39991">
        <ele>1973.8</ele>
        <time>2017-04-16T13:01:13Z</time>
      </trkpt>
      <trkpt lat="45.11865" lon="6.39995">
        <ele>1978.2</ele>
        <time>2017-04-16T13:01:18Z</time>
      </trkpt>
      <trkpt lat="45.11864" lon="6.39995">
        <ele>1977.6</ele>
        <time>2017-04-16T13:01:23Z</time>
      </trkpt>
      <trkpt lat="45.11864" lon="6.4">
        <ele>1979</ele>
        <time>2017-04-16T13:01:28Z</time>
      </trkpt>
      <trkpt lat="45.11864" lon="6.40007">
        <ele>1976.8</ele>
        <time>2017-04-16T13:01:33Z</time>
      </trkpt>
      <trkpt lat="45.11866" lon="6.40016">
        <ele>1972.4</ele>
        <time>2017-04-16T13:01:38Z</time>
      </trkpt>
      <trkpt lat="45.11867" lon="6.40024">
        <ele>1977.6</ele>
        <time>2017-04-16T13:01:43Z</time>
      </trkpt>
      <trkpt lat="45.11869" lon="6.40031">
        <ele>1974.2</ele>
        <time>2017-04-16T13:01:48Z</time>
      </trkpt>
      <trkpt lat="45.11871" lon="6.40038">
        <ele>1973</ele>
        <time>2017-04-16T13:01:53Z</time>
      </trkpt>
      <trkpt lat="45.11872" lon="6.40042">
        <ele>1974</ele>
        <time>2017-04-16T13:01:58Z</time>
      </trkpt>
      <trkpt lat="45.11873" lon="6.40047">
        <ele>1972.6</ele>
        <time>2017-04-16T13:02:03Z</time>
      </trkpt>
      <trkpt lat="45.11873" lon="6.40054">
        <ele>1971.4</ele>
        <time>2017-04-16T13:02:08Z</time>
      </trkpt>
      <trkpt lat="45.11873" lon="6.40061">
        <ele>1973.2</ele>
        <time>2017-04-16T13:02:13Z</time>
      </trkpt>
      <trkpt lat="45.11875" lon="6.40065">
        <ele>1974.4</ele>
        <time>2017-04-16T13:02:18Z</time>
      </trkpt>
      <trkpt lat="45.11877" lon="6.40071">
        <ele>1973.6</ele>
        <time>2017-04-16T13:02:23Z</time>
      </trkpt>
      <trkpt lat="45.11878" lon="6.40077">
        <ele>1973.6</ele>
        <time>2017-04-16T13:02:28Z</time>
      </trkpt>
      <trkpt lat="45.1188" lon="6.40082">
        <ele>1974.2</ele>
        <time>2017-04-16T13:02:33Z</time>
      </trkpt>
      <trkpt lat="45.11882" lon="6.40089">
        <ele>1974.8</ele>
        <time>2017-04-16T13:02:38Z</time>
      </trkpt>
      <trkpt lat="45.11884" lon="6.40096">
        <ele>1973.4</ele>
        <time>2017-04-16T13:02:43Z</time>
      </trkpt>
      <trkpt lat="45.11886" lon="6.40103">
        <ele>1969.4</ele>
        <time>2017-04-16T13:02:48Z</time>
      </trkpt>
      <trkpt lat="45.11887" lon="6.4011">
        <ele>1973.6</ele>
        <time>2017-04-16T13:02:53Z</time>
      </trkpt>
      <trkpt lat="45.11888" lon="6.40117">
        <ele>1973.6</ele>
        <time>2017-04-16T13:02:58Z</time>
      </trkpt>
      <trkpt lat="45.11888" lon="6.40121">
        <ele>1972</ele>
        <time>2017-04-16T13:03:03Z</time>
      </trkpt>
      <trkpt lat="45.11888" lon="6.40121">
        <ele>1972</ele>
        <time>2017-04-16T13:03:08Z</time>
      </trkpt>
      <trkpt lat="45.11889" lon="6.40122">
        <ele>1976</ele>
        <time>2017-04-16T13:03:13Z</time>
      </trkpt>
      <trkpt lat="45.1189" lon="6.40123">
        <ele>1973.8</ele>
        <time>2017-04-16T13:03:18Z</time>
      </trkpt>
      <trkpt lat="45.1189" lon="6.40123">
        <ele>1973.2</ele>
        <time>2017-04-16T13:03:28Z</time>
      </trkpt>
      <trkpt lat="45.11891" lon="6.40129">
        <ele>1973.2</ele>
        <time>2017-04-16T13:03:33Z</time>
      </trkpt>
      <trkpt lat="45.11892" lon="6.40137">
        <ele>1973</ele>
        <time>2017-04-16T13:03:38Z</time>
      </trkpt>
      <trkpt lat="45.11892" lon="6.40145">
        <ele>1971.8</ele>
        <time>2017-04-16T13:03:43Z</time>
      </trkpt>
      <trkpt lat="45.11893" lon="6.40153">
        <ele>1974</ele>
        <time>2017-04-16T13:03:48Z</time>
      </trkpt>
      <trkpt lat="45.11894" lon="6.4016">
        <ele>1972.2</ele>
        <time>2017-04-16T13:03:53Z</time>
      </trkpt>
      <trkpt lat="45.11894" lon="6.40168">
        <ele>1972.2</ele>
        <time>2017-04-16T13:03:58Z</time>
      </trkpt>
      <trkpt lat="45.11896" lon="6.40175">
        <ele>1970.8</ele>
        <time>2017-04-16T13:04:03Z</time>
      </trkpt>
      <trkpt lat="45.11896" lon="6.40182">
        <ele>1970.6</ele>
        <time>2017-04-16T13:04:08Z</time>
      </trkpt>
      <trkpt lat="45.11898" lon="6.40189">
        <ele>1972.6</ele>
        <time>2017-04-16T13:04:13Z</time>
      </trkpt>
      <trkpt lat="45.11899" lon="6.40197">
        <ele>1972.4</ele>
        <time>2017-04-16T13:04:18Z</time>
      </trkpt>
      <trkpt lat="45.119" lon="6.40203">
        <ele>1971.2</ele>
        <time>2017-04-16T13:04:23Z</time>
      </trkpt>
      <trkpt lat="45.119" lon="6.4021">
        <ele>1969.2</ele>
        <time>2017-04-16T13:04:28Z</time>
      </trkpt>
      <trkpt lat="45.11902" lon="6.40216">
        <ele>1969.2</ele>
        <time>2017-04-16T13:04:33Z</time>
      </trkpt>
      <trkpt lat="45.11903" lon="6.40222">
        <ele>1968.8</ele>
        <time>2017-04-16T13:04:38Z</time>
      </trkpt>
      <trkpt lat="45.11904" lon="6.40228">
        <ele>1970.2</ele>
        <time>2017-04-16T13:04:43Z</time>
      </trkpt>
      <trkpt lat="45.11905" lon="6.40234">
        <ele>1968.2</ele>
        <time>2017-04-16T13:04:48Z</time>
      </trkpt>
      <trkpt lat="45.11906" lon="6.40241">
        <ele>1969.2</ele>
        <time>2017-04-16T13:04:53Z</time>
      </trkpt>
      <trkpt lat="45.11908" lon="6.40248">
        <ele>1969.6</ele>
        <time>2017-04-16T13:04:58Z</time>
      </trkpt>
      <trkpt lat="45.1191" lon="6.40255">
        <ele>1969.8</ele>
        <time>2017-04-16T13:05:03Z</time>
      </trkpt>
      <trkpt lat="45.11911" lon="6.40262">
        <ele>1969</ele>
        <time>2017-04-16T13:05:08Z</time>
      </trkpt>
      <trkpt lat="45.11912" lon="6.40265">
        <ele>1967</ele>
        <time>2017-04-16T13:05:13Z</time>
      </trkpt>
      <trkpt lat="45.11914" lon="6.40268">
        <ele>1967</ele>
        <time>2017-04-16T13:05:18Z</time>
      </trkpt>
      <trkpt lat="45.11919" lon="6.40271">
        <ele>1968.4</ele>
        <time>2017-04-16T13:05:23Z</time>
      </trkpt>
      <trkpt lat="45.11922" lon="6.40274">
        <ele>1966</ele>
        <time>2017-04-16T13:05:28Z</time>
      </trkpt>
      <trkpt lat="45.11926" lon="6.40277">
        <ele>1966.6</ele>
        <time>2017-04-16T13:05:33Z</time>
      </trkpt>
      <trkpt lat="45.11932" lon="6.4028">
        <ele>1963.6</ele>
        <time>2017-04-16T13:05:38Z</time>
      </trkpt>
      <trkpt lat="45.11935" lon="6.40285">
        <ele>1962.8</ele>
        <time>2017-04-16T13:05:43Z</time>
      </trkpt>
      <trkpt lat="45.11937" lon="6.40289">
        <ele>1966.2</ele>
        <time>2017-04-16T13:05:48Z</time>
      </trkpt>
      <trkpt lat="45.11938" lon="6.40292">
        <ele>1966</ele>
        <time>2017-04-16T13:05:53Z</time>
      </trkpt>
      <trkpt lat="45.1194" lon="6.40295">
        <ele>1965.8</ele>
        <time>2017-04-16T13:05:58Z</time>
      </trkpt>
      <trkpt lat="45.11941" lon="6.40302">
        <ele>1963</ele>
        <time>2017-04-16T13:06:03Z</time>
      </trkpt>
      <trkpt lat="45.11943" lon="6.4031">
        <ele>1961.6</ele>
        <time>2017-04-16T13:06:08Z</time>
      </trkpt>
      <trkpt lat="45.11943" lon="6.40314">
        <ele>1960.4</ele>
        <time>2017-04-16T13:06:13Z</time>
      </trkpt>
      <trkpt lat="45.11945" lon="6.40319">
        <ele>1959.4</ele>
        <time>2017-04-16T13:06:18Z</time>
      </trkpt>
      <trkpt lat="45.11946" lon="6.40325">
        <ele>1960.4</ele>
        <time>2017-04-16T13:06:23Z</time>
      </trkpt>
      <trkpt lat="45.11947" lon="6.4033">
        <ele>1960.4</ele>
        <time>2017-04-16T13:06:28Z</time>
      </trkpt>
      <trkpt lat="45.11947" lon="6.40337">
        <ele>1965</ele>
        <time>2017-04-16T13:06:33Z</time>
      </trkpt>
      <trkpt lat="45.11949" lon="6.40343">
        <ele>1961.2</ele>
        <time>2017-04-16T13:06:38Z</time>
      </trkpt>
      <trkpt lat="45.11951" lon="6.40349">
        <ele>1961.2</ele>
        <time>2017-04-16T13:06:43Z</time>
      </trkpt>
      <trkpt lat="45.11954" lon="6.40356">
        <ele>1962.6</ele>
        <time>2017-04-16T13:06:48Z</time>
      </trkpt>
      <trkpt lat="45.11956" lon="6.40362">
        <ele>1959.6</ele>
        <time>2017-04-16T13:06:53Z</time>
      </trkpt>
      <trkpt lat="45.11959" lon="6.40368">
        <ele>1959.4</ele>
        <time>2017-04-16T13:06:58Z</time>
      </trkpt>
      <trkpt lat="45.11961" lon="6.40376">
        <ele>1959.6</ele>
        <time>2017-04-16T13:07:03Z</time>
      </trkpt>
      <trkpt lat="45.11961" lon="6.40384">
        <ele>1961</ele>
        <time>2017-04-16T13:07:08Z</time>
      </trkpt>
      <trkpt lat="45.11962" lon="6.4039">
        <ele>1959</ele>
        <time>2017-04-16T13:07:13Z</time>
      </trkpt>
      <trkpt lat="45.11963" lon="6.40396">
        <ele>1960</ele>
        <time>2017-04-16T13:07:18Z</time>
      </trkpt>
      <trkpt lat="45.11961" lon="6.40402">
        <ele>1958.8</ele>
        <time>2017-04-16T13:07:23Z</time>
      </trkpt>
      <trkpt lat="45.11961" lon="6.40408">
        <ele>1959.4</ele>
        <time>2017-04-16T13:07:28Z</time>
      </trkpt>
      <trkpt lat="45.1196" lon="6.40414">
        <ele>1959.2</ele>
        <time>2017-04-16T13:07:33Z</time>
      </trkpt>
      <trkpt lat="45.11961" lon="6.4042">
        <ele>1959</ele>
        <time>2017-04-16T13:07:38Z</time>
      </trkpt>
      <trkpt lat="45.11963" lon="6.40425">
        <ele>1959</ele>
        <time>2017-04-16T13:07:43Z</time>
      </trkpt>
      <trkpt lat="45.11964" lon="6.40431">
        <ele>1959</ele>
        <time>2017-04-16T13:07:48Z</time>
      </trkpt>
      <trkpt lat="45.11963" lon="6.40437">
        <ele>1959</ele>
        <time>2017-04-16T13:07:53Z</time>
      </trkpt>
      <trkpt lat="45.11963" lon="6.40444">
        <ele>1958.8</ele>
        <time>2017-04-16T13:07:58Z</time>
      </trkpt>
      <trkpt lat="45.11964" lon="6.40451">
        <ele>1956.6</ele>
        <time>2017-04-16T13:08:03Z</time>
      </trkpt>
      <trkpt lat="45.11964" lon="6.40458">
        <ele>1956.8</ele>
        <time>2017-04-16T13:08:08Z</time>
      </trkpt>
      <trkpt lat="45.11963" lon="6.40465">
        <ele>1959.2</ele>
        <time>2017-04-16T13:08:13Z</time>
      </trkpt>
      <trkpt lat="45.11963" lon="6.40472">
        <ele>1956.2</ele>
        <time>2017-04-16T13:08:18Z</time>
      </trkpt>
      <trkpt lat="45.11964" lon="6.40479">
        <ele>1954.6</ele>
        <time>2017-04-16T13:08:23Z</time>
      </trkpt>
      <trkpt lat="45.11968" lon="6.40483">
        <ele>1955</ele>
        <time>2017-04-16T13:08:28Z</time>
      </trkpt>
      <trkpt lat="45.11972" lon="6.40489">
        <ele>1954.4</ele>
        <time>2017-04-16T13:08:33Z</time>
      </trkpt>
      <trkpt lat="45.11973" lon="6.40495">
        <ele>1954.6</ele>
        <time>2017-04-16T13:08:38Z</time>
      </trkpt>
      <trkpt lat="45.11975" lon="6.40498">
        <ele>1956.8</ele>
        <time>2017-04-16T13:08:43Z</time>
      </trkpt>
      <trkpt lat="45.11977" lon="6.40502">
        <ele>1954.4</ele>
        <time>2017-04-16T13:08:48Z</time>
      </trkpt>
      <trkpt lat="45.11978" lon="6.40507">
        <ele>1953.8</ele>
        <time>2017-04-16T13:08:53Z</time>
      </trkpt>
      <trkpt lat="45.11974" lon="6.4051">
        <ele>1951.4</ele>
        <time>2017-04-16T13:08:58Z</time>
      </trkpt>
      <trkpt lat="45.11972" lon="6.40514">
        <ele>1953</ele>
        <time>2017-04-16T13:09:03Z</time>
      </trkpt>
      <trkpt lat="45.11967" lon="6.40516">
        <ele>1950.4</ele>
        <time>2017-04-16T13:09:08Z</time>
      </trkpt>
      <trkpt lat="45.11965" lon="6.4052">
        <ele>1949.4</ele>
        <time>2017-04-16T13:09:13Z</time>
      </trkpt>
      <trkpt lat="45.11961" lon="6.40523">
        <ele>1948.8</ele>
        <time>2017-04-16T13:09:18Z</time>
      </trkpt>
      <trkpt lat="45.11958" lon="6.40526">
        <ele>1949.2</ele>
        <time>2017-04-16T13:09:23Z</time>
      </trkpt>
      <trkpt lat="45.11955" lon="6.4053">
        <ele>1950.4</ele>
        <time>2017-04-16T13:09:28Z</time>
      </trkpt>
      <trkpt lat="45.11951" lon="6.40534">
        <ele>1946</ele>
        <time>2017-04-16T13:09:33Z</time>
      </trkpt>
      <trkpt lat="45.11947" lon="6.40537">
        <ele>1947.6</ele>
        <time>2017-04-16T13:09:38Z</time>
      </trkpt>
      <trkpt lat="45.11944" lon="6.40541">
        <ele>1941.6</ele>
        <time>2017-04-16T13:09:43Z</time>
      </trkpt>
      <trkpt lat="45.11941" lon="6.40545">
        <ele>1942.2</ele>
        <time>2017-04-16T13:09:48Z</time>
      </trkpt>
      <trkpt lat="45.11938" lon="6.40551">
        <ele>1941.6</ele>
        <time>2017-04-16T13:09:53Z</time>
      </trkpt>
      <trkpt lat="45.11935" lon="6.40555">
        <ele>1938.6</ele>
        <time>2017-04-16T13:09:58Z</time>
      </trkpt>
      <trkpt lat="45.11932" lon="6.40559">
        <ele>1934.6</ele>
        <time>2017-04-16T13:10:03Z</time>
      </trkpt>
      <trkpt lat="45.11928" lon="6.40565">
        <ele>1936</ele>
        <time>2017-04-16T13:10:08Z</time>
      </trkpt>
      <trkpt lat="45.11926" lon="6.40572">
        <ele>1933.4</ele>
        <time>2017-04-16T13:10:13Z</time>
      </trkpt>
      <trkpt lat="45.11927" lon="6.40579">
        <ele>1932.8</ele>
        <time>2017-04-16T13:10:18Z</time>
      </trkpt>
      <trkpt lat="45.11928" lon="6.40587">
        <ele>1934.2</ele>
        <time>2017-04-16T13:10:23Z</time>
      </trkpt>
      <trkpt lat="45.1193" lon="6.40595">
        <ele>1931.6</ele>
        <time>2017-04-16T13:10:29Z</time>
      </trkpt>
      <trkpt lat="45.11931" lon="6.40602">
        <ele>1929.8</ele>
        <time>2017-04-16T13:10:34Z</time>
      </trkpt>
      <trkpt lat="45.1193" lon="6.40608">
        <ele>1930.6</ele>
        <time>2017-04-16T13:10:39Z</time>
      </trkpt>
      <trkpt lat="45.11928" lon="6.40615">
        <ele>1925.8</ele>
        <time>2017-04-16T13:10:45Z</time>
      </trkpt>
      <trkpt lat="45.11928" lon="6.40618">
        <ele>1928.4</ele>
        <time>2017-04-16T13:10:51Z</time>
      </trkpt>
      <trkpt lat="45.11927" lon="6.40622">
        <ele>1926.2</ele>
        <time>2017-04-16T13:10:56Z</time>
      </trkpt>
      <trkpt lat="45.11928" lon="6.40627">
        <ele>1925.2</ele>
        <time>2017-04-16T13:11:01Z</time>
      </trkpt>
      <trkpt lat="45.1193" lon="6.40631">
        <ele>1925.4</ele>
        <time>2017-04-16T13:11:06Z</time>
      </trkpt>
      <trkpt lat="45.11935" lon="6.40635">
        <ele>1924.4</ele>
        <time>2017-04-16T13:11:11Z</time>
      </trkpt>
      <trkpt lat="45.11936" lon="6.40642">
        <ele>1923.6</ele>
        <time>2017-04-16T13:11:16Z</time>
      </trkpt>
      <trkpt lat="45.11937" lon="6.40648">
        <ele>1922</ele>
        <time>2017-04-16T13:11:21Z</time>
      </trkpt>
      <trkpt lat="45.11935" lon="6.40655">
        <ele>1921.4</ele>
        <time>2017-04-16T13:11:26Z</time>
      </trkpt>
      <trkpt lat="45.11935" lon="6.40661">
        <ele>1919</ele>
        <time>2017-04-16T13:11:31Z</time>
      </trkpt>
      <trkpt lat="45.11936" lon="6.40666">
        <ele>1919.6</ele>
        <time>2017-04-16T13:11:36Z</time>
      </trkpt>
      <trkpt lat="45.11934" lon="6.40673">
        <ele>1918</ele>
        <time>2017-04-16T13:11:41Z</time>
      </trkpt>
      <trkpt lat="45.11931" lon="6.40678">
        <ele>1917</ele>
        <time>2017-04-16T13:11:46Z</time>
      </trkpt>
      <trkpt lat="45.1193" lon="6.40683">
        <ele>1915.8</ele>
        <time>2017-04-16T13:11:51Z</time>
      </trkpt>
      <trkpt lat="45.11929" lon="6.40683">
        <ele>1915.8</ele>
        <time>2017-04-16T13:11:56Z</time>
      </trkpt>
      <trkpt lat="45.1193" lon="6.40687">
        <ele>1915.2</ele>
        <time>2017-04-16T13:12:01Z</time>
      </trkpt>
      <trkpt lat="45.11931" lon="6.40694">
        <ele>1915</ele>
        <time>2017-04-16T13:12:06Z</time>
      </trkpt>
      <trkpt lat="45.11931" lon="6.40702">
        <ele>1915</ele>
        <time>2017-04-16T13:12:11Z</time>
      </trkpt>
      <trkpt lat="45.11929" lon="6.4071">
        <ele>1913.2</ele>
        <time>2017-04-16T13:12:16Z</time>
      </trkpt>
      <trkpt lat="45.11928" lon="6.40717">
        <ele>1913.8</ele>
        <time>2017-04-16T13:12:21Z</time>
      </trkpt>
      <trkpt lat="45.11925" lon="6.40724">
        <ele>1913.8</ele>
        <time>2017-04-16T13:12:26Z</time>
      </trkpt>
      <trkpt lat="45.11923" lon="6.40731">
        <ele>1912.6</ele>
        <time>2017-04-16T13:12:31Z</time>
      </trkpt>
      <trkpt lat="45.11921" lon="6.40739">
        <ele>1913.6</ele>
        <time>2017-04-16T13:12:36Z</time>
      </trkpt>
      <trkpt lat="45.11919" lon="6.40746">
        <ele>1913.2</ele>
        <time>2017-04-16T13:12:41Z</time>
      </trkpt>
      <trkpt lat="45.11917" lon="6.40753">
        <ele>1913.6</ele>
        <time>2017-04-16T13:12:46Z</time>
      </trkpt>
      <trkpt lat="45.11914" lon="6.40759">
        <ele>1913.8</ele>
        <time>2017-04-16T13:12:51Z</time>
      </trkpt>
      <trkpt lat="45.11911" lon="6.40764">
        <ele>1910.4</ele>
        <time>2017-04-16T13:12:56Z</time>
      </trkpt>
      <trkpt lat="45.11907" lon="6.40769">
        <ele>1907.4</ele>
        <time>2017-04-16T13:13:01Z</time>
      </trkpt>
      <trkpt lat="45.11908" lon="6.40776">
        <ele>1907.4</ele>
        <time>2017-04-16T13:13:06Z</time>
      </trkpt>
      <trkpt lat="45.11908" lon="6.40779">
        <ele>1907.8</ele>
        <time>2017-04-16T13:13:11Z</time>
      </trkpt>
      <trkpt lat="45.11906" lon="6.40786">
        <ele>1908.4</ele>
        <time>2017-04-16T13:13:16Z</time>
      </trkpt>
      <trkpt lat="45.11906" lon="6.40793">
        <ele>1906.4</ele>
        <time>2017-04-16T13:13:21Z</time>
      </trkpt>
      <trkpt lat="45.11906" lon="6.40799">
        <ele>1907.2</ele>
        <time>2017-04-16T13:13:26Z</time>
      </trkpt>
      <trkpt lat="45.11907" lon="6.408">
        <ele>1905.6</ele>
        <time>2017-04-16T13:13:31Z</time>
      </trkpt>
      <trkpt lat="45.11906" lon="6.40801">
        <ele>1908.6</ele>
        <time>2017-04-16T13:13:36Z</time>
      </trkpt>
      <trkpt lat="45.11905" lon="6.40807">
        <ele>1903.6</ele>
        <time>2017-04-16T13:13:41Z</time>
      </trkpt>
      <trkpt lat="45.11903" lon="6.40811">
        <ele>1904.8</ele>
        <time>2017-04-16T13:13:46Z</time>
      </trkpt>
      <trkpt lat="45.11899" lon="6.40813">
        <ele>1902.8</ele>
        <time>2017-04-16T13:13:51Z</time>
      </trkpt>
      <trkpt lat="45.11898" lon="6.40818">
        <ele>1903.8</ele>
        <time>2017-04-16T13:13:56Z</time>
      </trkpt>
      <trkpt lat="45.11897" lon="6.40822">
        <ele>1900.8</ele>
        <time>2017-04-16T13:14:01Z</time>
      </trkpt>
      <trkpt lat="45.11896" lon="6.40827">
        <ele>1898.2</ele>
        <time>2017-04-16T13:14:06Z</time>
      </trkpt>
      <trkpt lat="45.11897" lon="6.40832">
        <ele>1897.2</ele>
        <time>2017-04-16T13:14:11Z</time>
      </trkpt>
      <trkpt lat="45.11896" lon="6.40838">
        <ele>1895.6</ele>
        <time>2017-04-16T13:14:16Z</time>
      </trkpt>
      <trkpt lat="45.11894" lon="6.40843">
        <ele>1896.4</ele>
        <time>2017-04-16T13:14:21Z</time>
      </trkpt>
      <trkpt lat="45.11892" lon="6.40846">
        <ele>1893.8</ele>
        <time>2017-04-16T13:14:26Z</time>
      </trkpt>
      <trkpt lat="45.1189" lon="6.4085">
        <ele>1895</ele>
        <time>2017-04-16T13:14:31Z</time>
      </trkpt>
      <trkpt lat="45.11891" lon="6.40857">
        <ele>1892</ele>
        <time>2017-04-16T13:14:36Z</time>
      </trkpt>
      <trkpt lat="45.11892" lon="6.40863">
        <ele>1889.8</ele>
        <time>2017-04-16T13:14:41Z</time>
      </trkpt>
      <trkpt lat="45.11893" lon="6.4087">
        <ele>1893.2</ele>
        <time>2017-04-16T13:14:46Z</time>
      </trkpt>
      <trkpt lat="45.11893" lon="6.40875">
        <ele>1890.4</ele>
        <time>2017-04-16T13:14:51Z</time>
      </trkpt>
      <trkpt lat="45.11895" lon="6.40881">
        <ele>1887.4</ele>
        <time>2017-04-16T13:14:56Z</time>
      </trkpt>
      <trkpt lat="45.11897" lon="6.40887">
        <ele>1888.2</ele>
        <time>2017-04-16T13:15:01Z</time>
      </trkpt>
      <trkpt lat="45.11898" lon="6.40894">
        <ele>1884.2</ele>
        <time>2017-04-16T13:15:06Z</time>
      </trkpt>
      <trkpt lat="45.11899" lon="6.409">
        <ele>1884.8</ele>
        <time>2017-04-16T13:15:11Z</time>
      </trkpt>
      <trkpt lat="45.11901" lon="6.40906">
        <ele>1886.8</ele>
        <time>2017-04-16T13:15:16Z</time>
      </trkpt>
      <trkpt lat="45.11901" lon="6.40914">
        <ele>1883.6</ele>
        <time>2017-04-16T13:15:21Z</time>
      </trkpt>
      <trkpt lat="45.11902" lon="6.4092">
        <ele>1884</ele>
        <time>2017-04-16T13:15:26Z</time>
      </trkpt>
      <trkpt lat="45.11903" lon="6.40927">
        <ele>1882</ele>
        <time>2017-04-16T13:15:31Z</time>
      </trkpt>
      <trkpt lat="45.11905" lon="6.40934">
        <ele>1881.4</ele>
        <time>2017-04-16T13:15:36Z</time>
      </trkpt>
      <trkpt lat="45.11906" lon="6.40939">
        <ele>1879.8</ele>
        <time>2017-04-16T13:15:41Z</time>
      </trkpt>
      <trkpt lat="45.11904" lon="6.40944">
        <ele>1881.2</ele>
        <time>2017-04-16T13:15:46Z</time>
      </trkpt>
      <trkpt lat="45.11903" lon="6.4095">
        <ele>1881.4</ele>
        <time>2017-04-16T13:15:51Z</time>
      </trkpt>
      <trkpt lat="45.119" lon="6.40957">
        <ele>1881.4</ele>
        <time>2017-04-16T13:15:56Z</time>
      </trkpt>
      <trkpt lat="45.11897" lon="6.40962">
        <ele>1881.2</ele>
        <time>2017-04-16T13:16:01Z</time>
      </trkpt>
      <trkpt lat="45.11894" lon="6.40967">
        <ele>1877.2</ele>
        <time>2017-04-16T13:16:06Z</time>
      </trkpt>
      <trkpt lat="45.11893" lon="6.40974">
        <ele>1879.6</ele>
        <time>2017-04-16T13:16:12Z</time>
      </trkpt>
      <trkpt lat="45.11892" lon="6.4098">
        <ele>1877.2</ele>
        <time>2017-04-16T13:16:17Z</time>
      </trkpt>
      <trkpt lat="45.11891" lon="6.40986">
        <ele>1877.6</ele>
        <time>2017-04-16T13:16:22Z</time>
      </trkpt>
      <trkpt lat="45.11888" lon="6.40991">
        <ele>1874.4</ele>
        <time>2017-04-16T13:16:27Z</time>
      </trkpt>
      <trkpt lat="45.11886" lon="6.40996">
        <ele>1875.8</ele>
        <time>2017-04-16T13:16:32Z</time>
      </trkpt>
      <trkpt lat="45.11885" lon="6.41001">
        <ele>1875.8</ele>
        <time>2017-04-16T13:16:37Z</time>
      </trkpt>
      <trkpt lat="45.11885" lon="6.41003">
        <ele>1871.8</ele>
        <time>2017-04-16T13:16:47Z</time>
      </trkpt>
      <trkpt lat="45.11882" lon="6.41007">
        <ele>1870.8</ele>
        <time>2017-04-16T13:16:52Z</time>
      </trkpt>
      <trkpt lat="45.11879" lon="6.41012">
        <ele>1869.8</ele>
        <time>2017-04-16T13:16:57Z</time>
      </trkpt>
      <trkpt lat="45.11876" lon="6.41017">
        <ele>1867.2</ele>
        <time>2017-04-16T13:17:02Z</time>
      </trkpt>
      <trkpt lat="45.11872" lon="6.41022">
        <ele>1864.6</ele>
        <time>2017-04-16T13:17:07Z</time>
      </trkpt>
      <trkpt lat="45.1187" lon="6.41028">
        <ele>1864.4</ele>
        <time>2017-04-16T13:17:12Z</time>
      </trkpt>
      <trkpt lat="45.11868" lon="6.41035">
        <ele>1866</ele>
        <time>2017-04-16T13:17:17Z</time>
      </trkpt>
      <trkpt lat="45.11866" lon="6.41042">
        <ele>1864.8</ele>
        <time>2017-04-16T13:17:22Z</time>
      </trkpt>
      <trkpt lat="45.11865" lon="6.41049">
        <ele>1864</ele>
        <time>2017-04-16T13:17:27Z</time>
      </trkpt>
      <trkpt lat="45.11866" lon="6.41056">
        <ele>1861.4</ele>
        <time>2017-04-16T13:17:32Z</time>
      </trkpt>
      <trkpt lat="45.11868" lon="6.41061">
        <ele>1861.6</ele>
        <time>2017-04-16T13:17:37Z</time>
      </trkpt>
      <trkpt lat="45.11872" lon="6.41066">
        <ele>1861.4</ele>
        <time>2017-04-16T13:17:42Z</time>
      </trkpt>
      <trkpt lat="45.11875" lon="6.41072">
        <ele>1862</ele>
        <time>2017-04-16T13:17:47Z</time>
      </trkpt>
      <trkpt lat="45.11877" lon="6.41078">
        <ele>1861.2</ele>
        <time>2017-04-16T13:17:52Z</time>
      </trkpt>
      <trkpt lat="45.11877" lon="6.41086">
        <ele>1859.4</ele>
        <time>2017-04-16T13:17:57Z</time>
      </trkpt>
      <trkpt lat="45.11875" lon="6.41092">
        <ele>1857.8</ele>
        <time>2017-04-16T13:18:02Z</time>
      </trkpt>
      <trkpt lat="45.11874" lon="6.41098">
        <ele>1858.4</ele>
        <time>2017-04-16T13:18:07Z</time>
      </trkpt>
      <trkpt lat="45.11875" lon="6.41103">
        <ele>1856</ele>
        <time>2017-04-16T13:18:12Z</time>
      </trkpt>
      <trkpt lat="45.11873" lon="6.41108">
        <ele>1851.8</ele>
        <time>2017-04-16T13:18:17Z</time>
      </trkpt>
      <trkpt lat="45.11872" lon="6.41113">
        <ele>1852.6</ele>
        <time>2017-04-16T13:18:22Z</time>
      </trkpt>
      <trkpt lat="45.11873" lon="6.41119">
        <ele>1852</ele>
        <time>2017-04-16T13:18:27Z</time>
      </trkpt>
      <trkpt lat="45.11864" lon="6.41127">
        <ele>1850.6</ele>
        <time>2017-04-16T13:18:42Z</time>
      </trkpt>
      <trkpt lat="45.1186" lon="6.41128">
        <ele>1847.4</ele>
        <time>2017-04-16T13:18:52Z</time>
      </trkpt>
      <trkpt lat="45.11858" lon="6.41135">
        <ele>1846</ele>
        <time>2017-04-16T13:19:02Z</time>
      </trkpt>
      <trkpt lat="45.11856" lon="6.41137">
        <ele>1847</ele>
        <time>2017-04-16T13:19:37Z</time>
      </trkpt>
      <trkpt lat="45.11856" lon="6.4114">
        <ele>1849.6</ele>
        <time>2017-04-16T13:19:42Z</time>
      </trkpt>
      <trkpt lat="45.11857" lon="6.41144">
        <ele>1845.2</ele>
        <time>2017-04-16T13:19:47Z</time>
      </trkpt>
      <trkpt lat="45.11858" lon="6.41148">
        <ele>1846</ele>
        <time>2017-04-16T13:19:52Z</time>
      </trkpt>
      <trkpt lat="45.11856" lon="6.41153">
        <ele>1844.6</ele>
        <time>2017-04-16T13:20:02Z</time>
      </trkpt>
      <trkpt lat="45.11853" lon="6.41159">
        <ele>1840.4</ele>
        <time>2017-04-16T13:20:07Z</time>
      </trkpt>
      <trkpt lat="45.1185" lon="6.41163">
        <ele>1841</ele>
        <time>2017-04-16T13:20:12Z</time>
      </trkpt>
      <trkpt lat="45.11847" lon="6.41166">
        <ele>1838</ele>
        <time>2017-04-16T13:20:17Z</time>
      </trkpt>
      <trkpt lat="45.11845" lon="6.4117">
        <ele>1837.6</ele>
        <time>2017-04-16T13:20:22Z</time>
      </trkpt>
      <trkpt lat="45.11841" lon="6.41171">
        <ele>1839.2</ele>
        <time>2017-04-16T13:20:27Z</time>
      </trkpt>
      <trkpt lat="45.11838" lon="6.41171">
        <ele>1835.8</ele>
        <time>2017-04-16T13:20:32Z</time>
      </trkpt>
      <trkpt lat="45.11835" lon="6.41169">
        <ele>1836.6</ele>
        <time>2017-04-16T13:20:37Z</time>
      </trkpt>
      <trkpt lat="45.11833" lon="6.41168">
        <ele>1832</ele>
        <time>2017-04-16T13:20:42Z</time>
      </trkpt>
      <trkpt lat="45.1183" lon="6.41168">
        <ele>1832.6</ele>
        <time>2017-04-16T13:20:47Z</time>
      </trkpt>
      <trkpt lat="45.11828" lon="6.41163">
        <ele>1830.8</ele>
        <time>2017-04-16T13:20:52Z</time>
      </trkpt>
      <trkpt lat="45.11825" lon="6.4116">
        <ele>1833.2</ele>
        <time>2017-04-16T13:20:57Z</time>
      </trkpt>
      <trkpt lat="45.11823" lon="6.41158">
        <ele>1827.6</ele>
        <time>2017-04-16T13:21:02Z</time>
      </trkpt>
      <trkpt lat="45.1182" lon="6.41157">
        <ele>1826.8</ele>
        <time>2017-04-16T13:21:08Z</time>
      </trkpt>
      <trkpt lat="45.11818" lon="6.41161">
        <ele>1828</ele>
        <time>2017-04-16T13:21:13Z</time>
      </trkpt>
      <trkpt lat="45.11818" lon="6.41166">
        <ele>1828.4</ele>
        <time>2017-04-16T13:21:23Z</time>
      </trkpt>
      <trkpt lat="45.11817" lon="6.41167">
        <ele>1827</ele>
        <time>2017-04-16T13:21:28Z</time>
      </trkpt>
      <trkpt lat="45.11814" lon="6.4117">
        <ele>1825.4</ele>
        <time>2017-04-16T13:21:33Z</time>
      </trkpt>
      <trkpt lat="45.11813" lon="6.41173">
        <ele>1827</ele>
        <time>2017-04-16T13:21:38Z</time>
      </trkpt>
      <trkpt lat="45.11814" lon="6.41179">
        <ele>1821.6</ele>
        <time>2017-04-16T13:21:48Z</time>
      </trkpt>
      <trkpt lat="45.11814" lon="6.41183">
        <ele>1822.8</ele>
        <time>2017-04-16T13:21:53Z</time>
      </trkpt>
      <trkpt lat="45.11815" lon="6.41186">
        <ele>1823.4</ele>
        <time>2017-04-16T13:21:58Z</time>
      </trkpt>
      <trkpt lat="45.11817" lon="6.41189">
        <ele>1821</ele>
        <time>2017-04-16T13:22:03Z</time>
      </trkpt>
      <trkpt lat="45.11819" lon="6.41194">
        <ele>1820.6</ele>
        <time>2017-04-16T13:22:08Z</time>
      </trkpt>
      <trkpt lat="45.11821" lon="6.41198">
        <ele>1816.6</ele>
        <time>2017-04-16T13:22:13Z</time>
      </trkpt>
      <trkpt lat="45.11823" lon="6.41201">
        <ele>1816.2</ele>
        <time>2017-04-16T13:22:18Z</time>
      </trkpt>
      <trkpt lat="45.11826" lon="6.41206">
        <ele>1814.2</ele>
        <time>2017-04-16T13:22:23Z</time>
      </trkpt>
      <trkpt lat="45.11829" lon="6.41209">
        <ele>1815</ele>
        <time>2017-04-16T13:22:28Z</time>
      </trkpt>
      <trkpt lat="45.11832" lon="6.41212">
        <ele>1814.2</ele>
        <time>2017-04-16T13:22:33Z</time>
      </trkpt>
      <trkpt lat="45.11834" lon="6.41217">
        <ele>1811</ele>
        <time>2017-04-16T13:22:38Z</time>
      </trkpt>
      <trkpt lat="45.11836" lon="6.41221">
        <ele>1810.4</ele>
        <time>2017-04-16T13:22:43Z</time>
      </trkpt>
      <trkpt lat="45.11839" lon="6.41224">
        <ele>1809.2</ele>
        <time>2017-04-16T13:22:48Z</time>
      </trkpt>
      <trkpt lat="45.1184" lon="6.41227">
        <ele>1808.8</ele>
        <time>2017-04-16T13:22:53Z</time>
      </trkpt>
      <trkpt lat="45.11842" lon="6.41229">
        <ele>1806.6</ele>
        <time>2017-04-16T13:22:58Z</time>
      </trkpt>
      <trkpt lat="45.11844" lon="6.41231">
        <ele>1805.6</ele>
        <time>2017-04-16T13:23:03Z</time>
      </trkpt>
      <trkpt lat="45.11846" lon="6.41232">
        <ele>1807.4</ele>
        <time>2017-04-16T13:23:08Z</time>
      </trkpt>
      <trkpt lat="45.1185" lon="6.41234">
        <ele>1806</ele>
        <time>2017-04-16T13:23:13Z</time>
      </trkpt>
      <trkpt lat="45.11856" lon="6.41236">
        <ele>1805.8</ele>
        <time>2017-04-16T13:23:18Z</time>
      </trkpt>
      <trkpt lat="45.1186" lon="6.41238">
        <ele>1803.4</ele>
        <time>2017-04-16T13:23:23Z</time>
      </trkpt>
      <trkpt lat="45.11862" lon="6.41239">
        <ele>1805</ele>
        <time>2017-04-16T13:23:28Z</time>
      </trkpt>
      <trkpt lat="45.11863" lon="6.41241">
        <ele>1805.6</ele>
        <time>2017-04-16T13:23:33Z</time>
      </trkpt>
      <trkpt lat="45.11867" lon="6.41244">
        <ele>1806.8</ele>
        <time>2017-04-16T13:23:38Z</time>
      </trkpt>
      <trkpt lat="45.1187" lon="6.41246">
        <ele>1805.4</ele>
        <time>2017-04-16T13:23:43Z</time>
      </trkpt>
      <trkpt lat="45.11872" lon="6.41248">
        <ele>1806</ele>
        <time>2017-04-16T13:23:48Z</time>
      </trkpt>
      <trkpt lat="45.11877" lon="6.41249">
        <ele>1804.6</ele>
        <time>2017-04-16T13:23:53Z</time>
      </trkpt>
      <trkpt lat="45.11883" lon="6.41253">
        <ele>1806.4</ele>
        <time>2017-04-16T13:23:58Z</time>
      </trkpt>
      <trkpt lat="45.11888" lon="6.41256">
        <ele>1804</ele>
        <time>2017-04-16T13:24:03Z</time>
      </trkpt>
      <trkpt lat="45.11893" lon="6.4126">
        <ele>1801.2</ele>
        <time>2017-04-16T13:24:08Z</time>
      </trkpt>
      <trkpt lat="45.11894" lon="6.41263">
        <ele>1799.6</ele>
        <time>2017-04-16T13:24:13Z</time>
      </trkpt>
      <trkpt lat="45.11896" lon="6.41265">
        <ele>1799</ele>
        <time>2017-04-16T13:24:18Z</time>
      </trkpt>
      <trkpt lat="45.11899" lon="6.41267">
        <ele>1798</ele>
        <time>2017-04-16T13:24:23Z</time>
      </trkpt>
      <trkpt lat="45.11899" lon="6.41267">
        <ele>1795.4</ele>
        <time>2017-04-16T13:24:28Z</time>
      </trkpt>
      <trkpt lat="45.119" lon="6.4127">
        <ele>1796.4</ele>
        <time>2017-04-16T13:24:33Z</time>
      </trkpt>
      <trkpt lat="45.119" lon="6.41272">
        <ele>1796.2</ele>
        <time>2017-04-16T13:24:38Z</time>
      </trkpt>
      <trkpt lat="45.11901" lon="6.41276">
        <ele>1794.6</ele>
        <time>2017-04-16T13:24:43Z</time>
      </trkpt>
      <trkpt lat="45.119" lon="6.41281">
        <ele>1794</ele>
        <time>2017-04-16T13:24:48Z</time>
      </trkpt>
      <trkpt lat="45.11898" lon="6.41286">
        <ele>1791.6</ele>
        <time>2017-04-16T13:24:53Z</time>
      </trkpt>
      <trkpt lat="45.11898" lon="6.4129">
        <ele>1791.4</ele>
        <time>2017-04-16T13:24:58Z</time>
      </trkpt>
      <trkpt lat="45.11901" lon="6.41293">
        <ele>1789</ele>
        <time>2017-04-16T13:25:03Z</time>
      </trkpt>
      <trkpt lat="45.11904" lon="6.41297">
        <ele>1788.8</ele>
        <time>2017-04-16T13:25:08Z</time>
      </trkpt>
      <trkpt lat="45.11903" lon="6.41302">
        <ele>1784</ele>
        <time>2017-04-16T13:25:13Z</time>
      </trkpt>
      <trkpt lat="45.11906" lon="6.41314">
        <ele>1780.8</ele>
        <time>2017-04-16T13:25:33Z</time>
      </trkpt>
      <trkpt lat="45.11908" lon="6.41317">
        <ele>1783.2</ele>
        <time>2017-04-16T13:25:38Z</time>
      </trkpt>
      <trkpt lat="45.11912" lon="6.41317">
        <ele>1783</ele>
        <time>2017-04-16T13:25:43Z</time>
      </trkpt>
      <trkpt lat="45.11915" lon="6.41321">
        <ele>1780.8</ele>
        <time>2017-04-16T13:25:48Z</time>
      </trkpt>
      <trkpt lat="45.11917" lon="6.41326">
        <ele>1781</ele>
        <time>2017-04-16T13:25:53Z</time>
      </trkpt>
      <trkpt lat="45.11921" lon="6.41331">
        <ele>1780.6</ele>
        <time>2017-04-16T13:25:58Z</time>
      </trkpt>
      <trkpt lat="45.11923" lon="6.41333">
        <ele>1781</ele>
        <time>2017-04-16T13:26:03Z</time>
      </trkpt>
      <trkpt lat="45.11926" lon="6.4134">
        <ele>1779</ele>
        <time>2017-04-16T13:26:08Z</time>
      </trkpt>
      <trkpt lat="45.11927" lon="6.41343">
        <ele>1778.4</ele>
        <time>2017-04-16T13:26:13Z</time>
      </trkpt>
      <trkpt lat="45.1193" lon="6.41347">
        <ele>1780.8</ele>
        <time>2017-04-16T13:26:18Z</time>
      </trkpt>
      <trkpt lat="45.11932" lon="6.41351">
        <ele>1778.6</ele>
        <time>2017-04-16T13:26:23Z</time>
      </trkpt>
      <trkpt lat="45.11933" lon="6.41352">
        <ele>1776.4</ele>
        <time>2017-04-16T13:26:28Z</time>
      </trkpt>
      <trkpt lat="45.11935" lon="6.41354">
        <ele>1779.6</ele>
        <time>2017-04-16T13:26:33Z</time>
      </trkpt>
      <trkpt lat="45.11938" lon="6.41356">
        <ele>1779.6</ele>
        <time>2017-04-16T13:26:38Z</time>
      </trkpt>
      <trkpt lat="45.1194" lon="6.41361">
        <ele>1779.8</ele>
        <time>2017-04-16T13:26:43Z</time>
      </trkpt>
      <trkpt lat="45.11942" lon="6.41362">
        <ele>1781.6</ele>
        <time>2017-04-16T13:26:48Z</time>
      </trkpt>
      <trkpt lat="45.11943" lon="6.41365">
        <ele>1784.2</ele>
        <time>2017-04-16T13:26:53Z</time>
      </trkpt>
      <trkpt lat="45.11943" lon="6.4137">
        <ele>1783.6</ele>
        <time>2017-04-16T13:27:08Z</time>
      </trkpt>
      <trkpt lat="45.11943" lon="6.41376">
        <ele>1780.8</ele>
        <time>2017-04-16T13:27:18Z</time>
      </trkpt>
      <trkpt lat="45.11942" lon="6.41381">
        <ele>1776.4</ele>
        <time>2017-04-16T13:27:23Z</time>
      </trkpt>
      <trkpt lat="45.11941" lon="6.41384">
        <ele>1760.2</ele>
        <time>2017-04-16T13:27:53Z</time>
      </trkpt>
      <trkpt lat="45.11935" lon="6.41385">
        <ele>1760</ele>
        <time>2017-04-16T13:27:58Z</time>
      </trkpt>
      <trkpt lat="45.11934" lon="6.41388">
        <ele>1757.2</ele>
        <time>2017-04-16T13:28:03Z</time>
      </trkpt>
      <trkpt lat="45.11934" lon="6.41388">
        <ele>1758</ele>
        <time>2017-04-16T13:28:08Z</time>
      </trkpt>
      <trkpt lat="45.11934" lon="6.41389">
        <ele>1758.4</ele>
        <time>2017-04-16T13:28:13Z</time>
      </trkpt>
      <trkpt lat="45.11932" lon="6.41389">
        <ele>1758.4</ele>
        <time>2017-04-16T13:28:18Z</time>
      </trkpt>
      <trkpt lat="45.1193" lon="6.41388">
        <ele>1756.4</ele>
        <time>2017-04-16T13:28:23Z</time>
      </trkpt>
      <trkpt lat="45.11926" lon="6.4139">
        <ele>1756.4</ele>
        <time>2017-04-16T13:28:28Z</time>
      </trkpt>
      <trkpt lat="45.11926" lon="6.4139">
        <ele>1756</ele>
        <time>2017-04-16T13:28:33Z</time>
      </trkpt>
      <trkpt lat="45.11924" lon="6.4139">
        <ele>1755.8</ele>
        <time>2017-04-16T13:28:38Z</time>
      </trkpt>
      <trkpt lat="45.1192" lon="6.4139">
        <ele>1756.4</ele>
        <time>2017-04-16T13:28:43Z</time>
      </trkpt>
      <trkpt lat="45.11917" lon="6.4139">
        <ele>1754.2</ele>
        <time>2017-04-16T13:28:48Z</time>
      </trkpt>
      <trkpt lat="45.11914" lon="6.4139">
        <ele>1748.4</ele>
        <time>2017-04-16T13:28:53Z</time>
      </trkpt>
      <trkpt lat="45.11911" lon="6.41391">
        <ele>1749.8</ele>
        <time>2017-04-16T13:28:58Z</time>
      </trkpt>
      <trkpt lat="45.11907" lon="6.41393">
        <ele>1747.4</ele>
        <time>2017-04-16T13:29:03Z</time>
      </trkpt>
      <trkpt lat="45.119" lon="6.41395">
        <ele>1748.6</ele>
        <time>2017-04-16T13:29:08Z</time>
      </trkpt>
      <trkpt lat="45.11893" lon="6.41403">
        <ele>1749.8</ele>
        <time>2017-04-16T13:29:13Z</time>
      </trkpt>
      <trkpt lat="45.1189" lon="6.41408">
        <ele>1743.8</ele>
        <time>2017-04-16T13:29:18Z</time>
      </trkpt>
      <trkpt lat="45.11891" lon="6.41412">
        <ele>1746.4</ele>
        <time>2017-04-16T13:29:23Z</time>
      </trkpt>
      <trkpt lat="45.11892" lon="6.41415">
        <ele>1742.4</ele>
        <time>2017-04-16T13:29:28Z</time>
      </trkpt>
      <trkpt lat="45.11894" lon="6.41419">
        <ele>1739.8</ele>
        <time>2017-04-16T13:29:33Z</time>
      </trkpt>
      <trkpt lat="45.11897" lon="6.41422">
        <ele>1740.4</ele>
        <time>2017-04-16T13:29:38Z</time>
      </trkpt>
      <trkpt lat="45.11899" lon="6.41424">
        <ele>1737.2</ele>
        <time>2017-04-16T13:29:43Z</time>
      </trkpt>
      <trkpt lat="45.11904" lon="6.41428">
        <ele>1734.8</ele>
        <time>2017-04-16T13:29:48Z</time>
      </trkpt>
      <trkpt lat="45.11904" lon="6.41439">
        <ele>1728.2</ele>
        <time>2017-04-16T13:30:13Z</time>
      </trkpt>
      <trkpt lat="45.11906" lon="6.41446">
        <ele>1726.2</ele>
        <time>2017-04-16T13:30:23Z</time>
      </trkpt>
      <trkpt lat="45.11908" lon="6.41449">
        <ele>1721.8</ele>
        <time>2017-04-16T13:30:28Z</time>
      </trkpt>
      <trkpt lat="45.1191" lon="6.41453">
        <ele>1721.4</ele>
        <time>2017-04-16T13:30:33Z</time>
      </trkpt>
      <trkpt lat="45.11915" lon="6.41456">
        <ele>1725.2</ele>
        <time>2017-04-16T13:30:38Z</time>
      </trkpt>
      <trkpt lat="45.11915" lon="6.41461">
        <ele>1722.2</ele>
        <time>2017-04-16T13:30:43Z</time>
      </trkpt>
      <trkpt lat="45.11916" lon="6.41468">
        <ele>1720</ele>
        <time>2017-04-16T13:30:48Z</time>
      </trkpt>
      <trkpt lat="45.11919" lon="6.41473">
        <ele>1718.4</ele>
        <time>2017-04-16T13:30:53Z</time>
      </trkpt>
      <trkpt lat="45.11922" lon="6.41479">
        <ele>1717.8</ele>
        <time>2017-04-16T13:30:58Z</time>
      </trkpt>
      <trkpt lat="45.11925" lon="6.41481">
        <ele>1714.4</ele>
        <time>2017-04-16T13:31:03Z</time>
      </trkpt>
      <trkpt lat="45.11929" lon="6.41485">
        <ele>1711.4</ele>
        <time>2017-04-16T13:31:08Z</time>
      </trkpt>
      <trkpt lat="45.11933" lon="6.41489">
        <ele>1708.2</ele>
        <time>2017-04-16T13:31:13Z</time>
      </trkpt>
      <trkpt lat="45.11937" lon="6.4149">
        <ele>1710.2</ele>
        <time>2017-04-16T13:31:18Z</time>
      </trkpt>
      <trkpt lat="45.11943" lon="6.41493">
        <ele>1707.2</ele>
        <time>2017-04-16T13:31:23Z</time>
      </trkpt>
      <trkpt lat="45.11943" lon="6.41494">
        <ele>1708</ele>
        <time>2017-04-16T13:31:28Z</time>
      </trkpt>
      <trkpt lat="45.11947" lon="6.41494">
        <ele>1711.8</ele>
        <time>2017-04-16T13:31:33Z</time>
      </trkpt>
      <trkpt lat="45.11949" lon="6.41498">
        <ele>1709.6</ele>
        <time>2017-04-16T13:31:38Z</time>
      </trkpt>
      <trkpt lat="45.11954" lon="6.41502">
        <ele>1707.2</ele>
        <time>2017-04-16T13:31:43Z</time>
      </trkpt>
      <trkpt lat="45.11956" lon="6.41508">
        <ele>1709.6</ele>
        <time>2017-04-16T13:31:48Z</time>
      </trkpt>
      <trkpt lat="45.11956" lon="6.41514">
        <ele>1704.2</ele>
        <time>2017-04-16T13:31:53Z</time>
      </trkpt>
      <trkpt lat="45.11955" lon="6.4152">
        <ele>1706.2</ele>
        <time>2017-04-16T13:31:58Z</time>
      </trkpt>
      <trkpt lat="45.11956" lon="6.41526">
        <ele>1703.6</ele>
        <time>2017-04-16T13:32:03Z</time>
      </trkpt>
      <trkpt lat="45.11958" lon="6.41528">
        <ele>1703.8</ele>
        <time>2017-04-16T13:32:08Z</time>
      </trkpt>
      <trkpt lat="45.11959" lon="6.4153">
        <ele>1710.4</ele>
        <time>2017-04-16T13:32:13Z</time>
      </trkpt>
      <trkpt lat="45.11957" lon="6.41535">
        <ele>1708</ele>
        <time>2017-04-16T13:32:18Z</time>
      </trkpt>
      <trkpt lat="45.11957" lon="6.41537">
        <ele>1706.6</ele>
        <time>2017-04-16T13:32:23Z</time>
      </trkpt>
      <trkpt lat="45.11953" lon="6.41542">
        <ele>1708.4</ele>
        <time>2017-04-16T13:32:38Z</time>
      </trkpt>
      <trkpt lat="45.1195" lon="6.41547">
        <ele>1709.8</ele>
        <time>2017-04-16T13:32:43Z</time>
      </trkpt>
      <trkpt lat="45.11951" lon="6.4155">
        <ele>1711</ele>
        <time>2017-04-16T13:32:48Z</time>
      </trkpt>
      <trkpt lat="45.11951" lon="6.41555">
        <ele>1712.6</ele>
        <time>2017-04-16T13:32:53Z</time>
      </trkpt>
      <trkpt lat="45.1195" lon="6.4156">
        <ele>1709.8</ele>
        <time>2017-04-16T13:32:58Z</time>
      </trkpt>
      <trkpt lat="45.1195" lon="6.41565">
        <ele>1711.2</ele>
        <time>2017-04-16T13:33:03Z</time>
      </trkpt>
      <trkpt lat="45.1195" lon="6.41571">
        <ele>1712.6</ele>
        <time>2017-04-16T13:33:08Z</time>
      </trkpt>
      <trkpt lat="45.11948" lon="6.41578">
        <ele>1711.6</ele>
        <time>2017-04-16T13:33:13Z</time>
      </trkpt>
      <trkpt lat="45.11947" lon="6.41584">
        <ele>1712.8</ele>
        <time>2017-04-16T13:33:18Z</time>
      </trkpt>
      <trkpt lat="45.11948" lon="6.4159">
        <ele>1708.4</ele>
        <time>2017-04-16T13:33:23Z</time>
      </trkpt>
      <trkpt lat="45.11949" lon="6.41601">
        <ele>1703</ele>
        <time>2017-04-16T13:33:33Z</time>
      </trkpt>
      <trkpt lat="45.1195" lon="6.41606">
        <ele>1703</ele>
        <time>2017-04-16T13:33:38Z</time>
      </trkpt>
      <trkpt lat="45.11953" lon="6.41612">
        <ele>1704.6</ele>
        <time>2017-04-16T13:33:43Z</time>
      </trkpt>
      <trkpt lat="45.11957" lon="6.41624">
        <ele>1701.6</ele>
        <time>2017-04-16T13:33:48Z</time>
      </trkpt>
      <trkpt lat="45.11956" lon="6.41633">
        <ele>1701.6</ele>
        <time>2017-04-16T13:33:53Z</time>
      </trkpt>
      <trkpt lat="45.11958" lon="6.41639">
        <ele>1704.8</ele>
        <time>2017-04-16T13:33:58Z</time>
      </trkpt>
      <trkpt lat="45.11959" lon="6.41644">
        <ele>1701.8</ele>
        <time>2017-04-16T13:34:03Z</time>
      </trkpt>
      <trkpt lat="45.11958" lon="6.41652">
        <ele>1698.4</ele>
        <time>2017-04-16T13:34:08Z</time>
      </trkpt>
      <trkpt lat="45.11955" lon="6.41657">
        <ele>1696.8</ele>
        <time>2017-04-16T13:34:13Z</time>
      </trkpt>
      <trkpt lat="45.11955" lon="6.41657">
        <ele>1696.8</ele>
        <time>2017-04-16T13:34:23Z</time>
      </trkpt>
      <trkpt lat="45.11954" lon="6.41658">
        <ele>1697</ele>
        <time>2017-04-16T13:34:28Z</time>
      </trkpt>
      <trkpt lat="45.11953" lon="6.41657">
        <ele>1697.2</ele>
        <time>2017-04-16T13:34:43Z</time>
      </trkpt>
      <trkpt lat="45.11956" lon="6.41658">
        <ele>1696.2</ele>
        <time>2017-04-16T13:34:48Z</time>
      </trkpt>
      <trkpt lat="45.11958" lon="6.41666">
        <ele>1698.6</ele>
        <time>2017-04-16T13:34:53Z</time>
      </trkpt>
      <trkpt lat="45.11956" lon="6.41673">
        <ele>1700.6</ele>
        <time>2017-04-16T13:34:58Z</time>
      </trkpt>
      <trkpt lat="45.11953" lon="6.41679">
        <ele>1701.8</ele>
        <time>2017-04-16T13:35:03Z</time>
      </trkpt>
      <trkpt lat="45.1195" lon="6.41683">
        <ele>1701</ele>
        <time>2017-04-16T13:35:08Z</time>
      </trkpt>
      <trkpt lat="45.11948" lon="6.41687">
        <ele>1706.2</ele>
        <time>2017-04-16T13:35:13Z</time>
      </trkpt>
      <trkpt lat="45.11944" lon="6.41691">
        <ele>1702</ele>
        <time>2017-04-16T13:35:18Z</time>
      </trkpt>
      <trkpt lat="45.11938" lon="6.41694">
        <ele>1703.8</ele>
        <time>2017-04-16T13:35:23Z</time>
      </trkpt>
      <trkpt lat="45.11933" lon="6.41696">
        <ele>1705.6</ele>
        <time>2017-04-16T13:35:28Z</time>
      </trkpt>
      <trkpt lat="45.11929" lon="6.41699">
        <ele>1703.6</ele>
        <time>2017-04-16T13:35:33Z</time>
      </trkpt>
      <trkpt lat="45.11927" lon="6.417">
        <ele>1704.8</ele>
        <time>2017-04-16T13:35:38Z</time>
      </trkpt>
      <trkpt lat="45.11921" lon="6.41707">
        <ele>1703.2</ele>
        <time>2017-04-16T13:35:43Z</time>
      </trkpt>
      <trkpt lat="45.11918" lon="6.4171">
        <ele>1705.2</ele>
        <time>2017-04-16T13:35:48Z</time>
      </trkpt>
      <trkpt lat="45.11918" lon="6.41714">
        <ele>1705.2</ele>
        <time>2017-04-16T13:35:53Z</time>
      </trkpt>
      <trkpt lat="45.11913" lon="6.41719">
        <ele>1706.2</ele>
        <time>2017-04-16T13:35:58Z</time>
      </trkpt>
      <trkpt lat="45.11909" lon="6.41725">
        <ele>1705.2</ele>
        <time>2017-04-16T13:36:03Z</time>
      </trkpt>
      <trkpt lat="45.11906" lon="6.41731">
        <ele>1702.6</ele>
        <time>2017-04-16T13:36:08Z</time>
      </trkpt>
      <trkpt lat="45.11902" lon="6.41736">
        <ele>1702.2</ele>
        <time>2017-04-16T13:36:13Z</time>
      </trkpt>
      <trkpt lat="45.11907" lon="6.41747">
        <ele>1700.4</ele>
        <time>2017-04-16T13:36:28Z</time>
      </trkpt>
      <trkpt lat="45.1191" lon="6.41746">
        <ele>1702.4</ele>
        <time>2017-04-16T13:36:33Z</time>
      </trkpt>
      <trkpt lat="45.11914" lon="6.41748">
        <ele>1701.2</ele>
        <time>2017-04-16T13:36:38Z</time>
      </trkpt>
      <trkpt lat="45.11916" lon="6.41754">
        <ele>1699.4</ele>
        <time>2017-04-16T13:36:43Z</time>
      </trkpt>
      <trkpt lat="45.11919" lon="6.41755">
        <ele>1699.6</ele>
        <time>2017-04-16T13:36:48Z</time>
      </trkpt>
      <trkpt lat="45.11921" lon="6.41755">
        <ele>1701</ele>
        <time>2017-04-16T13:36:53Z</time>
      </trkpt>
      <trkpt lat="45.11926" lon="6.41752">
        <ele>1702.8</ele>
        <time>2017-04-16T13:36:58Z</time>
      </trkpt>
      <trkpt lat="45.1193" lon="6.41753">
        <ele>1702.8</ele>
        <time>2017-04-16T13:37:03Z</time>
      </trkpt>
      <trkpt lat="45.11934" lon="6.41758">
        <ele>1700.8</ele>
        <time>2017-04-16T13:37:08Z</time>
      </trkpt>
      <trkpt lat="45.11939" lon="6.41761">
        <ele>1701</ele>
        <time>2017-04-16T13:37:13Z</time>
      </trkpt>
      <trkpt lat="45.11943" lon="6.41763">
        <ele>1701.6</ele>
        <time>2017-04-16T13:37:18Z</time>
      </trkpt>
      <trkpt lat="45.11947" lon="6.41764">
        <ele>1701.2</ele>
        <time>2017-04-16T13:37:23Z</time>
      </trkpt>
      <trkpt lat="45.11952" lon="6.41766">
        <ele>1700.2</ele>
        <time>2017-04-16T13:37:28Z</time>
      </trkpt>
      <trkpt lat="45.11957" lon="6.41767">
        <ele>1702.8</ele>
        <time>2017-04-16T13:37:33Z</time>
      </trkpt>
      <trkpt lat="45.11963" lon="6.4177">
        <ele>1703.8</ele>
        <time>2017-04-16T13:37:39Z</time>
      </trkpt>
      <trkpt lat="45.11968" lon="6.41772">
        <ele>1706.6</ele>
        <time>2017-04-16T13:37:44Z</time>
      </trkpt>
      <trkpt lat="45.11974" lon="6.41773">
        <ele>1701.4</ele>
        <time>2017-04-16T13:37:49Z</time>
      </trkpt>
      <trkpt lat="45.11981" lon="6.41774">
        <ele>1701.8</ele>
        <time>2017-04-16T13:37:54Z</time>
      </trkpt>
      <trkpt lat="45.11987" lon="6.41774">
        <ele>1704.8</ele>
        <time>2017-04-16T13:37:59Z</time>
      </trkpt>
      <trkpt lat="45.11993" lon="6.41774">
        <ele>1702.2</ele>
        <time>2017-04-16T13:38:04Z</time>
      </trkpt>
      <trkpt lat="45.11999" lon="6.41775">
        <ele>1703.8</ele>
        <time>2017-04-16T13:38:09Z</time>
      </trkpt>
      <trkpt lat="45.12006" lon="6.41776">
        <ele>1704.6</ele>
        <time>2017-04-16T13:38:14Z</time>
      </trkpt>
      <trkpt lat="45.12012" lon="6.41777">
        <ele>1702.6</ele>
        <time>2017-04-16T13:38:19Z</time>
      </trkpt>
      <trkpt lat="45.12018" lon="6.41779">
        <ele>1701.6</ele>
        <time>2017-04-16T13:38:24Z</time>
      </trkpt>
      <trkpt lat="45.12022" lon="6.41779">
        <ele>1704.2</ele>
        <time>2017-04-16T13:38:29Z</time>
      </trkpt>
      <trkpt lat="45.12028" lon="6.41779">
        <ele>1699.8</ele>
        <time>2017-04-16T13:38:34Z</time>
      </trkpt>
      <trkpt lat="45.12031" lon="6.4178">
        <ele>1703</ele>
        <time>2017-04-16T13:38:39Z</time>
      </trkpt>
      <trkpt lat="45.12036" lon="6.41781">
        <ele>1703.8</ele>
        <time>2017-04-16T13:38:44Z</time>
      </trkpt>
      <trkpt lat="45.12039" lon="6.4178">
        <ele>1698.8</ele>
        <time>2017-04-16T13:39:29Z</time>
      </trkpt>
      <trkpt lat="45.12038" lon="6.4178">
        <ele>1698.6</ele>
        <time>2017-04-16T13:39:39Z</time>
      </trkpt>
      <trkpt lat="45.1204" lon="6.41779">
        <ele>1698.6</ele>
        <time>2017-04-16T13:39:44Z</time>
      </trkpt>
      <trkpt lat="45.12044" lon="6.4178">
        <ele>1700.6</ele>
        <time>2017-04-16T13:39:49Z</time>
      </trkpt>
      <trkpt lat="45.12049" lon="6.41779">
        <ele>1698.6</ele>
        <time>2017-04-16T13:39:54Z</time>
      </trkpt>
      <trkpt lat="45.12055" lon="6.41779">
        <ele>1697.4</ele>
        <time>2017-04-16T13:39:59Z</time>
      </trkpt>
      <trkpt lat="45.12061" lon="6.4178">
        <ele>1696.6</ele>
        <time>2017-04-16T13:40:04Z</time>
      </trkpt>
      <trkpt lat="45.12067" lon="6.4178">
        <ele>1697</ele>
        <time>2017-04-16T13:40:09Z</time>
      </trkpt>
      <trkpt lat="45.12072" lon="6.41778">
        <ele>1697.2</ele>
        <time>2017-04-16T13:40:14Z</time>
      </trkpt>
      <trkpt lat="45.12078" lon="6.41776">
        <ele>1694.4</ele>
        <time>2017-04-16T13:40:19Z</time>
      </trkpt>
      <trkpt lat="45.12083" lon="6.41775">
        <ele>1694</ele>
        <time>2017-04-16T13:40:24Z</time>
      </trkpt>
      <trkpt lat="45.12089" lon="6.41774">
        <ele>1695.6</ele>
        <time>2017-04-16T13:40:29Z</time>
      </trkpt>
      <trkpt lat="45.12091" lon="6.41772">
        <ele>1696.4</ele>
        <time>2017-04-16T13:40:34Z</time>
      </trkpt>
      <trkpt lat="45.12092" lon="6.41771">
        <ele>1693.2</ele>
        <time>2017-04-16T13:40:39Z</time>
      </trkpt>
      <trkpt lat="45.12092" lon="6.41769">
        <ele>1691.4</ele>
        <time>2017-04-16T13:40:49Z</time>
      </trkpt>
      <trkpt lat="45.12092" lon="6.41768">
        <ele>1691</ele>
        <time>2017-04-16T13:40:59Z</time>
      </trkpt>
      <trkpt lat="45.12092" lon="6.41768">
        <ele>1686.2</ele>
        <time>2017-04-16T13:42:19Z</time>
      </trkpt>
      <trkpt lat="45.12091" lon="6.41767">
        <ele>1685.4</ele>
        <time>2017-04-16T13:42:34Z</time>
      </trkpt>
      <trkpt lat="45.1209" lon="6.41766">
        <ele>1684.6</ele>
        <time>2017-04-16T13:42:40Z</time>
      </trkpt>
    </trkseg>
  </trk>
</gpx>